<?xml version="1.0" encoding="UTF-8" standalone="no" ?>
<gpx xmlns="http://www.topografix.com/GPX/1/1" xmlns:xsi="http://www.w3.org/2001/XMLSchema-instance" xsi:schemaLocation="http://www.topografix.com/GPX/1/1 http://www.topografix.com/GPX/1/1/gpx.xsd" version="1.1" creator="VisuGPX - https://www.visugpx.com">
  <metadata>
    <name>vtt 160214</name>
    <desc><![CDATA[Rando VTT du 160214 
DANS LA BOUE
 ]]></desc>
  </metadata>
  <trk>
    <name><![CDATA[vtt 160214_1]]></name>
    <trkseg>
      <trkpt lat="47.32891" lon="-0.66594">
        <ele>15</ele>
        <time>2014-02-16T07:56:29+00:00</time>
      </trkpt>
      <trkpt lat="47.32891" lon="-0.66594">
        <ele>15</ele>
        <time>2014-02-16T07:56:30+00:00</time>
      </trkpt>
      <trkpt lat="47.32887" lon="-0.66556">
        <ele>26</ele>
        <time>2014-02-16T08:01:07+00:00</time>
      </trkpt>
      <trkpt lat="47.32887" lon="-0.66551">
        <ele>26</ele>
        <time>2014-02-16T08:01:08+00:00</time>
      </trkpt>
      <trkpt lat="47.32888" lon="-0.66548">
        <ele>27</ele>
        <time>2014-02-16T08:01:09+00:00</time>
      </trkpt>
      <trkpt lat="47.32889" lon="-0.66546">
        <ele>27</ele>
        <time>2014-02-16T08:01:10+00:00</time>
      </trkpt>
      <trkpt lat="47.3289" lon="-0.66543">
        <ele>27</ele>
        <time>2014-02-16T08:01:11+00:00</time>
      </trkpt>
      <trkpt lat="47.32891" lon="-0.66541">
        <ele>29</ele>
        <time>2014-02-16T08:01:12+00:00</time>
      </trkpt>
      <trkpt lat="47.32893" lon="-0.66537">
        <ele>28</ele>
        <time>2014-02-16T08:01:14+00:00</time>
      </trkpt>
      <trkpt lat="47.32894" lon="-0.66536">
        <ele>28</ele>
        <time>2014-02-16T08:01:15+00:00</time>
      </trkpt>
      <trkpt lat="47.32894" lon="-0.66536">
        <ele>29</ele>
        <time>2014-02-16T08:01:16+00:00</time>
      </trkpt>
      <trkpt lat="47.32894" lon="-0.66537">
        <ele>30</ele>
        <time>2014-02-16T08:01:17+00:00</time>
      </trkpt>
      <trkpt lat="47.32894" lon="-0.66537">
        <ele>27</ele>
        <time>2014-02-16T08:01:18+00:00</time>
      </trkpt>
      <trkpt lat="47.32892" lon="-0.66538">
        <ele>30</ele>
        <time>2014-02-16T08:01:19+00:00</time>
      </trkpt>
      <trkpt lat="47.3289" lon="-0.66539">
        <ele>30</ele>
        <time>2014-02-16T08:01:20+00:00</time>
      </trkpt>
      <trkpt lat="47.32887" lon="-0.6654">
        <ele>30</ele>
        <time>2014-02-16T08:01:21+00:00</time>
      </trkpt>
      <trkpt lat="47.32884" lon="-0.66541">
        <ele>30</ele>
        <time>2014-02-16T08:01:22+00:00</time>
      </trkpt>
      <trkpt lat="47.32876" lon="-0.66547">
        <ele>29</ele>
        <time>2014-02-16T08:01:25+00:00</time>
      </trkpt>
      <trkpt lat="47.32875" lon="-0.66548">
        <ele>30</ele>
        <time>2014-02-16T08:01:26+00:00</time>
      </trkpt>
      <trkpt lat="47.32873" lon="-0.66548">
        <ele>31</ele>
        <time>2014-02-16T08:01:27+00:00</time>
      </trkpt>
      <trkpt lat="47.32871" lon="-0.66548">
        <ele>31</ele>
        <time>2014-02-16T08:01:28+00:00</time>
      </trkpt>
      <trkpt lat="47.32869" lon="-0.66548">
        <ele>32</ele>
        <time>2014-02-16T08:01:29+00:00</time>
      </trkpt>
      <trkpt lat="47.32868" lon="-0.66549">
        <ele>34</ele>
        <time>2014-02-16T08:01:30+00:00</time>
      </trkpt>
      <trkpt lat="47.32868" lon="-0.66552">
        <ele>30</ele>
        <time>2014-02-16T08:01:31+00:00</time>
      </trkpt>
      <trkpt lat="47.32867" lon="-0.66555">
        <ele>29</ele>
        <time>2014-02-16T08:01:32+00:00</time>
      </trkpt>
      <trkpt lat="47.32867" lon="-0.66556">
        <ele>30</ele>
        <time>2014-02-16T08:01:33+00:00</time>
      </trkpt>
      <trkpt lat="47.32868" lon="-0.66557">
        <ele>30</ele>
        <time>2014-02-16T08:01:34+00:00</time>
      </trkpt>
      <trkpt lat="47.32868" lon="-0.66557">
        <ele>30</ele>
        <time>2014-02-16T08:01:36+00:00</time>
      </trkpt>
      <trkpt lat="47.32869" lon="-0.66557">
        <ele>30</ele>
        <time>2014-02-16T08:01:37+00:00</time>
      </trkpt>
      <trkpt lat="47.32871" lon="-0.66557">
        <ele>30</ele>
        <time>2014-02-16T08:01:38+00:00</time>
      </trkpt>
      <trkpt lat="47.32872" lon="-0.66558">
        <ele>31</ele>
        <time>2014-02-16T08:01:39+00:00</time>
      </trkpt>
      <trkpt lat="47.32873" lon="-0.66558">
        <ele>31</ele>
        <time>2014-02-16T08:01:40+00:00</time>
      </trkpt>
      <trkpt lat="47.32875" lon="-0.66559">
        <ele>31</ele>
        <time>2014-02-16T08:01:41+00:00</time>
      </trkpt>
      <trkpt lat="47.32876" lon="-0.66559">
        <ele>31</ele>
        <time>2014-02-16T08:01:42+00:00</time>
      </trkpt>
      <trkpt lat="47.32876" lon="-0.66558">
        <ele>32</ele>
        <time>2014-02-16T08:01:43+00:00</time>
      </trkpt>
      <trkpt lat="47.32872" lon="-0.6654">
        <ele>19</ele>
        <time>2014-02-16T08:05:03+00:00</time>
      </trkpt>
      <trkpt lat="47.32871" lon="-0.66537">
        <ele>18</ele>
        <time>2014-02-16T08:05:04+00:00</time>
      </trkpt>
      <trkpt lat="47.32871" lon="-0.66534">
        <ele>18</ele>
        <time>2014-02-16T08:05:05+00:00</time>
      </trkpt>
      <trkpt lat="47.3287" lon="-0.66531">
        <ele>19</ele>
        <time>2014-02-16T08:05:06+00:00</time>
      </trkpt>
      <trkpt lat="47.3287" lon="-0.66529">
        <ele>22</ele>
        <time>2014-02-16T08:05:07+00:00</time>
      </trkpt>
      <trkpt lat="47.32869" lon="-0.66526">
        <ele>24</ele>
        <time>2014-02-16T08:05:08+00:00</time>
      </trkpt>
      <trkpt lat="47.32869" lon="-0.66524">
        <ele>24</ele>
        <time>2014-02-16T08:05:09+00:00</time>
      </trkpt>
      <trkpt lat="47.32869" lon="-0.66522">
        <ele>25</ele>
        <time>2014-02-16T08:05:10+00:00</time>
      </trkpt>
      <trkpt lat="47.32869" lon="-0.66519">
        <ele>24</ele>
        <time>2014-02-16T08:05:11+00:00</time>
      </trkpt>
      <trkpt lat="47.32869" lon="-0.66518">
        <ele>24</ele>
        <time>2014-02-16T08:05:12+00:00</time>
      </trkpt>
      <trkpt lat="47.3287" lon="-0.66517">
        <ele>25</ele>
        <time>2014-02-16T08:05:13+00:00</time>
      </trkpt>
      <trkpt lat="47.32871" lon="-0.66516">
        <ele>25</ele>
        <time>2014-02-16T08:05:14+00:00</time>
      </trkpt>
      <trkpt lat="47.32872" lon="-0.66515">
        <ele>26</ele>
        <time>2014-02-16T08:05:15+00:00</time>
      </trkpt>
      <trkpt lat="47.32873" lon="-0.66513">
        <ele>27</ele>
        <time>2014-02-16T08:05:16+00:00</time>
      </trkpt>
      <trkpt lat="47.32875" lon="-0.66511">
        <ele>27</ele>
        <time>2014-02-16T08:05:17+00:00</time>
      </trkpt>
      <trkpt lat="47.32892" lon="-0.66494">
        <ele>25</ele>
        <time>2014-02-16T08:05:26+00:00</time>
      </trkpt>
      <trkpt lat="47.32893" lon="-0.66492">
        <ele>25</ele>
        <time>2014-02-16T08:05:27+00:00</time>
      </trkpt>
      <trkpt lat="47.32899" lon="-0.66487">
        <ele>26</ele>
        <time>2014-02-16T08:05:30+00:00</time>
      </trkpt>
      <trkpt lat="47.329" lon="-0.66486">
        <ele>27</ele>
        <time>2014-02-16T08:05:31+00:00</time>
      </trkpt>
      <trkpt lat="47.32902" lon="-0.66484">
        <ele>27</ele>
        <time>2014-02-16T08:05:32+00:00</time>
      </trkpt>
      <trkpt lat="47.32905" lon="-0.66483">
        <ele>28</ele>
        <time>2014-02-16T08:05:33+00:00</time>
      </trkpt>
      <trkpt lat="47.32907" lon="-0.66481">
        <ele>27</ele>
        <time>2014-02-16T08:05:34+00:00</time>
      </trkpt>
      <trkpt lat="47.32929" lon="-0.66467">
        <ele>27</ele>
        <time>2014-02-16T08:05:44+00:00</time>
      </trkpt>
      <trkpt lat="47.32932" lon="-0.66466">
        <ele>27</ele>
        <time>2014-02-16T08:05:45+00:00</time>
      </trkpt>
      <trkpt lat="47.32933" lon="-0.66466">
        <ele>27</ele>
        <time>2014-02-16T08:05:46+00:00</time>
      </trkpt>
      <trkpt lat="47.32935" lon="-0.66464">
        <ele>26</ele>
        <time>2014-02-16T08:05:47+00:00</time>
      </trkpt>
      <trkpt lat="47.32939" lon="-0.66463">
        <ele>27</ele>
        <time>2014-02-16T08:05:49+00:00</time>
      </trkpt>
      <trkpt lat="47.3294" lon="-0.66461">
        <ele>28</ele>
        <time>2014-02-16T08:05:50+00:00</time>
      </trkpt>
      <trkpt lat="47.32957" lon="-0.66447">
        <ele>28</ele>
        <time>2014-02-16T08:05:57+00:00</time>
      </trkpt>
      <trkpt lat="47.32959" lon="-0.66444">
        <ele>28</ele>
        <time>2014-02-16T08:05:58+00:00</time>
      </trkpt>
      <trkpt lat="47.32967" lon="-0.66437">
        <ele>31</ele>
        <time>2014-02-16T08:06:02+00:00</time>
      </trkpt>
      <trkpt lat="47.32969" lon="-0.66436">
        <ele>30</ele>
        <time>2014-02-16T08:06:03+00:00</time>
      </trkpt>
      <trkpt lat="47.32981" lon="-0.66428">
        <ele>32</ele>
        <time>2014-02-16T08:06:08+00:00</time>
      </trkpt>
      <trkpt lat="47.32984" lon="-0.66426">
        <ele>32</ele>
        <time>2014-02-16T08:06:09+00:00</time>
      </trkpt>
      <trkpt lat="47.32993" lon="-0.66417">
        <ele>31</ele>
        <time>2014-02-16T08:06:13+00:00</time>
      </trkpt>
      <trkpt lat="47.32995" lon="-0.66416">
        <ele>31</ele>
        <time>2014-02-16T08:06:14+00:00</time>
      </trkpt>
      <trkpt lat="47.33002" lon="-0.66411">
        <ele>30</ele>
        <time>2014-02-16T08:06:17+00:00</time>
      </trkpt>
      <trkpt lat="47.33004" lon="-0.6641">
        <ele>31</ele>
        <time>2014-02-16T08:06:18+00:00</time>
      </trkpt>
      <trkpt lat="47.33006" lon="-0.66409">
        <ele>31</ele>
        <time>2014-02-16T08:06:19+00:00</time>
      </trkpt>
      <trkpt lat="47.33008" lon="-0.66408">
        <ele>31</ele>
        <time>2014-02-16T08:06:20+00:00</time>
      </trkpt>
      <trkpt lat="47.33017" lon="-0.66403">
        <ele>31</ele>
        <time>2014-02-16T08:06:24+00:00</time>
      </trkpt>
      <trkpt lat="47.33019" lon="-0.66401">
        <ele>31</ele>
        <time>2014-02-16T08:06:25+00:00</time>
      </trkpt>
      <trkpt lat="47.3302" lon="-0.66399">
        <ele>31</ele>
        <time>2014-02-16T08:06:26+00:00</time>
      </trkpt>
      <trkpt lat="47.33022" lon="-0.66398">
        <ele>31</ele>
        <time>2014-02-16T08:06:27+00:00</time>
      </trkpt>
      <trkpt lat="47.33028" lon="-0.66394">
        <ele>31</ele>
        <time>2014-02-16T08:06:30+00:00</time>
      </trkpt>
      <trkpt lat="47.3303" lon="-0.66392">
        <ele>31</ele>
        <time>2014-02-16T08:06:31+00:00</time>
      </trkpt>
      <trkpt lat="47.33033" lon="-0.66391">
        <ele>31</ele>
        <time>2014-02-16T08:06:32+00:00</time>
      </trkpt>
      <trkpt lat="47.33035" lon="-0.66389">
        <ele>30</ele>
        <time>2014-02-16T08:06:33+00:00</time>
      </trkpt>
      <trkpt lat="47.33038" lon="-0.66387">
        <ele>30</ele>
        <time>2014-02-16T08:06:35+00:00</time>
      </trkpt>
      <trkpt lat="47.3304" lon="-0.66385">
        <ele>30</ele>
        <time>2014-02-16T08:06:36+00:00</time>
      </trkpt>
      <trkpt lat="47.33047" lon="-0.6638">
        <ele>29</ele>
        <time>2014-02-16T08:06:40+00:00</time>
      </trkpt>
      <trkpt lat="47.33049" lon="-0.66378">
        <ele>30</ele>
        <time>2014-02-16T08:06:41+00:00</time>
      </trkpt>
      <trkpt lat="47.33052" lon="-0.66377">
        <ele>31</ele>
        <time>2014-02-16T08:06:42+00:00</time>
      </trkpt>
      <trkpt lat="47.33053" lon="-0.66375">
        <ele>31</ele>
        <time>2014-02-16T08:06:43+00:00</time>
      </trkpt>
      <trkpt lat="47.33055" lon="-0.66373">
        <ele>31</ele>
        <time>2014-02-16T08:06:44+00:00</time>
      </trkpt>
      <trkpt lat="47.33057" lon="-0.66372">
        <ele>30</ele>
        <time>2014-02-16T08:06:45+00:00</time>
      </trkpt>
      <trkpt lat="47.33058" lon="-0.66371">
        <ele>31</ele>
        <time>2014-02-16T08:06:46+00:00</time>
      </trkpt>
      <trkpt lat="47.33073" lon="-0.66357">
        <ele>31</ele>
        <time>2014-02-16T08:06:55+00:00</time>
      </trkpt>
      <trkpt lat="47.33074" lon="-0.66356">
        <ele>30</ele>
        <time>2014-02-16T08:06:56+00:00</time>
      </trkpt>
      <trkpt lat="47.33075" lon="-0.66355">
        <ele>30</ele>
        <time>2014-02-16T08:06:57+00:00</time>
      </trkpt>
      <trkpt lat="47.33076" lon="-0.66353">
        <ele>31</ele>
        <time>2014-02-16T08:06:58+00:00</time>
      </trkpt>
      <trkpt lat="47.33076" lon="-0.6635">
        <ele>31</ele>
        <time>2014-02-16T08:06:59+00:00</time>
      </trkpt>
      <trkpt lat="47.33076" lon="-0.66348">
        <ele>31</ele>
        <time>2014-02-16T08:07:00+00:00</time>
      </trkpt>
      <trkpt lat="47.33075" lon="-0.66341">
        <ele>31</ele>
        <time>2014-02-16T08:07:02+00:00</time>
      </trkpt>
      <trkpt lat="47.33075" lon="-0.66339">
        <ele>31</ele>
        <time>2014-02-16T08:07:03+00:00</time>
      </trkpt>
      <trkpt lat="47.33074" lon="-0.66335">
        <ele>31</ele>
        <time>2014-02-16T08:07:04+00:00</time>
      </trkpt>
      <trkpt lat="47.33074" lon="-0.66332">
        <ele>31</ele>
        <time>2014-02-16T08:07:05+00:00</time>
      </trkpt>
      <trkpt lat="47.33072" lon="-0.6632">
        <ele>33</ele>
        <time>2014-02-16T08:07:09+00:00</time>
      </trkpt>
      <trkpt lat="47.33071" lon="-0.66316">
        <ele>32</ele>
        <time>2014-02-16T08:07:10+00:00</time>
      </trkpt>
      <trkpt lat="47.33068" lon="-0.66284">
        <ele>34</ele>
        <time>2014-02-16T08:07:20+00:00</time>
      </trkpt>
      <trkpt lat="47.33067" lon="-0.66282">
        <ele>33</ele>
        <time>2014-02-16T08:07:21+00:00</time>
      </trkpt>
      <trkpt lat="47.33066" lon="-0.66276">
        <ele>34</ele>
        <time>2014-02-16T08:07:23+00:00</time>
      </trkpt>
      <trkpt lat="47.33065" lon="-0.66274">
        <ele>34</ele>
        <time>2014-02-16T08:07:24+00:00</time>
      </trkpt>
      <trkpt lat="47.33064" lon="-0.66271">
        <ele>34</ele>
        <time>2014-02-16T08:07:25+00:00</time>
      </trkpt>
      <trkpt lat="47.33064" lon="-0.66268">
        <ele>35</ele>
        <time>2014-02-16T08:07:26+00:00</time>
      </trkpt>
      <trkpt lat="47.33062" lon="-0.66261">
        <ele>35</ele>
        <time>2014-02-16T08:07:29+00:00</time>
      </trkpt>
      <trkpt lat="47.33061" lon="-0.66259">
        <ele>35</ele>
        <time>2014-02-16T08:07:30+00:00</time>
      </trkpt>
      <trkpt lat="47.33061" lon="-0.66257">
        <ele>35</ele>
        <time>2014-02-16T08:07:31+00:00</time>
      </trkpt>
      <trkpt lat="47.3306" lon="-0.66248">
        <ele>36</ele>
        <time>2014-02-16T08:07:35+00:00</time>
      </trkpt>
      <trkpt lat="47.33059" lon="-0.66246">
        <ele>37</ele>
        <time>2014-02-16T08:07:36+00:00</time>
      </trkpt>
      <trkpt lat="47.33058" lon="-0.66241">
        <ele>39</ele>
        <time>2014-02-16T08:07:39+00:00</time>
      </trkpt>
      <trkpt lat="47.33058" lon="-0.66238">
        <ele>38</ele>
        <time>2014-02-16T08:07:40+00:00</time>
      </trkpt>
      <trkpt lat="47.33057" lon="-0.66235">
        <ele>38</ele>
        <time>2014-02-16T08:07:42+00:00</time>
      </trkpt>
      <trkpt lat="47.33057" lon="-0.66233">
        <ele>38</ele>
        <time>2014-02-16T08:07:43+00:00</time>
      </trkpt>
      <trkpt lat="47.33057" lon="-0.66231">
        <ele>39</ele>
        <time>2014-02-16T08:07:44+00:00</time>
      </trkpt>
      <trkpt lat="47.33057" lon="-0.66228">
        <ele>39</ele>
        <time>2014-02-16T08:07:45+00:00</time>
      </trkpt>
      <trkpt lat="47.33058" lon="-0.66223">
        <ele>40</ele>
        <time>2014-02-16T08:07:48+00:00</time>
      </trkpt>
      <trkpt lat="47.33058" lon="-0.66221">
        <ele>39</ele>
        <time>2014-02-16T08:07:49+00:00</time>
      </trkpt>
      <trkpt lat="47.33059" lon="-0.66217">
        <ele>39</ele>
        <time>2014-02-16T08:07:51+00:00</time>
      </trkpt>
      <trkpt lat="47.3306" lon="-0.66216">
        <ele>39</ele>
        <time>2014-02-16T08:07:52+00:00</time>
      </trkpt>
      <trkpt lat="47.3306" lon="-0.66214">
        <ele>39</ele>
        <time>2014-02-16T08:07:53+00:00</time>
      </trkpt>
      <trkpt lat="47.3306" lon="-0.66212">
        <ele>39</ele>
        <time>2014-02-16T08:07:54+00:00</time>
      </trkpt>
      <trkpt lat="47.33061" lon="-0.66211">
        <ele>39</ele>
        <time>2014-02-16T08:07:55+00:00</time>
      </trkpt>
      <trkpt lat="47.33063" lon="-0.66208">
        <ele>39</ele>
        <time>2014-02-16T08:07:57+00:00</time>
      </trkpt>
      <trkpt lat="47.33064" lon="-0.66206">
        <ele>40</ele>
        <time>2014-02-16T08:07:58+00:00</time>
      </trkpt>
      <trkpt lat="47.33069" lon="-0.66196">
        <ele>40</ele>
        <time>2014-02-16T08:08:04+00:00</time>
      </trkpt>
      <trkpt lat="47.33069" lon="-0.66196">
        <ele>40</ele>
        <time>2014-02-16T08:08:05+00:00</time>
      </trkpt>
      <trkpt lat="47.33069" lon="-0.66194">
        <ele>40</ele>
        <time>2014-02-16T08:08:06+00:00</time>
      </trkpt>
      <trkpt lat="47.33068" lon="-0.66193">
        <ele>41</ele>
        <time>2014-02-16T08:08:07+00:00</time>
      </trkpt>
      <trkpt lat="47.33068" lon="-0.66193">
        <ele>42</ele>
        <time>2014-02-16T08:08:08+00:00</time>
      </trkpt>
      <trkpt lat="47.33067" lon="-0.66194">
        <ele>42</ele>
        <time>2014-02-16T08:08:09+00:00</time>
      </trkpt>
      <trkpt lat="47.33051" lon="-0.66201">
        <ele>43</ele>
        <time>2014-02-16T08:08:18+00:00</time>
      </trkpt>
      <trkpt lat="47.33049" lon="-0.66202">
        <ele>42</ele>
        <time>2014-02-16T08:08:19+00:00</time>
      </trkpt>
      <trkpt lat="47.32997" lon="-0.66204">
        <ele>43</ele>
        <time>2014-02-16T08:08:32+00:00</time>
      </trkpt>
      <trkpt lat="47.32992" lon="-0.66204">
        <ele>42</ele>
        <time>2014-02-16T08:08:33+00:00</time>
      </trkpt>
      <trkpt lat="47.32958" lon="-0.66203">
        <ele>37</ele>
        <time>2014-02-16T08:08:41+00:00</time>
      </trkpt>
      <trkpt lat="47.32956" lon="-0.66202">
        <ele>36</ele>
        <time>2014-02-16T08:08:42+00:00</time>
      </trkpt>
      <trkpt lat="47.32955" lon="-0.662">
        <ele>37</ele>
        <time>2014-02-16T08:08:43+00:00</time>
      </trkpt>
      <trkpt lat="47.32955" lon="-0.66198">
        <ele>36</ele>
        <time>2014-02-16T08:08:44+00:00</time>
      </trkpt>
      <trkpt lat="47.32956" lon="-0.66196">
        <ele>35</ele>
        <time>2014-02-16T08:08:45+00:00</time>
      </trkpt>
      <trkpt lat="47.32956" lon="-0.66195">
        <ele>35</ele>
        <time>2014-02-16T08:08:46+00:00</time>
      </trkpt>
      <trkpt lat="47.32959" lon="-0.66195">
        <ele>36</ele>
        <time>2014-02-16T08:08:47+00:00</time>
      </trkpt>
      <trkpt lat="47.32984" lon="-0.66194">
        <ele>42</ele>
        <time>2014-02-16T08:08:58+00:00</time>
      </trkpt>
      <trkpt lat="47.32987" lon="-0.66194">
        <ele>42</ele>
        <time>2014-02-16T08:08:59+00:00</time>
      </trkpt>
      <trkpt lat="47.32988" lon="-0.66194">
        <ele>43</ele>
        <time>2014-02-16T08:09:00+00:00</time>
      </trkpt>
      <trkpt lat="47.32991" lon="-0.66194">
        <ele>43</ele>
        <time>2014-02-16T08:09:01+00:00</time>
      </trkpt>
      <trkpt lat="47.32993" lon="-0.66194">
        <ele>44</ele>
        <time>2014-02-16T08:09:02+00:00</time>
      </trkpt>
      <trkpt lat="47.32996" lon="-0.66193">
        <ele>44</ele>
        <time>2014-02-16T08:09:03+00:00</time>
      </trkpt>
      <trkpt lat="47.33" lon="-0.66192">
        <ele>45</ele>
        <time>2014-02-16T08:09:05+00:00</time>
      </trkpt>
      <trkpt lat="47.33002" lon="-0.66192">
        <ele>45</ele>
        <time>2014-02-16T08:09:06+00:00</time>
      </trkpt>
      <trkpt lat="47.33004" lon="-0.66192">
        <ele>45</ele>
        <time>2014-02-16T08:09:07+00:00</time>
      </trkpt>
      <trkpt lat="47.33006" lon="-0.66192">
        <ele>46</ele>
        <time>2014-02-16T08:09:08+00:00</time>
      </trkpt>
      <trkpt lat="47.33014" lon="-0.66191">
        <ele>47</ele>
        <time>2014-02-16T08:09:12+00:00</time>
      </trkpt>
      <trkpt lat="47.33016" lon="-0.6619">
        <ele>48</ele>
        <time>2014-02-16T08:09:13+00:00</time>
      </trkpt>
      <trkpt lat="47.3302" lon="-0.6619">
        <ele>50</ele>
        <time>2014-02-16T08:09:16+00:00</time>
      </trkpt>
      <trkpt lat="47.33022" lon="-0.66189">
        <ele>51</ele>
        <time>2014-02-16T08:09:17+00:00</time>
      </trkpt>
      <trkpt lat="47.33023" lon="-0.66189">
        <ele>51</ele>
        <time>2014-02-16T08:09:18+00:00</time>
      </trkpt>
      <trkpt lat="47.33025" lon="-0.66189">
        <ele>51</ele>
        <time>2014-02-16T08:09:19+00:00</time>
      </trkpt>
      <trkpt lat="47.33027" lon="-0.66189">
        <ele>50</ele>
        <time>2014-02-16T08:09:20+00:00</time>
      </trkpt>
      <trkpt lat="47.33028" lon="-0.66188">
        <ele>50</ele>
        <time>2014-02-16T08:09:21+00:00</time>
      </trkpt>
      <trkpt lat="47.33029" lon="-0.66188">
        <ele>49</ele>
        <time>2014-02-16T08:09:22+00:00</time>
      </trkpt>
      <trkpt lat="47.33029" lon="-0.66186">
        <ele>48</ele>
        <time>2014-02-16T08:09:23+00:00</time>
      </trkpt>
      <trkpt lat="47.3303" lon="-0.66185">
        <ele>46</ele>
        <time>2014-02-16T08:09:24+00:00</time>
      </trkpt>
      <trkpt lat="47.3303" lon="-0.66183">
        <ele>46</ele>
        <time>2014-02-16T08:09:25+00:00</time>
      </trkpt>
      <trkpt lat="47.3303" lon="-0.66181">
        <ele>46</ele>
        <time>2014-02-16T08:09:26+00:00</time>
      </trkpt>
      <trkpt lat="47.33029" lon="-0.6618">
        <ele>46</ele>
        <time>2014-02-16T08:09:27+00:00</time>
      </trkpt>
      <trkpt lat="47.33028" lon="-0.66179">
        <ele>46</ele>
        <time>2014-02-16T08:09:28+00:00</time>
      </trkpt>
      <trkpt lat="47.33028" lon="-0.66177">
        <ele>47</ele>
        <time>2014-02-16T08:09:29+00:00</time>
      </trkpt>
      <trkpt lat="47.33028" lon="-0.66175">
        <ele>48</ele>
        <time>2014-02-16T08:09:30+00:00</time>
      </trkpt>
      <trkpt lat="47.33027" lon="-0.66174">
        <ele>48</ele>
        <time>2014-02-16T08:09:31+00:00</time>
      </trkpt>
      <trkpt lat="47.33026" lon="-0.66172">
        <ele>50</ele>
        <time>2014-02-16T08:09:32+00:00</time>
      </trkpt>
      <trkpt lat="47.33026" lon="-0.66171">
        <ele>51</ele>
        <time>2014-02-16T08:09:33+00:00</time>
      </trkpt>
      <trkpt lat="47.33025" lon="-0.66169">
        <ele>51</ele>
        <time>2014-02-16T08:09:34+00:00</time>
      </trkpt>
      <trkpt lat="47.33024" lon="-0.66167">
        <ele>51</ele>
        <time>2014-02-16T08:09:35+00:00</time>
      </trkpt>
      <trkpt lat="47.33023" lon="-0.66166">
        <ele>52</ele>
        <time>2014-02-16T08:09:36+00:00</time>
      </trkpt>
      <trkpt lat="47.33023" lon="-0.66164">
        <ele>48</ele>
        <time>2014-02-16T08:09:37+00:00</time>
      </trkpt>
      <trkpt lat="47.33023" lon="-0.66163">
        <ele>47</ele>
        <time>2014-02-16T08:09:38+00:00</time>
      </trkpt>
      <trkpt lat="47.33023" lon="-0.66161">
        <ele>49</ele>
        <time>2014-02-16T08:09:39+00:00</time>
      </trkpt>
      <trkpt lat="47.33023" lon="-0.66159">
        <ele>51</ele>
        <time>2014-02-16T08:09:40+00:00</time>
      </trkpt>
      <trkpt lat="47.33023" lon="-0.66158">
        <ele>52</ele>
        <time>2014-02-16T08:09:41+00:00</time>
      </trkpt>
      <trkpt lat="47.33022" lon="-0.66156">
        <ele>52</ele>
        <time>2014-02-16T08:09:42+00:00</time>
      </trkpt>
      <trkpt lat="47.33021" lon="-0.66155">
        <ele>52</ele>
        <time>2014-02-16T08:09:43+00:00</time>
      </trkpt>
      <trkpt lat="47.3302" lon="-0.66154">
        <ele>53</ele>
        <time>2014-02-16T08:09:44+00:00</time>
      </trkpt>
      <trkpt lat="47.3302" lon="-0.66152">
        <ele>54</ele>
        <time>2014-02-16T08:09:45+00:00</time>
      </trkpt>
      <trkpt lat="47.33019" lon="-0.66151">
        <ele>54</ele>
        <time>2014-02-16T08:09:46+00:00</time>
      </trkpt>
      <trkpt lat="47.33017" lon="-0.66149">
        <ele>55</ele>
        <time>2014-02-16T08:09:47+00:00</time>
      </trkpt>
      <trkpt lat="47.33016" lon="-0.66148">
        <ele>55</ele>
        <time>2014-02-16T08:09:48+00:00</time>
      </trkpt>
      <trkpt lat="47.33016" lon="-0.66147">
        <ele>58</ele>
        <time>2014-02-16T08:09:49+00:00</time>
      </trkpt>
      <trkpt lat="47.33016" lon="-0.66146">
        <ele>58</ele>
        <time>2014-02-16T08:09:50+00:00</time>
      </trkpt>
      <trkpt lat="47.33016" lon="-0.66144">
        <ele>58</ele>
        <time>2014-02-16T08:09:51+00:00</time>
      </trkpt>
      <trkpt lat="47.33015" lon="-0.66141">
        <ele>60</ele>
        <time>2014-02-16T08:09:53+00:00</time>
      </trkpt>
      <trkpt lat="47.33014" lon="-0.6614">
        <ele>60</ele>
        <time>2014-02-16T08:09:54+00:00</time>
      </trkpt>
      <trkpt lat="47.33013" lon="-0.66139">
        <ele>60</ele>
        <time>2014-02-16T08:09:55+00:00</time>
      </trkpt>
      <trkpt lat="47.33012" lon="-0.66137">
        <ele>62</ele>
        <time>2014-02-16T08:09:56+00:00</time>
      </trkpt>
      <trkpt lat="47.33012" lon="-0.66136">
        <ele>61</ele>
        <time>2014-02-16T08:09:57+00:00</time>
      </trkpt>
      <trkpt lat="47.3301" lon="-0.66134">
        <ele>61</ele>
        <time>2014-02-16T08:09:58+00:00</time>
      </trkpt>
      <trkpt lat="47.33007" lon="-0.6613">
        <ele>64</ele>
        <time>2014-02-16T08:10:02+00:00</time>
      </trkpt>
      <trkpt lat="47.33007" lon="-0.66128">
        <ele>64</ele>
        <time>2014-02-16T08:10:03+00:00</time>
      </trkpt>
      <trkpt lat="47.33006" lon="-0.66126">
        <ele>65</ele>
        <time>2014-02-16T08:10:04+00:00</time>
      </trkpt>
      <trkpt lat="47.33004" lon="-0.66123">
        <ele>67</ele>
        <time>2014-02-16T08:10:06+00:00</time>
      </trkpt>
      <trkpt lat="47.33003" lon="-0.66121">
        <ele>69</ele>
        <time>2014-02-16T08:10:07+00:00</time>
      </trkpt>
      <trkpt lat="47.33002" lon="-0.66119">
        <ele>70</ele>
        <time>2014-02-16T08:10:08+00:00</time>
      </trkpt>
      <trkpt lat="47.33001" lon="-0.66118">
        <ele>71</ele>
        <time>2014-02-16T08:10:09+00:00</time>
      </trkpt>
      <trkpt lat="47.33" lon="-0.66117">
        <ele>71</ele>
        <time>2014-02-16T08:10:10+00:00</time>
      </trkpt>
      <trkpt lat="47.32999" lon="-0.66115">
        <ele>70</ele>
        <time>2014-02-16T08:10:11+00:00</time>
      </trkpt>
      <trkpt lat="47.32998" lon="-0.66113">
        <ele>70</ele>
        <time>2014-02-16T08:10:12+00:00</time>
      </trkpt>
      <trkpt lat="47.32998" lon="-0.6611">
        <ele>69</ele>
        <time>2014-02-16T08:10:13+00:00</time>
      </trkpt>
      <trkpt lat="47.32996" lon="-0.66109">
        <ele>69</ele>
        <time>2014-02-16T08:10:14+00:00</time>
      </trkpt>
      <trkpt lat="47.32996" lon="-0.66107">
        <ele>69</ele>
        <time>2014-02-16T08:10:15+00:00</time>
      </trkpt>
      <trkpt lat="47.32996" lon="-0.66101">
        <ele>69</ele>
        <time>2014-02-16T08:10:17+00:00</time>
      </trkpt>
      <trkpt lat="47.32996" lon="-0.66099">
        <ele>67</ele>
        <time>2014-02-16T08:10:18+00:00</time>
      </trkpt>
      <trkpt lat="47.32995" lon="-0.66097">
        <ele>68</ele>
        <time>2014-02-16T08:10:19+00:00</time>
      </trkpt>
      <trkpt lat="47.32995" lon="-0.66095">
        <ele>70</ele>
        <time>2014-02-16T08:10:20+00:00</time>
      </trkpt>
      <trkpt lat="47.32995" lon="-0.66093">
        <ele>67</ele>
        <time>2014-02-16T08:10:21+00:00</time>
      </trkpt>
      <trkpt lat="47.32994" lon="-0.6609">
        <ele>66</ele>
        <time>2014-02-16T08:10:22+00:00</time>
      </trkpt>
      <trkpt lat="47.32993" lon="-0.66087">
        <ele>66</ele>
        <time>2014-02-16T08:10:23+00:00</time>
      </trkpt>
      <trkpt lat="47.32992" lon="-0.66085">
        <ele>66</ele>
        <time>2014-02-16T08:10:24+00:00</time>
      </trkpt>
      <trkpt lat="47.32991" lon="-0.66084">
        <ele>64</ele>
        <time>2014-02-16T08:10:25+00:00</time>
      </trkpt>
      <trkpt lat="47.32991" lon="-0.66082">
        <ele>64</ele>
        <time>2014-02-16T08:10:26+00:00</time>
      </trkpt>
      <trkpt lat="47.3299" lon="-0.66079">
        <ele>62</ele>
        <time>2014-02-16T08:10:27+00:00</time>
      </trkpt>
      <trkpt lat="47.32988" lon="-0.66071">
        <ele>66</ele>
        <time>2014-02-16T08:10:31+00:00</time>
      </trkpt>
      <trkpt lat="47.32988" lon="-0.66068">
        <ele>64</ele>
        <time>2014-02-16T08:10:32+00:00</time>
      </trkpt>
      <trkpt lat="47.32988" lon="-0.66066">
        <ele>65</ele>
        <time>2014-02-16T08:10:33+00:00</time>
      </trkpt>
      <trkpt lat="47.32987" lon="-0.66065">
        <ele>65</ele>
        <time>2014-02-16T08:10:34+00:00</time>
      </trkpt>
      <trkpt lat="47.32987" lon="-0.66063">
        <ele>65</ele>
        <time>2014-02-16T08:10:35+00:00</time>
      </trkpt>
      <trkpt lat="47.32987" lon="-0.66061">
        <ele>66</ele>
        <time>2014-02-16T08:10:36+00:00</time>
      </trkpt>
      <trkpt lat="47.32986" lon="-0.6606">
        <ele>64</ele>
        <time>2014-02-16T08:10:37+00:00</time>
      </trkpt>
      <trkpt lat="47.32985" lon="-0.66058">
        <ele>66</ele>
        <time>2014-02-16T08:10:38+00:00</time>
      </trkpt>
      <trkpt lat="47.32984" lon="-0.66056">
        <ele>66</ele>
        <time>2014-02-16T08:10:39+00:00</time>
      </trkpt>
      <trkpt lat="47.32984" lon="-0.66054">
        <ele>65</ele>
        <time>2014-02-16T08:10:40+00:00</time>
      </trkpt>
      <trkpt lat="47.32983" lon="-0.66053">
        <ele>65</ele>
        <time>2014-02-16T08:10:41+00:00</time>
      </trkpt>
      <trkpt lat="47.32983" lon="-0.66052">
        <ele>67</ele>
        <time>2014-02-16T08:10:42+00:00</time>
      </trkpt>
      <trkpt lat="47.32983" lon="-0.6605">
        <ele>71</ele>
        <time>2014-02-16T08:10:43+00:00</time>
      </trkpt>
      <trkpt lat="47.32982" lon="-0.66046">
        <ele>70</ele>
        <time>2014-02-16T08:10:44+00:00</time>
      </trkpt>
      <trkpt lat="47.32981" lon="-0.66043">
        <ele>71</ele>
        <time>2014-02-16T08:10:45+00:00</time>
      </trkpt>
      <trkpt lat="47.3298" lon="-0.66033">
        <ele>71</ele>
        <time>2014-02-16T08:10:48+00:00</time>
      </trkpt>
      <trkpt lat="47.3298" lon="-0.66029">
        <ele>68</ele>
        <time>2014-02-16T08:10:49+00:00</time>
      </trkpt>
      <trkpt lat="47.3298" lon="-0.66024">
        <ele>68</ele>
        <time>2014-02-16T08:10:51+00:00</time>
      </trkpt>
      <trkpt lat="47.3298" lon="-0.66021">
        <ele>69</ele>
        <time>2014-02-16T08:10:52+00:00</time>
      </trkpt>
      <trkpt lat="47.32973" lon="-0.66007">
        <ele>64</ele>
        <time>2014-02-16T08:10:58+00:00</time>
      </trkpt>
      <trkpt lat="47.32972" lon="-0.66006">
        <ele>64</ele>
        <time>2014-02-16T08:10:59+00:00</time>
      </trkpt>
      <trkpt lat="47.32972" lon="-0.66004">
        <ele>64</ele>
        <time>2014-02-16T08:11:00+00:00</time>
      </trkpt>
      <trkpt lat="47.32971" lon="-0.66004">
        <ele>63</ele>
        <time>2014-02-16T08:11:01+00:00</time>
      </trkpt>
      <trkpt lat="47.32971" lon="-0.66002">
        <ele>64</ele>
        <time>2014-02-16T08:11:02+00:00</time>
      </trkpt>
      <trkpt lat="47.32971" lon="-0.66001">
        <ele>63</ele>
        <time>2014-02-16T08:11:03+00:00</time>
      </trkpt>
      <trkpt lat="47.32972" lon="-0.65998">
        <ele>63</ele>
        <time>2014-02-16T08:11:05+00:00</time>
      </trkpt>
      <trkpt lat="47.32972" lon="-0.65997">
        <ele>63</ele>
        <time>2014-02-16T08:11:06+00:00</time>
      </trkpt>
      <trkpt lat="47.32975" lon="-0.65993">
        <ele>63</ele>
        <time>2014-02-16T08:11:10+00:00</time>
      </trkpt>
      <trkpt lat="47.32976" lon="-0.65992">
        <ele>62</ele>
        <time>2014-02-16T08:11:11+00:00</time>
      </trkpt>
      <trkpt lat="47.32977" lon="-0.65991">
        <ele>62</ele>
        <time>2014-02-16T08:11:12+00:00</time>
      </trkpt>
      <trkpt lat="47.32978" lon="-0.6599">
        <ele>62</ele>
        <time>2014-02-16T08:11:13+00:00</time>
      </trkpt>
      <trkpt lat="47.32979" lon="-0.65989">
        <ele>63</ele>
        <time>2014-02-16T08:11:14+00:00</time>
      </trkpt>
      <trkpt lat="47.3298" lon="-0.65989">
        <ele>61</ele>
        <time>2014-02-16T08:11:15+00:00</time>
      </trkpt>
      <trkpt lat="47.3298" lon="-0.65988">
        <ele>64</ele>
        <time>2014-02-16T08:11:16+00:00</time>
      </trkpt>
      <trkpt lat="47.32981" lon="-0.65985">
        <ele>67</ele>
        <time>2014-02-16T08:11:18+00:00</time>
      </trkpt>
      <trkpt lat="47.32981" lon="-0.65984">
        <ele>69</ele>
        <time>2014-02-16T08:11:19+00:00</time>
      </trkpt>
      <trkpt lat="47.32982" lon="-0.65982">
        <ele>69</ele>
        <time>2014-02-16T08:11:20+00:00</time>
      </trkpt>
      <trkpt lat="47.32983" lon="-0.6598">
        <ele>69</ele>
        <time>2014-02-16T08:11:21+00:00</time>
      </trkpt>
      <trkpt lat="47.32983" lon="-0.65979">
        <ele>70</ele>
        <time>2014-02-16T08:11:22+00:00</time>
      </trkpt>
      <trkpt lat="47.32984" lon="-0.65976">
        <ele>70</ele>
        <time>2014-02-16T08:11:23+00:00</time>
      </trkpt>
      <trkpt lat="47.32985" lon="-0.65972">
        <ele>71</ele>
        <time>2014-02-16T08:11:25+00:00</time>
      </trkpt>
      <trkpt lat="47.32986" lon="-0.6597">
        <ele>70</ele>
        <time>2014-02-16T08:11:26+00:00</time>
      </trkpt>
      <trkpt lat="47.32987" lon="-0.6597">
        <ele>70</ele>
        <time>2014-02-16T08:11:27+00:00</time>
      </trkpt>
      <trkpt lat="47.32988" lon="-0.65971">
        <ele>69</ele>
        <time>2014-02-16T08:11:28+00:00</time>
      </trkpt>
      <trkpt lat="47.32988" lon="-0.65972">
        <ele>69</ele>
        <time>2014-02-16T08:11:29+00:00</time>
      </trkpt>
      <trkpt lat="47.32989" lon="-0.65972">
        <ele>69</ele>
        <time>2014-02-16T08:11:30+00:00</time>
      </trkpt>
      <trkpt lat="47.3299" lon="-0.65972">
        <ele>69</ele>
        <time>2014-02-16T08:11:31+00:00</time>
      </trkpt>
      <trkpt lat="47.3299" lon="-0.65972">
        <ele>70</ele>
        <time>2014-02-16T08:11:32+00:00</time>
      </trkpt>
      <trkpt lat="47.32991" lon="-0.65972">
        <ele>70</ele>
        <time>2014-02-16T08:11:33+00:00</time>
      </trkpt>
      <trkpt lat="47.32992" lon="-0.65972">
        <ele>70</ele>
        <time>2014-02-16T08:11:34+00:00</time>
      </trkpt>
      <trkpt lat="47.32994" lon="-0.65972">
        <ele>69</ele>
        <time>2014-02-16T08:11:36+00:00</time>
      </trkpt>
      <trkpt lat="47.32994" lon="-0.65972">
        <ele>69</ele>
        <time>2014-02-16T08:11:37+00:00</time>
      </trkpt>
      <trkpt lat="47.32995" lon="-0.65971">
        <ele>69</ele>
        <time>2014-02-16T08:11:38+00:00</time>
      </trkpt>
      <trkpt lat="47.32998" lon="-0.65968">
        <ele>69</ele>
        <time>2014-02-16T08:11:41+00:00</time>
      </trkpt>
      <trkpt lat="47.32999" lon="-0.65967">
        <ele>70</ele>
        <time>2014-02-16T08:11:42+00:00</time>
      </trkpt>
      <trkpt lat="47.33011" lon="-0.65958">
        <ele>71</ele>
        <time>2014-02-16T08:11:51+00:00</time>
      </trkpt>
      <trkpt lat="47.33012" lon="-0.65956">
        <ele>71</ele>
        <time>2014-02-16T08:11:52+00:00</time>
      </trkpt>
      <trkpt lat="47.33014" lon="-0.65954">
        <ele>70</ele>
        <time>2014-02-16T08:11:54+00:00</time>
      </trkpt>
      <trkpt lat="47.33015" lon="-0.65952">
        <ele>70</ele>
        <time>2014-02-16T08:11:55+00:00</time>
      </trkpt>
      <trkpt lat="47.33017" lon="-0.65951">
        <ele>70</ele>
        <time>2014-02-16T08:11:56+00:00</time>
      </trkpt>
      <trkpt lat="47.33024" lon="-0.65943">
        <ele>71</ele>
        <time>2014-02-16T08:12:03+00:00</time>
      </trkpt>
      <trkpt lat="47.33025" lon="-0.65942">
        <ele>71</ele>
        <time>2014-02-16T08:12:04+00:00</time>
      </trkpt>
      <trkpt lat="47.33026" lon="-0.6594">
        <ele>71</ele>
        <time>2014-02-16T08:12:05+00:00</time>
      </trkpt>
      <trkpt lat="47.33027" lon="-0.65939">
        <ele>71</ele>
        <time>2014-02-16T08:12:06+00:00</time>
      </trkpt>
      <trkpt lat="47.33027" lon="-0.65937">
        <ele>71</ele>
        <time>2014-02-16T08:12:07+00:00</time>
      </trkpt>
      <trkpt lat="47.33027" lon="-0.65934">
        <ele>71</ele>
        <time>2014-02-16T08:12:08+00:00</time>
      </trkpt>
      <trkpt lat="47.33027" lon="-0.65932">
        <ele>70</ele>
        <time>2014-02-16T08:12:09+00:00</time>
      </trkpt>
      <trkpt lat="47.33026" lon="-0.65926">
        <ele>71</ele>
        <time>2014-02-16T08:12:12+00:00</time>
      </trkpt>
      <trkpt lat="47.33025" lon="-0.65924">
        <ele>71</ele>
        <time>2014-02-16T08:12:13+00:00</time>
      </trkpt>
      <trkpt lat="47.33024" lon="-0.65922">
        <ele>72</ele>
        <time>2014-02-16T08:12:14+00:00</time>
      </trkpt>
      <trkpt lat="47.33022" lon="-0.65912">
        <ele>73</ele>
        <time>2014-02-16T08:12:19+00:00</time>
      </trkpt>
      <trkpt lat="47.33022" lon="-0.6591">
        <ele>73</ele>
        <time>2014-02-16T08:12:20+00:00</time>
      </trkpt>
      <trkpt lat="47.33021" lon="-0.65908">
        <ele>73</ele>
        <time>2014-02-16T08:12:21+00:00</time>
      </trkpt>
      <trkpt lat="47.3302" lon="-0.65902">
        <ele>74</ele>
        <time>2014-02-16T08:12:25+00:00</time>
      </trkpt>
      <trkpt lat="47.3302" lon="-0.659">
        <ele>74</ele>
        <time>2014-02-16T08:12:26+00:00</time>
      </trkpt>
      <trkpt lat="47.3302" lon="-0.65899">
        <ele>74</ele>
        <time>2014-02-16T08:12:27+00:00</time>
      </trkpt>
      <trkpt lat="47.3302" lon="-0.65894">
        <ele>74</ele>
        <time>2014-02-16T08:12:29+00:00</time>
      </trkpt>
      <trkpt lat="47.33019" lon="-0.65892">
        <ele>74</ele>
        <time>2014-02-16T08:12:30+00:00</time>
      </trkpt>
      <trkpt lat="47.33019" lon="-0.65891">
        <ele>74</ele>
        <time>2014-02-16T08:12:31+00:00</time>
      </trkpt>
      <trkpt lat="47.33019" lon="-0.6589">
        <ele>74</ele>
        <time>2014-02-16T08:12:32+00:00</time>
      </trkpt>
      <trkpt lat="47.33017" lon="-0.65883">
        <ele>75</ele>
        <time>2014-02-16T08:12:36+00:00</time>
      </trkpt>
      <trkpt lat="47.33017" lon="-0.65881">
        <ele>75</ele>
        <time>2014-02-16T08:12:37+00:00</time>
      </trkpt>
      <trkpt lat="47.33017" lon="-0.65879">
        <ele>75</ele>
        <time>2014-02-16T08:12:38+00:00</time>
      </trkpt>
      <trkpt lat="47.33016" lon="-0.65877">
        <ele>75</ele>
        <time>2014-02-16T08:12:39+00:00</time>
      </trkpt>
      <trkpt lat="47.33016" lon="-0.65876">
        <ele>75</ele>
        <time>2014-02-16T08:12:40+00:00</time>
      </trkpt>
      <trkpt lat="47.33016" lon="-0.65874">
        <ele>75</ele>
        <time>2014-02-16T08:12:41+00:00</time>
      </trkpt>
      <trkpt lat="47.33014" lon="-0.65868">
        <ele>76</ele>
        <time>2014-02-16T08:12:44+00:00</time>
      </trkpt>
      <trkpt lat="47.33014" lon="-0.65867">
        <ele>76</ele>
        <time>2014-02-16T08:12:45+00:00</time>
      </trkpt>
      <trkpt lat="47.33013" lon="-0.65865">
        <ele>76</ele>
        <time>2014-02-16T08:12:46+00:00</time>
      </trkpt>
      <trkpt lat="47.33011" lon="-0.6585">
        <ele>77</ele>
        <time>2014-02-16T08:12:54+00:00</time>
      </trkpt>
      <trkpt lat="47.3301" lon="-0.65848">
        <ele>77</ele>
        <time>2014-02-16T08:12:55+00:00</time>
      </trkpt>
      <trkpt lat="47.3301" lon="-0.65846">
        <ele>77</ele>
        <time>2014-02-16T08:12:56+00:00</time>
      </trkpt>
      <trkpt lat="47.33007" lon="-0.65835">
        <ele>78</ele>
        <time>2014-02-16T08:13:02+00:00</time>
      </trkpt>
      <trkpt lat="47.33006" lon="-0.65833">
        <ele>78</ele>
        <time>2014-02-16T08:13:03+00:00</time>
      </trkpt>
      <trkpt lat="47.33005" lon="-0.6583">
        <ele>78</ele>
        <time>2014-02-16T08:13:04+00:00</time>
      </trkpt>
      <trkpt lat="47.33004" lon="-0.65828">
        <ele>78</ele>
        <time>2014-02-16T08:13:05+00:00</time>
      </trkpt>
      <trkpt lat="47.3298" lon="-0.65745">
        <ele>77</ele>
        <time>2014-02-16T08:13:34+00:00</time>
      </trkpt>
      <trkpt lat="47.32979" lon="-0.65741">
        <ele>76</ele>
        <time>2014-02-16T08:13:35+00:00</time>
      </trkpt>
      <trkpt lat="47.32976" lon="-0.6574">
        <ele>76</ele>
        <time>2014-02-16T08:13:36+00:00</time>
      </trkpt>
      <trkpt lat="47.32974" lon="-0.6574">
        <ele>76</ele>
        <time>2014-02-16T08:13:37+00:00</time>
      </trkpt>
      <trkpt lat="47.32972" lon="-0.65741">
        <ele>75</ele>
        <time>2014-02-16T08:13:38+00:00</time>
      </trkpt>
      <trkpt lat="47.32965" lon="-0.65746">
        <ele>77</ele>
        <time>2014-02-16T08:13:41+00:00</time>
      </trkpt>
      <trkpt lat="47.32963" lon="-0.65747">
        <ele>77</ele>
        <time>2014-02-16T08:13:42+00:00</time>
      </trkpt>
      <trkpt lat="47.32953" lon="-0.65751">
        <ele>76</ele>
        <time>2014-02-16T08:13:46+00:00</time>
      </trkpt>
      <trkpt lat="47.32951" lon="-0.65751">
        <ele>76</ele>
        <time>2014-02-16T08:13:47+00:00</time>
      </trkpt>
      <trkpt lat="47.3295" lon="-0.6575">
        <ele>76</ele>
        <time>2014-02-16T08:13:48+00:00</time>
      </trkpt>
      <trkpt lat="47.32948" lon="-0.65748">
        <ele>76</ele>
        <time>2014-02-16T08:13:49+00:00</time>
      </trkpt>
      <trkpt lat="47.32947" lon="-0.65747">
        <ele>75</ele>
        <time>2014-02-16T08:13:50+00:00</time>
      </trkpt>
      <trkpt lat="47.32946" lon="-0.65746">
        <ele>74</ele>
        <time>2014-02-16T08:13:51+00:00</time>
      </trkpt>
      <trkpt lat="47.32944" lon="-0.65745">
        <ele>74</ele>
        <time>2014-02-16T08:13:52+00:00</time>
      </trkpt>
      <trkpt lat="47.32942" lon="-0.65745">
        <ele>75</ele>
        <time>2014-02-16T08:13:53+00:00</time>
      </trkpt>
      <trkpt lat="47.3294" lon="-0.65744">
        <ele>74</ele>
        <time>2014-02-16T08:13:54+00:00</time>
      </trkpt>
      <trkpt lat="47.3294" lon="-0.65742">
        <ele>75</ele>
        <time>2014-02-16T08:13:55+00:00</time>
      </trkpt>
      <trkpt lat="47.32939" lon="-0.6574">
        <ele>75</ele>
        <time>2014-02-16T08:13:56+00:00</time>
      </trkpt>
      <trkpt lat="47.32937" lon="-0.65739">
        <ele>75</ele>
        <time>2014-02-16T08:13:57+00:00</time>
      </trkpt>
      <trkpt lat="47.32912" lon="-0.65689">
        <ele>75</ele>
        <time>2014-02-16T08:14:08+00:00</time>
      </trkpt>
      <trkpt lat="47.32909" lon="-0.65684">
        <ele>75</ele>
        <time>2014-02-16T08:14:09+00:00</time>
      </trkpt>
      <trkpt lat="47.32892" lon="-0.65648">
        <ele>70</ele>
        <time>2014-02-16T08:14:16+00:00</time>
      </trkpt>
      <trkpt lat="47.32889" lon="-0.65643">
        <ele>69</ele>
        <time>2014-02-16T08:14:17+00:00</time>
      </trkpt>
      <trkpt lat="47.32873" lon="-0.65612">
        <ele>65</ele>
        <time>2014-02-16T08:14:23+00:00</time>
      </trkpt>
      <trkpt lat="47.32871" lon="-0.65608">
        <ele>65</ele>
        <time>2014-02-16T08:14:24+00:00</time>
      </trkpt>
      <trkpt lat="47.32867" lon="-0.65601">
        <ele>64</ele>
        <time>2014-02-16T08:14:26+00:00</time>
      </trkpt>
      <trkpt lat="47.32865" lon="-0.65599">
        <ele>63</ele>
        <time>2014-02-16T08:14:27+00:00</time>
      </trkpt>
      <trkpt lat="47.32862" lon="-0.65597">
        <ele>63</ele>
        <time>2014-02-16T08:14:28+00:00</time>
      </trkpt>
      <trkpt lat="47.3286" lon="-0.65598">
        <ele>63</ele>
        <time>2014-02-16T08:14:29+00:00</time>
      </trkpt>
      <trkpt lat="47.32859" lon="-0.65601">
        <ele>63</ele>
        <time>2014-02-16T08:14:30+00:00</time>
      </trkpt>
      <trkpt lat="47.32851" lon="-0.65616">
        <ele>62</ele>
        <time>2014-02-16T08:14:35+00:00</time>
      </trkpt>
      <trkpt lat="47.3285" lon="-0.65618">
        <ele>63</ele>
        <time>2014-02-16T08:14:36+00:00</time>
      </trkpt>
      <trkpt lat="47.32848" lon="-0.65619">
        <ele>63</ele>
        <time>2014-02-16T08:14:37+00:00</time>
      </trkpt>
      <trkpt lat="47.32846" lon="-0.65619">
        <ele>63</ele>
        <time>2014-02-16T08:14:38+00:00</time>
      </trkpt>
      <trkpt lat="47.32844" lon="-0.65618">
        <ele>63</ele>
        <time>2014-02-16T08:14:39+00:00</time>
      </trkpt>
      <trkpt lat="47.32843" lon="-0.65615">
        <ele>64</ele>
        <time>2014-02-16T08:14:40+00:00</time>
      </trkpt>
      <trkpt lat="47.32842" lon="-0.65613">
        <ele>65</ele>
        <time>2014-02-16T08:14:41+00:00</time>
      </trkpt>
      <trkpt lat="47.32841" lon="-0.65611">
        <ele>65</ele>
        <time>2014-02-16T08:14:42+00:00</time>
      </trkpt>
      <trkpt lat="47.3284" lon="-0.65604">
        <ele>65</ele>
        <time>2014-02-16T08:14:44+00:00</time>
      </trkpt>
      <trkpt lat="47.32838" lon="-0.656">
        <ele>65</ele>
        <time>2014-02-16T08:14:45+00:00</time>
      </trkpt>
      <trkpt lat="47.32837" lon="-0.65597">
        <ele>65</ele>
        <time>2014-02-16T08:14:46+00:00</time>
      </trkpt>
      <trkpt lat="47.32828" lon="-0.65575">
        <ele>65</ele>
        <time>2014-02-16T08:14:53+00:00</time>
      </trkpt>
      <trkpt lat="47.32826" lon="-0.65572">
        <ele>64</ele>
        <time>2014-02-16T08:14:54+00:00</time>
      </trkpt>
      <trkpt lat="47.32818" lon="-0.65556">
        <ele>66</ele>
        <time>2014-02-16T08:15:00+00:00</time>
      </trkpt>
      <trkpt lat="47.32817" lon="-0.65553">
        <ele>67</ele>
        <time>2014-02-16T08:15:01+00:00</time>
      </trkpt>
      <trkpt lat="47.32814" lon="-0.65548">
        <ele>66</ele>
        <time>2014-02-16T08:15:03+00:00</time>
      </trkpt>
      <trkpt lat="47.32813" lon="-0.65544">
        <ele>65</ele>
        <time>2014-02-16T08:15:04+00:00</time>
      </trkpt>
      <trkpt lat="47.32812" lon="-0.65541">
        <ele>66</ele>
        <time>2014-02-16T08:15:05+00:00</time>
      </trkpt>
      <trkpt lat="47.32793" lon="-0.65499">
        <ele>69</ele>
        <time>2014-02-16T08:15:22+00:00</time>
      </trkpt>
      <trkpt lat="47.32791" lon="-0.65496">
        <ele>69</ele>
        <time>2014-02-16T08:15:23+00:00</time>
      </trkpt>
      <trkpt lat="47.32781" lon="-0.65475">
        <ele>70</ele>
        <time>2014-02-16T08:15:31+00:00</time>
      </trkpt>
      <trkpt lat="47.3278" lon="-0.65472">
        <ele>71</ele>
        <time>2014-02-16T08:15:32+00:00</time>
      </trkpt>
      <trkpt lat="47.32778" lon="-0.6547">
        <ele>71</ele>
        <time>2014-02-16T08:15:33+00:00</time>
      </trkpt>
      <trkpt lat="47.32776" lon="-0.65468">
        <ele>71</ele>
        <time>2014-02-16T08:15:34+00:00</time>
      </trkpt>
      <trkpt lat="47.32774" lon="-0.65464">
        <ele>69</ele>
        <time>2014-02-16T08:15:35+00:00</time>
      </trkpt>
      <trkpt lat="47.32762" lon="-0.65439">
        <ele>69</ele>
        <time>2014-02-16T08:15:43+00:00</time>
      </trkpt>
      <trkpt lat="47.32759" lon="-0.65436">
        <ele>68</ele>
        <time>2014-02-16T08:15:44+00:00</time>
      </trkpt>
      <trkpt lat="47.32727" lon="-0.65392">
        <ele>64</ele>
        <time>2014-02-16T08:15:57+00:00</time>
      </trkpt>
      <trkpt lat="47.32726" lon="-0.65388">
        <ele>63</ele>
        <time>2014-02-16T08:15:58+00:00</time>
      </trkpt>
      <trkpt lat="47.32726" lon="-0.65385">
        <ele>63</ele>
        <time>2014-02-16T08:15:59+00:00</time>
      </trkpt>
      <trkpt lat="47.32727" lon="-0.65381">
        <ele>62</ele>
        <time>2014-02-16T08:16:00+00:00</time>
      </trkpt>
      <trkpt lat="47.32728" lon="-0.65379">
        <ele>62</ele>
        <time>2014-02-16T08:16:01+00:00</time>
      </trkpt>
      <trkpt lat="47.32735" lon="-0.65369">
        <ele>61</ele>
        <time>2014-02-16T08:16:05+00:00</time>
      </trkpt>
      <trkpt lat="47.32737" lon="-0.65365">
        <ele>61</ele>
        <time>2014-02-16T08:16:06+00:00</time>
      </trkpt>
      <trkpt lat="47.32744" lon="-0.65351">
        <ele>61</ele>
        <time>2014-02-16T08:16:10+00:00</time>
      </trkpt>
      <trkpt lat="47.32746" lon="-0.65348">
        <ele>61</ele>
        <time>2014-02-16T08:16:11+00:00</time>
      </trkpt>
      <trkpt lat="47.32748" lon="-0.65345">
        <ele>61</ele>
        <time>2014-02-16T08:16:12+00:00</time>
      </trkpt>
      <trkpt lat="47.32749" lon="-0.65342">
        <ele>61</ele>
        <time>2014-02-16T08:16:13+00:00</time>
      </trkpt>
      <trkpt lat="47.32777" lon="-0.65291">
        <ele>59</ele>
        <time>2014-02-16T08:16:29+00:00</time>
      </trkpt>
      <trkpt lat="47.32779" lon="-0.65287">
        <ele>59</ele>
        <time>2014-02-16T08:16:30+00:00</time>
      </trkpt>
      <trkpt lat="47.32783" lon="-0.65281">
        <ele>58</ele>
        <time>2014-02-16T08:16:32+00:00</time>
      </trkpt>
      <trkpt lat="47.32784" lon="-0.65277">
        <ele>58</ele>
        <time>2014-02-16T08:16:33+00:00</time>
      </trkpt>
      <trkpt lat="47.32784" lon="-0.65275">
        <ele>57</ele>
        <time>2014-02-16T08:16:34+00:00</time>
      </trkpt>
      <trkpt lat="47.32784" lon="-0.65271">
        <ele>57</ele>
        <time>2014-02-16T08:16:35+00:00</time>
      </trkpt>
      <trkpt lat="47.32783" lon="-0.65268">
        <ele>57</ele>
        <time>2014-02-16T08:16:36+00:00</time>
      </trkpt>
      <trkpt lat="47.3275" lon="-0.6521">
        <ele>49</ele>
        <time>2014-02-16T08:16:54+00:00</time>
      </trkpt>
      <trkpt lat="47.32749" lon="-0.65208">
        <ele>49</ele>
        <time>2014-02-16T08:16:55+00:00</time>
      </trkpt>
      <trkpt lat="47.32745" lon="-0.65198">
        <ele>47</ele>
        <time>2014-02-16T08:16:59+00:00</time>
      </trkpt>
      <trkpt lat="47.32744" lon="-0.65196">
        <ele>46</ele>
        <time>2014-02-16T08:17:00+00:00</time>
      </trkpt>
      <trkpt lat="47.32744" lon="-0.65192">
        <ele>46</ele>
        <time>2014-02-16T08:17:01+00:00</time>
      </trkpt>
      <trkpt lat="47.32744" lon="-0.65189">
        <ele>46</ele>
        <time>2014-02-16T08:17:02+00:00</time>
      </trkpt>
      <trkpt lat="47.32744" lon="-0.65185">
        <ele>45</ele>
        <time>2014-02-16T08:17:03+00:00</time>
      </trkpt>
      <trkpt lat="47.32743" lon="-0.6518">
        <ele>45</ele>
        <time>2014-02-16T08:17:04+00:00</time>
      </trkpt>
      <trkpt lat="47.32743" lon="-0.65177">
        <ele>45</ele>
        <time>2014-02-16T08:17:05+00:00</time>
      </trkpt>
      <trkpt lat="47.32741" lon="-0.65173">
        <ele>46</ele>
        <time>2014-02-16T08:17:06+00:00</time>
      </trkpt>
      <trkpt lat="47.3274" lon="-0.65171">
        <ele>45</ele>
        <time>2014-02-16T08:17:07+00:00</time>
      </trkpt>
      <trkpt lat="47.32739" lon="-0.65167">
        <ele>45</ele>
        <time>2014-02-16T08:17:08+00:00</time>
      </trkpt>
      <trkpt lat="47.32738" lon="-0.65165">
        <ele>44</ele>
        <time>2014-02-16T08:17:09+00:00</time>
      </trkpt>
      <trkpt lat="47.32736" lon="-0.65164">
        <ele>45</ele>
        <time>2014-02-16T08:17:10+00:00</time>
      </trkpt>
      <trkpt lat="47.32736" lon="-0.65164">
        <ele>46</ele>
        <time>2014-02-16T08:17:11+00:00</time>
      </trkpt>
      <trkpt lat="47.32735" lon="-0.65163">
        <ele>47</ele>
        <time>2014-02-16T08:17:12+00:00</time>
      </trkpt>
      <trkpt lat="47.32734" lon="-0.65162">
        <ele>47</ele>
        <time>2014-02-16T08:17:13+00:00</time>
      </trkpt>
      <trkpt lat="47.32731" lon="-0.65162">
        <ele>50</ele>
        <time>2014-02-16T08:17:15+00:00</time>
      </trkpt>
      <trkpt lat="47.32729" lon="-0.6516">
        <ele>51</ele>
        <time>2014-02-16T08:17:16+00:00</time>
      </trkpt>
      <trkpt lat="47.32727" lon="-0.65158">
        <ele>50</ele>
        <time>2014-02-16T08:17:17+00:00</time>
      </trkpt>
      <trkpt lat="47.32726" lon="-0.65156">
        <ele>49</ele>
        <time>2014-02-16T08:17:18+00:00</time>
      </trkpt>
      <trkpt lat="47.32725" lon="-0.65154">
        <ele>49</ele>
        <time>2014-02-16T08:17:19+00:00</time>
      </trkpt>
      <trkpt lat="47.32724" lon="-0.65152">
        <ele>49</ele>
        <time>2014-02-16T08:17:20+00:00</time>
      </trkpt>
      <trkpt lat="47.32724" lon="-0.65149">
        <ele>48</ele>
        <time>2014-02-16T08:17:21+00:00</time>
      </trkpt>
      <trkpt lat="47.32723" lon="-0.65148">
        <ele>49</ele>
        <time>2014-02-16T08:17:22+00:00</time>
      </trkpt>
      <trkpt lat="47.32723" lon="-0.65146">
        <ele>49</ele>
        <time>2014-02-16T08:17:23+00:00</time>
      </trkpt>
      <trkpt lat="47.3272" lon="-0.65139">
        <ele>49</ele>
        <time>2014-02-16T08:17:26+00:00</time>
      </trkpt>
      <trkpt lat="47.32719" lon="-0.65136">
        <ele>49</ele>
        <time>2014-02-16T08:17:27+00:00</time>
      </trkpt>
      <trkpt lat="47.32718" lon="-0.65134">
        <ele>49</ele>
        <time>2014-02-16T08:17:28+00:00</time>
      </trkpt>
      <trkpt lat="47.32714" lon="-0.6511">
        <ele>50</ele>
        <time>2014-02-16T08:17:37+00:00</time>
      </trkpt>
      <trkpt lat="47.32714" lon="-0.65108">
        <ele>51</ele>
        <time>2014-02-16T08:17:38+00:00</time>
      </trkpt>
      <trkpt lat="47.32713" lon="-0.65105">
        <ele>51</ele>
        <time>2014-02-16T08:17:39+00:00</time>
      </trkpt>
      <trkpt lat="47.32712" lon="-0.65098">
        <ele>53</ele>
        <time>2014-02-16T08:17:42+00:00</time>
      </trkpt>
      <trkpt lat="47.32711" lon="-0.65095">
        <ele>52</ele>
        <time>2014-02-16T08:17:43+00:00</time>
      </trkpt>
      <trkpt lat="47.32711" lon="-0.65093">
        <ele>52</ele>
        <time>2014-02-16T08:17:44+00:00</time>
      </trkpt>
      <trkpt lat="47.3271" lon="-0.65091">
        <ele>51</ele>
        <time>2014-02-16T08:17:45+00:00</time>
      </trkpt>
      <trkpt lat="47.3271" lon="-0.65088">
        <ele>51</ele>
        <time>2014-02-16T08:17:46+00:00</time>
      </trkpt>
      <trkpt lat="47.32709" lon="-0.65086">
        <ele>51</ele>
        <time>2014-02-16T08:17:47+00:00</time>
      </trkpt>
      <trkpt lat="47.32708" lon="-0.65079">
        <ele>52</ele>
        <time>2014-02-16T08:17:50+00:00</time>
      </trkpt>
      <trkpt lat="47.32708" lon="-0.65076">
        <ele>52</ele>
        <time>2014-02-16T08:17:51+00:00</time>
      </trkpt>
      <trkpt lat="47.32707" lon="-0.65075">
        <ele>52</ele>
        <time>2014-02-16T08:17:52+00:00</time>
      </trkpt>
      <trkpt lat="47.32707" lon="-0.65072">
        <ele>53</ele>
        <time>2014-02-16T08:17:53+00:00</time>
      </trkpt>
      <trkpt lat="47.32706" lon="-0.6507">
        <ele>53</ele>
        <time>2014-02-16T08:17:54+00:00</time>
      </trkpt>
      <trkpt lat="47.32705" lon="-0.65068">
        <ele>53</ele>
        <time>2014-02-16T08:17:55+00:00</time>
      </trkpt>
      <trkpt lat="47.32705" lon="-0.65066">
        <ele>54</ele>
        <time>2014-02-16T08:17:56+00:00</time>
      </trkpt>
      <trkpt lat="47.32705" lon="-0.6506">
        <ele>55</ele>
        <time>2014-02-16T08:17:59+00:00</time>
      </trkpt>
      <trkpt lat="47.32704" lon="-0.65058">
        <ele>54</ele>
        <time>2014-02-16T08:18:00+00:00</time>
      </trkpt>
      <trkpt lat="47.32704" lon="-0.65056">
        <ele>53</ele>
        <time>2014-02-16T08:18:01+00:00</time>
      </trkpt>
      <trkpt lat="47.32703" lon="-0.65053">
        <ele>52</ele>
        <time>2014-02-16T08:18:02+00:00</time>
      </trkpt>
      <trkpt lat="47.32702" lon="-0.6505">
        <ele>52</ele>
        <time>2014-02-16T08:18:04+00:00</time>
      </trkpt>
      <trkpt lat="47.32701" lon="-0.65048">
        <ele>52</ele>
        <time>2014-02-16T08:18:05+00:00</time>
      </trkpt>
      <trkpt lat="47.327" lon="-0.65044">
        <ele>53</ele>
        <time>2014-02-16T08:18:07+00:00</time>
      </trkpt>
      <trkpt lat="47.327" lon="-0.65042">
        <ele>54</ele>
        <time>2014-02-16T08:18:08+00:00</time>
      </trkpt>
      <trkpt lat="47.32698" lon="-0.65037">
        <ele>56</ele>
        <time>2014-02-16T08:18:11+00:00</time>
      </trkpt>
      <trkpt lat="47.32697" lon="-0.65036">
        <ele>57</ele>
        <time>2014-02-16T08:18:12+00:00</time>
      </trkpt>
      <trkpt lat="47.32697" lon="-0.65036">
        <ele>57</ele>
        <time>2014-02-16T08:18:13+00:00</time>
      </trkpt>
      <trkpt lat="47.32695" lon="-0.65035">
        <ele>59</ele>
        <time>2014-02-16T08:18:14+00:00</time>
      </trkpt>
      <trkpt lat="47.32694" lon="-0.65035">
        <ele>58</ele>
        <time>2014-02-16T08:18:15+00:00</time>
      </trkpt>
      <trkpt lat="47.32692" lon="-0.65036">
        <ele>58</ele>
        <time>2014-02-16T08:18:16+00:00</time>
      </trkpt>
      <trkpt lat="47.32692" lon="-0.65036">
        <ele>59</ele>
        <time>2014-02-16T08:18:17+00:00</time>
      </trkpt>
      <trkpt lat="47.32686" lon="-0.65042">
        <ele>60</ele>
        <time>2014-02-16T08:18:21+00:00</time>
      </trkpt>
      <trkpt lat="47.32685" lon="-0.65044">
        <ele>61</ele>
        <time>2014-02-16T08:18:22+00:00</time>
      </trkpt>
      <trkpt lat="47.32684" lon="-0.65046">
        <ele>60</ele>
        <time>2014-02-16T08:18:23+00:00</time>
      </trkpt>
      <trkpt lat="47.32684" lon="-0.65048">
        <ele>60</ele>
        <time>2014-02-16T08:18:24+00:00</time>
      </trkpt>
      <trkpt lat="47.32683" lon="-0.65051">
        <ele>61</ele>
        <time>2014-02-16T08:18:25+00:00</time>
      </trkpt>
      <trkpt lat="47.32682" lon="-0.65052">
        <ele>62</ele>
        <time>2014-02-16T08:18:26+00:00</time>
      </trkpt>
      <trkpt lat="47.3268" lon="-0.65055">
        <ele>62</ele>
        <time>2014-02-16T08:18:28+00:00</time>
      </trkpt>
      <trkpt lat="47.32679" lon="-0.65056">
        <ele>62</ele>
        <time>2014-02-16T08:18:29+00:00</time>
      </trkpt>
      <trkpt lat="47.32678" lon="-0.65057">
        <ele>63</ele>
        <time>2014-02-16T08:18:30+00:00</time>
      </trkpt>
      <trkpt lat="47.32675" lon="-0.65062">
        <ele>65</ele>
        <time>2014-02-16T08:18:34+00:00</time>
      </trkpt>
      <trkpt lat="47.32674" lon="-0.65064">
        <ele>66</ele>
        <time>2014-02-16T08:18:35+00:00</time>
      </trkpt>
      <trkpt lat="47.32673" lon="-0.65065">
        <ele>64</ele>
        <time>2014-02-16T08:18:36+00:00</time>
      </trkpt>
      <trkpt lat="47.32672" lon="-0.65067">
        <ele>64</ele>
        <time>2014-02-16T08:18:37+00:00</time>
      </trkpt>
      <trkpt lat="47.32671" lon="-0.65068">
        <ele>62</ele>
        <time>2014-02-16T08:18:38+00:00</time>
      </trkpt>
      <trkpt lat="47.3267" lon="-0.65068">
        <ele>62</ele>
        <time>2014-02-16T08:18:39+00:00</time>
      </trkpt>
      <trkpt lat="47.32665" lon="-0.65076">
        <ele>65</ele>
        <time>2014-02-16T08:18:45+00:00</time>
      </trkpt>
      <trkpt lat="47.32664" lon="-0.65076">
        <ele>65</ele>
        <time>2014-02-16T08:18:46+00:00</time>
      </trkpt>
      <trkpt lat="47.32661" lon="-0.65078">
        <ele>64</ele>
        <time>2014-02-16T08:18:48+00:00</time>
      </trkpt>
      <trkpt lat="47.3266" lon="-0.6508">
        <ele>63</ele>
        <time>2014-02-16T08:18:49+00:00</time>
      </trkpt>
      <trkpt lat="47.32657" lon="-0.65082">
        <ele>62</ele>
        <time>2014-02-16T08:18:51+00:00</time>
      </trkpt>
      <trkpt lat="47.32656" lon="-0.65084">
        <ele>62</ele>
        <time>2014-02-16T08:18:52+00:00</time>
      </trkpt>
      <trkpt lat="47.32655" lon="-0.65084">
        <ele>63</ele>
        <time>2014-02-16T08:18:53+00:00</time>
      </trkpt>
      <trkpt lat="47.32652" lon="-0.65087">
        <ele>63</ele>
        <time>2014-02-16T08:18:55+00:00</time>
      </trkpt>
      <trkpt lat="47.32651" lon="-0.65089">
        <ele>63</ele>
        <time>2014-02-16T08:18:56+00:00</time>
      </trkpt>
      <trkpt lat="47.3265" lon="-0.65091">
        <ele>63</ele>
        <time>2014-02-16T08:18:57+00:00</time>
      </trkpt>
      <trkpt lat="47.32649" lon="-0.65093">
        <ele>63</ele>
        <time>2014-02-16T08:18:58+00:00</time>
      </trkpt>
      <trkpt lat="47.32648" lon="-0.65095">
        <ele>63</ele>
        <time>2014-02-16T08:18:59+00:00</time>
      </trkpt>
      <trkpt lat="47.32647" lon="-0.65099">
        <ele>63</ele>
        <time>2014-02-16T08:19:00+00:00</time>
      </trkpt>
      <trkpt lat="47.32646" lon="-0.65102">
        <ele>63</ele>
        <time>2014-02-16T08:19:01+00:00</time>
      </trkpt>
      <trkpt lat="47.32645" lon="-0.65105">
        <ele>64</ele>
        <time>2014-02-16T08:19:02+00:00</time>
      </trkpt>
      <trkpt lat="47.32644" lon="-0.65109">
        <ele>63</ele>
        <time>2014-02-16T08:19:03+00:00</time>
      </trkpt>
      <trkpt lat="47.32643" lon="-0.65113">
        <ele>62</ele>
        <time>2014-02-16T08:19:04+00:00</time>
      </trkpt>
      <trkpt lat="47.32641" lon="-0.65116">
        <ele>62</ele>
        <time>2014-02-16T08:19:05+00:00</time>
      </trkpt>
      <trkpt lat="47.32639" lon="-0.65116">
        <ele>63</ele>
        <time>2014-02-16T08:19:06+00:00</time>
      </trkpt>
      <trkpt lat="47.32638" lon="-0.65116">
        <ele>63</ele>
        <time>2014-02-16T08:19:07+00:00</time>
      </trkpt>
      <trkpt lat="47.32637" lon="-0.65116">
        <ele>63</ele>
        <time>2014-02-16T08:19:08+00:00</time>
      </trkpt>
      <trkpt lat="47.32637" lon="-0.65115">
        <ele>63</ele>
        <time>2014-02-16T08:19:09+00:00</time>
      </trkpt>
      <trkpt lat="47.32636" lon="-0.65113">
        <ele>63</ele>
        <time>2014-02-16T08:19:10+00:00</time>
      </trkpt>
      <trkpt lat="47.32636" lon="-0.65111">
        <ele>63</ele>
        <time>2014-02-16T08:19:11+00:00</time>
      </trkpt>
      <trkpt lat="47.32636" lon="-0.65109">
        <ele>63</ele>
        <time>2014-02-16T08:19:12+00:00</time>
      </trkpt>
      <trkpt lat="47.32636" lon="-0.65107">
        <ele>63</ele>
        <time>2014-02-16T08:19:13+00:00</time>
      </trkpt>
      <trkpt lat="47.32636" lon="-0.65104">
        <ele>61</ele>
        <time>2014-02-16T08:19:14+00:00</time>
      </trkpt>
      <trkpt lat="47.32636" lon="-0.65102">
        <ele>61</ele>
        <time>2014-02-16T08:19:15+00:00</time>
      </trkpt>
      <trkpt lat="47.32636" lon="-0.651">
        <ele>61</ele>
        <time>2014-02-16T08:19:16+00:00</time>
      </trkpt>
      <trkpt lat="47.32636" lon="-0.65098">
        <ele>60</ele>
        <time>2014-02-16T08:19:17+00:00</time>
      </trkpt>
      <trkpt lat="47.32636" lon="-0.65095">
        <ele>60</ele>
        <time>2014-02-16T08:19:18+00:00</time>
      </trkpt>
      <trkpt lat="47.32637" lon="-0.65092">
        <ele>60</ele>
        <time>2014-02-16T08:19:20+00:00</time>
      </trkpt>
      <trkpt lat="47.32637" lon="-0.65089">
        <ele>60</ele>
        <time>2014-02-16T08:19:21+00:00</time>
      </trkpt>
      <trkpt lat="47.32639" lon="-0.65085">
        <ele>60</ele>
        <time>2014-02-16T08:19:23+00:00</time>
      </trkpt>
      <trkpt lat="47.3264" lon="-0.65084">
        <ele>61</ele>
        <time>2014-02-16T08:19:24+00:00</time>
      </trkpt>
      <trkpt lat="47.32643" lon="-0.6508">
        <ele>59</ele>
        <time>2014-02-16T08:19:28+00:00</time>
      </trkpt>
      <trkpt lat="47.32644" lon="-0.65078">
        <ele>60</ele>
        <time>2014-02-16T08:19:29+00:00</time>
      </trkpt>
      <trkpt lat="47.32644" lon="-0.65076">
        <ele>60</ele>
        <time>2014-02-16T08:19:30+00:00</time>
      </trkpt>
      <trkpt lat="47.32645" lon="-0.65072">
        <ele>59</ele>
        <time>2014-02-16T08:19:32+00:00</time>
      </trkpt>
      <trkpt lat="47.32645" lon="-0.6507">
        <ele>59</ele>
        <time>2014-02-16T08:19:33+00:00</time>
      </trkpt>
      <trkpt lat="47.32646" lon="-0.65068">
        <ele>59</ele>
        <time>2014-02-16T08:19:34+00:00</time>
      </trkpt>
      <trkpt lat="47.32646" lon="-0.65067">
        <ele>59</ele>
        <time>2014-02-16T08:19:35+00:00</time>
      </trkpt>
      <trkpt lat="47.32647" lon="-0.65065">
        <ele>59</ele>
        <time>2014-02-16T08:19:36+00:00</time>
      </trkpt>
      <trkpt lat="47.32647" lon="-0.65063">
        <ele>59</ele>
        <time>2014-02-16T08:19:37+00:00</time>
      </trkpt>
      <trkpt lat="47.32647" lon="-0.65062">
        <ele>60</ele>
        <time>2014-02-16T08:19:38+00:00</time>
      </trkpt>
      <trkpt lat="47.32647" lon="-0.6506">
        <ele>60</ele>
        <time>2014-02-16T08:19:39+00:00</time>
      </trkpt>
      <trkpt lat="47.32647" lon="-0.65058">
        <ele>60</ele>
        <time>2014-02-16T08:19:40+00:00</time>
      </trkpt>
      <trkpt lat="47.32647" lon="-0.65056">
        <ele>60</ele>
        <time>2014-02-16T08:19:41+00:00</time>
      </trkpt>
      <trkpt lat="47.32647" lon="-0.65052">
        <ele>60</ele>
        <time>2014-02-16T08:19:43+00:00</time>
      </trkpt>
      <trkpt lat="47.32646" lon="-0.65051">
        <ele>60</ele>
        <time>2014-02-16T08:19:44+00:00</time>
      </trkpt>
      <trkpt lat="47.32646" lon="-0.6505">
        <ele>60</ele>
        <time>2014-02-16T08:19:45+00:00</time>
      </trkpt>
      <trkpt lat="47.32646" lon="-0.6505">
        <ele>60</ele>
        <time>2014-02-16T08:19:46+00:00</time>
      </trkpt>
      <trkpt lat="47.32612" lon="-0.64983">
        <ele>75</ele>
        <time>2014-02-16T08:22:30+00:00</time>
      </trkpt>
      <trkpt lat="47.32612" lon="-0.64981">
        <ele>75</ele>
        <time>2014-02-16T08:22:31+00:00</time>
      </trkpt>
      <trkpt lat="47.32612" lon="-0.6498">
        <ele>74</ele>
        <time>2014-02-16T08:22:32+00:00</time>
      </trkpt>
      <trkpt lat="47.3261" lon="-0.64977">
        <ele>75</ele>
        <time>2014-02-16T08:22:34+00:00</time>
      </trkpt>
      <trkpt lat="47.32609" lon="-0.64976">
        <ele>76</ele>
        <time>2014-02-16T08:22:35+00:00</time>
      </trkpt>
      <trkpt lat="47.32607" lon="-0.64972">
        <ele>76</ele>
        <time>2014-02-16T08:22:37+00:00</time>
      </trkpt>
      <trkpt lat="47.32606" lon="-0.64971">
        <ele>75</ele>
        <time>2014-02-16T08:22:38+00:00</time>
      </trkpt>
      <trkpt lat="47.32604" lon="-0.64964">
        <ele>75</ele>
        <time>2014-02-16T08:22:41+00:00</time>
      </trkpt>
      <trkpt lat="47.32604" lon="-0.64964">
        <ele>76</ele>
        <time>2014-02-16T08:22:42+00:00</time>
      </trkpt>
      <trkpt lat="47.32603" lon="-0.64962">
        <ele>76</ele>
        <time>2014-02-16T08:22:43+00:00</time>
      </trkpt>
      <trkpt lat="47.326" lon="-0.64956">
        <ele>75</ele>
        <time>2014-02-16T08:22:46+00:00</time>
      </trkpt>
      <trkpt lat="47.32599" lon="-0.64954">
        <ele>75</ele>
        <time>2014-02-16T08:22:47+00:00</time>
      </trkpt>
      <trkpt lat="47.32596" lon="-0.64947">
        <ele>77</ele>
        <time>2014-02-16T08:22:52+00:00</time>
      </trkpt>
      <trkpt lat="47.32595" lon="-0.64945">
        <ele>78</ele>
        <time>2014-02-16T08:22:53+00:00</time>
      </trkpt>
      <trkpt lat="47.32593" lon="-0.6494">
        <ele>79</ele>
        <time>2014-02-16T08:22:56+00:00</time>
      </trkpt>
      <trkpt lat="47.32592" lon="-0.64938">
        <ele>79</ele>
        <time>2014-02-16T08:22:57+00:00</time>
      </trkpt>
      <trkpt lat="47.32589" lon="-0.64934">
        <ele>78</ele>
        <time>2014-02-16T08:22:59+00:00</time>
      </trkpt>
      <trkpt lat="47.32588" lon="-0.64932">
        <ele>78</ele>
        <time>2014-02-16T08:23:00+00:00</time>
      </trkpt>
      <trkpt lat="47.32588" lon="-0.64932">
        <ele>78</ele>
        <time>2014-02-16T08:23:01+00:00</time>
      </trkpt>
      <trkpt lat="47.32587" lon="-0.6493">
        <ele>79</ele>
        <time>2014-02-16T08:23:02+00:00</time>
      </trkpt>
      <trkpt lat="47.32587" lon="-0.64928">
        <ele>79</ele>
        <time>2014-02-16T08:23:03+00:00</time>
      </trkpt>
      <trkpt lat="47.32586" lon="-0.64926">
        <ele>78</ele>
        <time>2014-02-16T08:23:04+00:00</time>
      </trkpt>
      <trkpt lat="47.32585" lon="-0.64924">
        <ele>78</ele>
        <time>2014-02-16T08:23:05+00:00</time>
      </trkpt>
      <trkpt lat="47.32585" lon="-0.64923">
        <ele>78</ele>
        <time>2014-02-16T08:23:06+00:00</time>
      </trkpt>
      <trkpt lat="47.32583" lon="-0.64917">
        <ele>76</ele>
        <time>2014-02-16T08:23:09+00:00</time>
      </trkpt>
      <trkpt lat="47.32582" lon="-0.64916">
        <ele>77</ele>
        <time>2014-02-16T08:23:10+00:00</time>
      </trkpt>
      <trkpt lat="47.3258" lon="-0.64915">
        <ele>78</ele>
        <time>2014-02-16T08:23:12+00:00</time>
      </trkpt>
      <trkpt lat="47.3258" lon="-0.64914">
        <ele>78</ele>
        <time>2014-02-16T08:23:13+00:00</time>
      </trkpt>
      <trkpt lat="47.32579" lon="-0.64912">
        <ele>78</ele>
        <time>2014-02-16T08:23:14+00:00</time>
      </trkpt>
      <trkpt lat="47.32578" lon="-0.64911">
        <ele>78</ele>
        <time>2014-02-16T08:23:15+00:00</time>
      </trkpt>
      <trkpt lat="47.32577" lon="-0.6491">
        <ele>78</ele>
        <time>2014-02-16T08:23:16+00:00</time>
      </trkpt>
      <trkpt lat="47.32576" lon="-0.64908">
        <ele>79</ele>
        <time>2014-02-16T08:23:17+00:00</time>
      </trkpt>
      <trkpt lat="47.32575" lon="-0.64907">
        <ele>79</ele>
        <time>2014-02-16T08:23:19+00:00</time>
      </trkpt>
      <trkpt lat="47.32574" lon="-0.64905">
        <ele>79</ele>
        <time>2014-02-16T08:23:20+00:00</time>
      </trkpt>
      <trkpt lat="47.32573" lon="-0.64903">
        <ele>79</ele>
        <time>2014-02-16T08:23:21+00:00</time>
      </trkpt>
      <trkpt lat="47.32573" lon="-0.64902">
        <ele>79</ele>
        <time>2014-02-16T08:23:22+00:00</time>
      </trkpt>
      <trkpt lat="47.32572" lon="-0.649">
        <ele>79</ele>
        <time>2014-02-16T08:23:23+00:00</time>
      </trkpt>
      <trkpt lat="47.32564" lon="-0.64884">
        <ele>77</ele>
        <time>2014-02-16T08:23:33+00:00</time>
      </trkpt>
      <trkpt lat="47.32563" lon="-0.64882">
        <ele>76</ele>
        <time>2014-02-16T08:23:35+00:00</time>
      </trkpt>
      <trkpt lat="47.32562" lon="-0.6488">
        <ele>76</ele>
        <time>2014-02-16T08:23:36+00:00</time>
      </trkpt>
      <trkpt lat="47.32561" lon="-0.64878">
        <ele>77</ele>
        <time>2014-02-16T08:23:37+00:00</time>
      </trkpt>
      <trkpt lat="47.32556" lon="-0.64869">
        <ele>79</ele>
        <time>2014-02-16T08:23:43+00:00</time>
      </trkpt>
      <trkpt lat="47.32556" lon="-0.64868">
        <ele>79</ele>
        <time>2014-02-16T08:23:44+00:00</time>
      </trkpt>
      <trkpt lat="47.32556" lon="-0.64866">
        <ele>79</ele>
        <time>2014-02-16T08:23:45+00:00</time>
      </trkpt>
      <trkpt lat="47.32555" lon="-0.64864">
        <ele>80</ele>
        <time>2014-02-16T08:23:46+00:00</time>
      </trkpt>
      <trkpt lat="47.32529" lon="-0.64817">
        <ele>78</ele>
        <time>2014-02-16T08:24:12+00:00</time>
      </trkpt>
      <trkpt lat="47.32528" lon="-0.64814">
        <ele>78</ele>
        <time>2014-02-16T08:24:13+00:00</time>
      </trkpt>
      <trkpt lat="47.32527" lon="-0.64812">
        <ele>77</ele>
        <time>2014-02-16T08:24:14+00:00</time>
      </trkpt>
      <trkpt lat="47.32526" lon="-0.6481">
        <ele>78</ele>
        <time>2014-02-16T08:24:15+00:00</time>
      </trkpt>
      <trkpt lat="47.32525" lon="-0.64808">
        <ele>79</ele>
        <time>2014-02-16T08:24:16+00:00</time>
      </trkpt>
      <trkpt lat="47.32519" lon="-0.64797">
        <ele>81</ele>
        <time>2014-02-16T08:24:21+00:00</time>
      </trkpt>
      <trkpt lat="47.32518" lon="-0.64795">
        <ele>81</ele>
        <time>2014-02-16T08:24:22+00:00</time>
      </trkpt>
      <trkpt lat="47.32517" lon="-0.64793">
        <ele>81</ele>
        <time>2014-02-16T08:24:23+00:00</time>
      </trkpt>
      <trkpt lat="47.32516" lon="-0.6479">
        <ele>80</ele>
        <time>2014-02-16T08:24:24+00:00</time>
      </trkpt>
      <trkpt lat="47.32515" lon="-0.64788">
        <ele>80</ele>
        <time>2014-02-16T08:24:25+00:00</time>
      </trkpt>
      <trkpt lat="47.32513" lon="-0.64787">
        <ele>79</ele>
        <time>2014-02-16T08:24:26+00:00</time>
      </trkpt>
      <trkpt lat="47.32504" lon="-0.64774">
        <ele>81</ele>
        <time>2014-02-16T08:24:32+00:00</time>
      </trkpt>
      <trkpt lat="47.32503" lon="-0.64772">
        <ele>81</ele>
        <time>2014-02-16T08:24:33+00:00</time>
      </trkpt>
      <trkpt lat="47.32501" lon="-0.6477">
        <ele>81</ele>
        <time>2014-02-16T08:24:34+00:00</time>
      </trkpt>
      <trkpt lat="47.325" lon="-0.64767">
        <ele>82</ele>
        <time>2014-02-16T08:24:35+00:00</time>
      </trkpt>
      <trkpt lat="47.32496" lon="-0.64761">
        <ele>81</ele>
        <time>2014-02-16T08:24:38+00:00</time>
      </trkpt>
      <trkpt lat="47.32494" lon="-0.64759">
        <ele>81</ele>
        <time>2014-02-16T08:24:39+00:00</time>
      </trkpt>
      <trkpt lat="47.32485" lon="-0.6474">
        <ele>81</ele>
        <time>2014-02-16T08:24:46+00:00</time>
      </trkpt>
      <trkpt lat="47.32484" lon="-0.64738">
        <ele>81</ele>
        <time>2014-02-16T08:24:47+00:00</time>
      </trkpt>
      <trkpt lat="47.32481" lon="-0.6473">
        <ele>80</ele>
        <time>2014-02-16T08:24:50+00:00</time>
      </trkpt>
      <trkpt lat="47.32479" lon="-0.64726">
        <ele>80</ele>
        <time>2014-02-16T08:24:51+00:00</time>
      </trkpt>
      <trkpt lat="47.32476" lon="-0.64719">
        <ele>80</ele>
        <time>2014-02-16T08:24:53+00:00</time>
      </trkpt>
      <trkpt lat="47.32475" lon="-0.64716">
        <ele>80</ele>
        <time>2014-02-16T08:24:54+00:00</time>
      </trkpt>
      <trkpt lat="47.32473" lon="-0.64715">
        <ele>81</ele>
        <time>2014-02-16T08:24:55+00:00</time>
      </trkpt>
      <trkpt lat="47.3247" lon="-0.64712">
        <ele>79</ele>
        <time>2014-02-16T08:24:56+00:00</time>
      </trkpt>
      <trkpt lat="47.32468" lon="-0.64709">
        <ele>80</ele>
        <time>2014-02-16T08:24:57+00:00</time>
      </trkpt>
      <trkpt lat="47.32465" lon="-0.64703">
        <ele>77</ele>
        <time>2014-02-16T08:24:59+00:00</time>
      </trkpt>
      <trkpt lat="47.32463" lon="-0.647">
        <ele>77</ele>
        <time>2014-02-16T08:25:00+00:00</time>
      </trkpt>
      <trkpt lat="47.32452" lon="-0.64672">
        <ele>79</ele>
        <time>2014-02-16T08:25:08+00:00</time>
      </trkpt>
      <trkpt lat="47.32452" lon="-0.64668">
        <ele>79</ele>
        <time>2014-02-16T08:25:09+00:00</time>
      </trkpt>
      <trkpt lat="47.32451" lon="-0.64665">
        <ele>78</ele>
        <time>2014-02-16T08:25:10+00:00</time>
      </trkpt>
      <trkpt lat="47.32449" lon="-0.64663">
        <ele>79</ele>
        <time>2014-02-16T08:25:11+00:00</time>
      </trkpt>
      <trkpt lat="47.32448" lon="-0.64663">
        <ele>79</ele>
        <time>2014-02-16T08:25:12+00:00</time>
      </trkpt>
      <trkpt lat="47.32446" lon="-0.64663">
        <ele>78</ele>
        <time>2014-02-16T08:25:13+00:00</time>
      </trkpt>
      <trkpt lat="47.32444" lon="-0.64665">
        <ele>78</ele>
        <time>2014-02-16T08:25:14+00:00</time>
      </trkpt>
      <trkpt lat="47.32442" lon="-0.64667">
        <ele>77</ele>
        <time>2014-02-16T08:25:15+00:00</time>
      </trkpt>
      <trkpt lat="47.32439" lon="-0.64669">
        <ele>76</ele>
        <time>2014-02-16T08:25:16+00:00</time>
      </trkpt>
      <trkpt lat="47.32437" lon="-0.64673">
        <ele>75</ele>
        <time>2014-02-16T08:25:17+00:00</time>
      </trkpt>
      <trkpt lat="47.32436" lon="-0.64676">
        <ele>75</ele>
        <time>2014-02-16T08:25:18+00:00</time>
      </trkpt>
      <trkpt lat="47.32433" lon="-0.64681">
        <ele>74</ele>
        <time>2014-02-16T08:25:19+00:00</time>
      </trkpt>
      <trkpt lat="47.32429" lon="-0.6469">
        <ele>73</ele>
        <time>2014-02-16T08:25:21+00:00</time>
      </trkpt>
      <trkpt lat="47.32428" lon="-0.64694">
        <ele>73</ele>
        <time>2014-02-16T08:25:22+00:00</time>
      </trkpt>
      <trkpt lat="47.32417" lon="-0.64725">
        <ele>71</ele>
        <time>2014-02-16T08:25:29+00:00</time>
      </trkpt>
      <trkpt lat="47.32415" lon="-0.6473">
        <ele>71</ele>
        <time>2014-02-16T08:25:30+00:00</time>
      </trkpt>
      <trkpt lat="47.32411" lon="-0.64738">
        <ele>70</ele>
        <time>2014-02-16T08:25:32+00:00</time>
      </trkpt>
      <trkpt lat="47.32408" lon="-0.64742">
        <ele>70</ele>
        <time>2014-02-16T08:25:33+00:00</time>
      </trkpt>
      <trkpt lat="47.32405" lon="-0.64746">
        <ele>70</ele>
        <time>2014-02-16T08:25:34+00:00</time>
      </trkpt>
      <trkpt lat="47.32403" lon="-0.64748">
        <ele>70</ele>
        <time>2014-02-16T08:25:35+00:00</time>
      </trkpt>
      <trkpt lat="47.324" lon="-0.64752">
        <ele>70</ele>
        <time>2014-02-16T08:25:36+00:00</time>
      </trkpt>
      <trkpt lat="47.32399" lon="-0.64756">
        <ele>70</ele>
        <time>2014-02-16T08:25:37+00:00</time>
      </trkpt>
      <trkpt lat="47.32399" lon="-0.64759">
        <ele>70</ele>
        <time>2014-02-16T08:25:38+00:00</time>
      </trkpt>
      <trkpt lat="47.32399" lon="-0.64764">
        <ele>69</ele>
        <time>2014-02-16T08:25:39+00:00</time>
      </trkpt>
      <trkpt lat="47.32398" lon="-0.64766">
        <ele>69</ele>
        <time>2014-02-16T08:25:40+00:00</time>
      </trkpt>
      <trkpt lat="47.32397" lon="-0.64768">
        <ele>69</ele>
        <time>2014-02-16T08:25:41+00:00</time>
      </trkpt>
      <trkpt lat="47.32396" lon="-0.64768">
        <ele>68</ele>
        <time>2014-02-16T08:25:42+00:00</time>
      </trkpt>
      <trkpt lat="47.32395" lon="-0.64766">
        <ele>68</ele>
        <time>2014-02-16T08:25:43+00:00</time>
      </trkpt>
      <trkpt lat="47.32394" lon="-0.64764">
        <ele>68</ele>
        <time>2014-02-16T08:25:44+00:00</time>
      </trkpt>
      <trkpt lat="47.32393" lon="-0.6476">
        <ele>68</ele>
        <time>2014-02-16T08:25:45+00:00</time>
      </trkpt>
      <trkpt lat="47.32392" lon="-0.64756">
        <ele>68</ele>
        <time>2014-02-16T08:25:46+00:00</time>
      </trkpt>
      <trkpt lat="47.32392" lon="-0.64751">
        <ele>68</ele>
        <time>2014-02-16T08:25:47+00:00</time>
      </trkpt>
      <trkpt lat="47.32393" lon="-0.64747">
        <ele>67</ele>
        <time>2014-02-16T08:25:48+00:00</time>
      </trkpt>
      <trkpt lat="47.32394" lon="-0.64743">
        <ele>66</ele>
        <time>2014-02-16T08:25:49+00:00</time>
      </trkpt>
      <trkpt lat="47.32396" lon="-0.6474">
        <ele>66</ele>
        <time>2014-02-16T08:25:50+00:00</time>
      </trkpt>
      <trkpt lat="47.32397" lon="-0.64737">
        <ele>66</ele>
        <time>2014-02-16T08:25:51+00:00</time>
      </trkpt>
      <trkpt lat="47.32399" lon="-0.64734">
        <ele>67</ele>
        <time>2014-02-16T08:25:52+00:00</time>
      </trkpt>
      <trkpt lat="47.32404" lon="-0.6473">
        <ele>66</ele>
        <time>2014-02-16T08:25:54+00:00</time>
      </trkpt>
      <trkpt lat="47.32406" lon="-0.64726">
        <ele>66</ele>
        <time>2014-02-16T08:25:55+00:00</time>
      </trkpt>
      <trkpt lat="47.32412" lon="-0.64717">
        <ele>66</ele>
        <time>2014-02-16T08:25:58+00:00</time>
      </trkpt>
      <trkpt lat="47.32413" lon="-0.64715">
        <ele>66</ele>
        <time>2014-02-16T08:25:59+00:00</time>
      </trkpt>
      <trkpt lat="47.32417" lon="-0.64708">
        <ele>66</ele>
        <time>2014-02-16T08:26:01+00:00</time>
      </trkpt>
      <trkpt lat="47.32418" lon="-0.64704">
        <ele>66</ele>
        <time>2014-02-16T08:26:02+00:00</time>
      </trkpt>
      <trkpt lat="47.32424" lon="-0.64687">
        <ele>66</ele>
        <time>2014-02-16T08:26:07+00:00</time>
      </trkpt>
      <trkpt lat="47.32425" lon="-0.64684">
        <ele>66</ele>
        <time>2014-02-16T08:26:08+00:00</time>
      </trkpt>
      <trkpt lat="47.32425" lon="-0.64682">
        <ele>65</ele>
        <time>2014-02-16T08:26:09+00:00</time>
      </trkpt>
      <trkpt lat="47.32424" lon="-0.6468">
        <ele>67</ele>
        <time>2014-02-16T08:26:10+00:00</time>
      </trkpt>
      <trkpt lat="47.32423" lon="-0.64678">
        <ele>68</ele>
        <time>2014-02-16T08:26:11+00:00</time>
      </trkpt>
      <trkpt lat="47.32419" lon="-0.64674">
        <ele>71</ele>
        <time>2014-02-16T08:26:14+00:00</time>
      </trkpt>
      <trkpt lat="47.32419" lon="-0.64673">
        <ele>71</ele>
        <time>2014-02-16T08:26:15+00:00</time>
      </trkpt>
      <trkpt lat="47.32419" lon="-0.64673">
        <ele>72</ele>
        <time>2014-02-16T08:26:16+00:00</time>
      </trkpt>
      <trkpt lat="47.3239" lon="-0.64616">
        <ele>77</ele>
        <time>2014-02-16T08:30:05+00:00</time>
      </trkpt>
      <trkpt lat="47.32389" lon="-0.64614">
        <ele>77</ele>
        <time>2014-02-16T08:30:06+00:00</time>
      </trkpt>
      <trkpt lat="47.32388" lon="-0.64612">
        <ele>77</ele>
        <time>2014-02-16T08:30:07+00:00</time>
      </trkpt>
      <trkpt lat="47.32388" lon="-0.64611">
        <ele>78</ele>
        <time>2014-02-16T08:30:08+00:00</time>
      </trkpt>
      <trkpt lat="47.32345" lon="-0.6452">
        <ele>76</ele>
        <time>2014-02-16T08:30:38+00:00</time>
      </trkpt>
      <trkpt lat="47.32343" lon="-0.64517">
        <ele>76</ele>
        <time>2014-02-16T08:30:39+00:00</time>
      </trkpt>
      <trkpt lat="47.32341" lon="-0.64514">
        <ele>76</ele>
        <time>2014-02-16T08:30:40+00:00</time>
      </trkpt>
      <trkpt lat="47.3234" lon="-0.6451">
        <ele>76</ele>
        <time>2014-02-16T08:30:41+00:00</time>
      </trkpt>
      <trkpt lat="47.32335" lon="-0.645">
        <ele>76</ele>
        <time>2014-02-16T08:30:44+00:00</time>
      </trkpt>
      <trkpt lat="47.32334" lon="-0.64496">
        <ele>75</ele>
        <time>2014-02-16T08:30:45+00:00</time>
      </trkpt>
      <trkpt lat="47.32334" lon="-0.64492">
        <ele>74</ele>
        <time>2014-02-16T08:30:46+00:00</time>
      </trkpt>
      <trkpt lat="47.32334" lon="-0.64489">
        <ele>74</ele>
        <time>2014-02-16T08:30:47+00:00</time>
      </trkpt>
      <trkpt lat="47.32334" lon="-0.64486">
        <ele>74</ele>
        <time>2014-02-16T08:30:48+00:00</time>
      </trkpt>
      <trkpt lat="47.32334" lon="-0.64484">
        <ele>74</ele>
        <time>2014-02-16T08:30:49+00:00</time>
      </trkpt>
      <trkpt lat="47.32335" lon="-0.64481">
        <ele>73</ele>
        <time>2014-02-16T08:30:50+00:00</time>
      </trkpt>
      <trkpt lat="47.32336" lon="-0.64478">
        <ele>73</ele>
        <time>2014-02-16T08:30:51+00:00</time>
      </trkpt>
      <trkpt lat="47.32338" lon="-0.64476">
        <ele>73</ele>
        <time>2014-02-16T08:30:52+00:00</time>
      </trkpt>
      <trkpt lat="47.32342" lon="-0.64471">
        <ele>73</ele>
        <time>2014-02-16T08:30:55+00:00</time>
      </trkpt>
      <trkpt lat="47.32344" lon="-0.6447">
        <ele>73</ele>
        <time>2014-02-16T08:30:56+00:00</time>
      </trkpt>
      <trkpt lat="47.32348" lon="-0.64468">
        <ele>73</ele>
        <time>2014-02-16T08:30:59+00:00</time>
      </trkpt>
      <trkpt lat="47.32349" lon="-0.64467">
        <ele>73</ele>
        <time>2014-02-16T08:31:00+00:00</time>
      </trkpt>
      <trkpt lat="47.3235" lon="-0.64467">
        <ele>73</ele>
        <time>2014-02-16T08:31:01+00:00</time>
      </trkpt>
      <trkpt lat="47.32352" lon="-0.64466">
        <ele>73</ele>
        <time>2014-02-16T08:31:02+00:00</time>
      </trkpt>
      <trkpt lat="47.32353" lon="-0.64465">
        <ele>73</ele>
        <time>2014-02-16T08:31:03+00:00</time>
      </trkpt>
      <trkpt lat="47.32353" lon="-0.64466">
        <ele>74</ele>
        <time>2014-02-16T08:31:04+00:00</time>
      </trkpt>
      <trkpt lat="47.32354" lon="-0.64467">
        <ele>74</ele>
        <time>2014-02-16T08:31:05+00:00</time>
      </trkpt>
      <trkpt lat="47.32354" lon="-0.64467">
        <ele>74</ele>
        <time>2014-02-16T08:31:06+00:00</time>
      </trkpt>
      <trkpt lat="47.32352" lon="-0.64468">
        <ele>74</ele>
        <time>2014-02-16T08:31:07+00:00</time>
      </trkpt>
      <trkpt lat="47.3235" lon="-0.64467">
        <ele>74</ele>
        <time>2014-02-16T08:31:08+00:00</time>
      </trkpt>
      <trkpt lat="47.32349" lon="-0.64467">
        <ele>74</ele>
        <time>2014-02-16T08:31:09+00:00</time>
      </trkpt>
      <trkpt lat="47.32348" lon="-0.64466">
        <ele>73</ele>
        <time>2014-02-16T08:31:10+00:00</time>
      </trkpt>
      <trkpt lat="47.32347" lon="-0.64464">
        <ele>73</ele>
        <time>2014-02-16T08:31:11+00:00</time>
      </trkpt>
      <trkpt lat="47.32346" lon="-0.64461">
        <ele>72</ele>
        <time>2014-02-16T08:31:12+00:00</time>
      </trkpt>
      <trkpt lat="47.32344" lon="-0.64457">
        <ele>70</ele>
        <time>2014-02-16T08:31:13+00:00</time>
      </trkpt>
      <trkpt lat="47.32343" lon="-0.64452">
        <ele>69</ele>
        <time>2014-02-16T08:31:14+00:00</time>
      </trkpt>
      <trkpt lat="47.32341" lon="-0.64448">
        <ele>69</ele>
        <time>2014-02-16T08:31:15+00:00</time>
      </trkpt>
      <trkpt lat="47.32338" lon="-0.6443">
        <ele>68</ele>
        <time>2014-02-16T08:31:20+00:00</time>
      </trkpt>
      <trkpt lat="47.32337" lon="-0.64428">
        <ele>68</ele>
        <time>2014-02-16T08:31:21+00:00</time>
      </trkpt>
      <trkpt lat="47.32336" lon="-0.64425">
        <ele>68</ele>
        <time>2014-02-16T08:31:22+00:00</time>
      </trkpt>
      <trkpt lat="47.32334" lon="-0.64421">
        <ele>68</ele>
        <time>2014-02-16T08:31:23+00:00</time>
      </trkpt>
      <trkpt lat="47.32333" lon="-0.64418">
        <ele>68</ele>
        <time>2014-02-16T08:31:24+00:00</time>
      </trkpt>
      <trkpt lat="47.32332" lon="-0.64415">
        <ele>67</ele>
        <time>2014-02-16T08:31:25+00:00</time>
      </trkpt>
      <trkpt lat="47.32328" lon="-0.64395">
        <ele>68</ele>
        <time>2014-02-16T08:31:30+00:00</time>
      </trkpt>
      <trkpt lat="47.32327" lon="-0.64389">
        <ele>67</ele>
        <time>2014-02-16T08:31:31+00:00</time>
      </trkpt>
      <trkpt lat="47.32323" lon="-0.64368">
        <ele>67</ele>
        <time>2014-02-16T08:31:35+00:00</time>
      </trkpt>
      <trkpt lat="47.32323" lon="-0.64363">
        <ele>67</ele>
        <time>2014-02-16T08:31:36+00:00</time>
      </trkpt>
      <trkpt lat="47.32322" lon="-0.64357">
        <ele>66</ele>
        <time>2014-02-16T08:31:37+00:00</time>
      </trkpt>
      <trkpt lat="47.32321" lon="-0.64353">
        <ele>66</ele>
        <time>2014-02-16T08:31:38+00:00</time>
      </trkpt>
      <trkpt lat="47.32315" lon="-0.64326">
        <ele>63</ele>
        <time>2014-02-16T08:31:44+00:00</time>
      </trkpt>
      <trkpt lat="47.32313" lon="-0.64323">
        <ele>63</ele>
        <time>2014-02-16T08:31:45+00:00</time>
      </trkpt>
      <trkpt lat="47.32312" lon="-0.64319">
        <ele>63</ele>
        <time>2014-02-16T08:31:46+00:00</time>
      </trkpt>
      <trkpt lat="47.32311" lon="-0.64316">
        <ele>62</ele>
        <time>2014-02-16T08:31:47+00:00</time>
      </trkpt>
      <trkpt lat="47.32311" lon="-0.6431">
        <ele>62</ele>
        <time>2014-02-16T08:31:48+00:00</time>
      </trkpt>
      <trkpt lat="47.32311" lon="-0.64301">
        <ele>61</ele>
        <time>2014-02-16T08:31:50+00:00</time>
      </trkpt>
      <trkpt lat="47.32312" lon="-0.64297">
        <ele>61</ele>
        <time>2014-02-16T08:31:51+00:00</time>
      </trkpt>
      <trkpt lat="47.32313" lon="-0.64281">
        <ele>61</ele>
        <time>2014-02-16T08:31:55+00:00</time>
      </trkpt>
      <trkpt lat="47.32313" lon="-0.64279">
        <ele>61</ele>
        <time>2014-02-16T08:31:56+00:00</time>
      </trkpt>
      <trkpt lat="47.32313" lon="-0.64277">
        <ele>61</ele>
        <time>2014-02-16T08:31:57+00:00</time>
      </trkpt>
      <trkpt lat="47.32313" lon="-0.64276">
        <ele>62</ele>
        <time>2014-02-16T08:31:58+00:00</time>
      </trkpt>
      <trkpt lat="47.32313" lon="-0.64276">
        <ele>63</ele>
        <time>2014-02-16T08:31:59+00:00</time>
      </trkpt>
      <trkpt lat="47.32313" lon="-0.64275">
        <ele>63</ele>
        <time>2014-02-16T08:32:00+00:00</time>
      </trkpt>
      <trkpt lat="47.32314" lon="-0.64273">
        <ele>62</ele>
        <time>2014-02-16T08:32:01+00:00</time>
      </trkpt>
      <trkpt lat="47.32316" lon="-0.64269">
        <ele>62</ele>
        <time>2014-02-16T08:32:03+00:00</time>
      </trkpt>
      <trkpt lat="47.32316" lon="-0.64268">
        <ele>62</ele>
        <time>2014-02-16T08:32:04+00:00</time>
      </trkpt>
      <trkpt lat="47.32316" lon="-0.64265">
        <ele>62</ele>
        <time>2014-02-16T08:32:05+00:00</time>
      </trkpt>
      <trkpt lat="47.32318" lon="-0.6426">
        <ele>63</ele>
        <time>2014-02-16T08:32:07+00:00</time>
      </trkpt>
      <trkpt lat="47.32318" lon="-0.64258">
        <ele>63</ele>
        <time>2014-02-16T08:32:08+00:00</time>
      </trkpt>
      <trkpt lat="47.32319" lon="-0.64255">
        <ele>64</ele>
        <time>2014-02-16T08:32:09+00:00</time>
      </trkpt>
      <trkpt lat="47.32319" lon="-0.64246">
        <ele>64</ele>
        <time>2014-02-16T08:32:12+00:00</time>
      </trkpt>
      <trkpt lat="47.32319" lon="-0.64244">
        <ele>64</ele>
        <time>2014-02-16T08:32:13+00:00</time>
      </trkpt>
      <trkpt lat="47.32319" lon="-0.64241">
        <ele>64</ele>
        <time>2014-02-16T08:32:15+00:00</time>
      </trkpt>
      <trkpt lat="47.32319" lon="-0.64239">
        <ele>65</ele>
        <time>2014-02-16T08:32:16+00:00</time>
      </trkpt>
      <trkpt lat="47.32321" lon="-0.64226">
        <ele>67</ele>
        <time>2014-02-16T08:32:24+00:00</time>
      </trkpt>
      <trkpt lat="47.32321" lon="-0.64225">
        <ele>68</ele>
        <time>2014-02-16T08:32:25+00:00</time>
      </trkpt>
      <trkpt lat="47.32321" lon="-0.6422">
        <ele>68</ele>
        <time>2014-02-16T08:32:27+00:00</time>
      </trkpt>
      <trkpt lat="47.32322" lon="-0.64218">
        <ele>67</ele>
        <time>2014-02-16T08:32:28+00:00</time>
      </trkpt>
      <trkpt lat="47.32323" lon="-0.64213">
        <ele>67</ele>
        <time>2014-02-16T08:32:30+00:00</time>
      </trkpt>
      <trkpt lat="47.32324" lon="-0.64211">
        <ele>67</ele>
        <time>2014-02-16T08:32:31+00:00</time>
      </trkpt>
      <trkpt lat="47.32324" lon="-0.64209">
        <ele>67</ele>
        <time>2014-02-16T08:32:32+00:00</time>
      </trkpt>
      <trkpt lat="47.32324" lon="-0.64206">
        <ele>67</ele>
        <time>2014-02-16T08:32:33+00:00</time>
      </trkpt>
      <trkpt lat="47.32324" lon="-0.64202">
        <ele>67</ele>
        <time>2014-02-16T08:32:35+00:00</time>
      </trkpt>
      <trkpt lat="47.32324" lon="-0.642">
        <ele>67</ele>
        <time>2014-02-16T08:32:36+00:00</time>
      </trkpt>
      <trkpt lat="47.32324" lon="-0.64198">
        <ele>66</ele>
        <time>2014-02-16T08:32:37+00:00</time>
      </trkpt>
      <trkpt lat="47.32324" lon="-0.64196">
        <ele>66</ele>
        <time>2014-02-16T08:32:38+00:00</time>
      </trkpt>
      <trkpt lat="47.32324" lon="-0.64195">
        <ele>66</ele>
        <time>2014-02-16T08:32:39+00:00</time>
      </trkpt>
      <trkpt lat="47.32324" lon="-0.64193">
        <ele>67</ele>
        <time>2014-02-16T08:32:40+00:00</time>
      </trkpt>
      <trkpt lat="47.32324" lon="-0.64186">
        <ele>68</ele>
        <time>2014-02-16T08:32:44+00:00</time>
      </trkpt>
      <trkpt lat="47.32324" lon="-0.64184">
        <ele>67</ele>
        <time>2014-02-16T08:32:45+00:00</time>
      </trkpt>
      <trkpt lat="47.32325" lon="-0.64178">
        <ele>67</ele>
        <time>2014-02-16T08:32:48+00:00</time>
      </trkpt>
      <trkpt lat="47.32325" lon="-0.64176">
        <ele>67</ele>
        <time>2014-02-16T08:32:49+00:00</time>
      </trkpt>
      <trkpt lat="47.32325" lon="-0.64172">
        <ele>68</ele>
        <time>2014-02-16T08:32:51+00:00</time>
      </trkpt>
      <trkpt lat="47.32326" lon="-0.64171">
        <ele>68</ele>
        <time>2014-02-16T08:32:52+00:00</time>
      </trkpt>
      <trkpt lat="47.32326" lon="-0.6417">
        <ele>68</ele>
        <time>2014-02-16T08:32:53+00:00</time>
      </trkpt>
      <trkpt lat="47.32326" lon="-0.64151">
        <ele>68</ele>
        <time>2014-02-16T08:33:04+00:00</time>
      </trkpt>
      <trkpt lat="47.32326" lon="-0.64149">
        <ele>68</ele>
        <time>2014-02-16T08:33:05+00:00</time>
      </trkpt>
      <trkpt lat="47.32325" lon="-0.64138">
        <ele>68</ele>
        <time>2014-02-16T08:33:10+00:00</time>
      </trkpt>
      <trkpt lat="47.32325" lon="-0.64135">
        <ele>68</ele>
        <time>2014-02-16T08:33:11+00:00</time>
      </trkpt>
      <trkpt lat="47.32325" lon="-0.64131">
        <ele>68</ele>
        <time>2014-02-16T08:33:13+00:00</time>
      </trkpt>
      <trkpt lat="47.32325" lon="-0.64129">
        <ele>68</ele>
        <time>2014-02-16T08:33:14+00:00</time>
      </trkpt>
      <trkpt lat="47.32326" lon="-0.64124">
        <ele>69</ele>
        <time>2014-02-16T08:33:16+00:00</time>
      </trkpt>
      <trkpt lat="47.32327" lon="-0.64122">
        <ele>69</ele>
        <time>2014-02-16T08:33:17+00:00</time>
      </trkpt>
      <trkpt lat="47.3233" lon="-0.64112">
        <ele>69</ele>
        <time>2014-02-16T08:33:21+00:00</time>
      </trkpt>
      <trkpt lat="47.32331" lon="-0.6411">
        <ele>69</ele>
        <time>2014-02-16T08:33:22+00:00</time>
      </trkpt>
      <trkpt lat="47.32332" lon="-0.64108">
        <ele>69</ele>
        <time>2014-02-16T08:33:23+00:00</time>
      </trkpt>
      <trkpt lat="47.32332" lon="-0.64106">
        <ele>69</ele>
        <time>2014-02-16T08:33:24+00:00</time>
      </trkpt>
      <trkpt lat="47.32335" lon="-0.64101">
        <ele>69</ele>
        <time>2014-02-16T08:33:26+00:00</time>
      </trkpt>
      <trkpt lat="47.32336" lon="-0.641">
        <ele>70</ele>
        <time>2014-02-16T08:33:27+00:00</time>
      </trkpt>
      <trkpt lat="47.32339" lon="-0.64097">
        <ele>71</ele>
        <time>2014-02-16T08:33:29+00:00</time>
      </trkpt>
      <trkpt lat="47.3234" lon="-0.64095">
        <ele>71</ele>
        <time>2014-02-16T08:33:30+00:00</time>
      </trkpt>
      <trkpt lat="47.32343" lon="-0.64092">
        <ele>71</ele>
        <time>2014-02-16T08:33:32+00:00</time>
      </trkpt>
      <trkpt lat="47.32345" lon="-0.64091">
        <ele>72</ele>
        <time>2014-02-16T08:33:33+00:00</time>
      </trkpt>
      <trkpt lat="47.3238" lon="-0.64063">
        <ele>72</ele>
        <time>2014-02-16T08:33:56+00:00</time>
      </trkpt>
      <trkpt lat="47.32382" lon="-0.64063">
        <ele>72</ele>
        <time>2014-02-16T08:33:57+00:00</time>
      </trkpt>
      <trkpt lat="47.32391" lon="-0.64058">
        <ele>71</ele>
        <time>2014-02-16T08:34:03+00:00</time>
      </trkpt>
      <trkpt lat="47.32393" lon="-0.64056">
        <ele>71</ele>
        <time>2014-02-16T08:34:04+00:00</time>
      </trkpt>
      <trkpt lat="47.32398" lon="-0.64053">
        <ele>73</ele>
        <time>2014-02-16T08:34:08+00:00</time>
      </trkpt>
      <trkpt lat="47.32399" lon="-0.64052">
        <ele>74</ele>
        <time>2014-02-16T08:34:09+00:00</time>
      </trkpt>
      <trkpt lat="47.32406" lon="-0.6405">
        <ele>74</ele>
        <time>2014-02-16T08:34:14+00:00</time>
      </trkpt>
      <trkpt lat="47.32408" lon="-0.64049">
        <ele>74</ele>
        <time>2014-02-16T08:34:15+00:00</time>
      </trkpt>
      <trkpt lat="47.3241" lon="-0.64049">
        <ele>72</ele>
        <time>2014-02-16T08:34:16+00:00</time>
      </trkpt>
      <trkpt lat="47.32412" lon="-0.64049">
        <ele>71</ele>
        <time>2014-02-16T08:34:17+00:00</time>
      </trkpt>
      <trkpt lat="47.32413" lon="-0.64049">
        <ele>73</ele>
        <time>2014-02-16T08:34:18+00:00</time>
      </trkpt>
      <trkpt lat="47.32414" lon="-0.64049">
        <ele>74</ele>
        <time>2014-02-16T08:34:19+00:00</time>
      </trkpt>
      <trkpt lat="47.32416" lon="-0.6405">
        <ele>74</ele>
        <time>2014-02-16T08:34:20+00:00</time>
      </trkpt>
      <trkpt lat="47.32418" lon="-0.64049">
        <ele>74</ele>
        <time>2014-02-16T08:34:21+00:00</time>
      </trkpt>
      <trkpt lat="47.3242" lon="-0.64048">
        <ele>75</ele>
        <time>2014-02-16T08:34:22+00:00</time>
      </trkpt>
      <trkpt lat="47.32423" lon="-0.64045">
        <ele>75</ele>
        <time>2014-02-16T08:34:25+00:00</time>
      </trkpt>
      <trkpt lat="47.32425" lon="-0.64044">
        <ele>75</ele>
        <time>2014-02-16T08:34:26+00:00</time>
      </trkpt>
      <trkpt lat="47.32428" lon="-0.64044">
        <ele>75</ele>
        <time>2014-02-16T08:34:28+00:00</time>
      </trkpt>
      <trkpt lat="47.32429" lon="-0.64043">
        <ele>75</ele>
        <time>2014-02-16T08:34:29+00:00</time>
      </trkpt>
      <trkpt lat="47.32433" lon="-0.64041">
        <ele>76</ele>
        <time>2014-02-16T08:34:31+00:00</time>
      </trkpt>
      <trkpt lat="47.32434" lon="-0.6404">
        <ele>75</ele>
        <time>2014-02-16T08:34:32+00:00</time>
      </trkpt>
      <trkpt lat="47.32437" lon="-0.64038">
        <ele>76</ele>
        <time>2014-02-16T08:34:34+00:00</time>
      </trkpt>
      <trkpt lat="47.32439" lon="-0.64037">
        <ele>75</ele>
        <time>2014-02-16T08:34:35+00:00</time>
      </trkpt>
      <trkpt lat="47.32442" lon="-0.64035">
        <ele>76</ele>
        <time>2014-02-16T08:34:37+00:00</time>
      </trkpt>
      <trkpt lat="47.32444" lon="-0.64034">
        <ele>76</ele>
        <time>2014-02-16T08:34:38+00:00</time>
      </trkpt>
      <trkpt lat="47.32446" lon="-0.64032">
        <ele>77</ele>
        <time>2014-02-16T08:34:40+00:00</time>
      </trkpt>
      <trkpt lat="47.32448" lon="-0.64031">
        <ele>77</ele>
        <time>2014-02-16T08:34:41+00:00</time>
      </trkpt>
      <trkpt lat="47.32462" lon="-0.6402">
        <ele>78</ele>
        <time>2014-02-16T08:34:51+00:00</time>
      </trkpt>
      <trkpt lat="47.32464" lon="-0.64019">
        <ele>78</ele>
        <time>2014-02-16T08:34:52+00:00</time>
      </trkpt>
      <trkpt lat="47.32475" lon="-0.64006">
        <ele>79</ele>
        <time>2014-02-16T08:35:00+00:00</time>
      </trkpt>
      <trkpt lat="47.32476" lon="-0.64004">
        <ele>79</ele>
        <time>2014-02-16T08:35:01+00:00</time>
      </trkpt>
      <trkpt lat="47.32482" lon="-0.63997">
        <ele>80</ele>
        <time>2014-02-16T08:35:04+00:00</time>
      </trkpt>
      <trkpt lat="47.32483" lon="-0.63995">
        <ele>80</ele>
        <time>2014-02-16T08:35:05+00:00</time>
      </trkpt>
      <trkpt lat="47.32485" lon="-0.63989">
        <ele>80</ele>
        <time>2014-02-16T08:35:07+00:00</time>
      </trkpt>
      <trkpt lat="47.32487" lon="-0.63987">
        <ele>80</ele>
        <time>2014-02-16T08:35:08+00:00</time>
      </trkpt>
      <trkpt lat="47.32492" lon="-0.63977">
        <ele>80</ele>
        <time>2014-02-16T08:35:12+00:00</time>
      </trkpt>
      <trkpt lat="47.32493" lon="-0.63974">
        <ele>79</ele>
        <time>2014-02-16T08:35:13+00:00</time>
      </trkpt>
      <trkpt lat="47.32494" lon="-0.63972">
        <ele>78</ele>
        <time>2014-02-16T08:35:14+00:00</time>
      </trkpt>
      <trkpt lat="47.32495" lon="-0.63969">
        <ele>78</ele>
        <time>2014-02-16T08:35:15+00:00</time>
      </trkpt>
      <trkpt lat="47.32495" lon="-0.63965">
        <ele>79</ele>
        <time>2014-02-16T08:35:16+00:00</time>
      </trkpt>
      <trkpt lat="47.32496" lon="-0.63963">
        <ele>79</ele>
        <time>2014-02-16T08:35:17+00:00</time>
      </trkpt>
      <trkpt lat="47.32496" lon="-0.63958">
        <ele>80</ele>
        <time>2014-02-16T08:35:18+00:00</time>
      </trkpt>
      <trkpt lat="47.32496" lon="-0.63954">
        <ele>79</ele>
        <time>2014-02-16T08:35:19+00:00</time>
      </trkpt>
      <trkpt lat="47.32496" lon="-0.63944">
        <ele>79</ele>
        <time>2014-02-16T08:35:21+00:00</time>
      </trkpt>
      <trkpt lat="47.32495" lon="-0.6394">
        <ele>79</ele>
        <time>2014-02-16T08:35:22+00:00</time>
      </trkpt>
      <trkpt lat="47.32493" lon="-0.63932">
        <ele>78</ele>
        <time>2014-02-16T08:35:24+00:00</time>
      </trkpt>
      <trkpt lat="47.32492" lon="-0.63926">
        <ele>78</ele>
        <time>2014-02-16T08:35:25+00:00</time>
      </trkpt>
      <trkpt lat="47.32484" lon="-0.63888">
        <ele>80</ele>
        <time>2014-02-16T08:35:32+00:00</time>
      </trkpt>
      <trkpt lat="47.32484" lon="-0.63883">
        <ele>80</ele>
        <time>2014-02-16T08:35:33+00:00</time>
      </trkpt>
      <trkpt lat="47.32484" lon="-0.63877">
        <ele>79</ele>
        <time>2014-02-16T08:35:34+00:00</time>
      </trkpt>
      <trkpt lat="47.32485" lon="-0.63872">
        <ele>79</ele>
        <time>2014-02-16T08:35:35+00:00</time>
      </trkpt>
      <trkpt lat="47.32487" lon="-0.63868">
        <ele>78</ele>
        <time>2014-02-16T08:35:36+00:00</time>
      </trkpt>
      <trkpt lat="47.3249" lon="-0.63863">
        <ele>77</ele>
        <time>2014-02-16T08:35:37+00:00</time>
      </trkpt>
      <trkpt lat="47.32492" lon="-0.6386">
        <ele>77</ele>
        <time>2014-02-16T08:35:38+00:00</time>
      </trkpt>
      <trkpt lat="47.32496" lon="-0.63856">
        <ele>77</ele>
        <time>2014-02-16T08:35:39+00:00</time>
      </trkpt>
      <trkpt lat="47.325" lon="-0.6385">
        <ele>77</ele>
        <time>2014-02-16T08:35:41+00:00</time>
      </trkpt>
      <trkpt lat="47.32503" lon="-0.63845">
        <ele>77</ele>
        <time>2014-02-16T08:35:42+00:00</time>
      </trkpt>
      <trkpt lat="47.32514" lon="-0.63828">
        <ele>77</ele>
        <time>2014-02-16T08:35:46+00:00</time>
      </trkpt>
      <trkpt lat="47.32516" lon="-0.63824">
        <ele>77</ele>
        <time>2014-02-16T08:35:47+00:00</time>
      </trkpt>
      <trkpt lat="47.3252" lon="-0.6381">
        <ele>76</ele>
        <time>2014-02-16T08:35:50+00:00</time>
      </trkpt>
      <trkpt lat="47.32522" lon="-0.63806">
        <ele>76</ele>
        <time>2014-02-16T08:35:51+00:00</time>
      </trkpt>
      <trkpt lat="47.32524" lon="-0.63802">
        <ele>76</ele>
        <time>2014-02-16T08:35:52+00:00</time>
      </trkpt>
      <trkpt lat="47.32527" lon="-0.63798">
        <ele>76</ele>
        <time>2014-02-16T08:35:53+00:00</time>
      </trkpt>
      <trkpt lat="47.3253" lon="-0.63796">
        <ele>76</ele>
        <time>2014-02-16T08:35:54+00:00</time>
      </trkpt>
      <trkpt lat="47.32532" lon="-0.63793">
        <ele>76</ele>
        <time>2014-02-16T08:35:55+00:00</time>
      </trkpt>
      <trkpt lat="47.32536" lon="-0.6379">
        <ele>76</ele>
        <time>2014-02-16T08:35:56+00:00</time>
      </trkpt>
      <trkpt lat="47.32558" lon="-0.63773">
        <ele>76</ele>
        <time>2014-02-16T08:36:03+00:00</time>
      </trkpt>
      <trkpt lat="47.32561" lon="-0.63771">
        <ele>76</ele>
        <time>2014-02-16T08:36:04+00:00</time>
      </trkpt>
      <trkpt lat="47.32597" lon="-0.63741">
        <ele>75</ele>
        <time>2014-02-16T08:36:17+00:00</time>
      </trkpt>
      <trkpt lat="47.326" lon="-0.6374">
        <ele>75</ele>
        <time>2014-02-16T08:36:18+00:00</time>
      </trkpt>
      <trkpt lat="47.3261" lon="-0.63732">
        <ele>75</ele>
        <time>2014-02-16T08:36:23+00:00</time>
      </trkpt>
      <trkpt lat="47.32612" lon="-0.63732">
        <ele>76</ele>
        <time>2014-02-16T08:36:24+00:00</time>
      </trkpt>
      <trkpt lat="47.32614" lon="-0.63731">
        <ele>76</ele>
        <time>2014-02-16T08:36:25+00:00</time>
      </trkpt>
      <trkpt lat="47.32616" lon="-0.63731">
        <ele>76</ele>
        <time>2014-02-16T08:36:26+00:00</time>
      </trkpt>
      <trkpt lat="47.32619" lon="-0.63731">
        <ele>76</ele>
        <time>2014-02-16T08:36:27+00:00</time>
      </trkpt>
      <trkpt lat="47.3262" lon="-0.6373">
        <ele>76</ele>
        <time>2014-02-16T08:36:28+00:00</time>
      </trkpt>
      <trkpt lat="47.32623" lon="-0.63729">
        <ele>75</ele>
        <time>2014-02-16T08:36:29+00:00</time>
      </trkpt>
      <trkpt lat="47.32625" lon="-0.63728">
        <ele>76</ele>
        <time>2014-02-16T08:36:30+00:00</time>
      </trkpt>
      <trkpt lat="47.32627" lon="-0.63727">
        <ele>76</ele>
        <time>2014-02-16T08:36:31+00:00</time>
      </trkpt>
      <trkpt lat="47.32631" lon="-0.63724">
        <ele>78</ele>
        <time>2014-02-16T08:36:33+00:00</time>
      </trkpt>
      <trkpt lat="47.32634" lon="-0.63723">
        <ele>78</ele>
        <time>2014-02-16T08:36:34+00:00</time>
      </trkpt>
      <trkpt lat="47.32641" lon="-0.63718">
        <ele>80</ele>
        <time>2014-02-16T08:36:37+00:00</time>
      </trkpt>
      <trkpt lat="47.32644" lon="-0.63716">
        <ele>80</ele>
        <time>2014-02-16T08:36:38+00:00</time>
      </trkpt>
      <trkpt lat="47.32685" lon="-0.63689">
        <ele>79</ele>
        <time>2014-02-16T08:36:52+00:00</time>
      </trkpt>
      <trkpt lat="47.32688" lon="-0.63688">
        <ele>79</ele>
        <time>2014-02-16T08:36:53+00:00</time>
      </trkpt>
      <trkpt lat="47.32708" lon="-0.63677">
        <ele>78</ele>
        <time>2014-02-16T08:36:59+00:00</time>
      </trkpt>
      <trkpt lat="47.32712" lon="-0.63676">
        <ele>79</ele>
        <time>2014-02-16T08:37:00+00:00</time>
      </trkpt>
      <trkpt lat="47.32719" lon="-0.63675">
        <ele>79</ele>
        <time>2014-02-16T08:37:02+00:00</time>
      </trkpt>
      <trkpt lat="47.32723" lon="-0.63673">
        <ele>77</ele>
        <time>2014-02-16T08:37:03+00:00</time>
      </trkpt>
      <trkpt lat="47.32738" lon="-0.63665">
        <ele>77</ele>
        <time>2014-02-16T08:37:08+00:00</time>
      </trkpt>
      <trkpt lat="47.3274" lon="-0.63663">
        <ele>77</ele>
        <time>2014-02-16T08:37:09+00:00</time>
      </trkpt>
      <trkpt lat="47.32751" lon="-0.63655">
        <ele>79</ele>
        <time>2014-02-16T08:37:13+00:00</time>
      </trkpt>
      <trkpt lat="47.32754" lon="-0.63653">
        <ele>79</ele>
        <time>2014-02-16T08:37:14+00:00</time>
      </trkpt>
      <trkpt lat="47.32757" lon="-0.63652">
        <ele>80</ele>
        <time>2014-02-16T08:37:15+00:00</time>
      </trkpt>
      <trkpt lat="47.3276" lon="-0.6365">
        <ele>81</ele>
        <time>2014-02-16T08:37:16+00:00</time>
      </trkpt>
      <trkpt lat="47.32773" lon="-0.6364">
        <ele>80</ele>
        <time>2014-02-16T08:37:21+00:00</time>
      </trkpt>
      <trkpt lat="47.32776" lon="-0.63637">
        <ele>79</ele>
        <time>2014-02-16T08:37:22+00:00</time>
      </trkpt>
      <trkpt lat="47.32785" lon="-0.63628">
        <ele>79</ele>
        <time>2014-02-16T08:37:26+00:00</time>
      </trkpt>
      <trkpt lat="47.32787" lon="-0.63625">
        <ele>80</ele>
        <time>2014-02-16T08:37:27+00:00</time>
      </trkpt>
      <trkpt lat="47.32788" lon="-0.63621">
        <ele>81</ele>
        <time>2014-02-16T08:37:28+00:00</time>
      </trkpt>
      <trkpt lat="47.32789" lon="-0.63619">
        <ele>79</ele>
        <time>2014-02-16T08:37:29+00:00</time>
      </trkpt>
      <trkpt lat="47.3279" lon="-0.63612">
        <ele>81</ele>
        <time>2014-02-16T08:37:31+00:00</time>
      </trkpt>
      <trkpt lat="47.3279" lon="-0.63608">
        <ele>83</ele>
        <time>2014-02-16T08:37:32+00:00</time>
      </trkpt>
      <trkpt lat="47.3279" lon="-0.63605">
        <ele>82</ele>
        <time>2014-02-16T08:37:33+00:00</time>
      </trkpt>
      <trkpt lat="47.32789" lon="-0.63603">
        <ele>82</ele>
        <time>2014-02-16T08:37:34+00:00</time>
      </trkpt>
      <trkpt lat="47.32788" lon="-0.63601">
        <ele>83</ele>
        <time>2014-02-16T08:37:35+00:00</time>
      </trkpt>
      <trkpt lat="47.32788" lon="-0.63598">
        <ele>83</ele>
        <time>2014-02-16T08:37:36+00:00</time>
      </trkpt>
      <trkpt lat="47.32788" lon="-0.63595">
        <ele>82</ele>
        <time>2014-02-16T08:37:37+00:00</time>
      </trkpt>
      <trkpt lat="47.32788" lon="-0.63591">
        <ele>84</ele>
        <time>2014-02-16T08:37:38+00:00</time>
      </trkpt>
      <trkpt lat="47.32788" lon="-0.63588">
        <ele>85</ele>
        <time>2014-02-16T08:37:39+00:00</time>
      </trkpt>
      <trkpt lat="47.32788" lon="-0.63587">
        <ele>86</ele>
        <time>2014-02-16T08:37:40+00:00</time>
      </trkpt>
      <trkpt lat="47.32788" lon="-0.63583">
        <ele>88</ele>
        <time>2014-02-16T08:37:41+00:00</time>
      </trkpt>
      <trkpt lat="47.32786" lon="-0.63581">
        <ele>87</ele>
        <time>2014-02-16T08:37:42+00:00</time>
      </trkpt>
      <trkpt lat="47.32785" lon="-0.63578">
        <ele>87</ele>
        <time>2014-02-16T08:37:43+00:00</time>
      </trkpt>
      <trkpt lat="47.32781" lon="-0.63572">
        <ele>84</ele>
        <time>2014-02-16T08:37:45+00:00</time>
      </trkpt>
      <trkpt lat="47.3278" lon="-0.6357">
        <ele>82</ele>
        <time>2014-02-16T08:37:46+00:00</time>
      </trkpt>
      <trkpt lat="47.3278" lon="-0.63568">
        <ele>85</ele>
        <time>2014-02-16T08:37:47+00:00</time>
      </trkpt>
      <trkpt lat="47.3278" lon="-0.63564">
        <ele>87</ele>
        <time>2014-02-16T08:37:48+00:00</time>
      </trkpt>
      <trkpt lat="47.3278" lon="-0.6356">
        <ele>85</ele>
        <time>2014-02-16T08:37:49+00:00</time>
      </trkpt>
      <trkpt lat="47.32779" lon="-0.63556">
        <ele>84</ele>
        <time>2014-02-16T08:37:50+00:00</time>
      </trkpt>
      <trkpt lat="47.32778" lon="-0.63553">
        <ele>86</ele>
        <time>2014-02-16T08:37:51+00:00</time>
      </trkpt>
      <trkpt lat="47.32778" lon="-0.6355">
        <ele>85</ele>
        <time>2014-02-16T08:37:52+00:00</time>
      </trkpt>
      <trkpt lat="47.32777" lon="-0.63547">
        <ele>89</ele>
        <time>2014-02-16T08:37:53+00:00</time>
      </trkpt>
      <trkpt lat="47.32774" lon="-0.6354">
        <ele>88</ele>
        <time>2014-02-16T08:37:55+00:00</time>
      </trkpt>
      <trkpt lat="47.32773" lon="-0.63539">
        <ele>88</ele>
        <time>2014-02-16T08:37:56+00:00</time>
      </trkpt>
      <trkpt lat="47.32772" lon="-0.63536">
        <ele>88</ele>
        <time>2014-02-16T08:37:57+00:00</time>
      </trkpt>
      <trkpt lat="47.32771" lon="-0.63532">
        <ele>86</ele>
        <time>2014-02-16T08:37:59+00:00</time>
      </trkpt>
      <trkpt lat="47.3277" lon="-0.63529">
        <ele>84</ele>
        <time>2014-02-16T08:38:00+00:00</time>
      </trkpt>
      <trkpt lat="47.32769" lon="-0.63522">
        <ele>80</ele>
        <time>2014-02-16T08:38:02+00:00</time>
      </trkpt>
      <trkpt lat="47.32768" lon="-0.63518">
        <ele>80</ele>
        <time>2014-02-16T08:38:03+00:00</time>
      </trkpt>
      <trkpt lat="47.32768" lon="-0.63516">
        <ele>79</ele>
        <time>2014-02-16T08:38:04+00:00</time>
      </trkpt>
      <trkpt lat="47.32768" lon="-0.63514">
        <ele>80</ele>
        <time>2014-02-16T08:38:05+00:00</time>
      </trkpt>
      <trkpt lat="47.32767" lon="-0.63512">
        <ele>78</ele>
        <time>2014-02-16T08:38:06+00:00</time>
      </trkpt>
      <trkpt lat="47.32767" lon="-0.63509">
        <ele>81</ele>
        <time>2014-02-16T08:38:07+00:00</time>
      </trkpt>
      <trkpt lat="47.32765" lon="-0.63501">
        <ele>81</ele>
        <time>2014-02-16T08:38:10+00:00</time>
      </trkpt>
      <trkpt lat="47.32765" lon="-0.63499">
        <ele>82</ele>
        <time>2014-02-16T08:38:11+00:00</time>
      </trkpt>
      <trkpt lat="47.32765" lon="-0.63497">
        <ele>83</ele>
        <time>2014-02-16T08:38:12+00:00</time>
      </trkpt>
      <trkpt lat="47.32766" lon="-0.63495">
        <ele>83</ele>
        <time>2014-02-16T08:38:13+00:00</time>
      </trkpt>
      <trkpt lat="47.32766" lon="-0.63492">
        <ele>82</ele>
        <time>2014-02-16T08:38:15+00:00</time>
      </trkpt>
      <trkpt lat="47.32767" lon="-0.63491">
        <ele>80</ele>
        <time>2014-02-16T08:38:16+00:00</time>
      </trkpt>
      <trkpt lat="47.32767" lon="-0.63488">
        <ele>81</ele>
        <time>2014-02-16T08:38:17+00:00</time>
      </trkpt>
      <trkpt lat="47.32767" lon="-0.63485">
        <ele>80</ele>
        <time>2014-02-16T08:38:18+00:00</time>
      </trkpt>
      <trkpt lat="47.32767" lon="-0.63484">
        <ele>81</ele>
        <time>2014-02-16T08:38:19+00:00</time>
      </trkpt>
      <trkpt lat="47.32767" lon="-0.63481">
        <ele>81</ele>
        <time>2014-02-16T08:38:20+00:00</time>
      </trkpt>
      <trkpt lat="47.32767" lon="-0.63477">
        <ele>81</ele>
        <time>2014-02-16T08:38:21+00:00</time>
      </trkpt>
      <trkpt lat="47.32762" lon="-0.63444">
        <ele>81</ele>
        <time>2014-02-16T08:38:33+00:00</time>
      </trkpt>
      <trkpt lat="47.32762" lon="-0.63441">
        <ele>80</ele>
        <time>2014-02-16T08:38:34+00:00</time>
      </trkpt>
      <trkpt lat="47.32761" lon="-0.63436">
        <ele>80</ele>
        <time>2014-02-16T08:38:36+00:00</time>
      </trkpt>
      <trkpt lat="47.3276" lon="-0.63434">
        <ele>81</ele>
        <time>2014-02-16T08:38:37+00:00</time>
      </trkpt>
      <trkpt lat="47.3276" lon="-0.63431">
        <ele>82</ele>
        <time>2014-02-16T08:38:38+00:00</time>
      </trkpt>
      <trkpt lat="47.32759" lon="-0.63429">
        <ele>81</ele>
        <time>2014-02-16T08:38:39+00:00</time>
      </trkpt>
      <trkpt lat="47.32759" lon="-0.63428">
        <ele>81</ele>
        <time>2014-02-16T08:38:40+00:00</time>
      </trkpt>
      <trkpt lat="47.32759" lon="-0.63426">
        <ele>81</ele>
        <time>2014-02-16T08:38:41+00:00</time>
      </trkpt>
      <trkpt lat="47.32759" lon="-0.63423">
        <ele>80</ele>
        <time>2014-02-16T08:38:42+00:00</time>
      </trkpt>
      <trkpt lat="47.32759" lon="-0.63421">
        <ele>80</ele>
        <time>2014-02-16T08:38:43+00:00</time>
      </trkpt>
      <trkpt lat="47.32759" lon="-0.6342">
        <ele>81</ele>
        <time>2014-02-16T08:38:44+00:00</time>
      </trkpt>
      <trkpt lat="47.32758" lon="-0.63417">
        <ele>82</ele>
        <time>2014-02-16T08:38:46+00:00</time>
      </trkpt>
      <trkpt lat="47.32758" lon="-0.63414">
        <ele>82</ele>
        <time>2014-02-16T08:38:47+00:00</time>
      </trkpt>
      <trkpt lat="47.32758" lon="-0.63412">
        <ele>83</ele>
        <time>2014-02-16T08:38:48+00:00</time>
      </trkpt>
      <trkpt lat="47.32759" lon="-0.63404">
        <ele>81</ele>
        <time>2014-02-16T08:38:52+00:00</time>
      </trkpt>
      <trkpt lat="47.32759" lon="-0.63403">
        <ele>81</ele>
        <time>2014-02-16T08:38:53+00:00</time>
      </trkpt>
      <trkpt lat="47.3276" lon="-0.63401">
        <ele>82</ele>
        <time>2014-02-16T08:38:54+00:00</time>
      </trkpt>
      <trkpt lat="47.3276" lon="-0.63399">
        <ele>82</ele>
        <time>2014-02-16T08:38:55+00:00</time>
      </trkpt>
      <trkpt lat="47.3276" lon="-0.63397">
        <ele>81</ele>
        <time>2014-02-16T08:38:56+00:00</time>
      </trkpt>
      <trkpt lat="47.32759" lon="-0.63396">
        <ele>81</ele>
        <time>2014-02-16T08:38:57+00:00</time>
      </trkpt>
      <trkpt lat="47.32758" lon="-0.63392">
        <ele>82</ele>
        <time>2014-02-16T08:38:59+00:00</time>
      </trkpt>
      <trkpt lat="47.32758" lon="-0.63391">
        <ele>83</ele>
        <time>2014-02-16T08:39:00+00:00</time>
      </trkpt>
      <trkpt lat="47.32758" lon="-0.63389">
        <ele>83</ele>
        <time>2014-02-16T08:39:01+00:00</time>
      </trkpt>
      <trkpt lat="47.32757" lon="-0.63387">
        <ele>83</ele>
        <time>2014-02-16T08:39:02+00:00</time>
      </trkpt>
      <trkpt lat="47.32757" lon="-0.63386">
        <ele>83</ele>
        <time>2014-02-16T08:39:03+00:00</time>
      </trkpt>
      <trkpt lat="47.32757" lon="-0.63383">
        <ele>83</ele>
        <time>2014-02-16T08:39:04+00:00</time>
      </trkpt>
      <trkpt lat="47.32757" lon="-0.6338">
        <ele>83</ele>
        <time>2014-02-16T08:39:06+00:00</time>
      </trkpt>
      <trkpt lat="47.32757" lon="-0.63378">
        <ele>83</ele>
        <time>2014-02-16T08:39:07+00:00</time>
      </trkpt>
      <trkpt lat="47.32756" lon="-0.63377">
        <ele>83</ele>
        <time>2014-02-16T08:39:08+00:00</time>
      </trkpt>
      <trkpt lat="47.32756" lon="-0.63376">
        <ele>84</ele>
        <time>2014-02-16T08:39:09+00:00</time>
      </trkpt>
      <trkpt lat="47.32756" lon="-0.63374">
        <ele>85</ele>
        <time>2014-02-16T08:39:10+00:00</time>
      </trkpt>
      <trkpt lat="47.32756" lon="-0.63373">
        <ele>85</ele>
        <time>2014-02-16T08:39:11+00:00</time>
      </trkpt>
      <trkpt lat="47.32755" lon="-0.63368">
        <ele>85</ele>
        <time>2014-02-16T08:39:14+00:00</time>
      </trkpt>
      <trkpt lat="47.32755" lon="-0.63366">
        <ele>86</ele>
        <time>2014-02-16T08:39:15+00:00</time>
      </trkpt>
      <trkpt lat="47.32754" lon="-0.63364">
        <ele>85</ele>
        <time>2014-02-16T08:39:16+00:00</time>
      </trkpt>
      <trkpt lat="47.32754" lon="-0.63361">
        <ele>86</ele>
        <time>2014-02-16T08:39:18+00:00</time>
      </trkpt>
      <trkpt lat="47.32754" lon="-0.63359">
        <ele>87</ele>
        <time>2014-02-16T08:39:19+00:00</time>
      </trkpt>
      <trkpt lat="47.32754" lon="-0.63357">
        <ele>87</ele>
        <time>2014-02-16T08:39:20+00:00</time>
      </trkpt>
      <trkpt lat="47.32754" lon="-0.63356">
        <ele>88</ele>
        <time>2014-02-16T08:39:21+00:00</time>
      </trkpt>
      <trkpt lat="47.32754" lon="-0.63353">
        <ele>87</ele>
        <time>2014-02-16T08:39:22+00:00</time>
      </trkpt>
      <trkpt lat="47.32754" lon="-0.6335">
        <ele>87</ele>
        <time>2014-02-16T08:39:23+00:00</time>
      </trkpt>
      <trkpt lat="47.32754" lon="-0.63348">
        <ele>87</ele>
        <time>2014-02-16T08:39:24+00:00</time>
      </trkpt>
      <trkpt lat="47.32754" lon="-0.63345">
        <ele>86</ele>
        <time>2014-02-16T08:39:25+00:00</time>
      </trkpt>
      <trkpt lat="47.32754" lon="-0.6334">
        <ele>85</ele>
        <time>2014-02-16T08:39:27+00:00</time>
      </trkpt>
      <trkpt lat="47.32753" lon="-0.63337">
        <ele>85</ele>
        <time>2014-02-16T08:39:28+00:00</time>
      </trkpt>
      <trkpt lat="47.32752" lon="-0.6333">
        <ele>85</ele>
        <time>2014-02-16T08:39:31+00:00</time>
      </trkpt>
      <trkpt lat="47.32752" lon="-0.63327">
        <ele>84</ele>
        <time>2014-02-16T08:39:32+00:00</time>
      </trkpt>
      <trkpt lat="47.32751" lon="-0.63321">
        <ele>86</ele>
        <time>2014-02-16T08:39:35+00:00</time>
      </trkpt>
      <trkpt lat="47.32751" lon="-0.63319">
        <ele>85</ele>
        <time>2014-02-16T08:39:36+00:00</time>
      </trkpt>
      <trkpt lat="47.32751" lon="-0.63316">
        <ele>85</ele>
        <time>2014-02-16T08:39:38+00:00</time>
      </trkpt>
      <trkpt lat="47.32751" lon="-0.63313">
        <ele>84</ele>
        <time>2014-02-16T08:39:39+00:00</time>
      </trkpt>
      <trkpt lat="47.32751" lon="-0.63308">
        <ele>83</ele>
        <time>2014-02-16T08:39:41+00:00</time>
      </trkpt>
      <trkpt lat="47.32751" lon="-0.63307">
        <ele>84</ele>
        <time>2014-02-16T08:39:42+00:00</time>
      </trkpt>
      <trkpt lat="47.32751" lon="-0.63305">
        <ele>83</ele>
        <time>2014-02-16T08:39:43+00:00</time>
      </trkpt>
      <trkpt lat="47.32752" lon="-0.63302">
        <ele>84</ele>
        <time>2014-02-16T08:39:44+00:00</time>
      </trkpt>
      <trkpt lat="47.32753" lon="-0.63295">
        <ele>85</ele>
        <time>2014-02-16T08:39:48+00:00</time>
      </trkpt>
      <trkpt lat="47.32753" lon="-0.63293">
        <ele>85</ele>
        <time>2014-02-16T08:39:49+00:00</time>
      </trkpt>
      <trkpt lat="47.32754" lon="-0.63292">
        <ele>86</ele>
        <time>2014-02-16T08:39:50+00:00</time>
      </trkpt>
      <trkpt lat="47.32756" lon="-0.63287">
        <ele>86</ele>
        <time>2014-02-16T08:39:53+00:00</time>
      </trkpt>
      <trkpt lat="47.32756" lon="-0.63286">
        <ele>86</ele>
        <time>2014-02-16T08:39:54+00:00</time>
      </trkpt>
      <trkpt lat="47.32759" lon="-0.63284">
        <ele>87</ele>
        <time>2014-02-16T08:39:56+00:00</time>
      </trkpt>
      <trkpt lat="47.3276" lon="-0.63283">
        <ele>87</ele>
        <time>2014-02-16T08:39:57+00:00</time>
      </trkpt>
      <trkpt lat="47.32761" lon="-0.63281">
        <ele>87</ele>
        <time>2014-02-16T08:39:58+00:00</time>
      </trkpt>
      <trkpt lat="47.32762" lon="-0.6328">
        <ele>87</ele>
        <time>2014-02-16T08:39:59+00:00</time>
      </trkpt>
      <trkpt lat="47.32763" lon="-0.63278">
        <ele>87</ele>
        <time>2014-02-16T08:40:01+00:00</time>
      </trkpt>
      <trkpt lat="47.32764" lon="-0.63276">
        <ele>87</ele>
        <time>2014-02-16T08:40:02+00:00</time>
      </trkpt>
      <trkpt lat="47.32767" lon="-0.63271">
        <ele>88</ele>
        <time>2014-02-16T08:40:06+00:00</time>
      </trkpt>
      <trkpt lat="47.32768" lon="-0.6327">
        <ele>88</ele>
        <time>2014-02-16T08:40:07+00:00</time>
      </trkpt>
      <trkpt lat="47.32769" lon="-0.63268">
        <ele>88</ele>
        <time>2014-02-16T08:40:08+00:00</time>
      </trkpt>
      <trkpt lat="47.32769" lon="-0.63268">
        <ele>88</ele>
        <time>2014-02-16T08:40:09+00:00</time>
      </trkpt>
      <trkpt lat="47.3277" lon="-0.63267">
        <ele>88</ele>
        <time>2014-02-16T08:40:10+00:00</time>
      </trkpt>
      <trkpt lat="47.3277" lon="-0.63265">
        <ele>88</ele>
        <time>2014-02-16T08:40:11+00:00</time>
      </trkpt>
      <trkpt lat="47.32769" lon="-0.63263">
        <ele>88</ele>
        <time>2014-02-16T08:40:12+00:00</time>
      </trkpt>
      <trkpt lat="47.32769" lon="-0.63263">
        <ele>90</ele>
        <time>2014-02-16T08:40:13+00:00</time>
      </trkpt>
      <trkpt lat="47.32768" lon="-0.63262">
        <ele>90</ele>
        <time>2014-02-16T08:40:14+00:00</time>
      </trkpt>
      <trkpt lat="47.32748" lon="-0.63244">
        <ele>89</ele>
        <time>2014-02-16T08:44:07+00:00</time>
      </trkpt>
      <trkpt lat="47.32747" lon="-0.63243">
        <ele>89</ele>
        <time>2014-02-16T08:44:08+00:00</time>
      </trkpt>
      <trkpt lat="47.32746" lon="-0.63242">
        <ele>89</ele>
        <time>2014-02-16T08:44:09+00:00</time>
      </trkpt>
      <trkpt lat="47.32744" lon="-0.6324">
        <ele>89</ele>
        <time>2014-02-16T08:44:10+00:00</time>
      </trkpt>
      <trkpt lat="47.32717" lon="-0.63212">
        <ele>87</ele>
        <time>2014-02-16T08:44:21+00:00</time>
      </trkpt>
      <trkpt lat="47.32715" lon="-0.63211">
        <ele>87</ele>
        <time>2014-02-16T08:44:22+00:00</time>
      </trkpt>
      <trkpt lat="47.32699" lon="-0.63199">
        <ele>89</ele>
        <time>2014-02-16T08:44:27+00:00</time>
      </trkpt>
      <trkpt lat="47.32695" lon="-0.63197">
        <ele>89</ele>
        <time>2014-02-16T08:44:28+00:00</time>
      </trkpt>
      <trkpt lat="47.3266" lon="-0.63179">
        <ele>85</ele>
        <time>2014-02-16T08:44:37+00:00</time>
      </trkpt>
      <trkpt lat="47.32657" lon="-0.63178">
        <ele>84</ele>
        <time>2014-02-16T08:44:38+00:00</time>
      </trkpt>
      <trkpt lat="47.32646" lon="-0.63172">
        <ele>85</ele>
        <time>2014-02-16T08:44:41+00:00</time>
      </trkpt>
      <trkpt lat="47.32643" lon="-0.63171">
        <ele>84</ele>
        <time>2014-02-16T08:44:42+00:00</time>
      </trkpt>
      <trkpt lat="47.32628" lon="-0.63163">
        <ele>84</ele>
        <time>2014-02-16T08:44:47+00:00</time>
      </trkpt>
      <trkpt lat="47.32624" lon="-0.63163">
        <ele>84</ele>
        <time>2014-02-16T08:44:48+00:00</time>
      </trkpt>
      <trkpt lat="47.3262" lon="-0.63163">
        <ele>83</ele>
        <time>2014-02-16T08:44:49+00:00</time>
      </trkpt>
      <trkpt lat="47.32616" lon="-0.63163">
        <ele>82</ele>
        <time>2014-02-16T08:44:50+00:00</time>
      </trkpt>
      <trkpt lat="47.32472" lon="-0.63172">
        <ele>76</ele>
        <time>2014-02-16T08:45:18+00:00</time>
      </trkpt>
      <trkpt lat="47.32467" lon="-0.63171">
        <ele>76</ele>
        <time>2014-02-16T08:45:19+00:00</time>
      </trkpt>
      <trkpt lat="47.32419" lon="-0.63171">
        <ele>72</ele>
        <time>2014-02-16T08:45:28+00:00</time>
      </trkpt>
      <trkpt lat="47.32413" lon="-0.63172">
        <ele>72</ele>
        <time>2014-02-16T08:45:29+00:00</time>
      </trkpt>
      <trkpt lat="47.32394" lon="-0.63172">
        <ele>71</ele>
        <time>2014-02-16T08:45:33+00:00</time>
      </trkpt>
      <trkpt lat="47.32389" lon="-0.63171">
        <ele>71</ele>
        <time>2014-02-16T08:45:34+00:00</time>
      </trkpt>
      <trkpt lat="47.32358" lon="-0.6317">
        <ele>73</ele>
        <time>2014-02-16T08:45:41+00:00</time>
      </trkpt>
      <trkpt lat="47.32355" lon="-0.63171">
        <ele>73</ele>
        <time>2014-02-16T08:45:42+00:00</time>
      </trkpt>
      <trkpt lat="47.32339" lon="-0.6317">
        <ele>73</ele>
        <time>2014-02-16T08:45:48+00:00</time>
      </trkpt>
      <trkpt lat="47.32335" lon="-0.63169">
        <ele>73</ele>
        <time>2014-02-16T08:45:49+00:00</time>
      </trkpt>
      <trkpt lat="47.32317" lon="-0.63165">
        <ele>72</ele>
        <time>2014-02-16T08:45:54+00:00</time>
      </trkpt>
      <trkpt lat="47.32314" lon="-0.63164">
        <ele>72</ele>
        <time>2014-02-16T08:45:55+00:00</time>
      </trkpt>
      <trkpt lat="47.32303" lon="-0.6316">
        <ele>73</ele>
        <time>2014-02-16T08:45:58+00:00</time>
      </trkpt>
      <trkpt lat="47.323" lon="-0.63158">
        <ele>73</ele>
        <time>2014-02-16T08:45:59+00:00</time>
      </trkpt>
      <trkpt lat="47.32276" lon="-0.63145">
        <ele>73</ele>
        <time>2014-02-16T08:46:05+00:00</time>
      </trkpt>
      <trkpt lat="47.32273" lon="-0.63142">
        <ele>73</ele>
        <time>2014-02-16T08:46:06+00:00</time>
      </trkpt>
      <trkpt lat="47.32252" lon="-0.63129">
        <ele>71</ele>
        <time>2014-02-16T08:46:11+00:00</time>
      </trkpt>
      <trkpt lat="47.32248" lon="-0.63127">
        <ele>71</ele>
        <time>2014-02-16T08:46:12+00:00</time>
      </trkpt>
      <trkpt lat="47.32236" lon="-0.63122">
        <ele>70</ele>
        <time>2014-02-16T08:46:15+00:00</time>
      </trkpt>
      <trkpt lat="47.32232" lon="-0.6312">
        <ele>70</ele>
        <time>2014-02-16T08:46:16+00:00</time>
      </trkpt>
      <trkpt lat="47.32222" lon="-0.63118">
        <ele>69</ele>
        <time>2014-02-16T08:46:18+00:00</time>
      </trkpt>
      <trkpt lat="47.32218" lon="-0.63118">
        <ele>69</ele>
        <time>2014-02-16T08:46:19+00:00</time>
      </trkpt>
      <trkpt lat="47.32153" lon="-0.6311">
        <ele>68</ele>
        <time>2014-02-16T08:46:33+00:00</time>
      </trkpt>
      <trkpt lat="47.32149" lon="-0.63109">
        <ele>67</ele>
        <time>2014-02-16T08:46:34+00:00</time>
      </trkpt>
      <trkpt lat="47.32135" lon="-0.63104">
        <ele>68</ele>
        <time>2014-02-16T08:46:38+00:00</time>
      </trkpt>
      <trkpt lat="47.32132" lon="-0.63103">
        <ele>69</ele>
        <time>2014-02-16T08:46:39+00:00</time>
      </trkpt>
      <trkpt lat="47.32129" lon="-0.63103">
        <ele>69</ele>
        <time>2014-02-16T08:46:40+00:00</time>
      </trkpt>
      <trkpt lat="47.32124" lon="-0.63103">
        <ele>68</ele>
        <time>2014-02-16T08:46:41+00:00</time>
      </trkpt>
      <trkpt lat="47.32121" lon="-0.63104">
        <ele>68</ele>
        <time>2014-02-16T08:46:42+00:00</time>
      </trkpt>
      <trkpt lat="47.32117" lon="-0.63105">
        <ele>68</ele>
        <time>2014-02-16T08:46:43+00:00</time>
      </trkpt>
      <trkpt lat="47.32106" lon="-0.63109">
        <ele>68</ele>
        <time>2014-02-16T08:46:47+00:00</time>
      </trkpt>
      <trkpt lat="47.32103" lon="-0.63109">
        <ele>68</ele>
        <time>2014-02-16T08:46:48+00:00</time>
      </trkpt>
      <trkpt lat="47.32101" lon="-0.63108">
        <ele>68</ele>
        <time>2014-02-16T08:46:49+00:00</time>
      </trkpt>
      <trkpt lat="47.321" lon="-0.63108">
        <ele>69</ele>
        <time>2014-02-16T08:46:50+00:00</time>
      </trkpt>
      <trkpt lat="47.32094" lon="-0.63108">
        <ele>69</ele>
        <time>2014-02-16T08:46:52+00:00</time>
      </trkpt>
      <trkpt lat="47.32092" lon="-0.63108">
        <ele>69</ele>
        <time>2014-02-16T08:46:53+00:00</time>
      </trkpt>
      <trkpt lat="47.32089" lon="-0.63109">
        <ele>69</ele>
        <time>2014-02-16T08:46:54+00:00</time>
      </trkpt>
      <trkpt lat="47.32069" lon="-0.63118">
        <ele>68</ele>
        <time>2014-02-16T08:47:00+00:00</time>
      </trkpt>
      <trkpt lat="47.32065" lon="-0.63119">
        <ele>68</ele>
        <time>2014-02-16T08:47:01+00:00</time>
      </trkpt>
      <trkpt lat="47.3205" lon="-0.63123">
        <ele>66</ele>
        <time>2014-02-16T08:47:04+00:00</time>
      </trkpt>
      <trkpt lat="47.32044" lon="-0.63124">
        <ele>65</ele>
        <time>2014-02-16T08:47:05+00:00</time>
      </trkpt>
      <trkpt lat="47.32026" lon="-0.63124">
        <ele>63</ele>
        <time>2014-02-16T08:47:08+00:00</time>
      </trkpt>
      <trkpt lat="47.3202" lon="-0.63125">
        <ele>62</ele>
        <time>2014-02-16T08:47:09+00:00</time>
      </trkpt>
      <trkpt lat="47.31986" lon="-0.63124">
        <ele>56</ele>
        <time>2014-02-16T08:47:14+00:00</time>
      </trkpt>
      <trkpt lat="47.3198" lon="-0.63124">
        <ele>55</ele>
        <time>2014-02-16T08:47:15+00:00</time>
      </trkpt>
      <trkpt lat="47.31933" lon="-0.63124">
        <ele>49</ele>
        <time>2014-02-16T08:47:23+00:00</time>
      </trkpt>
      <trkpt lat="47.31928" lon="-0.63124">
        <ele>50</ele>
        <time>2014-02-16T08:47:24+00:00</time>
      </trkpt>
      <trkpt lat="47.31911" lon="-0.63131">
        <ele>46</ele>
        <time>2014-02-16T08:47:27+00:00</time>
      </trkpt>
      <trkpt lat="47.31906" lon="-0.63132">
        <ele>44</ele>
        <time>2014-02-16T08:47:28+00:00</time>
      </trkpt>
      <trkpt lat="47.31889" lon="-0.63142">
        <ele>42</ele>
        <time>2014-02-16T08:47:31+00:00</time>
      </trkpt>
      <trkpt lat="47.31883" lon="-0.63146">
        <ele>41</ele>
        <time>2014-02-16T08:47:32+00:00</time>
      </trkpt>
      <trkpt lat="47.31843" lon="-0.63179">
        <ele>33</ele>
        <time>2014-02-16T08:47:39+00:00</time>
      </trkpt>
      <trkpt lat="47.3184" lon="-0.63182">
        <ele>33</ele>
        <time>2014-02-16T08:47:40+00:00</time>
      </trkpt>
      <trkpt lat="47.31837" lon="-0.63188">
        <ele>33</ele>
        <time>2014-02-16T08:47:41+00:00</time>
      </trkpt>
      <trkpt lat="47.31836" lon="-0.63193">
        <ele>33</ele>
        <time>2014-02-16T08:47:42+00:00</time>
      </trkpt>
      <trkpt lat="47.31837" lon="-0.63197">
        <ele>32</ele>
        <time>2014-02-16T08:47:43+00:00</time>
      </trkpt>
      <trkpt lat="47.31838" lon="-0.63202">
        <ele>33</ele>
        <time>2014-02-16T08:47:44+00:00</time>
      </trkpt>
      <trkpt lat="47.31839" lon="-0.63206">
        <ele>32</ele>
        <time>2014-02-16T08:47:45+00:00</time>
      </trkpt>
      <trkpt lat="47.31842" lon="-0.63213">
        <ele>32</ele>
        <time>2014-02-16T08:47:47+00:00</time>
      </trkpt>
      <trkpt lat="47.31844" lon="-0.63216">
        <ele>31</ele>
        <time>2014-02-16T08:47:48+00:00</time>
      </trkpt>
      <trkpt lat="47.31851" lon="-0.63227">
        <ele>33</ele>
        <time>2014-02-16T08:47:52+00:00</time>
      </trkpt>
      <trkpt lat="47.31852" lon="-0.63229">
        <ele>33</ele>
        <time>2014-02-16T08:47:53+00:00</time>
      </trkpt>
      <trkpt lat="47.31852" lon="-0.63233">
        <ele>33</ele>
        <time>2014-02-16T08:47:54+00:00</time>
      </trkpt>
      <trkpt lat="47.31852" lon="-0.63236">
        <ele>33</ele>
        <time>2014-02-16T08:47:55+00:00</time>
      </trkpt>
      <trkpt lat="47.31852" lon="-0.63237">
        <ele>32</ele>
        <time>2014-02-16T08:47:56+00:00</time>
      </trkpt>
      <trkpt lat="47.3185" lon="-0.63238">
        <ele>32</ele>
        <time>2014-02-16T08:47:57+00:00</time>
      </trkpt>
      <trkpt lat="47.31848" lon="-0.63237">
        <ele>31</ele>
        <time>2014-02-16T08:47:58+00:00</time>
      </trkpt>
      <trkpt lat="47.31846" lon="-0.63235">
        <ele>30</ele>
        <time>2014-02-16T08:47:59+00:00</time>
      </trkpt>
      <trkpt lat="47.31828" lon="-0.63211">
        <ele>27</ele>
        <time>2014-02-16T08:48:04+00:00</time>
      </trkpt>
      <trkpt lat="47.31824" lon="-0.63206">
        <ele>27</ele>
        <time>2014-02-16T08:48:05+00:00</time>
      </trkpt>
      <trkpt lat="47.31819" lon="-0.63203">
        <ele>26</ele>
        <time>2014-02-16T08:48:06+00:00</time>
      </trkpt>
      <trkpt lat="47.31814" lon="-0.632">
        <ele>26</ele>
        <time>2014-02-16T08:48:07+00:00</time>
      </trkpt>
      <trkpt lat="47.31812" lon="-0.632">
        <ele>27</ele>
        <time>2014-02-16T08:48:08+00:00</time>
      </trkpt>
      <trkpt lat="47.31808" lon="-0.632">
        <ele>24</ele>
        <time>2014-02-16T08:48:09+00:00</time>
      </trkpt>
      <trkpt lat="47.31804" lon="-0.63201">
        <ele>24</ele>
        <time>2014-02-16T08:48:10+00:00</time>
      </trkpt>
      <trkpt lat="47.31797" lon="-0.63205">
        <ele>27</ele>
        <time>2014-02-16T08:48:14+00:00</time>
      </trkpt>
      <trkpt lat="47.31797" lon="-0.63205">
        <ele>27</ele>
        <time>2014-02-16T08:48:15+00:00</time>
      </trkpt>
      <trkpt lat="47.31795" lon="-0.63204">
        <ele>27</ele>
        <time>2014-02-16T08:48:18+00:00</time>
      </trkpt>
      <trkpt lat="47.31794" lon="-0.63203">
        <ele>27</ele>
        <time>2014-02-16T08:48:19+00:00</time>
      </trkpt>
      <trkpt lat="47.31794" lon="-0.63201">
        <ele>27</ele>
        <time>2014-02-16T08:48:20+00:00</time>
      </trkpt>
      <trkpt lat="47.31793" lon="-0.63198">
        <ele>27</ele>
        <time>2014-02-16T08:48:42+00:00</time>
      </trkpt>
      <trkpt lat="47.31792" lon="-0.63196">
        <ele>26</ele>
        <time>2014-02-16T08:48:43+00:00</time>
      </trkpt>
      <trkpt lat="47.31791" lon="-0.63194">
        <ele>25</ele>
        <time>2014-02-16T08:48:44+00:00</time>
      </trkpt>
      <trkpt lat="47.31788" lon="-0.63187">
        <ele>26</ele>
        <time>2014-02-16T08:48:47+00:00</time>
      </trkpt>
      <trkpt lat="47.31788" lon="-0.63186">
        <ele>25</ele>
        <time>2014-02-16T08:48:48+00:00</time>
      </trkpt>
      <trkpt lat="47.31787" lon="-0.63183">
        <ele>24</ele>
        <time>2014-02-16T08:48:49+00:00</time>
      </trkpt>
      <trkpt lat="47.31787" lon="-0.6318">
        <ele>26</ele>
        <time>2014-02-16T08:48:50+00:00</time>
      </trkpt>
      <trkpt lat="47.31786" lon="-0.63172">
        <ele>26</ele>
        <time>2014-02-16T08:48:52+00:00</time>
      </trkpt>
      <trkpt lat="47.31786" lon="-0.63168">
        <ele>26</ele>
        <time>2014-02-16T08:48:53+00:00</time>
      </trkpt>
      <trkpt lat="47.31785" lon="-0.63151">
        <ele>26</ele>
        <time>2014-02-16T08:48:57+00:00</time>
      </trkpt>
      <trkpt lat="47.31785" lon="-0.63145">
        <ele>28</ele>
        <time>2014-02-16T08:48:58+00:00</time>
      </trkpt>
      <trkpt lat="47.31784" lon="-0.6314">
        <ele>28</ele>
        <time>2014-02-16T08:48:59+00:00</time>
      </trkpt>
      <trkpt lat="47.31782" lon="-0.63134">
        <ele>33</ele>
        <time>2014-02-16T08:49:00+00:00</time>
      </trkpt>
      <trkpt lat="47.31779" lon="-0.63119">
        <ele>32</ele>
        <time>2014-02-16T08:49:03+00:00</time>
      </trkpt>
      <trkpt lat="47.31778" lon="-0.63114">
        <ele>31</ele>
        <time>2014-02-16T08:49:04+00:00</time>
      </trkpt>
      <trkpt lat="47.31777" lon="-0.63083">
        <ele>31</ele>
        <time>2014-02-16T08:49:11+00:00</time>
      </trkpt>
      <trkpt lat="47.31776" lon="-0.6308">
        <ele>29</ele>
        <time>2014-02-16T08:49:12+00:00</time>
      </trkpt>
      <trkpt lat="47.31776" lon="-0.63077">
        <ele>27</ele>
        <time>2014-02-16T08:49:13+00:00</time>
      </trkpt>
      <trkpt lat="47.31776" lon="-0.63074">
        <ele>25</ele>
        <time>2014-02-16T08:49:14+00:00</time>
      </trkpt>
      <trkpt lat="47.31776" lon="-0.6307">
        <ele>22</ele>
        <time>2014-02-16T08:49:15+00:00</time>
      </trkpt>
      <trkpt lat="47.31777" lon="-0.63067">
        <ele>22</ele>
        <time>2014-02-16T08:49:17+00:00</time>
      </trkpt>
      <trkpt lat="47.31779" lon="-0.63064">
        <ele>22</ele>
        <time>2014-02-16T08:49:18+00:00</time>
      </trkpt>
      <trkpt lat="47.31781" lon="-0.63062">
        <ele>21</ele>
        <time>2014-02-16T08:49:19+00:00</time>
      </trkpt>
      <trkpt lat="47.31783" lon="-0.6306">
        <ele>22</ele>
        <time>2014-02-16T08:49:36+00:00</time>
      </trkpt>
      <trkpt lat="47.31786" lon="-0.63054">
        <ele>24</ele>
        <time>2014-02-16T08:49:37+00:00</time>
      </trkpt>
      <trkpt lat="47.31788" lon="-0.63052">
        <ele>25</ele>
        <time>2014-02-16T08:49:41+00:00</time>
      </trkpt>
      <trkpt lat="47.3179" lon="-0.63046">
        <ele>27</ele>
        <time>2014-02-16T08:49:42+00:00</time>
      </trkpt>
      <trkpt lat="47.31805" lon="-0.63024">
        <ele>35</ele>
        <time>2014-02-16T08:49:51+00:00</time>
      </trkpt>
      <trkpt lat="47.31808" lon="-0.63022">
        <ele>35</ele>
        <time>2014-02-16T08:49:52+00:00</time>
      </trkpt>
      <trkpt lat="47.31817" lon="-0.63016">
        <ele>32</ele>
        <time>2014-02-16T08:49:57+00:00</time>
      </trkpt>
      <trkpt lat="47.31819" lon="-0.63015">
        <ele>32</ele>
        <time>2014-02-16T08:49:58+00:00</time>
      </trkpt>
      <trkpt lat="47.31824" lon="-0.63011">
        <ele>31</ele>
        <time>2014-02-16T08:50:01+00:00</time>
      </trkpt>
      <trkpt lat="47.31826" lon="-0.6301">
        <ele>30</ele>
        <time>2014-02-16T08:50:02+00:00</time>
      </trkpt>
      <trkpt lat="47.31832" lon="-0.63004">
        <ele>31</ele>
        <time>2014-02-16T08:50:06+00:00</time>
      </trkpt>
      <trkpt lat="47.31835" lon="-0.63004">
        <ele>32</ele>
        <time>2014-02-16T08:50:07+00:00</time>
      </trkpt>
      <trkpt lat="47.31836" lon="-0.63003">
        <ele>32</ele>
        <time>2014-02-16T08:50:08+00:00</time>
      </trkpt>
      <trkpt lat="47.31842" lon="-0.62997">
        <ele>31</ele>
        <time>2014-02-16T08:50:12+00:00</time>
      </trkpt>
      <trkpt lat="47.31843" lon="-0.62996">
        <ele>31</ele>
        <time>2014-02-16T08:50:13+00:00</time>
      </trkpt>
      <trkpt lat="47.31845" lon="-0.62992">
        <ele>33</ele>
        <time>2014-02-16T08:50:15+00:00</time>
      </trkpt>
      <trkpt lat="47.31846" lon="-0.62991">
        <ele>33</ele>
        <time>2014-02-16T08:50:16+00:00</time>
      </trkpt>
      <trkpt lat="47.31848" lon="-0.62989">
        <ele>36</ele>
        <time>2014-02-16T08:50:17+00:00</time>
      </trkpt>
      <trkpt lat="47.31849" lon="-0.62988">
        <ele>35</ele>
        <time>2014-02-16T08:50:18+00:00</time>
      </trkpt>
      <trkpt lat="47.31853" lon="-0.62982">
        <ele>36</ele>
        <time>2014-02-16T08:50:22+00:00</time>
      </trkpt>
      <trkpt lat="47.31857" lon="-0.6298">
        <ele>35</ele>
        <time>2014-02-16T08:50:23+00:00</time>
      </trkpt>
      <trkpt lat="47.3186" lon="-0.6298">
        <ele>32</ele>
        <time>2014-02-16T08:50:24+00:00</time>
      </trkpt>
      <trkpt lat="47.31864" lon="-0.62979">
        <ele>31</ele>
        <time>2014-02-16T08:50:25+00:00</time>
      </trkpt>
      <trkpt lat="47.31867" lon="-0.6298">
        <ele>31</ele>
        <time>2014-02-16T08:50:26+00:00</time>
      </trkpt>
      <trkpt lat="47.31869" lon="-0.6298">
        <ele>32</ele>
        <time>2014-02-16T08:50:28+00:00</time>
      </trkpt>
      <trkpt lat="47.3187" lon="-0.6298">
        <ele>32</ele>
        <time>2014-02-16T08:50:29+00:00</time>
      </trkpt>
      <trkpt lat="47.31872" lon="-0.62981">
        <ele>32</ele>
        <time>2014-02-16T08:50:30+00:00</time>
      </trkpt>
      <trkpt lat="47.31873" lon="-0.62981">
        <ele>30</ele>
        <time>2014-02-16T08:50:31+00:00</time>
      </trkpt>
      <trkpt lat="47.31873" lon="-0.6298">
        <ele>29</ele>
        <time>2014-02-16T08:50:32+00:00</time>
      </trkpt>
      <trkpt lat="47.31876" lon="-0.6298">
        <ele>32</ele>
        <time>2014-02-16T08:50:35+00:00</time>
      </trkpt>
      <trkpt lat="47.3188" lon="-0.6298">
        <ele>34</ele>
        <time>2014-02-16T08:50:37+00:00</time>
      </trkpt>
      <trkpt lat="47.31882" lon="-0.6298">
        <ele>34</ele>
        <time>2014-02-16T08:50:38+00:00</time>
      </trkpt>
      <trkpt lat="47.3189" lon="-0.62976">
        <ele>36</ele>
        <time>2014-02-16T08:50:42+00:00</time>
      </trkpt>
      <trkpt lat="47.31892" lon="-0.62975">
        <ele>36</ele>
        <time>2014-02-16T08:50:43+00:00</time>
      </trkpt>
      <trkpt lat="47.31896" lon="-0.62972">
        <ele>35</ele>
        <time>2014-02-16T08:50:46+00:00</time>
      </trkpt>
      <trkpt lat="47.31898" lon="-0.62972">
        <ele>34</ele>
        <time>2014-02-16T08:50:47+00:00</time>
      </trkpt>
      <trkpt lat="47.319" lon="-0.62971">
        <ele>33</ele>
        <time>2014-02-16T08:50:48+00:00</time>
      </trkpt>
      <trkpt lat="47.31903" lon="-0.62969">
        <ele>33</ele>
        <time>2014-02-16T08:50:49+00:00</time>
      </trkpt>
      <trkpt lat="47.31905" lon="-0.62968">
        <ele>34</ele>
        <time>2014-02-16T08:50:50+00:00</time>
      </trkpt>
      <trkpt lat="47.31908" lon="-0.62966">
        <ele>34</ele>
        <time>2014-02-16T08:50:52+00:00</time>
      </trkpt>
      <trkpt lat="47.31909" lon="-0.62965">
        <ele>36</ele>
        <time>2014-02-16T08:50:53+00:00</time>
      </trkpt>
      <trkpt lat="47.31922" lon="-0.62961">
        <ele>36</ele>
        <time>2014-02-16T08:51:00+00:00</time>
      </trkpt>
      <trkpt lat="47.31924" lon="-0.6296">
        <ele>36</ele>
        <time>2014-02-16T08:51:01+00:00</time>
      </trkpt>
      <trkpt lat="47.31931" lon="-0.62955">
        <ele>37</ele>
        <time>2014-02-16T08:51:05+00:00</time>
      </trkpt>
      <trkpt lat="47.31932" lon="-0.62954">
        <ele>36</ele>
        <time>2014-02-16T08:51:06+00:00</time>
      </trkpt>
      <trkpt lat="47.31933" lon="-0.62953">
        <ele>37</ele>
        <time>2014-02-16T08:51:07+00:00</time>
      </trkpt>
      <trkpt lat="47.31935" lon="-0.62952">
        <ele>37</ele>
        <time>2014-02-16T08:51:08+00:00</time>
      </trkpt>
      <trkpt lat="47.31937" lon="-0.62951">
        <ele>37</ele>
        <time>2014-02-16T08:51:09+00:00</time>
      </trkpt>
      <trkpt lat="47.31942" lon="-0.62948">
        <ele>37</ele>
        <time>2014-02-16T08:51:13+00:00</time>
      </trkpt>
      <trkpt lat="47.31944" lon="-0.62947">
        <ele>36</ele>
        <time>2014-02-16T08:51:14+00:00</time>
      </trkpt>
      <trkpt lat="47.31949" lon="-0.62944">
        <ele>41</ele>
        <time>2014-02-16T08:51:17+00:00</time>
      </trkpt>
      <trkpt lat="47.31951" lon="-0.62943">
        <ele>41</ele>
        <time>2014-02-16T08:51:18+00:00</time>
      </trkpt>
      <trkpt lat="47.31954" lon="-0.62941">
        <ele>43</ele>
        <time>2014-02-16T08:51:20+00:00</time>
      </trkpt>
      <trkpt lat="47.31955" lon="-0.6294">
        <ele>42</ele>
        <time>2014-02-16T08:51:21+00:00</time>
      </trkpt>
      <trkpt lat="47.31956" lon="-0.6294">
        <ele>41</ele>
        <time>2014-02-16T08:51:22+00:00</time>
      </trkpt>
      <trkpt lat="47.31956" lon="-0.62938">
        <ele>43</ele>
        <time>2014-02-16T08:51:23+00:00</time>
      </trkpt>
      <trkpt lat="47.31961" lon="-0.62934">
        <ele>48</ele>
        <time>2014-02-16T08:51:26+00:00</time>
      </trkpt>
      <trkpt lat="47.31964" lon="-0.62932">
        <ele>51</ele>
        <time>2014-02-16T08:51:27+00:00</time>
      </trkpt>
      <trkpt lat="47.31965" lon="-0.62932">
        <ele>52</ele>
        <time>2014-02-16T08:51:29+00:00</time>
      </trkpt>
      <trkpt lat="47.31969" lon="-0.62929">
        <ele>48</ele>
        <time>2014-02-16T08:51:30+00:00</time>
      </trkpt>
      <trkpt lat="47.31972" lon="-0.62926">
        <ele>45</ele>
        <time>2014-02-16T08:51:33+00:00</time>
      </trkpt>
      <trkpt lat="47.31974" lon="-0.62923">
        <ele>48</ele>
        <time>2014-02-16T08:51:34+00:00</time>
      </trkpt>
      <trkpt lat="47.31976" lon="-0.62922">
        <ele>47</ele>
        <time>2014-02-16T08:51:35+00:00</time>
      </trkpt>
      <trkpt lat="47.31978" lon="-0.62919">
        <ele>47</ele>
        <time>2014-02-16T08:51:36+00:00</time>
      </trkpt>
      <trkpt lat="47.3198" lon="-0.62917">
        <ele>48</ele>
        <time>2014-02-16T08:51:37+00:00</time>
      </trkpt>
      <trkpt lat="47.3198" lon="-0.62916">
        <ele>50</ele>
        <time>2014-02-16T08:51:38+00:00</time>
      </trkpt>
      <trkpt lat="47.31982" lon="-0.62915">
        <ele>48</ele>
        <time>2014-02-16T08:51:39+00:00</time>
      </trkpt>
      <trkpt lat="47.31983" lon="-0.62914">
        <ele>49</ele>
        <time>2014-02-16T08:51:40+00:00</time>
      </trkpt>
      <trkpt lat="47.31984" lon="-0.62914">
        <ele>53</ele>
        <time>2014-02-16T08:51:41+00:00</time>
      </trkpt>
      <trkpt lat="47.31986" lon="-0.62913">
        <ele>52</ele>
        <time>2014-02-16T08:51:42+00:00</time>
      </trkpt>
      <trkpt lat="47.31992" lon="-0.62908">
        <ele>52</ele>
        <time>2014-02-16T08:51:46+00:00</time>
      </trkpt>
      <trkpt lat="47.31994" lon="-0.62906">
        <ele>55</ele>
        <time>2014-02-16T08:51:47+00:00</time>
      </trkpt>
      <trkpt lat="47.32004" lon="-0.62895">
        <ele>52</ele>
        <time>2014-02-16T08:51:53+00:00</time>
      </trkpt>
      <trkpt lat="47.32005" lon="-0.62893">
        <ele>53</ele>
        <time>2014-02-16T08:51:54+00:00</time>
      </trkpt>
      <trkpt lat="47.32012" lon="-0.62884">
        <ele>47</ele>
        <time>2014-02-16T08:51:59+00:00</time>
      </trkpt>
      <trkpt lat="47.32016" lon="-0.62879">
        <ele>48</ele>
        <time>2014-02-16T08:52:00+00:00</time>
      </trkpt>
      <trkpt lat="47.32019" lon="-0.62874">
        <ele>51</ele>
        <time>2014-02-16T08:52:02+00:00</time>
      </trkpt>
      <trkpt lat="47.3202" lon="-0.62871">
        <ele>52</ele>
        <time>2014-02-16T08:52:03+00:00</time>
      </trkpt>
      <trkpt lat="47.32021" lon="-0.62867">
        <ele>54</ele>
        <time>2014-02-16T08:52:05+00:00</time>
      </trkpt>
      <trkpt lat="47.32021" lon="-0.62864">
        <ele>53</ele>
        <time>2014-02-16T08:52:06+00:00</time>
      </trkpt>
      <trkpt lat="47.3202" lon="-0.62858">
        <ele>54</ele>
        <time>2014-02-16T08:52:09+00:00</time>
      </trkpt>
      <trkpt lat="47.32021" lon="-0.62855">
        <ele>54</ele>
        <time>2014-02-16T08:52:10+00:00</time>
      </trkpt>
      <trkpt lat="47.32022" lon="-0.62852">
        <ele>53</ele>
        <time>2014-02-16T08:52:11+00:00</time>
      </trkpt>
      <trkpt lat="47.32023" lon="-0.62847">
        <ele>50</ele>
        <time>2014-02-16T08:52:12+00:00</time>
      </trkpt>
      <trkpt lat="47.32025" lon="-0.62843">
        <ele>49</ele>
        <time>2014-02-16T08:52:13+00:00</time>
      </trkpt>
      <trkpt lat="47.32027" lon="-0.6284">
        <ele>49</ele>
        <time>2014-02-16T08:52:14+00:00</time>
      </trkpt>
      <trkpt lat="47.32028" lon="-0.62838">
        <ele>50</ele>
        <time>2014-02-16T08:52:15+00:00</time>
      </trkpt>
      <trkpt lat="47.32033" lon="-0.62832">
        <ele>56</ele>
        <time>2014-02-16T08:52:22+00:00</time>
      </trkpt>
      <trkpt lat="47.32049" lon="-0.62809">
        <ele>62</ele>
        <time>2014-02-16T08:52:40+00:00</time>
      </trkpt>
      <trkpt lat="47.32051" lon="-0.62805">
        <ele>56</ele>
        <time>2014-02-16T08:52:41+00:00</time>
      </trkpt>
      <trkpt lat="47.32054" lon="-0.62796">
        <ele>53</ele>
        <time>2014-02-16T08:52:44+00:00</time>
      </trkpt>
      <trkpt lat="47.32054" lon="-0.62795">
        <ele>50</ele>
        <time>2014-02-16T08:52:45+00:00</time>
      </trkpt>
      <trkpt lat="47.32055" lon="-0.62793">
        <ele>50</ele>
        <time>2014-02-16T08:52:46+00:00</time>
      </trkpt>
      <trkpt lat="47.32056" lon="-0.62789">
        <ele>51</ele>
        <time>2014-02-16T08:52:47+00:00</time>
      </trkpt>
      <trkpt lat="47.32057" lon="-0.62787">
        <ele>52</ele>
        <time>2014-02-16T08:52:48+00:00</time>
      </trkpt>
      <trkpt lat="47.32058" lon="-0.62786">
        <ele>52</ele>
        <time>2014-02-16T08:52:49+00:00</time>
      </trkpt>
      <trkpt lat="47.32062" lon="-0.6278">
        <ele>48</ele>
        <time>2014-02-16T08:52:52+00:00</time>
      </trkpt>
      <trkpt lat="47.32064" lon="-0.6278">
        <ele>47</ele>
        <time>2014-02-16T08:52:53+00:00</time>
      </trkpt>
      <trkpt lat="47.32066" lon="-0.62777">
        <ele>49</ele>
        <time>2014-02-16T08:52:54+00:00</time>
      </trkpt>
      <trkpt lat="47.3209" lon="-0.62742">
        <ele>62</ele>
        <time>2014-02-16T08:53:10+00:00</time>
      </trkpt>
      <trkpt lat="47.32091" lon="-0.6274">
        <ele>61</ele>
        <time>2014-02-16T08:53:11+00:00</time>
      </trkpt>
      <trkpt lat="47.32092" lon="-0.62738">
        <ele>60</ele>
        <time>2014-02-16T08:53:12+00:00</time>
      </trkpt>
      <trkpt lat="47.32093" lon="-0.62734">
        <ele>59</ele>
        <time>2014-02-16T08:53:13+00:00</time>
      </trkpt>
      <trkpt lat="47.32094" lon="-0.62732">
        <ele>63</ele>
        <time>2014-02-16T08:53:14+00:00</time>
      </trkpt>
      <trkpt lat="47.32095" lon="-0.62729">
        <ele>64</ele>
        <time>2014-02-16T08:53:15+00:00</time>
      </trkpt>
      <trkpt lat="47.32097" lon="-0.62726">
        <ele>64</ele>
        <time>2014-02-16T08:53:16+00:00</time>
      </trkpt>
      <trkpt lat="47.32098" lon="-0.62724">
        <ele>64</ele>
        <time>2014-02-16T08:53:17+00:00</time>
      </trkpt>
      <trkpt lat="47.32102" lon="-0.62713">
        <ele>64</ele>
        <time>2014-02-16T08:53:20+00:00</time>
      </trkpt>
      <trkpt lat="47.32103" lon="-0.6271">
        <ele>65</ele>
        <time>2014-02-16T08:53:21+00:00</time>
      </trkpt>
      <trkpt lat="47.32107" lon="-0.627">
        <ele>66</ele>
        <time>2014-02-16T08:53:25+00:00</time>
      </trkpt>
      <trkpt lat="47.32108" lon="-0.62699">
        <ele>63</ele>
        <time>2014-02-16T08:53:26+00:00</time>
      </trkpt>
      <trkpt lat="47.3211" lon="-0.62692">
        <ele>58</ele>
        <time>2014-02-16T08:53:29+00:00</time>
      </trkpt>
      <trkpt lat="47.32111" lon="-0.62689">
        <ele>56</ele>
        <time>2014-02-16T08:53:30+00:00</time>
      </trkpt>
      <trkpt lat="47.32111" lon="-0.62687">
        <ele>52</ele>
        <time>2014-02-16T08:53:31+00:00</time>
      </trkpt>
      <trkpt lat="47.32112" lon="-0.62684">
        <ele>52</ele>
        <time>2014-02-16T08:53:32+00:00</time>
      </trkpt>
      <trkpt lat="47.32113" lon="-0.62683">
        <ele>54</ele>
        <time>2014-02-16T08:53:33+00:00</time>
      </trkpt>
      <trkpt lat="47.32133" lon="-0.6265">
        <ele>61</ele>
        <time>2014-02-16T08:53:49+00:00</time>
      </trkpt>
      <trkpt lat="47.32135" lon="-0.62648">
        <ele>62</ele>
        <time>2014-02-16T08:53:50+00:00</time>
      </trkpt>
      <trkpt lat="47.32136" lon="-0.62644">
        <ele>62</ele>
        <time>2014-02-16T08:53:52+00:00</time>
      </trkpt>
      <trkpt lat="47.32137" lon="-0.62643">
        <ele>61</ele>
        <time>2014-02-16T08:53:53+00:00</time>
      </trkpt>
      <trkpt lat="47.32165" lon="-0.62592">
        <ele>69</ele>
        <time>2014-02-16T08:54:23+00:00</time>
      </trkpt>
      <trkpt lat="47.32166" lon="-0.6259">
        <ele>71</ele>
        <time>2014-02-16T08:54:24+00:00</time>
      </trkpt>
      <trkpt lat="47.32168" lon="-0.62588">
        <ele>71</ele>
        <time>2014-02-16T08:54:25+00:00</time>
      </trkpt>
      <trkpt lat="47.32169" lon="-0.62585">
        <ele>69</ele>
        <time>2014-02-16T08:54:26+00:00</time>
      </trkpt>
      <trkpt lat="47.3217" lon="-0.62584">
        <ele>68</ele>
        <time>2014-02-16T08:54:27+00:00</time>
      </trkpt>
      <trkpt lat="47.32172" lon="-0.6258">
        <ele>73</ele>
        <time>2014-02-16T08:54:30+00:00</time>
      </trkpt>
      <trkpt lat="47.32173" lon="-0.62577">
        <ele>73</ele>
        <time>2014-02-16T08:54:31+00:00</time>
      </trkpt>
      <trkpt lat="47.32174" lon="-0.62575">
        <ele>71</ele>
        <time>2014-02-16T08:54:32+00:00</time>
      </trkpt>
      <trkpt lat="47.32176" lon="-0.62572">
        <ele>70</ele>
        <time>2014-02-16T08:54:33+00:00</time>
      </trkpt>
      <trkpt lat="47.3218" lon="-0.62567">
        <ele>75</ele>
        <time>2014-02-16T08:54:36+00:00</time>
      </trkpt>
      <trkpt lat="47.32181" lon="-0.62565">
        <ele>76</ele>
        <time>2014-02-16T08:54:37+00:00</time>
      </trkpt>
      <trkpt lat="47.32186" lon="-0.62561">
        <ele>65</ele>
        <time>2014-02-16T08:54:39+00:00</time>
      </trkpt>
      <trkpt lat="47.32188" lon="-0.62559">
        <ele>61</ele>
        <time>2014-02-16T08:54:40+00:00</time>
      </trkpt>
      <trkpt lat="47.32189" lon="-0.62556">
        <ele>56</ele>
        <time>2014-02-16T08:54:41+00:00</time>
      </trkpt>
      <trkpt lat="47.32197" lon="-0.62546">
        <ele>57</ele>
        <time>2014-02-16T08:54:45+00:00</time>
      </trkpt>
      <trkpt lat="47.32197" lon="-0.62545">
        <ele>56</ele>
        <time>2014-02-16T08:54:46+00:00</time>
      </trkpt>
      <trkpt lat="47.32198" lon="-0.62542">
        <ele>55</ele>
        <time>2014-02-16T08:54:47+00:00</time>
      </trkpt>
      <trkpt lat="47.32199" lon="-0.6254">
        <ele>54</ele>
        <time>2014-02-16T08:54:48+00:00</time>
      </trkpt>
      <trkpt lat="47.32201" lon="-0.62537">
        <ele>54</ele>
        <time>2014-02-16T08:54:49+00:00</time>
      </trkpt>
      <trkpt lat="47.32201" lon="-0.62536">
        <ele>55</ele>
        <time>2014-02-16T08:54:50+00:00</time>
      </trkpt>
      <trkpt lat="47.32204" lon="-0.6253">
        <ele>55</ele>
        <time>2014-02-16T08:54:53+00:00</time>
      </trkpt>
      <trkpt lat="47.32206" lon="-0.62527">
        <ele>55</ele>
        <time>2014-02-16T08:54:54+00:00</time>
      </trkpt>
      <trkpt lat="47.32207" lon="-0.62525">
        <ele>54</ele>
        <time>2014-02-16T08:54:55+00:00</time>
      </trkpt>
      <trkpt lat="47.32207" lon="-0.62524">
        <ele>54</ele>
        <time>2014-02-16T08:54:56+00:00</time>
      </trkpt>
      <trkpt lat="47.3222" lon="-0.625">
        <ele>60</ele>
        <time>2014-02-16T08:55:11+00:00</time>
      </trkpt>
      <trkpt lat="47.3222" lon="-0.62499">
        <ele>60</ele>
        <time>2014-02-16T08:55:12+00:00</time>
      </trkpt>
      <trkpt lat="47.32224" lon="-0.62493">
        <ele>60</ele>
        <time>2014-02-16T08:55:16+00:00</time>
      </trkpt>
      <trkpt lat="47.32225" lon="-0.62492">
        <ele>60</ele>
        <time>2014-02-16T08:55:17+00:00</time>
      </trkpt>
      <trkpt lat="47.32229" lon="-0.62486">
        <ele>58</ele>
        <time>2014-02-16T08:55:22+00:00</time>
      </trkpt>
      <trkpt lat="47.3223" lon="-0.62485">
        <ele>57</ele>
        <time>2014-02-16T08:55:23+00:00</time>
      </trkpt>
      <trkpt lat="47.32231" lon="-0.62484">
        <ele>57</ele>
        <time>2014-02-16T08:55:24+00:00</time>
      </trkpt>
      <trkpt lat="47.32232" lon="-0.62483">
        <ele>60</ele>
        <time>2014-02-16T08:55:25+00:00</time>
      </trkpt>
      <trkpt lat="47.32233" lon="-0.62481">
        <ele>60</ele>
        <time>2014-02-16T08:55:26+00:00</time>
      </trkpt>
      <trkpt lat="47.32235" lon="-0.62477">
        <ele>63</ele>
        <time>2014-02-16T08:55:28+00:00</time>
      </trkpt>
      <trkpt lat="47.32236" lon="-0.62476">
        <ele>61</ele>
        <time>2014-02-16T08:55:29+00:00</time>
      </trkpt>
      <trkpt lat="47.32236" lon="-0.62475">
        <ele>62</ele>
        <time>2014-02-16T08:55:30+00:00</time>
      </trkpt>
      <trkpt lat="47.32239" lon="-0.6247">
        <ele>70</ele>
        <time>2014-02-16T08:55:34+00:00</time>
      </trkpt>
      <trkpt lat="47.3224" lon="-0.62468">
        <ele>72</ele>
        <time>2014-02-16T08:55:35+00:00</time>
      </trkpt>
      <trkpt lat="47.32241" lon="-0.62467">
        <ele>74</ele>
        <time>2014-02-16T08:55:36+00:00</time>
      </trkpt>
      <trkpt lat="47.32243" lon="-0.62464">
        <ele>74</ele>
        <time>2014-02-16T08:55:37+00:00</time>
      </trkpt>
      <trkpt lat="47.32247" lon="-0.62455">
        <ele>70</ele>
        <time>2014-02-16T08:55:41+00:00</time>
      </trkpt>
      <trkpt lat="47.32247" lon="-0.62453">
        <ele>70</ele>
        <time>2014-02-16T08:55:42+00:00</time>
      </trkpt>
      <trkpt lat="47.32279" lon="-0.62355">
        <ele>70</ele>
        <time>2014-02-16T08:56:36+00:00</time>
      </trkpt>
      <trkpt lat="47.32281" lon="-0.6235">
        <ele>70</ele>
        <time>2014-02-16T08:56:37+00:00</time>
      </trkpt>
      <trkpt lat="47.32281" lon="-0.62347">
        <ele>70</ele>
        <time>2014-02-16T08:56:38+00:00</time>
      </trkpt>
      <trkpt lat="47.32282" lon="-0.62344">
        <ele>69</ele>
        <time>2014-02-16T08:56:39+00:00</time>
      </trkpt>
      <trkpt lat="47.32284" lon="-0.6234">
        <ele>68</ele>
        <time>2014-02-16T08:56:40+00:00</time>
      </trkpt>
      <trkpt lat="47.32284" lon="-0.62338">
        <ele>68</ele>
        <time>2014-02-16T08:56:41+00:00</time>
      </trkpt>
      <trkpt lat="47.32284" lon="-0.62335">
        <ele>68</ele>
        <time>2014-02-16T08:56:42+00:00</time>
      </trkpt>
      <trkpt lat="47.32284" lon="-0.62316">
        <ele>66</ele>
        <time>2014-02-16T08:56:49+00:00</time>
      </trkpt>
      <trkpt lat="47.32284" lon="-0.62315">
        <ele>67</ele>
        <time>2014-02-16T08:56:50+00:00</time>
      </trkpt>
      <trkpt lat="47.32284" lon="-0.62312">
        <ele>67</ele>
        <time>2014-02-16T08:56:51+00:00</time>
      </trkpt>
      <trkpt lat="47.32284" lon="-0.6231">
        <ele>66</ele>
        <time>2014-02-16T08:56:52+00:00</time>
      </trkpt>
      <trkpt lat="47.32283" lon="-0.62308">
        <ele>67</ele>
        <time>2014-02-16T08:56:53+00:00</time>
      </trkpt>
      <trkpt lat="47.32283" lon="-0.62307">
        <ele>68</ele>
        <time>2014-02-16T08:56:54+00:00</time>
      </trkpt>
      <trkpt lat="47.32283" lon="-0.62305">
        <ele>70</ele>
        <time>2014-02-16T08:56:55+00:00</time>
      </trkpt>
      <trkpt lat="47.32282" lon="-0.62302">
        <ele>71</ele>
        <time>2014-02-16T08:56:56+00:00</time>
      </trkpt>
      <trkpt lat="47.32281" lon="-0.623">
        <ele>70</ele>
        <time>2014-02-16T08:56:57+00:00</time>
      </trkpt>
      <trkpt lat="47.32281" lon="-0.62298">
        <ele>71</ele>
        <time>2014-02-16T08:56:58+00:00</time>
      </trkpt>
      <trkpt lat="47.3228" lon="-0.62295">
        <ele>70</ele>
        <time>2014-02-16T08:56:59+00:00</time>
      </trkpt>
      <trkpt lat="47.3228" lon="-0.62292">
        <ele>70</ele>
        <time>2014-02-16T08:57:00+00:00</time>
      </trkpt>
      <trkpt lat="47.32279" lon="-0.62291">
        <ele>71</ele>
        <time>2014-02-16T08:57:01+00:00</time>
      </trkpt>
      <trkpt lat="47.32278" lon="-0.62289">
        <ele>72</ele>
        <time>2014-02-16T08:57:02+00:00</time>
      </trkpt>
      <trkpt lat="47.32276" lon="-0.62287">
        <ele>71</ele>
        <time>2014-02-16T08:57:03+00:00</time>
      </trkpt>
      <trkpt lat="47.32276" lon="-0.62284">
        <ele>71</ele>
        <time>2014-02-16T08:57:04+00:00</time>
      </trkpt>
      <trkpt lat="47.32275" lon="-0.62283">
        <ele>71</ele>
        <time>2014-02-16T08:57:05+00:00</time>
      </trkpt>
      <trkpt lat="47.32274" lon="-0.6228">
        <ele>71</ele>
        <time>2014-02-16T08:57:06+00:00</time>
      </trkpt>
      <trkpt lat="47.32274" lon="-0.62277">
        <ele>72</ele>
        <time>2014-02-16T08:57:07+00:00</time>
      </trkpt>
      <trkpt lat="47.32272" lon="-0.62276">
        <ele>71</ele>
        <time>2014-02-16T08:57:08+00:00</time>
      </trkpt>
      <trkpt lat="47.32272" lon="-0.62273">
        <ele>71</ele>
        <time>2014-02-16T08:57:09+00:00</time>
      </trkpt>
      <trkpt lat="47.32271" lon="-0.62271">
        <ele>71</ele>
        <time>2014-02-16T08:57:10+00:00</time>
      </trkpt>
      <trkpt lat="47.3227" lon="-0.62268">
        <ele>71</ele>
        <time>2014-02-16T08:57:11+00:00</time>
      </trkpt>
      <trkpt lat="47.32269" lon="-0.62266">
        <ele>70</ele>
        <time>2014-02-16T08:57:12+00:00</time>
      </trkpt>
      <trkpt lat="47.32268" lon="-0.62264">
        <ele>70</ele>
        <time>2014-02-16T08:57:13+00:00</time>
      </trkpt>
      <trkpt lat="47.32268" lon="-0.62262">
        <ele>70</ele>
        <time>2014-02-16T08:57:14+00:00</time>
      </trkpt>
      <trkpt lat="47.32267" lon="-0.6226">
        <ele>71</ele>
        <time>2014-02-16T08:57:15+00:00</time>
      </trkpt>
      <trkpt lat="47.32266" lon="-0.62258">
        <ele>71</ele>
        <time>2014-02-16T08:57:16+00:00</time>
      </trkpt>
      <trkpt lat="47.32261" lon="-0.62246">
        <ele>71</ele>
        <time>2014-02-16T08:57:21+00:00</time>
      </trkpt>
      <trkpt lat="47.3226" lon="-0.62244">
        <ele>71</ele>
        <time>2014-02-16T08:57:22+00:00</time>
      </trkpt>
      <trkpt lat="47.3226" lon="-0.62238">
        <ele>70</ele>
        <time>2014-02-16T08:57:24+00:00</time>
      </trkpt>
      <trkpt lat="47.32259" lon="-0.62236">
        <ele>68</ele>
        <time>2014-02-16T08:57:25+00:00</time>
      </trkpt>
      <trkpt lat="47.32257" lon="-0.62231">
        <ele>70</ele>
        <time>2014-02-16T08:57:27+00:00</time>
      </trkpt>
      <trkpt lat="47.32256" lon="-0.62228">
        <ele>71</ele>
        <time>2014-02-16T08:57:28+00:00</time>
      </trkpt>
      <trkpt lat="47.32253" lon="-0.6222">
        <ele>72</ele>
        <time>2014-02-16T08:57:31+00:00</time>
      </trkpt>
      <trkpt lat="47.32252" lon="-0.62219">
        <ele>71</ele>
        <time>2014-02-16T08:57:32+00:00</time>
      </trkpt>
      <trkpt lat="47.3225" lon="-0.62213">
        <ele>70</ele>
        <time>2014-02-16T08:57:34+00:00</time>
      </trkpt>
      <trkpt lat="47.32249" lon="-0.62211">
        <ele>70</ele>
        <time>2014-02-16T08:57:35+00:00</time>
      </trkpt>
      <trkpt lat="47.32246" lon="-0.622">
        <ele>73</ele>
        <time>2014-02-16T08:57:40+00:00</time>
      </trkpt>
      <trkpt lat="47.32245" lon="-0.62198">
        <ele>73</ele>
        <time>2014-02-16T08:57:41+00:00</time>
      </trkpt>
      <trkpt lat="47.32244" lon="-0.62196">
        <ele>73</ele>
        <time>2014-02-16T08:57:42+00:00</time>
      </trkpt>
      <trkpt lat="47.32244" lon="-0.62195">
        <ele>73</ele>
        <time>2014-02-16T08:57:43+00:00</time>
      </trkpt>
      <trkpt lat="47.32243" lon="-0.62193">
        <ele>73</ele>
        <time>2014-02-16T08:57:44+00:00</time>
      </trkpt>
      <trkpt lat="47.32242" lon="-0.62191">
        <ele>73</ele>
        <time>2014-02-16T08:57:45+00:00</time>
      </trkpt>
      <trkpt lat="47.32241" lon="-0.62189">
        <ele>73</ele>
        <time>2014-02-16T08:57:46+00:00</time>
      </trkpt>
      <trkpt lat="47.3224" lon="-0.62188">
        <ele>73</ele>
        <time>2014-02-16T08:57:47+00:00</time>
      </trkpt>
      <trkpt lat="47.32239" lon="-0.62188">
        <ele>73</ele>
        <time>2014-02-16T08:57:48+00:00</time>
      </trkpt>
      <trkpt lat="47.32238" lon="-0.62188">
        <ele>74</ele>
        <time>2014-02-16T08:57:49+00:00</time>
      </trkpt>
      <trkpt lat="47.32236" lon="-0.62188">
        <ele>73</ele>
        <time>2014-02-16T08:57:50+00:00</time>
      </trkpt>
      <trkpt lat="47.32236" lon="-0.6219">
        <ele>73</ele>
        <time>2014-02-16T08:57:51+00:00</time>
      </trkpt>
      <trkpt lat="47.32236" lon="-0.6219">
        <ele>74</ele>
        <time>2014-02-16T08:57:52+00:00</time>
      </trkpt>
      <trkpt lat="47.32235" lon="-0.62191">
        <ele>74</ele>
        <time>2014-02-16T08:57:53+00:00</time>
      </trkpt>
      <trkpt lat="47.32235" lon="-0.62192">
        <ele>75</ele>
        <time>2014-02-16T08:57:54+00:00</time>
      </trkpt>
      <trkpt lat="47.32233" lon="-0.62193">
        <ele>74</ele>
        <time>2014-02-16T08:57:55+00:00</time>
      </trkpt>
      <trkpt lat="47.32232" lon="-0.62194">
        <ele>75</ele>
        <time>2014-02-16T08:57:56+00:00</time>
      </trkpt>
      <trkpt lat="47.32231" lon="-0.62196">
        <ele>74</ele>
        <time>2014-02-16T08:57:57+00:00</time>
      </trkpt>
      <trkpt lat="47.3223" lon="-0.62198">
        <ele>75</ele>
        <time>2014-02-16T08:57:58+00:00</time>
      </trkpt>
      <trkpt lat="47.32228" lon="-0.622">
        <ele>75</ele>
        <time>2014-02-16T08:57:59+00:00</time>
      </trkpt>
      <trkpt lat="47.32219" lon="-0.62215">
        <ele>76</ele>
        <time>2014-02-16T08:58:08+00:00</time>
      </trkpt>
      <trkpt lat="47.32217" lon="-0.62217">
        <ele>75</ele>
        <time>2014-02-16T08:58:09+00:00</time>
      </trkpt>
      <trkpt lat="47.32213" lon="-0.6222">
        <ele>75</ele>
        <time>2014-02-16T08:58:11+00:00</time>
      </trkpt>
      <trkpt lat="47.32212" lon="-0.6222">
        <ele>75</ele>
        <time>2014-02-16T08:58:12+00:00</time>
      </trkpt>
      <trkpt lat="47.32188" lon="-0.62236">
        <ele>74</ele>
        <time>2014-02-16T08:58:24+00:00</time>
      </trkpt>
      <trkpt lat="47.32185" lon="-0.62237">
        <ele>74</ele>
        <time>2014-02-16T08:58:25+00:00</time>
      </trkpt>
      <trkpt lat="47.32145" lon="-0.62256">
        <ele>75</ele>
        <time>2014-02-16T08:58:41+00:00</time>
      </trkpt>
      <trkpt lat="47.32143" lon="-0.62258">
        <ele>75</ele>
        <time>2014-02-16T08:58:42+00:00</time>
      </trkpt>
      <trkpt lat="47.3214" lon="-0.6226">
        <ele>75</ele>
        <time>2014-02-16T08:58:43+00:00</time>
      </trkpt>
      <trkpt lat="47.32138" lon="-0.6226">
        <ele>75</ele>
        <time>2014-02-16T08:58:44+00:00</time>
      </trkpt>
      <trkpt lat="47.32132" lon="-0.62262">
        <ele>75</ele>
        <time>2014-02-16T08:58:46+00:00</time>
      </trkpt>
      <trkpt lat="47.3213" lon="-0.62262">
        <ele>75</ele>
        <time>2014-02-16T08:58:47+00:00</time>
      </trkpt>
      <trkpt lat="47.32127" lon="-0.62264">
        <ele>75</ele>
        <time>2014-02-16T08:58:48+00:00</time>
      </trkpt>
      <trkpt lat="47.32124" lon="-0.62265">
        <ele>75</ele>
        <time>2014-02-16T08:58:49+00:00</time>
      </trkpt>
      <trkpt lat="47.32121" lon="-0.62267">
        <ele>75</ele>
        <time>2014-02-16T08:58:50+00:00</time>
      </trkpt>
      <trkpt lat="47.32106" lon="-0.62276">
        <ele>75</ele>
        <time>2014-02-16T08:58:56+00:00</time>
      </trkpt>
      <trkpt lat="47.32103" lon="-0.62277">
        <ele>75</ele>
        <time>2014-02-16T08:58:57+00:00</time>
      </trkpt>
      <trkpt lat="47.32092" lon="-0.62287">
        <ele>76</ele>
        <time>2014-02-16T08:59:02+00:00</time>
      </trkpt>
      <trkpt lat="47.3209" lon="-0.62289">
        <ele>76</ele>
        <time>2014-02-16T08:59:03+00:00</time>
      </trkpt>
      <trkpt lat="47.32088" lon="-0.62292">
        <ele>77</ele>
        <time>2014-02-16T08:59:04+00:00</time>
      </trkpt>
      <trkpt lat="47.32086" lon="-0.62293">
        <ele>77</ele>
        <time>2014-02-16T08:59:05+00:00</time>
      </trkpt>
      <trkpt lat="47.32084" lon="-0.62295">
        <ele>77</ele>
        <time>2014-02-16T08:59:06+00:00</time>
      </trkpt>
      <trkpt lat="47.32082" lon="-0.62296">
        <ele>77</ele>
        <time>2014-02-16T08:59:07+00:00</time>
      </trkpt>
      <trkpt lat="47.32079" lon="-0.62297">
        <ele>77</ele>
        <time>2014-02-16T08:59:08+00:00</time>
      </trkpt>
      <trkpt lat="47.32077" lon="-0.62297">
        <ele>78</ele>
        <time>2014-02-16T08:59:09+00:00</time>
      </trkpt>
      <trkpt lat="47.32075" lon="-0.62298">
        <ele>78</ele>
        <time>2014-02-16T08:59:10+00:00</time>
      </trkpt>
      <trkpt lat="47.32072" lon="-0.62298">
        <ele>78</ele>
        <time>2014-02-16T08:59:11+00:00</time>
      </trkpt>
      <trkpt lat="47.3207" lon="-0.62298">
        <ele>78</ele>
        <time>2014-02-16T08:59:12+00:00</time>
      </trkpt>
      <trkpt lat="47.32068" lon="-0.62298">
        <ele>78</ele>
        <time>2014-02-16T08:59:13+00:00</time>
      </trkpt>
      <trkpt lat="47.32065" lon="-0.62297">
        <ele>77</ele>
        <time>2014-02-16T08:59:14+00:00</time>
      </trkpt>
      <trkpt lat="47.32062" lon="-0.62295">
        <ele>77</ele>
        <time>2014-02-16T08:59:15+00:00</time>
      </trkpt>
      <trkpt lat="47.3206" lon="-0.62292">
        <ele>77</ele>
        <time>2014-02-16T08:59:16+00:00</time>
      </trkpt>
      <trkpt lat="47.3206" lon="-0.6229">
        <ele>77</ele>
        <time>2014-02-16T08:59:17+00:00</time>
      </trkpt>
      <trkpt lat="47.32059" lon="-0.62287">
        <ele>78</ele>
        <time>2014-02-16T08:59:18+00:00</time>
      </trkpt>
      <trkpt lat="47.32055" lon="-0.62273">
        <ele>78</ele>
        <time>2014-02-16T08:59:22+00:00</time>
      </trkpt>
      <trkpt lat="47.32054" lon="-0.62268">
        <ele>79</ele>
        <time>2014-02-16T08:59:23+00:00</time>
      </trkpt>
      <trkpt lat="47.32046" lon="-0.62216">
        <ele>80</ele>
        <time>2014-02-16T08:59:35+00:00</time>
      </trkpt>
      <trkpt lat="47.32045" lon="-0.62212">
        <ele>80</ele>
        <time>2014-02-16T08:59:36+00:00</time>
      </trkpt>
      <trkpt lat="47.32044" lon="-0.62192">
        <ele>80</ele>
        <time>2014-02-16T08:59:40+00:00</time>
      </trkpt>
      <trkpt lat="47.32042" lon="-0.62188">
        <ele>80</ele>
        <time>2014-02-16T08:59:41+00:00</time>
      </trkpt>
      <trkpt lat="47.3204" lon="-0.62179">
        <ele>80</ele>
        <time>2014-02-16T08:59:43+00:00</time>
      </trkpt>
      <trkpt lat="47.32039" lon="-0.62175">
        <ele>81</ele>
        <time>2014-02-16T08:59:44+00:00</time>
      </trkpt>
      <trkpt lat="47.32036" lon="-0.62159">
        <ele>82</ele>
        <time>2014-02-16T08:59:48+00:00</time>
      </trkpt>
      <trkpt lat="47.32036" lon="-0.62155">
        <ele>81</ele>
        <time>2014-02-16T08:59:49+00:00</time>
      </trkpt>
      <trkpt lat="47.32035" lon="-0.6215">
        <ele>79</ele>
        <time>2014-02-16T08:59:50+00:00</time>
      </trkpt>
      <trkpt lat="47.32034" lon="-0.62147">
        <ele>79</ele>
        <time>2014-02-16T08:59:51+00:00</time>
      </trkpt>
      <trkpt lat="47.32032" lon="-0.62143">
        <ele>78</ele>
        <time>2014-02-16T08:59:52+00:00</time>
      </trkpt>
      <trkpt lat="47.3203" lon="-0.62141">
        <ele>78</ele>
        <time>2014-02-16T08:59:53+00:00</time>
      </trkpt>
      <trkpt lat="47.32028" lon="-0.6214">
        <ele>78</ele>
        <time>2014-02-16T08:59:54+00:00</time>
      </trkpt>
      <trkpt lat="47.32026" lon="-0.6214">
        <ele>77</ele>
        <time>2014-02-16T08:59:55+00:00</time>
      </trkpt>
      <trkpt lat="47.32022" lon="-0.6214">
        <ele>77</ele>
        <time>2014-02-16T08:59:56+00:00</time>
      </trkpt>
      <trkpt lat="47.32019" lon="-0.6214">
        <ele>77</ele>
        <time>2014-02-16T08:59:57+00:00</time>
      </trkpt>
      <trkpt lat="47.31964" lon="-0.62158">
        <ele>74</ele>
        <time>2014-02-16T09:00:13+00:00</time>
      </trkpt>
      <trkpt lat="47.31962" lon="-0.62157">
        <ele>74</ele>
        <time>2014-02-16T09:00:14+00:00</time>
      </trkpt>
      <trkpt lat="47.31959" lon="-0.62156">
        <ele>74</ele>
        <time>2014-02-16T09:00:15+00:00</time>
      </trkpt>
      <trkpt lat="47.31956" lon="-0.62152">
        <ele>73</ele>
        <time>2014-02-16T09:00:16+00:00</time>
      </trkpt>
      <trkpt lat="47.31955" lon="-0.62147">
        <ele>72</ele>
        <time>2014-02-16T09:00:17+00:00</time>
      </trkpt>
      <trkpt lat="47.31953" lon="-0.6214">
        <ele>71</ele>
        <time>2014-02-16T09:00:18+00:00</time>
      </trkpt>
      <trkpt lat="47.31952" lon="-0.62133">
        <ele>70</ele>
        <time>2014-02-16T09:00:19+00:00</time>
      </trkpt>
      <trkpt lat="47.31951" lon="-0.62125">
        <ele>70</ele>
        <time>2014-02-16T09:00:20+00:00</time>
      </trkpt>
      <trkpt lat="47.31952" lon="-0.62117">
        <ele>70</ele>
        <time>2014-02-16T09:00:21+00:00</time>
      </trkpt>
      <trkpt lat="47.31953" lon="-0.6211">
        <ele>70</ele>
        <time>2014-02-16T09:00:22+00:00</time>
      </trkpt>
      <trkpt lat="47.31956" lon="-0.62104">
        <ele>71</ele>
        <time>2014-02-16T09:00:23+00:00</time>
      </trkpt>
      <trkpt lat="47.31959" lon="-0.621">
        <ele>72</ele>
        <time>2014-02-16T09:00:24+00:00</time>
      </trkpt>
      <trkpt lat="47.31968" lon="-0.62092">
        <ele>73</ele>
        <time>2014-02-16T09:00:28+00:00</time>
      </trkpt>
      <trkpt lat="47.31971" lon="-0.6209">
        <ele>73</ele>
        <time>2014-02-16T09:00:29+00:00</time>
      </trkpt>
      <trkpt lat="47.31976" lon="-0.62082">
        <ele>74</ele>
        <time>2014-02-16T09:00:32+00:00</time>
      </trkpt>
      <trkpt lat="47.31978" lon="-0.62079">
        <ele>74</ele>
        <time>2014-02-16T09:00:33+00:00</time>
      </trkpt>
      <trkpt lat="47.31979" lon="-0.62077">
        <ele>73</ele>
        <time>2014-02-16T09:00:34+00:00</time>
      </trkpt>
      <trkpt lat="47.3198" lon="-0.62075">
        <ele>74</ele>
        <time>2014-02-16T09:00:35+00:00</time>
      </trkpt>
      <trkpt lat="47.3198" lon="-0.62073">
        <ele>73</ele>
        <time>2014-02-16T09:00:36+00:00</time>
      </trkpt>
      <trkpt lat="47.3198" lon="-0.62069">
        <ele>74</ele>
        <time>2014-02-16T09:00:37+00:00</time>
      </trkpt>
      <trkpt lat="47.31979" lon="-0.62066">
        <ele>74</ele>
        <time>2014-02-16T09:00:38+00:00</time>
      </trkpt>
      <trkpt lat="47.31978" lon="-0.62061">
        <ele>74</ele>
        <time>2014-02-16T09:00:39+00:00</time>
      </trkpt>
      <trkpt lat="47.31975" lon="-0.62055">
        <ele>73</ele>
        <time>2014-02-16T09:00:40+00:00</time>
      </trkpt>
      <trkpt lat="47.31972" lon="-0.62048">
        <ele>71</ele>
        <time>2014-02-16T09:00:41+00:00</time>
      </trkpt>
      <trkpt lat="47.31965" lon="-0.62034">
        <ele>67</ele>
        <time>2014-02-16T09:00:43+00:00</time>
      </trkpt>
      <trkpt lat="47.31961" lon="-0.62028">
        <ele>66</ele>
        <time>2014-02-16T09:00:44+00:00</time>
      </trkpt>
      <trkpt lat="47.31956" lon="-0.62023">
        <ele>66</ele>
        <time>2014-02-16T09:00:45+00:00</time>
      </trkpt>
      <trkpt lat="47.31945" lon="-0.62011">
        <ele>70</ele>
        <time>2014-02-16T09:00:50+00:00</time>
      </trkpt>
      <trkpt lat="47.31943" lon="-0.62009">
        <ele>72</ele>
        <time>2014-02-16T09:00:51+00:00</time>
      </trkpt>
      <trkpt lat="47.31941" lon="-0.62008">
        <ele>71</ele>
        <time>2014-02-16T09:00:52+00:00</time>
      </trkpt>
      <trkpt lat="47.3194" lon="-0.62007">
        <ele>71</ele>
        <time>2014-02-16T09:00:53+00:00</time>
      </trkpt>
      <trkpt lat="47.31939" lon="-0.62005">
        <ele>72</ele>
        <time>2014-02-16T09:00:54+00:00</time>
      </trkpt>
      <trkpt lat="47.31938" lon="-0.62005">
        <ele>72</ele>
        <time>2014-02-16T09:00:55+00:00</time>
      </trkpt>
      <trkpt lat="47.31918" lon="-0.62025">
        <ele>74</ele>
        <time>2014-02-16T09:03:01+00:00</time>
      </trkpt>
      <trkpt lat="47.31916" lon="-0.62028">
        <ele>74</ele>
        <time>2014-02-16T09:03:02+00:00</time>
      </trkpt>
      <trkpt lat="47.31912" lon="-0.62038">
        <ele>73</ele>
        <time>2014-02-16T09:03:06+00:00</time>
      </trkpt>
      <trkpt lat="47.31911" lon="-0.6204">
        <ele>73</ele>
        <time>2014-02-16T09:03:07+00:00</time>
      </trkpt>
      <trkpt lat="47.31908" lon="-0.62044">
        <ele>73</ele>
        <time>2014-02-16T09:03:09+00:00</time>
      </trkpt>
      <trkpt lat="47.31908" lon="-0.62047">
        <ele>73</ele>
        <time>2014-02-16T09:03:10+00:00</time>
      </trkpt>
      <trkpt lat="47.31906" lon="-0.62049">
        <ele>73</ele>
        <time>2014-02-16T09:03:11+00:00</time>
      </trkpt>
      <trkpt lat="47.31902" lon="-0.62056">
        <ele>74</ele>
        <time>2014-02-16T09:03:14+00:00</time>
      </trkpt>
      <trkpt lat="47.319" lon="-0.62058">
        <ele>74</ele>
        <time>2014-02-16T09:03:15+00:00</time>
      </trkpt>
      <trkpt lat="47.31899" lon="-0.6206">
        <ele>74</ele>
        <time>2014-02-16T09:03:16+00:00</time>
      </trkpt>
      <trkpt lat="47.31897" lon="-0.6206">
        <ele>73</ele>
        <time>2014-02-16T09:03:17+00:00</time>
      </trkpt>
      <trkpt lat="47.31895" lon="-0.6206">
        <ele>73</ele>
        <time>2014-02-16T09:03:18+00:00</time>
      </trkpt>
      <trkpt lat="47.31892" lon="-0.6206">
        <ele>73</ele>
        <time>2014-02-16T09:03:19+00:00</time>
      </trkpt>
      <trkpt lat="47.31891" lon="-0.62061">
        <ele>72</ele>
        <time>2014-02-16T09:03:20+00:00</time>
      </trkpt>
      <trkpt lat="47.31886" lon="-0.62062">
        <ele>73</ele>
        <time>2014-02-16T09:03:22+00:00</time>
      </trkpt>
      <trkpt lat="47.31884" lon="-0.62064">
        <ele>73</ele>
        <time>2014-02-16T09:03:23+00:00</time>
      </trkpt>
      <trkpt lat="47.31884" lon="-0.62066">
        <ele>73</ele>
        <time>2014-02-16T09:03:24+00:00</time>
      </trkpt>
      <trkpt lat="47.31882" lon="-0.62068">
        <ele>73</ele>
        <time>2014-02-16T09:03:25+00:00</time>
      </trkpt>
      <trkpt lat="47.31854" lon="-0.62132">
        <ele>74</ele>
        <time>2014-02-16T09:03:46+00:00</time>
      </trkpt>
      <trkpt lat="47.31853" lon="-0.62136">
        <ele>74</ele>
        <time>2014-02-16T09:03:47+00:00</time>
      </trkpt>
      <trkpt lat="47.31852" lon="-0.6214">
        <ele>74</ele>
        <time>2014-02-16T09:03:48+00:00</time>
      </trkpt>
      <trkpt lat="47.31853" lon="-0.62144">
        <ele>74</ele>
        <time>2014-02-16T09:03:49+00:00</time>
      </trkpt>
      <trkpt lat="47.31854" lon="-0.62148">
        <ele>73</ele>
        <time>2014-02-16T09:03:50+00:00</time>
      </trkpt>
      <trkpt lat="47.31855" lon="-0.62154">
        <ele>72</ele>
        <time>2014-02-16T09:03:51+00:00</time>
      </trkpt>
      <trkpt lat="47.31856" lon="-0.62159">
        <ele>71</ele>
        <time>2014-02-16T09:03:52+00:00</time>
      </trkpt>
      <trkpt lat="47.31855" lon="-0.62164">
        <ele>72</ele>
        <time>2014-02-16T09:03:53+00:00</time>
      </trkpt>
      <trkpt lat="47.31853" lon="-0.62168">
        <ele>72</ele>
        <time>2014-02-16T09:03:54+00:00</time>
      </trkpt>
      <trkpt lat="47.3185" lon="-0.62172">
        <ele>70</ele>
        <time>2014-02-16T09:03:55+00:00</time>
      </trkpt>
      <trkpt lat="47.31846" lon="-0.62175">
        <ele>70</ele>
        <time>2014-02-16T09:03:56+00:00</time>
      </trkpt>
      <trkpt lat="47.31843" lon="-0.62175">
        <ele>70</ele>
        <time>2014-02-16T09:03:57+00:00</time>
      </trkpt>
      <trkpt lat="47.3184" lon="-0.62174">
        <ele>69</ele>
        <time>2014-02-16T09:03:58+00:00</time>
      </trkpt>
      <trkpt lat="47.31837" lon="-0.62172">
        <ele>70</ele>
        <time>2014-02-16T09:03:59+00:00</time>
      </trkpt>
      <trkpt lat="47.31833" lon="-0.62167">
        <ele>71</ele>
        <time>2014-02-16T09:04:01+00:00</time>
      </trkpt>
      <trkpt lat="47.3183" lon="-0.62164">
        <ele>71</ele>
        <time>2014-02-16T09:04:02+00:00</time>
      </trkpt>
      <trkpt lat="47.31829" lon="-0.62162">
        <ele>71</ele>
        <time>2014-02-16T09:04:03+00:00</time>
      </trkpt>
      <trkpt lat="47.31824" lon="-0.6215">
        <ele>71</ele>
        <time>2014-02-16T09:04:07+00:00</time>
      </trkpt>
      <trkpt lat="47.31823" lon="-0.62146">
        <ele>71</ele>
        <time>2014-02-16T09:04:08+00:00</time>
      </trkpt>
      <trkpt lat="47.31823" lon="-0.62141">
        <ele>72</ele>
        <time>2014-02-16T09:04:09+00:00</time>
      </trkpt>
      <trkpt lat="47.31824" lon="-0.62137">
        <ele>72</ele>
        <time>2014-02-16T09:04:10+00:00</time>
      </trkpt>
      <trkpt lat="47.31824" lon="-0.62132">
        <ele>72</ele>
        <time>2014-02-16T09:04:11+00:00</time>
      </trkpt>
      <trkpt lat="47.31827" lon="-0.62126">
        <ele>75</ele>
        <time>2014-02-16T09:04:13+00:00</time>
      </trkpt>
      <trkpt lat="47.31828" lon="-0.62124">
        <ele>76</ele>
        <time>2014-02-16T09:04:14+00:00</time>
      </trkpt>
      <trkpt lat="47.31828" lon="-0.62121">
        <ele>76</ele>
        <time>2014-02-16T09:04:15+00:00</time>
      </trkpt>
      <trkpt lat="47.31829" lon="-0.62118">
        <ele>76</ele>
        <time>2014-02-16T09:04:16+00:00</time>
      </trkpt>
      <trkpt lat="47.3183" lon="-0.62116">
        <ele>76</ele>
        <time>2014-02-16T09:04:17+00:00</time>
      </trkpt>
      <trkpt lat="47.31831" lon="-0.62112">
        <ele>76</ele>
        <time>2014-02-16T09:04:18+00:00</time>
      </trkpt>
      <trkpt lat="47.31831" lon="-0.62108">
        <ele>74</ele>
        <time>2014-02-16T09:04:19+00:00</time>
      </trkpt>
      <trkpt lat="47.31829" lon="-0.62103">
        <ele>73</ele>
        <time>2014-02-16T09:04:20+00:00</time>
      </trkpt>
      <trkpt lat="47.3176" lon="-0.61868">
        <ele>70</ele>
        <time>2014-02-16T09:05:07+00:00</time>
      </trkpt>
      <trkpt lat="47.31759" lon="-0.61862">
        <ele>71</ele>
        <time>2014-02-16T09:05:08+00:00</time>
      </trkpt>
      <trkpt lat="47.31758" lon="-0.61859">
        <ele>72</ele>
        <time>2014-02-16T09:05:09+00:00</time>
      </trkpt>
      <trkpt lat="47.31758" lon="-0.61854">
        <ele>73</ele>
        <time>2014-02-16T09:05:10+00:00</time>
      </trkpt>
      <trkpt lat="47.31759" lon="-0.6185">
        <ele>74</ele>
        <time>2014-02-16T09:05:11+00:00</time>
      </trkpt>
      <trkpt lat="47.31761" lon="-0.61846">
        <ele>75</ele>
        <time>2014-02-16T09:05:12+00:00</time>
      </trkpt>
      <trkpt lat="47.31762" lon="-0.61843">
        <ele>75</ele>
        <time>2014-02-16T09:05:13+00:00</time>
      </trkpt>
      <trkpt lat="47.31764" lon="-0.61841">
        <ele>75</ele>
        <time>2014-02-16T09:05:14+00:00</time>
      </trkpt>
      <trkpt lat="47.31765" lon="-0.61839">
        <ele>77</ele>
        <time>2014-02-16T09:05:15+00:00</time>
      </trkpt>
      <trkpt lat="47.3177" lon="-0.61836">
        <ele>77</ele>
        <time>2014-02-16T09:05:18+00:00</time>
      </trkpt>
      <trkpt lat="47.31772" lon="-0.61835">
        <ele>78</ele>
        <time>2014-02-16T09:05:19+00:00</time>
      </trkpt>
      <trkpt lat="47.31784" lon="-0.61828">
        <ele>80</ele>
        <time>2014-02-16T09:05:28+00:00</time>
      </trkpt>
      <trkpt lat="47.31785" lon="-0.61826">
        <ele>80</ele>
        <time>2014-02-16T09:05:29+00:00</time>
      </trkpt>
      <trkpt lat="47.31786" lon="-0.61824">
        <ele>81</ele>
        <time>2014-02-16T09:05:30+00:00</time>
      </trkpt>
      <trkpt lat="47.31787" lon="-0.61822">
        <ele>81</ele>
        <time>2014-02-16T09:05:31+00:00</time>
      </trkpt>
      <trkpt lat="47.31788" lon="-0.6182">
        <ele>80</ele>
        <time>2014-02-16T09:05:32+00:00</time>
      </trkpt>
      <trkpt lat="47.31788" lon="-0.61815">
        <ele>79</ele>
        <time>2014-02-16T09:05:34+00:00</time>
      </trkpt>
      <trkpt lat="47.31788" lon="-0.61812">
        <ele>79</ele>
        <time>2014-02-16T09:05:35+00:00</time>
      </trkpt>
      <trkpt lat="47.31787" lon="-0.61811">
        <ele>78</ele>
        <time>2014-02-16T09:05:36+00:00</time>
      </trkpt>
      <trkpt lat="47.31787" lon="-0.61808">
        <ele>78</ele>
        <time>2014-02-16T09:05:37+00:00</time>
      </trkpt>
      <trkpt lat="47.31786" lon="-0.61806">
        <ele>77</ele>
        <time>2014-02-16T09:05:38+00:00</time>
      </trkpt>
      <trkpt lat="47.3178" lon="-0.61796">
        <ele>77</ele>
        <time>2014-02-16T09:05:42+00:00</time>
      </trkpt>
      <trkpt lat="47.31779" lon="-0.61794">
        <ele>77</ele>
        <time>2014-02-16T09:05:43+00:00</time>
      </trkpt>
      <trkpt lat="47.31777" lon="-0.6179">
        <ele>76</ele>
        <time>2014-02-16T09:05:44+00:00</time>
      </trkpt>
      <trkpt lat="47.3177" lon="-0.61775">
        <ele>76</ele>
        <time>2014-02-16T09:05:49+00:00</time>
      </trkpt>
      <trkpt lat="47.31768" lon="-0.61772">
        <ele>77</ele>
        <time>2014-02-16T09:05:50+00:00</time>
      </trkpt>
      <trkpt lat="47.31767" lon="-0.61769">
        <ele>77</ele>
        <time>2014-02-16T09:05:51+00:00</time>
      </trkpt>
      <trkpt lat="47.31766" lon="-0.61765">
        <ele>77</ele>
        <time>2014-02-16T09:05:52+00:00</time>
      </trkpt>
      <trkpt lat="47.31762" lon="-0.61749">
        <ele>77</ele>
        <time>2014-02-16T09:05:57+00:00</time>
      </trkpt>
      <trkpt lat="47.31761" lon="-0.61747">
        <ele>77</ele>
        <time>2014-02-16T09:05:58+00:00</time>
      </trkpt>
      <trkpt lat="47.3176" lon="-0.6174">
        <ele>78</ele>
        <time>2014-02-16T09:06:00+00:00</time>
      </trkpt>
      <trkpt lat="47.31759" lon="-0.61737">
        <ele>78</ele>
        <time>2014-02-16T09:06:01+00:00</time>
      </trkpt>
      <trkpt lat="47.31759" lon="-0.61732">
        <ele>78</ele>
        <time>2014-02-16T09:06:03+00:00</time>
      </trkpt>
      <trkpt lat="47.31759" lon="-0.61728">
        <ele>78</ele>
        <time>2014-02-16T09:06:04+00:00</time>
      </trkpt>
      <trkpt lat="47.31759" lon="-0.61725">
        <ele>78</ele>
        <time>2014-02-16T09:06:05+00:00</time>
      </trkpt>
      <trkpt lat="47.31761" lon="-0.61723">
        <ele>79</ele>
        <time>2014-02-16T09:06:06+00:00</time>
      </trkpt>
      <trkpt lat="47.31762" lon="-0.61721">
        <ele>79</ele>
        <time>2014-02-16T09:06:07+00:00</time>
      </trkpt>
      <trkpt lat="47.31763" lon="-0.61719">
        <ele>80</ele>
        <time>2014-02-16T09:06:08+00:00</time>
      </trkpt>
      <trkpt lat="47.31764" lon="-0.61717">
        <ele>80</ele>
        <time>2014-02-16T09:06:09+00:00</time>
      </trkpt>
      <trkpt lat="47.31766" lon="-0.61716">
        <ele>80</ele>
        <time>2014-02-16T09:06:10+00:00</time>
      </trkpt>
      <trkpt lat="47.31772" lon="-0.61711">
        <ele>82</ele>
        <time>2014-02-16T09:06:13+00:00</time>
      </trkpt>
      <trkpt lat="47.31773" lon="-0.61709">
        <ele>82</ele>
        <time>2014-02-16T09:06:14+00:00</time>
      </trkpt>
      <trkpt lat="47.3183" lon="-0.61668">
        <ele>87</ele>
        <time>2014-02-16T09:06:46+00:00</time>
      </trkpt>
      <trkpt lat="47.31832" lon="-0.61666">
        <ele>87</ele>
        <time>2014-02-16T09:06:47+00:00</time>
      </trkpt>
      <trkpt lat="47.31835" lon="-0.61662">
        <ele>87</ele>
        <time>2014-02-16T09:06:49+00:00</time>
      </trkpt>
      <trkpt lat="47.31836" lon="-0.6166">
        <ele>86</ele>
        <time>2014-02-16T09:06:50+00:00</time>
      </trkpt>
      <trkpt lat="47.31842" lon="-0.6165">
        <ele>86</ele>
        <time>2014-02-16T09:06:54+00:00</time>
      </trkpt>
      <trkpt lat="47.31844" lon="-0.61647">
        <ele>86</ele>
        <time>2014-02-16T09:06:55+00:00</time>
      </trkpt>
      <trkpt lat="47.31844" lon="-0.61644">
        <ele>86</ele>
        <time>2014-02-16T09:06:56+00:00</time>
      </trkpt>
      <trkpt lat="47.31845" lon="-0.6164">
        <ele>85</ele>
        <time>2014-02-16T09:06:57+00:00</time>
      </trkpt>
      <trkpt lat="47.31844" lon="-0.61637">
        <ele>85</ele>
        <time>2014-02-16T09:06:58+00:00</time>
      </trkpt>
      <trkpt lat="47.31844" lon="-0.61634">
        <ele>85</ele>
        <time>2014-02-16T09:06:59+00:00</time>
      </trkpt>
      <trkpt lat="47.31844" lon="-0.6163">
        <ele>85</ele>
        <time>2014-02-16T09:07:00+00:00</time>
      </trkpt>
      <trkpt lat="47.31843" lon="-0.61627">
        <ele>84</ele>
        <time>2014-02-16T09:07:01+00:00</time>
      </trkpt>
      <trkpt lat="47.3184" lon="-0.6162">
        <ele>84</ele>
        <time>2014-02-16T09:07:03+00:00</time>
      </trkpt>
      <trkpt lat="47.31839" lon="-0.61616">
        <ele>83</ele>
        <time>2014-02-16T09:07:04+00:00</time>
      </trkpt>
      <trkpt lat="47.31839" lon="-0.61612">
        <ele>83</ele>
        <time>2014-02-16T09:07:05+00:00</time>
      </trkpt>
      <trkpt lat="47.31839" lon="-0.61608">
        <ele>83</ele>
        <time>2014-02-16T09:07:06+00:00</time>
      </trkpt>
      <trkpt lat="47.3184" lon="-0.61604">
        <ele>84</ele>
        <time>2014-02-16T09:07:07+00:00</time>
      </trkpt>
      <trkpt lat="47.31841" lon="-0.61602">
        <ele>85</ele>
        <time>2014-02-16T09:07:08+00:00</time>
      </trkpt>
      <trkpt lat="47.31844" lon="-0.61599">
        <ele>85</ele>
        <time>2014-02-16T09:07:09+00:00</time>
      </trkpt>
      <trkpt lat="47.31845" lon="-0.61596">
        <ele>86</ele>
        <time>2014-02-16T09:07:10+00:00</time>
      </trkpt>
      <trkpt lat="47.31938" lon="-0.61528">
        <ele>84</ele>
        <time>2014-02-16T09:07:40+00:00</time>
      </trkpt>
      <trkpt lat="47.3194" lon="-0.61525">
        <ele>84</ele>
        <time>2014-02-16T09:07:41+00:00</time>
      </trkpt>
      <trkpt lat="47.31942" lon="-0.61523">
        <ele>84</ele>
        <time>2014-02-16T09:07:42+00:00</time>
      </trkpt>
      <trkpt lat="47.31944" lon="-0.6152">
        <ele>82</ele>
        <time>2014-02-16T09:07:43+00:00</time>
      </trkpt>
      <trkpt lat="47.31946" lon="-0.61516">
        <ele>82</ele>
        <time>2014-02-16T09:07:44+00:00</time>
      </trkpt>
      <trkpt lat="47.31948" lon="-0.61507">
        <ele>80</ele>
        <time>2014-02-16T09:07:46+00:00</time>
      </trkpt>
      <trkpt lat="47.31951" lon="-0.61504">
        <ele>81</ele>
        <time>2014-02-16T09:07:47+00:00</time>
      </trkpt>
      <trkpt lat="47.31954" lon="-0.61501">
        <ele>81</ele>
        <time>2014-02-16T09:07:48+00:00</time>
      </trkpt>
      <trkpt lat="47.32005" lon="-0.61461">
        <ele>84</ele>
        <time>2014-02-16T09:08:04+00:00</time>
      </trkpt>
      <trkpt lat="47.32008" lon="-0.61459">
        <ele>84</ele>
        <time>2014-02-16T09:08:05+00:00</time>
      </trkpt>
      <trkpt lat="47.32024" lon="-0.61446">
        <ele>85</ele>
        <time>2014-02-16T09:08:10+00:00</time>
      </trkpt>
      <trkpt lat="47.32026" lon="-0.61444">
        <ele>85</ele>
        <time>2014-02-16T09:08:11+00:00</time>
      </trkpt>
      <trkpt lat="47.32028" lon="-0.6144">
        <ele>85</ele>
        <time>2014-02-16T09:08:12+00:00</time>
      </trkpt>
      <trkpt lat="47.32028" lon="-0.61436">
        <ele>85</ele>
        <time>2014-02-16T09:08:13+00:00</time>
      </trkpt>
      <trkpt lat="47.32027" lon="-0.61432">
        <ele>84</ele>
        <time>2014-02-16T09:08:14+00:00</time>
      </trkpt>
      <trkpt lat="47.32026" lon="-0.61428">
        <ele>84</ele>
        <time>2014-02-16T09:08:15+00:00</time>
      </trkpt>
      <trkpt lat="47.32024" lon="-0.61424">
        <ele>84</ele>
        <time>2014-02-16T09:08:16+00:00</time>
      </trkpt>
      <trkpt lat="47.32023" lon="-0.6142">
        <ele>84</ele>
        <time>2014-02-16T09:08:17+00:00</time>
      </trkpt>
      <trkpt lat="47.32022" lon="-0.61415">
        <ele>83</ele>
        <time>2014-02-16T09:08:18+00:00</time>
      </trkpt>
      <trkpt lat="47.32021" lon="-0.61411">
        <ele>83</ele>
        <time>2014-02-16T09:08:19+00:00</time>
      </trkpt>
      <trkpt lat="47.32021" lon="-0.61406">
        <ele>83</ele>
        <time>2014-02-16T09:08:20+00:00</time>
      </trkpt>
      <trkpt lat="47.32021" lon="-0.61402">
        <ele>82</ele>
        <time>2014-02-16T09:08:21+00:00</time>
      </trkpt>
      <trkpt lat="47.32022" lon="-0.61397">
        <ele>82</ele>
        <time>2014-02-16T09:08:22+00:00</time>
      </trkpt>
      <trkpt lat="47.32025" lon="-0.61391">
        <ele>83</ele>
        <time>2014-02-16T09:08:24+00:00</time>
      </trkpt>
      <trkpt lat="47.32027" lon="-0.61388">
        <ele>84</ele>
        <time>2014-02-16T09:08:25+00:00</time>
      </trkpt>
      <trkpt lat="47.3204" lon="-0.61357">
        <ele>87</ele>
        <time>2014-02-16T09:08:34+00:00</time>
      </trkpt>
      <trkpt lat="47.32042" lon="-0.61353">
        <ele>86</ele>
        <time>2014-02-16T09:08:35+00:00</time>
      </trkpt>
      <trkpt lat="47.32044" lon="-0.6134">
        <ele>86</ele>
        <time>2014-02-16T09:08:38+00:00</time>
      </trkpt>
      <trkpt lat="47.32045" lon="-0.61337">
        <ele>87</ele>
        <time>2014-02-16T09:08:39+00:00</time>
      </trkpt>
      <trkpt lat="47.32045" lon="-0.61332">
        <ele>86</ele>
        <time>2014-02-16T09:08:40+00:00</time>
      </trkpt>
      <trkpt lat="47.32045" lon="-0.61327">
        <ele>86</ele>
        <time>2014-02-16T09:08:41+00:00</time>
      </trkpt>
      <trkpt lat="47.32045" lon="-0.61323">
        <ele>86</ele>
        <time>2014-02-16T09:08:42+00:00</time>
      </trkpt>
      <trkpt lat="47.32044" lon="-0.61314">
        <ele>85</ele>
        <time>2014-02-16T09:08:44+00:00</time>
      </trkpt>
      <trkpt lat="47.32044" lon="-0.61308">
        <ele>85</ele>
        <time>2014-02-16T09:08:45+00:00</time>
      </trkpt>
      <trkpt lat="47.32043" lon="-0.61303">
        <ele>84</ele>
        <time>2014-02-16T09:08:46+00:00</time>
      </trkpt>
      <trkpt lat="47.32041" lon="-0.61298">
        <ele>84</ele>
        <time>2014-02-16T09:08:47+00:00</time>
      </trkpt>
      <trkpt lat="47.32035" lon="-0.61273">
        <ele>82</ele>
        <time>2014-02-16T09:08:52+00:00</time>
      </trkpt>
      <trkpt lat="47.32034" lon="-0.61267">
        <ele>82</ele>
        <time>2014-02-16T09:08:53+00:00</time>
      </trkpt>
      <trkpt lat="47.3203" lon="-0.61255">
        <ele>83</ele>
        <time>2014-02-16T09:08:55+00:00</time>
      </trkpt>
      <trkpt lat="47.32028" lon="-0.61248">
        <ele>83</ele>
        <time>2014-02-16T09:08:56+00:00</time>
      </trkpt>
      <trkpt lat="47.32007" lon="-0.61188">
        <ele>83</ele>
        <time>2014-02-16T09:09:05+00:00</time>
      </trkpt>
      <trkpt lat="47.32006" lon="-0.6118">
        <ele>82</ele>
        <time>2014-02-16T09:09:06+00:00</time>
      </trkpt>
      <trkpt lat="47.32005" lon="-0.61172">
        <ele>82</ele>
        <time>2014-02-16T09:09:07+00:00</time>
      </trkpt>
      <trkpt lat="47.32004" lon="-0.61164">
        <ele>81</ele>
        <time>2014-02-16T09:09:08+00:00</time>
      </trkpt>
      <trkpt lat="47.32005" lon="-0.61156">
        <ele>81</ele>
        <time>2014-02-16T09:09:09+00:00</time>
      </trkpt>
      <trkpt lat="47.32006" lon="-0.61148">
        <ele>81</ele>
        <time>2014-02-16T09:09:10+00:00</time>
      </trkpt>
      <trkpt lat="47.32008" lon="-0.6114">
        <ele>80</ele>
        <time>2014-02-16T09:09:11+00:00</time>
      </trkpt>
      <trkpt lat="47.32012" lon="-0.61124">
        <ele>79</ele>
        <time>2014-02-16T09:09:13+00:00</time>
      </trkpt>
      <trkpt lat="47.32015" lon="-0.61117">
        <ele>78</ele>
        <time>2014-02-16T09:09:14+00:00</time>
      </trkpt>
      <trkpt lat="47.32018" lon="-0.6111">
        <ele>78</ele>
        <time>2014-02-16T09:09:15+00:00</time>
      </trkpt>
      <trkpt lat="47.32021" lon="-0.61105">
        <ele>78</ele>
        <time>2014-02-16T09:09:16+00:00</time>
      </trkpt>
      <trkpt lat="47.32054" lon="-0.61046">
        <ele>83</ele>
        <time>2014-02-16T09:09:30+00:00</time>
      </trkpt>
      <trkpt lat="47.32055" lon="-0.61043">
        <ele>83</ele>
        <time>2014-02-16T09:09:31+00:00</time>
      </trkpt>
      <trkpt lat="47.32056" lon="-0.61039">
        <ele>83</ele>
        <time>2014-02-16T09:09:32+00:00</time>
      </trkpt>
      <trkpt lat="47.32057" lon="-0.61036">
        <ele>84</ele>
        <time>2014-02-16T09:09:33+00:00</time>
      </trkpt>
      <trkpt lat="47.32058" lon="-0.61033">
        <ele>84</ele>
        <time>2014-02-16T09:09:34+00:00</time>
      </trkpt>
      <trkpt lat="47.32058" lon="-0.61029">
        <ele>85</ele>
        <time>2014-02-16T09:09:35+00:00</time>
      </trkpt>
      <trkpt lat="47.32057" lon="-0.61025">
        <ele>83</ele>
        <time>2014-02-16T09:09:36+00:00</time>
      </trkpt>
      <trkpt lat="47.32054" lon="-0.61022">
        <ele>82</ele>
        <time>2014-02-16T09:09:37+00:00</time>
      </trkpt>
      <trkpt lat="47.32052" lon="-0.6102">
        <ele>80</ele>
        <time>2014-02-16T09:09:38+00:00</time>
      </trkpt>
      <trkpt lat="47.32045" lon="-0.61014">
        <ele>79</ele>
        <time>2014-02-16T09:09:40+00:00</time>
      </trkpt>
      <trkpt lat="47.32041" lon="-0.61012">
        <ele>79</ele>
        <time>2014-02-16T09:09:41+00:00</time>
      </trkpt>
      <trkpt lat="47.32026" lon="-0.61001">
        <ele>79</ele>
        <time>2014-02-16T09:09:45+00:00</time>
      </trkpt>
      <trkpt lat="47.32021" lon="-0.60998">
        <ele>79</ele>
        <time>2014-02-16T09:09:46+00:00</time>
      </trkpt>
      <trkpt lat="47.31922" lon="-0.60917">
        <ele>80</ele>
        <time>2014-02-16T09:10:10+00:00</time>
      </trkpt>
      <trkpt lat="47.31917" lon="-0.60913">
        <ele>80</ele>
        <time>2014-02-16T09:10:11+00:00</time>
      </trkpt>
      <trkpt lat="47.31876" lon="-0.6086">
        <ele>80</ele>
        <time>2014-02-16T09:10:23+00:00</time>
      </trkpt>
      <trkpt lat="47.31873" lon="-0.60856">
        <ele>81</ele>
        <time>2014-02-16T09:10:24+00:00</time>
      </trkpt>
      <trkpt lat="47.3186" lon="-0.60837">
        <ele>83</ele>
        <time>2014-02-16T09:10:28+00:00</time>
      </trkpt>
      <trkpt lat="47.31858" lon="-0.60832">
        <ele>83</ele>
        <time>2014-02-16T09:10:29+00:00</time>
      </trkpt>
      <trkpt lat="47.31806" lon="-0.60731">
        <ele>83</ele>
        <time>2014-02-16T09:10:48+00:00</time>
      </trkpt>
      <trkpt lat="47.31803" lon="-0.60726">
        <ele>84</ele>
        <time>2014-02-16T09:10:49+00:00</time>
      </trkpt>
      <trkpt lat="47.31796" lon="-0.60718">
        <ele>84</ele>
        <time>2014-02-16T09:10:51+00:00</time>
      </trkpt>
      <trkpt lat="47.31793" lon="-0.60713">
        <ele>84</ele>
        <time>2014-02-16T09:10:52+00:00</time>
      </trkpt>
      <trkpt lat="47.3179" lon="-0.60708">
        <ele>84</ele>
        <time>2014-02-16T09:10:53+00:00</time>
      </trkpt>
      <trkpt lat="47.31786" lon="-0.60705">
        <ele>84</ele>
        <time>2014-02-16T09:10:54+00:00</time>
      </trkpt>
      <trkpt lat="47.31782" lon="-0.60702">
        <ele>83</ele>
        <time>2014-02-16T09:10:55+00:00</time>
      </trkpt>
      <trkpt lat="47.31779" lon="-0.60701">
        <ele>83</ele>
        <time>2014-02-16T09:10:56+00:00</time>
      </trkpt>
      <trkpt lat="47.31775" lon="-0.607">
        <ele>82</ele>
        <time>2014-02-16T09:10:57+00:00</time>
      </trkpt>
      <trkpt lat="47.31772" lon="-0.607">
        <ele>82</ele>
        <time>2014-02-16T09:10:58+00:00</time>
      </trkpt>
      <trkpt lat="47.31768" lon="-0.60701">
        <ele>82</ele>
        <time>2014-02-16T09:10:59+00:00</time>
      </trkpt>
      <trkpt lat="47.31765" lon="-0.60704">
        <ele>82</ele>
        <time>2014-02-16T09:11:00+00:00</time>
      </trkpt>
      <trkpt lat="47.31757" lon="-0.60711">
        <ele>83</ele>
        <time>2014-02-16T09:11:03+00:00</time>
      </trkpt>
      <trkpt lat="47.31756" lon="-0.60714">
        <ele>83</ele>
        <time>2014-02-16T09:11:04+00:00</time>
      </trkpt>
      <trkpt lat="47.31721" lon="-0.60747">
        <ele>84</ele>
        <time>2014-02-16T09:11:17+00:00</time>
      </trkpt>
      <trkpt lat="47.31717" lon="-0.60748">
        <ele>84</ele>
        <time>2014-02-16T09:11:18+00:00</time>
      </trkpt>
      <trkpt lat="47.31711" lon="-0.60752">
        <ele>84</ele>
        <time>2014-02-16T09:11:20+00:00</time>
      </trkpt>
      <trkpt lat="47.31708" lon="-0.60753">
        <ele>84</ele>
        <time>2014-02-16T09:11:21+00:00</time>
      </trkpt>
      <trkpt lat="47.31697" lon="-0.60756">
        <ele>83</ele>
        <time>2014-02-16T09:11:24+00:00</time>
      </trkpt>
      <trkpt lat="47.31693" lon="-0.60757">
        <ele>82</ele>
        <time>2014-02-16T09:11:25+00:00</time>
      </trkpt>
      <trkpt lat="47.31656" lon="-0.60771">
        <ele>81</ele>
        <time>2014-02-16T09:11:34+00:00</time>
      </trkpt>
      <trkpt lat="47.31652" lon="-0.60772">
        <ele>82</ele>
        <time>2014-02-16T09:11:35+00:00</time>
      </trkpt>
      <trkpt lat="47.3158" lon="-0.60805">
        <ele>78</ele>
        <time>2014-02-16T09:11:49+00:00</time>
      </trkpt>
      <trkpt lat="47.31574" lon="-0.60807">
        <ele>77</ele>
        <time>2014-02-16T09:11:50+00:00</time>
      </trkpt>
      <trkpt lat="47.31561" lon="-0.60811">
        <ele>77</ele>
        <time>2014-02-16T09:11:52+00:00</time>
      </trkpt>
      <trkpt lat="47.31554" lon="-0.60812">
        <ele>77</ele>
        <time>2014-02-16T09:11:53+00:00</time>
      </trkpt>
      <trkpt lat="47.31546" lon="-0.60812">
        <ele>74</ele>
        <time>2014-02-16T09:11:54+00:00</time>
      </trkpt>
      <trkpt lat="47.3154" lon="-0.60812">
        <ele>73</ele>
        <time>2014-02-16T09:11:55+00:00</time>
      </trkpt>
      <trkpt lat="47.3153" lon="-0.60814">
        <ele>70</ele>
        <time>2014-02-16T09:11:57+00:00</time>
      </trkpt>
      <trkpt lat="47.31523" lon="-0.60816">
        <ele>68</ele>
        <time>2014-02-16T09:11:58+00:00</time>
      </trkpt>
      <trkpt lat="47.31516" lon="-0.60819">
        <ele>67</ele>
        <time>2014-02-16T09:11:59+00:00</time>
      </trkpt>
      <trkpt lat="47.31507" lon="-0.60823">
        <ele>66</ele>
        <time>2014-02-16T09:12:00+00:00</time>
      </trkpt>
      <trkpt lat="47.31482" lon="-0.60837">
        <ele>63</ele>
        <time>2014-02-16T09:12:03+00:00</time>
      </trkpt>
      <trkpt lat="47.31473" lon="-0.60844">
        <ele>62</ele>
        <time>2014-02-16T09:12:04+00:00</time>
      </trkpt>
      <trkpt lat="47.31466" lon="-0.60849">
        <ele>62</ele>
        <time>2014-02-16T09:12:05+00:00</time>
      </trkpt>
      <trkpt lat="47.3146" lon="-0.60853">
        <ele>61</ele>
        <time>2014-02-16T09:12:06+00:00</time>
      </trkpt>
      <trkpt lat="47.31432" lon="-0.6088">
        <ele>57</ele>
        <time>2014-02-16T09:12:11+00:00</time>
      </trkpt>
      <trkpt lat="47.31427" lon="-0.60883">
        <ele>56</ele>
        <time>2014-02-16T09:12:12+00:00</time>
      </trkpt>
      <trkpt lat="47.31422" lon="-0.60883">
        <ele>55</ele>
        <time>2014-02-16T09:12:13+00:00</time>
      </trkpt>
      <trkpt lat="47.31395" lon="-0.60885">
        <ele>53</ele>
        <time>2014-02-16T09:12:18+00:00</time>
      </trkpt>
      <trkpt lat="47.31389" lon="-0.60887">
        <ele>52</ele>
        <time>2014-02-16T09:12:19+00:00</time>
      </trkpt>
      <trkpt lat="47.31372" lon="-0.60892">
        <ele>51</ele>
        <time>2014-02-16T09:12:22+00:00</time>
      </trkpt>
      <trkpt lat="47.31367" lon="-0.60892">
        <ele>51</ele>
        <time>2014-02-16T09:12:23+00:00</time>
      </trkpt>
      <trkpt lat="47.31361" lon="-0.60891">
        <ele>50</ele>
        <time>2014-02-16T09:12:24+00:00</time>
      </trkpt>
      <trkpt lat="47.31357" lon="-0.6089">
        <ele>49</ele>
        <time>2014-02-16T09:12:25+00:00</time>
      </trkpt>
      <trkpt lat="47.31356" lon="-0.60889">
        <ele>49</ele>
        <time>2014-02-16T09:12:26+00:00</time>
      </trkpt>
      <trkpt lat="47.31353" lon="-0.60889">
        <ele>49</ele>
        <time>2014-02-16T09:12:27+00:00</time>
      </trkpt>
      <trkpt lat="47.31351" lon="-0.6089">
        <ele>49</ele>
        <time>2014-02-16T09:12:28+00:00</time>
      </trkpt>
      <trkpt lat="47.31349" lon="-0.60892">
        <ele>50</ele>
        <time>2014-02-16T09:12:29+00:00</time>
      </trkpt>
      <trkpt lat="47.31349" lon="-0.60893">
        <ele>49</ele>
        <time>2014-02-16T09:12:30+00:00</time>
      </trkpt>
      <trkpt lat="47.3135" lon="-0.60895">
        <ele>46</ele>
        <time>2014-02-16T09:12:31+00:00</time>
      </trkpt>
      <trkpt lat="47.31355" lon="-0.60905">
        <ele>45</ele>
        <time>2014-02-16T09:12:34+00:00</time>
      </trkpt>
      <trkpt lat="47.31357" lon="-0.6091">
        <ele>47</ele>
        <time>2014-02-16T09:12:35+00:00</time>
      </trkpt>
      <trkpt lat="47.31403" lon="-0.6098">
        <ele>46</ele>
        <time>2014-02-16T09:12:51+00:00</time>
      </trkpt>
      <trkpt lat="47.31404" lon="-0.60983">
        <ele>45</ele>
        <time>2014-02-16T09:12:52+00:00</time>
      </trkpt>
      <trkpt lat="47.31406" lon="-0.60987">
        <ele>44</ele>
        <time>2014-02-16T09:12:53+00:00</time>
      </trkpt>
      <trkpt lat="47.31408" lon="-0.60996">
        <ele>42</ele>
        <time>2014-02-16T09:12:55+00:00</time>
      </trkpt>
      <trkpt lat="47.31409" lon="-0.61">
        <ele>41</ele>
        <time>2014-02-16T09:12:56+00:00</time>
      </trkpt>
      <trkpt lat="47.31409" lon="-0.61004">
        <ele>41</ele>
        <time>2014-02-16T09:12:57+00:00</time>
      </trkpt>
      <trkpt lat="47.31408" lon="-0.61006">
        <ele>41</ele>
        <time>2014-02-16T09:12:58+00:00</time>
      </trkpt>
      <trkpt lat="47.31406" lon="-0.6101">
        <ele>41</ele>
        <time>2014-02-16T09:12:59+00:00</time>
      </trkpt>
      <trkpt lat="47.31404" lon="-0.61014">
        <ele>41</ele>
        <time>2014-02-16T09:13:01+00:00</time>
      </trkpt>
      <trkpt lat="47.31404" lon="-0.61017">
        <ele>40</ele>
        <time>2014-02-16T09:13:02+00:00</time>
      </trkpt>
      <trkpt lat="47.31404" lon="-0.61021">
        <ele>40</ele>
        <time>2014-02-16T09:13:03+00:00</time>
      </trkpt>
      <trkpt lat="47.31405" lon="-0.61025">
        <ele>40</ele>
        <time>2014-02-16T09:13:04+00:00</time>
      </trkpt>
      <trkpt lat="47.3143" lon="-0.61079">
        <ele>39</ele>
        <time>2014-02-16T09:13:16+00:00</time>
      </trkpt>
      <trkpt lat="47.31433" lon="-0.61084">
        <ele>38</ele>
        <time>2014-02-16T09:13:17+00:00</time>
      </trkpt>
      <trkpt lat="47.31445" lon="-0.61115">
        <ele>36</ele>
        <time>2014-02-16T09:13:22+00:00</time>
      </trkpt>
      <trkpt lat="47.31448" lon="-0.61121">
        <ele>35</ele>
        <time>2014-02-16T09:13:23+00:00</time>
      </trkpt>
      <trkpt lat="47.31465" lon="-0.61182">
        <ele>32</ele>
        <time>2014-02-16T09:13:33+00:00</time>
      </trkpt>
      <trkpt lat="47.31466" lon="-0.61185">
        <ele>31</ele>
        <time>2014-02-16T09:13:34+00:00</time>
      </trkpt>
      <trkpt lat="47.31465" lon="-0.61187">
        <ele>32</ele>
        <time>2014-02-16T09:13:35+00:00</time>
      </trkpt>
      <trkpt lat="47.31464" lon="-0.61188">
        <ele>32</ele>
        <time>2014-02-16T09:13:36+00:00</time>
      </trkpt>
      <trkpt lat="47.3146" lon="-0.61196">
        <ele>30</ele>
        <time>2014-02-16T09:13:38+00:00</time>
      </trkpt>
      <trkpt lat="47.31459" lon="-0.61204">
        <ele>29</ele>
        <time>2014-02-16T09:13:39+00:00</time>
      </trkpt>
      <trkpt lat="47.31452" lon="-0.61268">
        <ele>23</ele>
        <time>2014-02-16T09:13:48+00:00</time>
      </trkpt>
      <trkpt lat="47.31452" lon="-0.61273">
        <ele>23</ele>
        <time>2014-02-16T09:13:49+00:00</time>
      </trkpt>
      <trkpt lat="47.3145" lon="-0.61285">
        <ele>22</ele>
        <time>2014-02-16T09:13:52+00:00</time>
      </trkpt>
      <trkpt lat="47.31449" lon="-0.61288">
        <ele>22</ele>
        <time>2014-02-16T09:13:53+00:00</time>
      </trkpt>
      <trkpt lat="47.31447" lon="-0.61291">
        <ele>21</ele>
        <time>2014-02-16T09:13:54+00:00</time>
      </trkpt>
      <trkpt lat="47.31447" lon="-0.61293">
        <ele>20</ele>
        <time>2014-02-16T09:13:55+00:00</time>
      </trkpt>
      <trkpt lat="47.31445" lon="-0.61296">
        <ele>20</ele>
        <time>2014-02-16T09:13:56+00:00</time>
      </trkpt>
      <trkpt lat="47.31444" lon="-0.61297">
        <ele>21</ele>
        <time>2014-02-16T09:13:57+00:00</time>
      </trkpt>
      <trkpt lat="47.31443" lon="-0.61299">
        <ele>22</ele>
        <time>2014-02-16T09:13:58+00:00</time>
      </trkpt>
      <trkpt lat="47.31441" lon="-0.613">
        <ele>22</ele>
        <time>2014-02-16T09:13:59+00:00</time>
      </trkpt>
      <trkpt lat="47.31438" lon="-0.61302">
        <ele>21</ele>
        <time>2014-02-16T09:14:01+00:00</time>
      </trkpt>
      <trkpt lat="47.31438" lon="-0.61302">
        <ele>21</ele>
        <time>2014-02-16T09:14:02+00:00</time>
      </trkpt>
      <trkpt lat="47.31431" lon="-0.61298">
        <ele>16</ele>
        <time>2014-02-16T09:14:06+00:00</time>
      </trkpt>
      <trkpt lat="47.31429" lon="-0.61295">
        <ele>17</ele>
        <time>2014-02-16T09:14:07+00:00</time>
      </trkpt>
      <trkpt lat="47.31428" lon="-0.61292">
        <ele>17</ele>
        <time>2014-02-16T09:14:09+00:00</time>
      </trkpt>
      <trkpt lat="47.31426" lon="-0.61289">
        <ele>19</ele>
        <time>2014-02-16T09:14:10+00:00</time>
      </trkpt>
      <trkpt lat="47.3142" lon="-0.61282">
        <ele>22</ele>
        <time>2014-02-16T09:14:13+00:00</time>
      </trkpt>
      <trkpt lat="47.31417" lon="-0.61279">
        <ele>24</ele>
        <time>2014-02-16T09:14:14+00:00</time>
      </trkpt>
      <trkpt lat="47.31416" lon="-0.61276">
        <ele>27</ele>
        <time>2014-02-16T09:14:15+00:00</time>
      </trkpt>
      <trkpt lat="47.31413" lon="-0.61273">
        <ele>25</ele>
        <time>2014-02-16T09:14:17+00:00</time>
      </trkpt>
      <trkpt lat="47.31413" lon="-0.6127">
        <ele>27</ele>
        <time>2014-02-16T09:14:18+00:00</time>
      </trkpt>
      <trkpt lat="47.31412" lon="-0.61268">
        <ele>28</ele>
        <time>2014-02-16T09:14:19+00:00</time>
      </trkpt>
      <trkpt lat="47.31411" lon="-0.61266">
        <ele>29</ele>
        <time>2014-02-16T09:14:20+00:00</time>
      </trkpt>
      <trkpt lat="47.3141" lon="-0.61264">
        <ele>28</ele>
        <time>2014-02-16T09:14:21+00:00</time>
      </trkpt>
      <trkpt lat="47.31407" lon="-0.61263">
        <ele>30</ele>
        <time>2014-02-16T09:14:23+00:00</time>
      </trkpt>
      <trkpt lat="47.314" lon="-0.6126">
        <ele>30</ele>
        <time>2014-02-16T09:14:27+00:00</time>
      </trkpt>
      <trkpt lat="47.31397" lon="-0.61259">
        <ele>31</ele>
        <time>2014-02-16T09:14:28+00:00</time>
      </trkpt>
      <trkpt lat="47.31389" lon="-0.61252">
        <ele>29</ele>
        <time>2014-02-16T09:14:31+00:00</time>
      </trkpt>
      <trkpt lat="47.31387" lon="-0.61249">
        <ele>30</ele>
        <time>2014-02-16T09:14:32+00:00</time>
      </trkpt>
      <trkpt lat="47.31342" lon="-0.61205">
        <ele>19</ele>
        <time>2014-02-16T09:14:43+00:00</time>
      </trkpt>
      <trkpt lat="47.3134" lon="-0.61203">
        <ele>20</ele>
        <time>2014-02-16T09:14:44+00:00</time>
      </trkpt>
      <trkpt lat="47.31268" lon="-0.61113">
        <ele>21</ele>
        <time>2014-02-16T09:15:10+00:00</time>
      </trkpt>
      <trkpt lat="47.31266" lon="-0.61108">
        <ele>21</ele>
        <time>2014-02-16T09:15:11+00:00</time>
      </trkpt>
      <trkpt lat="47.31259" lon="-0.61094">
        <ele>21</ele>
        <time>2014-02-16T09:15:14+00:00</time>
      </trkpt>
      <trkpt lat="47.31257" lon="-0.61089">
        <ele>20</ele>
        <time>2014-02-16T09:15:15+00:00</time>
      </trkpt>
      <trkpt lat="47.31252" lon="-0.61074">
        <ele>22</ele>
        <time>2014-02-16T09:15:18+00:00</time>
      </trkpt>
      <trkpt lat="47.31252" lon="-0.61068">
        <ele>22</ele>
        <time>2014-02-16T09:15:19+00:00</time>
      </trkpt>
      <trkpt lat="47.31251" lon="-0.61063">
        <ele>22</ele>
        <time>2014-02-16T09:15:20+00:00</time>
      </trkpt>
      <trkpt lat="47.3125" lon="-0.61058">
        <ele>23</ele>
        <time>2014-02-16T09:15:21+00:00</time>
      </trkpt>
      <trkpt lat="47.31243" lon="-0.60998">
        <ele>27</ele>
        <time>2014-02-16T09:15:33+00:00</time>
      </trkpt>
      <trkpt lat="47.31242" lon="-0.60994">
        <ele>26</ele>
        <time>2014-02-16T09:15:34+00:00</time>
      </trkpt>
      <trkpt lat="47.3124" lon="-0.6099">
        <ele>26</ele>
        <time>2014-02-16T09:15:35+00:00</time>
      </trkpt>
      <trkpt lat="47.31238" lon="-0.60987">
        <ele>25</ele>
        <time>2014-02-16T09:15:36+00:00</time>
      </trkpt>
      <trkpt lat="47.31234" lon="-0.6098">
        <ele>24</ele>
        <time>2014-02-16T09:15:38+00:00</time>
      </trkpt>
      <trkpt lat="47.31231" lon="-0.60977">
        <ele>25</ele>
        <time>2014-02-16T09:15:39+00:00</time>
      </trkpt>
      <trkpt lat="47.31198" lon="-0.60941">
        <ele>19</ele>
        <time>2014-02-16T09:15:48+00:00</time>
      </trkpt>
      <trkpt lat="47.31194" lon="-0.60936">
        <ele>21</ele>
        <time>2014-02-16T09:15:49+00:00</time>
      </trkpt>
      <trkpt lat="47.3119" lon="-0.6093">
        <ele>20</ele>
        <time>2014-02-16T09:15:50+00:00</time>
      </trkpt>
      <trkpt lat="47.31163" lon="-0.60864">
        <ele>21</ele>
        <time>2014-02-16T09:15:58+00:00</time>
      </trkpt>
      <trkpt lat="47.31161" lon="-0.60857">
        <ele>19</ele>
        <time>2014-02-16T09:15:59+00:00</time>
      </trkpt>
      <trkpt lat="47.31159" lon="-0.6085">
        <ele>18</ele>
        <time>2014-02-16T09:16:00+00:00</time>
      </trkpt>
      <trkpt lat="47.31157" lon="-0.60828">
        <ele>24</ele>
        <time>2014-02-16T09:16:03+00:00</time>
      </trkpt>
      <trkpt lat="47.31157" lon="-0.60819">
        <ele>26</ele>
        <time>2014-02-16T09:16:04+00:00</time>
      </trkpt>
      <trkpt lat="47.31153" lon="-0.60771">
        <ele>24</ele>
        <time>2014-02-16T09:16:10+00:00</time>
      </trkpt>
      <trkpt lat="47.31152" lon="-0.60763">
        <ele>25</ele>
        <time>2014-02-16T09:16:11+00:00</time>
      </trkpt>
      <trkpt lat="47.31136" lon="-0.6063">
        <ele>20</ele>
        <time>2014-02-16T09:16:30+00:00</time>
      </trkpt>
      <trkpt lat="47.31136" lon="-0.60626">
        <ele>20</ele>
        <time>2014-02-16T09:16:31+00:00</time>
      </trkpt>
      <trkpt lat="47.31136" lon="-0.60614">
        <ele>21</ele>
        <time>2014-02-16T09:16:34+00:00</time>
      </trkpt>
      <trkpt lat="47.31137" lon="-0.60611">
        <ele>21</ele>
        <time>2014-02-16T09:16:35+00:00</time>
      </trkpt>
      <trkpt lat="47.3114" lon="-0.60596">
        <ele>23</ele>
        <time>2014-02-16T09:16:38+00:00</time>
      </trkpt>
      <trkpt lat="47.31142" lon="-0.60591">
        <ele>25</ele>
        <time>2014-02-16T09:16:39+00:00</time>
      </trkpt>
      <trkpt lat="47.31145" lon="-0.60582">
        <ele>26</ele>
        <time>2014-02-16T09:16:41+00:00</time>
      </trkpt>
      <trkpt lat="47.31145" lon="-0.6058">
        <ele>26</ele>
        <time>2014-02-16T09:16:42+00:00</time>
      </trkpt>
      <trkpt lat="47.31145" lon="-0.60564">
        <ele>24</ele>
        <time>2014-02-16T09:16:46+00:00</time>
      </trkpt>
      <trkpt lat="47.31145" lon="-0.60562">
        <ele>24</ele>
        <time>2014-02-16T09:16:47+00:00</time>
      </trkpt>
      <trkpt lat="47.31143" lon="-0.60538">
        <ele>28</ele>
        <time>2014-02-16T09:16:54+00:00</time>
      </trkpt>
      <trkpt lat="47.31143" lon="-0.60534">
        <ele>31</ele>
        <time>2014-02-16T09:16:55+00:00</time>
      </trkpt>
      <trkpt lat="47.31145" lon="-0.60531">
        <ele>31</ele>
        <time>2014-02-16T09:16:56+00:00</time>
      </trkpt>
      <trkpt lat="47.31146" lon="-0.60527">
        <ele>27</ele>
        <time>2014-02-16T09:16:57+00:00</time>
      </trkpt>
      <trkpt lat="47.31147" lon="-0.60525">
        <ele>27</ele>
        <time>2014-02-16T09:16:58+00:00</time>
      </trkpt>
      <trkpt lat="47.31148" lon="-0.60522">
        <ele>25</ele>
        <time>2014-02-16T09:17:00+00:00</time>
      </trkpt>
      <trkpt lat="47.31148" lon="-0.60522">
        <ele>25</ele>
        <time>2014-02-16T09:17:01+00:00</time>
      </trkpt>
      <trkpt lat="47.31151" lon="-0.6052">
        <ele>27</ele>
        <time>2014-02-16T09:17:02+00:00</time>
      </trkpt>
      <trkpt lat="47.31153" lon="-0.60518">
        <ele>29</ele>
        <time>2014-02-16T09:17:03+00:00</time>
      </trkpt>
      <trkpt lat="47.31156" lon="-0.60516">
        <ele>25</ele>
        <time>2014-02-16T09:17:05+00:00</time>
      </trkpt>
      <trkpt lat="47.31157" lon="-0.60514">
        <ele>24</ele>
        <time>2014-02-16T09:17:06+00:00</time>
      </trkpt>
      <trkpt lat="47.31157" lon="-0.60511">
        <ele>25</ele>
        <time>2014-02-16T09:17:07+00:00</time>
      </trkpt>
      <trkpt lat="47.31161" lon="-0.60495">
        <ele>22</ele>
        <time>2014-02-16T09:17:13+00:00</time>
      </trkpt>
      <trkpt lat="47.31163" lon="-0.60492">
        <ele>21</ele>
        <time>2014-02-16T09:17:14+00:00</time>
      </trkpt>
      <trkpt lat="47.31168" lon="-0.60471">
        <ele>29</ele>
        <time>2014-02-16T09:17:23+00:00</time>
      </trkpt>
      <trkpt lat="47.31168" lon="-0.60468">
        <ele>30</ele>
        <time>2014-02-16T09:17:24+00:00</time>
      </trkpt>
      <trkpt lat="47.31169" lon="-0.60466">
        <ele>31</ele>
        <time>2014-02-16T09:17:27+00:00</time>
      </trkpt>
      <trkpt lat="47.31169" lon="-0.60463">
        <ele>28</ele>
        <time>2014-02-16T09:17:28+00:00</time>
      </trkpt>
      <trkpt lat="47.31171" lon="-0.60454">
        <ele>29</ele>
        <time>2014-02-16T09:17:33+00:00</time>
      </trkpt>
      <trkpt lat="47.31172" lon="-0.60452">
        <ele>35</ele>
        <time>2014-02-16T09:17:34+00:00</time>
      </trkpt>
      <trkpt lat="47.31175" lon="-0.6044">
        <ele>34</ele>
        <time>2014-02-16T09:17:40+00:00</time>
      </trkpt>
      <trkpt lat="47.31176" lon="-0.60437">
        <ele>35</ele>
        <time>2014-02-16T09:17:41+00:00</time>
      </trkpt>
      <trkpt lat="47.31178" lon="-0.60433">
        <ele>34</ele>
        <time>2014-02-16T09:17:44+00:00</time>
      </trkpt>
      <trkpt lat="47.3118" lon="-0.60429">
        <ele>38</ele>
        <time>2014-02-16T09:17:45+00:00</time>
      </trkpt>
      <trkpt lat="47.3118" lon="-0.60427">
        <ele>36</ele>
        <time>2014-02-16T09:17:46+00:00</time>
      </trkpt>
      <trkpt lat="47.31181" lon="-0.60424">
        <ele>34</ele>
        <time>2014-02-16T09:17:47+00:00</time>
      </trkpt>
      <trkpt lat="47.31182" lon="-0.60419">
        <ele>29</ele>
        <time>2014-02-16T09:17:53+00:00</time>
      </trkpt>
      <trkpt lat="47.31182" lon="-0.60413">
        <ele>31</ele>
        <time>2014-02-16T09:17:54+00:00</time>
      </trkpt>
      <trkpt lat="47.31182" lon="-0.60408">
        <ele>37</ele>
        <time>2014-02-16T09:17:56+00:00</time>
      </trkpt>
      <trkpt lat="47.31182" lon="-0.60404">
        <ele>41</ele>
        <time>2014-02-16T09:17:57+00:00</time>
      </trkpt>
      <trkpt lat="47.31182" lon="-0.60403">
        <ele>38</ele>
        <time>2014-02-16T09:17:58+00:00</time>
      </trkpt>
      <trkpt lat="47.31183" lon="-0.6038">
        <ele>39</ele>
        <time>2014-02-16T09:18:06+00:00</time>
      </trkpt>
      <trkpt lat="47.31182" lon="-0.60378">
        <ele>40</ele>
        <time>2014-02-16T09:18:07+00:00</time>
      </trkpt>
      <trkpt lat="47.31182" lon="-0.60376">
        <ele>38</ele>
        <time>2014-02-16T09:18:08+00:00</time>
      </trkpt>
      <trkpt lat="47.31182" lon="-0.6037">
        <ele>42</ele>
        <time>2014-02-16T09:18:11+00:00</time>
      </trkpt>
      <trkpt lat="47.31183" lon="-0.60366">
        <ele>42</ele>
        <time>2014-02-16T09:18:12+00:00</time>
      </trkpt>
      <trkpt lat="47.31186" lon="-0.60358">
        <ele>49</ele>
        <time>2014-02-16T09:18:15+00:00</time>
      </trkpt>
      <trkpt lat="47.31186" lon="-0.60356">
        <ele>49</ele>
        <time>2014-02-16T09:18:16+00:00</time>
      </trkpt>
      <trkpt lat="47.31187" lon="-0.60322">
        <ele>44</ele>
        <time>2014-02-16T09:18:31+00:00</time>
      </trkpt>
      <trkpt lat="47.31187" lon="-0.60316">
        <ele>44</ele>
        <time>2014-02-16T09:18:32+00:00</time>
      </trkpt>
      <trkpt lat="47.31193" lon="-0.60291">
        <ele>44</ele>
        <time>2014-02-16T09:18:43+00:00</time>
      </trkpt>
      <trkpt lat="47.31193" lon="-0.60288">
        <ele>45</ele>
        <time>2014-02-16T09:18:44+00:00</time>
      </trkpt>
      <trkpt lat="47.31196" lon="-0.60279">
        <ele>50</ele>
        <time>2014-02-16T09:18:48+00:00</time>
      </trkpt>
      <trkpt lat="47.31196" lon="-0.60276">
        <ele>52</ele>
        <time>2014-02-16T09:18:49+00:00</time>
      </trkpt>
      <trkpt lat="47.31196" lon="-0.60274">
        <ele>54</ele>
        <time>2014-02-16T09:18:50+00:00</time>
      </trkpt>
      <trkpt lat="47.31197" lon="-0.60272">
        <ele>52</ele>
        <time>2014-02-16T09:18:51+00:00</time>
      </trkpt>
      <trkpt lat="47.31198" lon="-0.60268">
        <ele>49</ele>
        <time>2014-02-16T09:18:53+00:00</time>
      </trkpt>
      <trkpt lat="47.31199" lon="-0.60267">
        <ele>46</ele>
        <time>2014-02-16T09:18:54+00:00</time>
      </trkpt>
      <trkpt lat="47.31208" lon="-0.60223">
        <ele>51</ele>
        <time>2014-02-16T09:19:11+00:00</time>
      </trkpt>
      <trkpt lat="47.31208" lon="-0.60221">
        <ele>51</ele>
        <time>2014-02-16T09:19:12+00:00</time>
      </trkpt>
      <trkpt lat="47.31208" lon="-0.60219">
        <ele>52</ele>
        <time>2014-02-16T09:19:13+00:00</time>
      </trkpt>
      <trkpt lat="47.31208" lon="-0.60217">
        <ele>54</ele>
        <time>2014-02-16T09:19:14+00:00</time>
      </trkpt>
      <trkpt lat="47.31209" lon="-0.60214">
        <ele>54</ele>
        <time>2014-02-16T09:19:15+00:00</time>
      </trkpt>
      <trkpt lat="47.31209" lon="-0.60212">
        <ele>55</ele>
        <time>2014-02-16T09:19:16+00:00</time>
      </trkpt>
      <trkpt lat="47.3121" lon="-0.60204">
        <ele>52</ele>
        <time>2014-02-16T09:19:19+00:00</time>
      </trkpt>
      <trkpt lat="47.31211" lon="-0.60202">
        <ele>53</ele>
        <time>2014-02-16T09:19:20+00:00</time>
      </trkpt>
      <trkpt lat="47.31212" lon="-0.60188">
        <ele>54</ele>
        <time>2014-02-16T09:19:28+00:00</time>
      </trkpt>
      <trkpt lat="47.31212" lon="-0.60183">
        <ele>54</ele>
        <time>2014-02-16T09:19:29+00:00</time>
      </trkpt>
      <trkpt lat="47.31212" lon="-0.60178">
        <ele>52</ele>
        <time>2014-02-16T09:19:31+00:00</time>
      </trkpt>
      <trkpt lat="47.31212" lon="-0.60176">
        <ele>50</ele>
        <time>2014-02-16T09:19:32+00:00</time>
      </trkpt>
      <trkpt lat="47.31215" lon="-0.60166">
        <ele>50</ele>
        <time>2014-02-16T09:19:37+00:00</time>
      </trkpt>
      <trkpt lat="47.31216" lon="-0.60164">
        <ele>51</ele>
        <time>2014-02-16T09:19:38+00:00</time>
      </trkpt>
      <trkpt lat="47.31217" lon="-0.60163">
        <ele>53</ele>
        <time>2014-02-16T09:19:39+00:00</time>
      </trkpt>
      <trkpt lat="47.31218" lon="-0.60161">
        <ele>53</ele>
        <time>2014-02-16T09:19:40+00:00</time>
      </trkpt>
      <trkpt lat="47.31223" lon="-0.60149">
        <ele>48</ele>
        <time>2014-02-16T09:19:45+00:00</time>
      </trkpt>
      <trkpt lat="47.31224" lon="-0.60148">
        <ele>48</ele>
        <time>2014-02-16T09:19:46+00:00</time>
      </trkpt>
      <trkpt lat="47.31224" lon="-0.60145">
        <ele>50</ele>
        <time>2014-02-16T09:19:47+00:00</time>
      </trkpt>
      <trkpt lat="47.31237" lon="-0.60114">
        <ele>49</ele>
        <time>2014-02-16T09:20:00+00:00</time>
      </trkpt>
      <trkpt lat="47.31237" lon="-0.60112">
        <ele>53</ele>
        <time>2014-02-16T09:20:01+00:00</time>
      </trkpt>
      <trkpt lat="47.31238" lon="-0.60109">
        <ele>53</ele>
        <time>2014-02-16T09:20:02+00:00</time>
      </trkpt>
      <trkpt lat="47.31239" lon="-0.60108">
        <ele>54</ele>
        <time>2014-02-16T09:20:03+00:00</time>
      </trkpt>
      <trkpt lat="47.3124" lon="-0.60101">
        <ele>52</ele>
        <time>2014-02-16T09:20:06+00:00</time>
      </trkpt>
      <trkpt lat="47.31241" lon="-0.601">
        <ele>51</ele>
        <time>2014-02-16T09:20:07+00:00</time>
      </trkpt>
      <trkpt lat="47.31242" lon="-0.60097">
        <ele>52</ele>
        <time>2014-02-16T09:20:08+00:00</time>
      </trkpt>
      <trkpt lat="47.31243" lon="-0.60094">
        <ele>57</ele>
        <time>2014-02-16T09:20:09+00:00</time>
      </trkpt>
      <trkpt lat="47.31243" lon="-0.60092">
        <ele>55</ele>
        <time>2014-02-16T09:20:10+00:00</time>
      </trkpt>
      <trkpt lat="47.31244" lon="-0.60084">
        <ele>56</ele>
        <time>2014-02-16T09:20:13+00:00</time>
      </trkpt>
      <trkpt lat="47.31244" lon="-0.60082">
        <ele>60</ele>
        <time>2014-02-16T09:20:14+00:00</time>
      </trkpt>
      <trkpt lat="47.31244" lon="-0.60079">
        <ele>61</ele>
        <time>2014-02-16T09:20:15+00:00</time>
      </trkpt>
      <trkpt lat="47.31244" lon="-0.60076">
        <ele>61</ele>
        <time>2014-02-16T09:20:16+00:00</time>
      </trkpt>
      <trkpt lat="47.31244" lon="-0.60063">
        <ele>64</ele>
        <time>2014-02-16T09:20:21+00:00</time>
      </trkpt>
      <trkpt lat="47.31244" lon="-0.60061">
        <ele>64</ele>
        <time>2014-02-16T09:20:22+00:00</time>
      </trkpt>
      <trkpt lat="47.31243" lon="-0.60057">
        <ele>64</ele>
        <time>2014-02-16T09:20:24+00:00</time>
      </trkpt>
      <trkpt lat="47.31242" lon="-0.60053">
        <ele>63</ele>
        <time>2014-02-16T09:20:25+00:00</time>
      </trkpt>
      <trkpt lat="47.31242" lon="-0.60052">
        <ele>63</ele>
        <time>2014-02-16T09:20:26+00:00</time>
      </trkpt>
      <trkpt lat="47.31241" lon="-0.60049">
        <ele>63</ele>
        <time>2014-02-16T09:20:27+00:00</time>
      </trkpt>
      <trkpt lat="47.31241" lon="-0.60047">
        <ele>63</ele>
        <time>2014-02-16T09:20:28+00:00</time>
      </trkpt>
      <trkpt lat="47.3124" lon="-0.60045">
        <ele>63</ele>
        <time>2014-02-16T09:20:29+00:00</time>
      </trkpt>
      <trkpt lat="47.3124" lon="-0.60044">
        <ele>63</ele>
        <time>2014-02-16T09:20:30+00:00</time>
      </trkpt>
      <trkpt lat="47.31238" lon="-0.60034">
        <ele>66</ele>
        <time>2014-02-16T09:20:35+00:00</time>
      </trkpt>
      <trkpt lat="47.31238" lon="-0.60033">
        <ele>66</ele>
        <time>2014-02-16T09:20:36+00:00</time>
      </trkpt>
      <trkpt lat="47.31238" lon="-0.60028">
        <ele>67</ele>
        <time>2014-02-16T09:20:38+00:00</time>
      </trkpt>
      <trkpt lat="47.31237" lon="-0.60025">
        <ele>66</ele>
        <time>2014-02-16T09:20:39+00:00</time>
      </trkpt>
      <trkpt lat="47.31233" lon="-0.60012">
        <ele>64</ele>
        <time>2014-02-16T09:20:46+00:00</time>
      </trkpt>
      <trkpt lat="47.31232" lon="-0.60011">
        <ele>63</ele>
        <time>2014-02-16T09:20:47+00:00</time>
      </trkpt>
      <trkpt lat="47.3123" lon="-0.60008">
        <ele>63</ele>
        <time>2014-02-16T09:20:48+00:00</time>
      </trkpt>
      <trkpt lat="47.31228" lon="-0.60005">
        <ele>64</ele>
        <time>2014-02-16T09:20:50+00:00</time>
      </trkpt>
      <trkpt lat="47.31227" lon="-0.60005">
        <ele>64</ele>
        <time>2014-02-16T09:20:51+00:00</time>
      </trkpt>
      <trkpt lat="47.31226" lon="-0.60004">
        <ele>64</ele>
        <time>2014-02-16T09:20:52+00:00</time>
      </trkpt>
      <trkpt lat="47.31225" lon="-0.60003">
        <ele>65</ele>
        <time>2014-02-16T09:20:53+00:00</time>
      </trkpt>
      <trkpt lat="47.31224" lon="-0.59999">
        <ele>66</ele>
        <time>2014-02-16T09:20:55+00:00</time>
      </trkpt>
      <trkpt lat="47.31224" lon="-0.59997">
        <ele>67</ele>
        <time>2014-02-16T09:20:56+00:00</time>
      </trkpt>
      <trkpt lat="47.31222" lon="-0.59991">
        <ele>67</ele>
        <time>2014-02-16T09:20:59+00:00</time>
      </trkpt>
      <trkpt lat="47.31221" lon="-0.59989">
        <ele>67</ele>
        <time>2014-02-16T09:21:00+00:00</time>
      </trkpt>
      <trkpt lat="47.3122" lon="-0.59983">
        <ele>67</ele>
        <time>2014-02-16T09:21:03+00:00</time>
      </trkpt>
      <trkpt lat="47.31219" lon="-0.5998">
        <ele>68</ele>
        <time>2014-02-16T09:21:04+00:00</time>
      </trkpt>
      <trkpt lat="47.31219" lon="-0.59979">
        <ele>70</ele>
        <time>2014-02-16T09:21:05+00:00</time>
      </trkpt>
      <trkpt lat="47.31219" lon="-0.59977">
        <ele>66</ele>
        <time>2014-02-16T09:21:06+00:00</time>
      </trkpt>
      <trkpt lat="47.31218" lon="-0.59976">
        <ele>64</ele>
        <time>2014-02-16T09:21:07+00:00</time>
      </trkpt>
      <trkpt lat="47.31218" lon="-0.59974">
        <ele>64</ele>
        <time>2014-02-16T09:21:08+00:00</time>
      </trkpt>
      <trkpt lat="47.31217" lon="-0.59972">
        <ele>62</ele>
        <time>2014-02-16T09:21:09+00:00</time>
      </trkpt>
      <trkpt lat="47.31217" lon="-0.59971">
        <ele>61</ele>
        <time>2014-02-16T09:21:10+00:00</time>
      </trkpt>
      <trkpt lat="47.31215" lon="-0.59963">
        <ele>67</ele>
        <time>2014-02-16T09:21:13+00:00</time>
      </trkpt>
      <trkpt lat="47.31214" lon="-0.59961">
        <ele>69</ele>
        <time>2014-02-16T09:21:14+00:00</time>
      </trkpt>
      <trkpt lat="47.31213" lon="-0.5996">
        <ele>71</ele>
        <time>2014-02-16T09:21:15+00:00</time>
      </trkpt>
      <trkpt lat="47.31212" lon="-0.59957">
        <ele>73</ele>
        <time>2014-02-16T09:21:16+00:00</time>
      </trkpt>
      <trkpt lat="47.31212" lon="-0.59956">
        <ele>73</ele>
        <time>2014-02-16T09:21:17+00:00</time>
      </trkpt>
      <trkpt lat="47.31211" lon="-0.59954">
        <ele>72</ele>
        <time>2014-02-16T09:21:18+00:00</time>
      </trkpt>
      <trkpt lat="47.3121" lon="-0.59952">
        <ele>72</ele>
        <time>2014-02-16T09:21:19+00:00</time>
      </trkpt>
      <trkpt lat="47.31209" lon="-0.5995">
        <ele>72</ele>
        <time>2014-02-16T09:21:20+00:00</time>
      </trkpt>
      <trkpt lat="47.31208" lon="-0.59948">
        <ele>72</ele>
        <time>2014-02-16T09:21:21+00:00</time>
      </trkpt>
      <trkpt lat="47.31207" lon="-0.59947">
        <ele>73</ele>
        <time>2014-02-16T09:21:22+00:00</time>
      </trkpt>
      <trkpt lat="47.31206" lon="-0.59945">
        <ele>72</ele>
        <time>2014-02-16T09:21:23+00:00</time>
      </trkpt>
      <trkpt lat="47.31205" lon="-0.59943">
        <ele>71</ele>
        <time>2014-02-16T09:21:24+00:00</time>
      </trkpt>
      <trkpt lat="47.31204" lon="-0.59939">
        <ele>71</ele>
        <time>2014-02-16T09:21:26+00:00</time>
      </trkpt>
      <trkpt lat="47.31204" lon="-0.59937">
        <ele>71</ele>
        <time>2014-02-16T09:21:27+00:00</time>
      </trkpt>
      <trkpt lat="47.31203" lon="-0.59935">
        <ele>72</ele>
        <time>2014-02-16T09:21:28+00:00</time>
      </trkpt>
      <trkpt lat="47.31202" lon="-0.59933">
        <ele>71</ele>
        <time>2014-02-16T09:21:29+00:00</time>
      </trkpt>
      <trkpt lat="47.312" lon="-0.59932">
        <ele>70</ele>
        <time>2014-02-16T09:21:30+00:00</time>
      </trkpt>
      <trkpt lat="47.31199" lon="-0.59928">
        <ele>68</ele>
        <time>2014-02-16T09:21:31+00:00</time>
      </trkpt>
      <trkpt lat="47.31198" lon="-0.59926">
        <ele>68</ele>
        <time>2014-02-16T09:21:32+00:00</time>
      </trkpt>
      <trkpt lat="47.31196" lon="-0.59924">
        <ele>67</ele>
        <time>2014-02-16T09:21:33+00:00</time>
      </trkpt>
      <trkpt lat="47.31194" lon="-0.59917">
        <ele>64</ele>
        <time>2014-02-16T09:21:36+00:00</time>
      </trkpt>
      <trkpt lat="47.31193" lon="-0.59916">
        <ele>66</ele>
        <time>2014-02-16T09:21:37+00:00</time>
      </trkpt>
      <trkpt lat="47.31192" lon="-0.59914">
        <ele>67</ele>
        <time>2014-02-16T09:21:38+00:00</time>
      </trkpt>
      <trkpt lat="47.31188" lon="-0.59907">
        <ele>64</ele>
        <time>2014-02-16T09:21:42+00:00</time>
      </trkpt>
      <trkpt lat="47.31187" lon="-0.59905">
        <ele>64</ele>
        <time>2014-02-16T09:21:43+00:00</time>
      </trkpt>
      <trkpt lat="47.31185" lon="-0.59903">
        <ele>64</ele>
        <time>2014-02-16T09:21:44+00:00</time>
      </trkpt>
      <trkpt lat="47.31183" lon="-0.59901">
        <ele>64</ele>
        <time>2014-02-16T09:21:45+00:00</time>
      </trkpt>
      <trkpt lat="47.31181" lon="-0.599">
        <ele>65</ele>
        <time>2014-02-16T09:21:46+00:00</time>
      </trkpt>
      <trkpt lat="47.3118" lon="-0.59897">
        <ele>64</ele>
        <time>2014-02-16T09:21:47+00:00</time>
      </trkpt>
      <trkpt lat="47.31179" lon="-0.59895">
        <ele>64</ele>
        <time>2014-02-16T09:21:48+00:00</time>
      </trkpt>
      <trkpt lat="47.31179" lon="-0.59893">
        <ele>64</ele>
        <time>2014-02-16T09:21:49+00:00</time>
      </trkpt>
      <trkpt lat="47.31178" lon="-0.59891">
        <ele>64</ele>
        <time>2014-02-16T09:21:50+00:00</time>
      </trkpt>
      <trkpt lat="47.31177" lon="-0.59888">
        <ele>65</ele>
        <time>2014-02-16T09:21:51+00:00</time>
      </trkpt>
      <trkpt lat="47.31174" lon="-0.59884">
        <ele>65</ele>
        <time>2014-02-16T09:21:53+00:00</time>
      </trkpt>
      <trkpt lat="47.31174" lon="-0.59881">
        <ele>65</ele>
        <time>2014-02-16T09:21:54+00:00</time>
      </trkpt>
      <trkpt lat="47.31171" lon="-0.59867">
        <ele>67</ele>
        <time>2014-02-16T09:21:59+00:00</time>
      </trkpt>
      <trkpt lat="47.31169" lon="-0.59865">
        <ele>67</ele>
        <time>2014-02-16T09:22:00+00:00</time>
      </trkpt>
      <trkpt lat="47.31168" lon="-0.59862">
        <ele>67</ele>
        <time>2014-02-16T09:22:01+00:00</time>
      </trkpt>
      <trkpt lat="47.31165" lon="-0.59855">
        <ele>69</ele>
        <time>2014-02-16T09:22:04+00:00</time>
      </trkpt>
      <trkpt lat="47.31164" lon="-0.59853">
        <ele>69</ele>
        <time>2014-02-16T09:22:05+00:00</time>
      </trkpt>
      <trkpt lat="47.31163" lon="-0.59847">
        <ele>69</ele>
        <time>2014-02-16T09:22:07+00:00</time>
      </trkpt>
      <trkpt lat="47.31161" lon="-0.59844">
        <ele>68</ele>
        <time>2014-02-16T09:22:08+00:00</time>
      </trkpt>
      <trkpt lat="47.3116" lon="-0.59841">
        <ele>66</ele>
        <time>2014-02-16T09:22:09+00:00</time>
      </trkpt>
      <trkpt lat="47.31159" lon="-0.59837">
        <ele>66</ele>
        <time>2014-02-16T09:22:10+00:00</time>
      </trkpt>
      <trkpt lat="47.31158" lon="-0.59835">
        <ele>66</ele>
        <time>2014-02-16T09:22:11+00:00</time>
      </trkpt>
      <trkpt lat="47.31157" lon="-0.59831">
        <ele>66</ele>
        <time>2014-02-16T09:22:12+00:00</time>
      </trkpt>
      <trkpt lat="47.31156" lon="-0.59828">
        <ele>66</ele>
        <time>2014-02-16T09:22:13+00:00</time>
      </trkpt>
      <trkpt lat="47.31156" lon="-0.59826">
        <ele>65</ele>
        <time>2014-02-16T09:22:14+00:00</time>
      </trkpt>
      <trkpt lat="47.31155" lon="-0.59823">
        <ele>65</ele>
        <time>2014-02-16T09:22:15+00:00</time>
      </trkpt>
      <trkpt lat="47.31155" lon="-0.59821">
        <ele>65</ele>
        <time>2014-02-16T09:22:16+00:00</time>
      </trkpt>
      <trkpt lat="47.31155" lon="-0.5982">
        <ele>65</ele>
        <time>2014-02-16T09:22:17+00:00</time>
      </trkpt>
      <trkpt lat="47.31155" lon="-0.59815">
        <ele>64</ele>
        <time>2014-02-16T09:22:19+00:00</time>
      </trkpt>
      <trkpt lat="47.31155" lon="-0.59813">
        <ele>64</ele>
        <time>2014-02-16T09:22:20+00:00</time>
      </trkpt>
      <trkpt lat="47.31154" lon="-0.59812">
        <ele>64</ele>
        <time>2014-02-16T09:22:21+00:00</time>
      </trkpt>
      <trkpt lat="47.31153" lon="-0.59811">
        <ele>66</ele>
        <time>2014-02-16T09:22:22+00:00</time>
      </trkpt>
      <trkpt lat="47.31152" lon="-0.5981">
        <ele>67</ele>
        <time>2014-02-16T09:22:23+00:00</time>
      </trkpt>
      <trkpt lat="47.3115" lon="-0.59809">
        <ele>67</ele>
        <time>2014-02-16T09:22:24+00:00</time>
      </trkpt>
      <trkpt lat="47.31149" lon="-0.59807">
        <ele>67</ele>
        <time>2014-02-16T09:22:25+00:00</time>
      </trkpt>
      <trkpt lat="47.31149" lon="-0.59805">
        <ele>67</ele>
        <time>2014-02-16T09:22:26+00:00</time>
      </trkpt>
      <trkpt lat="47.31148" lon="-0.59803">
        <ele>67</ele>
        <time>2014-02-16T09:22:27+00:00</time>
      </trkpt>
      <trkpt lat="47.31148" lon="-0.598">
        <ele>66</ele>
        <time>2014-02-16T09:22:28+00:00</time>
      </trkpt>
      <trkpt lat="47.31148" lon="-0.59798">
        <ele>66</ele>
        <time>2014-02-16T09:22:29+00:00</time>
      </trkpt>
      <trkpt lat="47.31147" lon="-0.59796">
        <ele>66</ele>
        <time>2014-02-16T09:22:30+00:00</time>
      </trkpt>
      <trkpt lat="47.31147" lon="-0.59794">
        <ele>66</ele>
        <time>2014-02-16T09:22:31+00:00</time>
      </trkpt>
      <trkpt lat="47.31143" lon="-0.59777">
        <ele>70</ele>
        <time>2014-02-16T09:22:39+00:00</time>
      </trkpt>
      <trkpt lat="47.31143" lon="-0.59775">
        <ele>69</ele>
        <time>2014-02-16T09:22:40+00:00</time>
      </trkpt>
      <trkpt lat="47.31143" lon="-0.59772">
        <ele>69</ele>
        <time>2014-02-16T09:22:41+00:00</time>
      </trkpt>
      <trkpt lat="47.31142" lon="-0.5977">
        <ele>69</ele>
        <time>2014-02-16T09:22:42+00:00</time>
      </trkpt>
      <trkpt lat="47.31141" lon="-0.59767">
        <ele>69</ele>
        <time>2014-02-16T09:22:43+00:00</time>
      </trkpt>
      <trkpt lat="47.3114" lon="-0.59747">
        <ele>71</ele>
        <time>2014-02-16T09:22:51+00:00</time>
      </trkpt>
      <trkpt lat="47.31139" lon="-0.59745">
        <ele>71</ele>
        <time>2014-02-16T09:22:52+00:00</time>
      </trkpt>
      <trkpt lat="47.31139" lon="-0.59742">
        <ele>72</ele>
        <time>2014-02-16T09:22:53+00:00</time>
      </trkpt>
      <trkpt lat="47.31138" lon="-0.5974">
        <ele>72</ele>
        <time>2014-02-16T09:22:54+00:00</time>
      </trkpt>
      <trkpt lat="47.31138" lon="-0.59738">
        <ele>72</ele>
        <time>2014-02-16T09:22:55+00:00</time>
      </trkpt>
      <trkpt lat="47.31137" lon="-0.59732">
        <ele>72</ele>
        <time>2014-02-16T09:22:57+00:00</time>
      </trkpt>
      <trkpt lat="47.31136" lon="-0.5973">
        <ele>72</ele>
        <time>2014-02-16T09:22:58+00:00</time>
      </trkpt>
      <trkpt lat="47.31136" lon="-0.59727">
        <ele>73</ele>
        <time>2014-02-16T09:22:59+00:00</time>
      </trkpt>
      <trkpt lat="47.31133" lon="-0.59715">
        <ele>70</ele>
        <time>2014-02-16T09:23:04+00:00</time>
      </trkpt>
      <trkpt lat="47.31132" lon="-0.59712">
        <ele>71</ele>
        <time>2014-02-16T09:23:05+00:00</time>
      </trkpt>
      <trkpt lat="47.31132" lon="-0.59707">
        <ele>70</ele>
        <time>2014-02-16T09:23:07+00:00</time>
      </trkpt>
      <trkpt lat="47.31132" lon="-0.59704">
        <ele>70</ele>
        <time>2014-02-16T09:23:08+00:00</time>
      </trkpt>
      <trkpt lat="47.31129" lon="-0.59687">
        <ele>70</ele>
        <time>2014-02-16T09:23:14+00:00</time>
      </trkpt>
      <trkpt lat="47.31129" lon="-0.59684">
        <ele>70</ele>
        <time>2014-02-16T09:23:15+00:00</time>
      </trkpt>
      <trkpt lat="47.31127" lon="-0.59666">
        <ele>71</ele>
        <time>2014-02-16T09:23:22+00:00</time>
      </trkpt>
      <trkpt lat="47.31127" lon="-0.59663">
        <ele>72</ele>
        <time>2014-02-16T09:23:23+00:00</time>
      </trkpt>
      <trkpt lat="47.31127" lon="-0.5966">
        <ele>72</ele>
        <time>2014-02-16T09:23:24+00:00</time>
      </trkpt>
      <trkpt lat="47.31126" lon="-0.59659">
        <ele>72</ele>
        <time>2014-02-16T09:23:25+00:00</time>
      </trkpt>
      <trkpt lat="47.31126" lon="-0.59656">
        <ele>72</ele>
        <time>2014-02-16T09:23:26+00:00</time>
      </trkpt>
      <trkpt lat="47.31126" lon="-0.59653">
        <ele>72</ele>
        <time>2014-02-16T09:23:27+00:00</time>
      </trkpt>
      <trkpt lat="47.31125" lon="-0.59648">
        <ele>73</ele>
        <time>2014-02-16T09:23:29+00:00</time>
      </trkpt>
      <trkpt lat="47.31125" lon="-0.59646">
        <ele>73</ele>
        <time>2014-02-16T09:23:30+00:00</time>
      </trkpt>
      <trkpt lat="47.31124" lon="-0.59644">
        <ele>73</ele>
        <time>2014-02-16T09:23:31+00:00</time>
      </trkpt>
      <trkpt lat="47.31124" lon="-0.59641">
        <ele>72</ele>
        <time>2014-02-16T09:23:32+00:00</time>
      </trkpt>
      <trkpt lat="47.31124" lon="-0.59638">
        <ele>73</ele>
        <time>2014-02-16T09:23:33+00:00</time>
      </trkpt>
      <trkpt lat="47.31124" lon="-0.59636">
        <ele>74</ele>
        <time>2014-02-16T09:23:34+00:00</time>
      </trkpt>
      <trkpt lat="47.31124" lon="-0.59634">
        <ele>74</ele>
        <time>2014-02-16T09:23:35+00:00</time>
      </trkpt>
      <trkpt lat="47.31124" lon="-0.59622">
        <ele>74</ele>
        <time>2014-02-16T09:23:40+00:00</time>
      </trkpt>
      <trkpt lat="47.31123" lon="-0.5962">
        <ele>74</ele>
        <time>2014-02-16T09:23:41+00:00</time>
      </trkpt>
      <trkpt lat="47.31123" lon="-0.59618">
        <ele>75</ele>
        <time>2014-02-16T09:23:42+00:00</time>
      </trkpt>
      <trkpt lat="47.31122" lon="-0.59615">
        <ele>75</ele>
        <time>2014-02-16T09:23:43+00:00</time>
      </trkpt>
      <trkpt lat="47.31122" lon="-0.59612">
        <ele>75</ele>
        <time>2014-02-16T09:23:44+00:00</time>
      </trkpt>
      <trkpt lat="47.31121" lon="-0.5961">
        <ele>75</ele>
        <time>2014-02-16T09:23:45+00:00</time>
      </trkpt>
      <trkpt lat="47.31117" lon="-0.596">
        <ele>76</ele>
        <time>2014-02-16T09:23:49+00:00</time>
      </trkpt>
      <trkpt lat="47.31116" lon="-0.59597">
        <ele>76</ele>
        <time>2014-02-16T09:23:50+00:00</time>
      </trkpt>
      <trkpt lat="47.31114" lon="-0.59585">
        <ele>74</ele>
        <time>2014-02-16T09:23:54+00:00</time>
      </trkpt>
      <trkpt lat="47.31113" lon="-0.59582">
        <ele>77</ele>
        <time>2014-02-16T09:23:55+00:00</time>
      </trkpt>
      <trkpt lat="47.31113" lon="-0.5958">
        <ele>77</ele>
        <time>2014-02-16T09:23:56+00:00</time>
      </trkpt>
      <trkpt lat="47.31112" lon="-0.59577">
        <ele>76</ele>
        <time>2014-02-16T09:23:57+00:00</time>
      </trkpt>
      <trkpt lat="47.31108" lon="-0.59554">
        <ele>80</ele>
        <time>2014-02-16T09:24:05+00:00</time>
      </trkpt>
      <trkpt lat="47.31107" lon="-0.59551">
        <ele>79</ele>
        <time>2014-02-16T09:24:06+00:00</time>
      </trkpt>
      <trkpt lat="47.31105" lon="-0.59543">
        <ele>81</ele>
        <time>2014-02-16T09:24:09+00:00</time>
      </trkpt>
      <trkpt lat="47.31104" lon="-0.5954">
        <ele>81</ele>
        <time>2014-02-16T09:24:10+00:00</time>
      </trkpt>
      <trkpt lat="47.31103" lon="-0.59535">
        <ele>81</ele>
        <time>2014-02-16T09:24:12+00:00</time>
      </trkpt>
      <trkpt lat="47.31102" lon="-0.59532">
        <ele>79</ele>
        <time>2014-02-16T09:24:13+00:00</time>
      </trkpt>
      <trkpt lat="47.31101" lon="-0.59526">
        <ele>79</ele>
        <time>2014-02-16T09:24:15+00:00</time>
      </trkpt>
      <trkpt lat="47.311" lon="-0.59524">
        <ele>79</ele>
        <time>2014-02-16T09:24:16+00:00</time>
      </trkpt>
      <trkpt lat="47.311" lon="-0.59517">
        <ele>78</ele>
        <time>2014-02-16T09:24:18+00:00</time>
      </trkpt>
      <trkpt lat="47.31099" lon="-0.59516">
        <ele>79</ele>
        <time>2014-02-16T09:24:19+00:00</time>
      </trkpt>
      <trkpt lat="47.31098" lon="-0.59512">
        <ele>80</ele>
        <time>2014-02-16T09:24:20+00:00</time>
      </trkpt>
      <trkpt lat="47.31097" lon="-0.59509">
        <ele>82</ele>
        <time>2014-02-16T09:24:21+00:00</time>
      </trkpt>
      <trkpt lat="47.31097" lon="-0.59507">
        <ele>83</ele>
        <time>2014-02-16T09:24:22+00:00</time>
      </trkpt>
      <trkpt lat="47.31095" lon="-0.59501">
        <ele>83</ele>
        <time>2014-02-16T09:24:24+00:00</time>
      </trkpt>
      <trkpt lat="47.31094" lon="-0.59499">
        <ele>82</ele>
        <time>2014-02-16T09:24:25+00:00</time>
      </trkpt>
      <trkpt lat="47.31091" lon="-0.59485">
        <ele>80</ele>
        <time>2014-02-16T09:24:30+00:00</time>
      </trkpt>
      <trkpt lat="47.3109" lon="-0.59483">
        <ele>81</ele>
        <time>2014-02-16T09:24:31+00:00</time>
      </trkpt>
      <trkpt lat="47.31089" lon="-0.59476">
        <ele>80</ele>
        <time>2014-02-16T09:24:33+00:00</time>
      </trkpt>
      <trkpt lat="47.31088" lon="-0.59473">
        <ele>79</ele>
        <time>2014-02-16T09:24:34+00:00</time>
      </trkpt>
      <trkpt lat="47.31086" lon="-0.59467">
        <ele>80</ele>
        <time>2014-02-16T09:24:36+00:00</time>
      </trkpt>
      <trkpt lat="47.31085" lon="-0.59464">
        <ele>80</ele>
        <time>2014-02-16T09:24:37+00:00</time>
      </trkpt>
      <trkpt lat="47.31084" lon="-0.59458">
        <ele>79</ele>
        <time>2014-02-16T09:24:39+00:00</time>
      </trkpt>
      <trkpt lat="47.31084" lon="-0.59455">
        <ele>78</ele>
        <time>2014-02-16T09:24:40+00:00</time>
      </trkpt>
      <trkpt lat="47.31083" lon="-0.59452">
        <ele>79</ele>
        <time>2014-02-16T09:24:41+00:00</time>
      </trkpt>
      <trkpt lat="47.31083" lon="-0.59449">
        <ele>80</ele>
        <time>2014-02-16T09:24:42+00:00</time>
      </trkpt>
      <trkpt lat="47.31082" lon="-0.59445">
        <ele>80</ele>
        <time>2014-02-16T09:24:43+00:00</time>
      </trkpt>
      <trkpt lat="47.31081" lon="-0.59442">
        <ele>79</ele>
        <time>2014-02-16T09:24:44+00:00</time>
      </trkpt>
      <trkpt lat="47.3108" lon="-0.59438">
        <ele>78</ele>
        <time>2014-02-16T09:24:45+00:00</time>
      </trkpt>
      <trkpt lat="47.3108" lon="-0.59435">
        <ele>79</ele>
        <time>2014-02-16T09:24:46+00:00</time>
      </trkpt>
      <trkpt lat="47.31076" lon="-0.59409">
        <ele>82</ele>
        <time>2014-02-16T09:24:55+00:00</time>
      </trkpt>
      <trkpt lat="47.31076" lon="-0.59406">
        <ele>83</ele>
        <time>2014-02-16T09:24:56+00:00</time>
      </trkpt>
      <trkpt lat="47.31076" lon="-0.59399">
        <ele>82</ele>
        <time>2014-02-16T09:24:58+00:00</time>
      </trkpt>
      <trkpt lat="47.31076" lon="-0.59395">
        <ele>82</ele>
        <time>2014-02-16T09:24:59+00:00</time>
      </trkpt>
      <trkpt lat="47.31076" lon="-0.59381">
        <ele>82</ele>
        <time>2014-02-16T09:25:02+00:00</time>
      </trkpt>
      <trkpt lat="47.31076" lon="-0.59377">
        <ele>82</ele>
        <time>2014-02-16T09:25:03+00:00</time>
      </trkpt>
      <trkpt lat="47.31078" lon="-0.59368">
        <ele>83</ele>
        <time>2014-02-16T09:25:05+00:00</time>
      </trkpt>
      <trkpt lat="47.31079" lon="-0.59364">
        <ele>84</ele>
        <time>2014-02-16T09:25:06+00:00</time>
      </trkpt>
      <trkpt lat="47.3108" lon="-0.59359">
        <ele>84</ele>
        <time>2014-02-16T09:25:07+00:00</time>
      </trkpt>
      <trkpt lat="47.31081" lon="-0.59354">
        <ele>83</ele>
        <time>2014-02-16T09:25:08+00:00</time>
      </trkpt>
      <trkpt lat="47.31085" lon="-0.59328">
        <ele>86</ele>
        <time>2014-02-16T09:25:15+00:00</time>
      </trkpt>
      <trkpt lat="47.31086" lon="-0.59324">
        <ele>85</ele>
        <time>2014-02-16T09:25:16+00:00</time>
      </trkpt>
      <trkpt lat="47.31087" lon="-0.59319">
        <ele>84</ele>
        <time>2014-02-16T09:25:17+00:00</time>
      </trkpt>
      <trkpt lat="47.31087" lon="-0.59316">
        <ele>83</ele>
        <time>2014-02-16T09:25:18+00:00</time>
      </trkpt>
      <trkpt lat="47.31088" lon="-0.59312">
        <ele>83</ele>
        <time>2014-02-16T09:25:19+00:00</time>
      </trkpt>
      <trkpt lat="47.31089" lon="-0.59308">
        <ele>82</ele>
        <time>2014-02-16T09:25:20+00:00</time>
      </trkpt>
      <trkpt lat="47.3109" lon="-0.59305">
        <ele>81</ele>
        <time>2014-02-16T09:25:21+00:00</time>
      </trkpt>
      <trkpt lat="47.31091" lon="-0.59303">
        <ele>80</ele>
        <time>2014-02-16T09:25:22+00:00</time>
      </trkpt>
      <trkpt lat="47.31092" lon="-0.593">
        <ele>78</ele>
        <time>2014-02-16T09:25:23+00:00</time>
      </trkpt>
      <trkpt lat="47.31094" lon="-0.59299">
        <ele>77</ele>
        <time>2014-02-16T09:25:24+00:00</time>
      </trkpt>
      <trkpt lat="47.31096" lon="-0.59297">
        <ele>77</ele>
        <time>2014-02-16T09:25:25+00:00</time>
      </trkpt>
      <trkpt lat="47.31098" lon="-0.59295">
        <ele>76</ele>
        <time>2014-02-16T09:25:26+00:00</time>
      </trkpt>
      <trkpt lat="47.31112" lon="-0.59287">
        <ele>78</ele>
        <time>2014-02-16T09:25:32+00:00</time>
      </trkpt>
      <trkpt lat="47.31115" lon="-0.59286">
        <ele>78</ele>
        <time>2014-02-16T09:25:33+00:00</time>
      </trkpt>
      <trkpt lat="47.31118" lon="-0.59286">
        <ele>77</ele>
        <time>2014-02-16T09:25:34+00:00</time>
      </trkpt>
      <trkpt lat="47.31121" lon="-0.59285">
        <ele>77</ele>
        <time>2014-02-16T09:25:35+00:00</time>
      </trkpt>
      <trkpt lat="47.31124" lon="-0.59284">
        <ele>77</ele>
        <time>2014-02-16T09:25:36+00:00</time>
      </trkpt>
      <trkpt lat="47.31126" lon="-0.59283">
        <ele>76</ele>
        <time>2014-02-16T09:25:37+00:00</time>
      </trkpt>
      <trkpt lat="47.31158" lon="-0.59263">
        <ele>82</ele>
        <time>2014-02-16T09:25:51+00:00</time>
      </trkpt>
      <trkpt lat="47.31159" lon="-0.59262">
        <ele>82</ele>
        <time>2014-02-16T09:25:52+00:00</time>
      </trkpt>
      <trkpt lat="47.3116" lon="-0.59261">
        <ele>82</ele>
        <time>2014-02-16T09:25:54+00:00</time>
      </trkpt>
      <trkpt lat="47.31161" lon="-0.5926">
        <ele>83</ele>
        <time>2014-02-16T09:25:55+00:00</time>
      </trkpt>
      <trkpt lat="47.31162" lon="-0.5926">
        <ele>84</ele>
        <time>2014-02-16T09:25:56+00:00</time>
      </trkpt>
      <trkpt lat="47.31163" lon="-0.59258">
        <ele>84</ele>
        <time>2014-02-16T09:25:57+00:00</time>
      </trkpt>
      <trkpt lat="47.31165" lon="-0.59257">
        <ele>86</ele>
        <time>2014-02-16T09:25:58+00:00</time>
      </trkpt>
      <trkpt lat="47.31172" lon="-0.59252">
        <ele>86</ele>
        <time>2014-02-16T09:26:01+00:00</time>
      </trkpt>
      <trkpt lat="47.31174" lon="-0.59251">
        <ele>84</ele>
        <time>2014-02-16T09:26:02+00:00</time>
      </trkpt>
      <trkpt lat="47.31177" lon="-0.59248">
        <ele>85</ele>
        <time>2014-02-16T09:26:03+00:00</time>
      </trkpt>
      <trkpt lat="47.31204" lon="-0.59212">
        <ele>82</ele>
        <time>2014-02-16T09:26:17+00:00</time>
      </trkpt>
      <trkpt lat="47.31206" lon="-0.59209">
        <ele>82</ele>
        <time>2014-02-16T09:26:18+00:00</time>
      </trkpt>
      <trkpt lat="47.31221" lon="-0.5919">
        <ele>84</ele>
        <time>2014-02-16T09:26:24+00:00</time>
      </trkpt>
      <trkpt lat="47.31224" lon="-0.59187">
        <ele>83</ele>
        <time>2014-02-16T09:26:25+00:00</time>
      </trkpt>
      <trkpt lat="47.31232" lon="-0.59177">
        <ele>83</ele>
        <time>2014-02-16T09:26:28+00:00</time>
      </trkpt>
      <trkpt lat="47.31235" lon="-0.59173">
        <ele>83</ele>
        <time>2014-02-16T09:26:29+00:00</time>
      </trkpt>
      <trkpt lat="47.31244" lon="-0.59164">
        <ele>82</ele>
        <time>2014-02-16T09:26:32+00:00</time>
      </trkpt>
      <trkpt lat="47.31246" lon="-0.59161">
        <ele>82</ele>
        <time>2014-02-16T09:26:33+00:00</time>
      </trkpt>
      <trkpt lat="47.31253" lon="-0.59155">
        <ele>85</ele>
        <time>2014-02-16T09:26:36+00:00</time>
      </trkpt>
      <trkpt lat="47.31255" lon="-0.59154">
        <ele>86</ele>
        <time>2014-02-16T09:26:37+00:00</time>
      </trkpt>
      <trkpt lat="47.31258" lon="-0.59152">
        <ele>85</ele>
        <time>2014-02-16T09:26:38+00:00</time>
      </trkpt>
      <trkpt lat="47.31267" lon="-0.59142">
        <ele>85</ele>
        <time>2014-02-16T09:26:42+00:00</time>
      </trkpt>
      <trkpt lat="47.31268" lon="-0.5914">
        <ele>84</ele>
        <time>2014-02-16T09:26:43+00:00</time>
      </trkpt>
      <trkpt lat="47.31271" lon="-0.59138">
        <ele>85</ele>
        <time>2014-02-16T09:26:44+00:00</time>
      </trkpt>
      <trkpt lat="47.31274" lon="-0.59135">
        <ele>85</ele>
        <time>2014-02-16T09:26:45+00:00</time>
      </trkpt>
      <trkpt lat="47.31287" lon="-0.59122">
        <ele>85</ele>
        <time>2014-02-16T09:26:50+00:00</time>
      </trkpt>
      <trkpt lat="47.3129" lon="-0.59118">
        <ele>85</ele>
        <time>2014-02-16T09:26:51+00:00</time>
      </trkpt>
      <trkpt lat="47.313" lon="-0.59104">
        <ele>85</ele>
        <time>2014-02-16T09:26:55+00:00</time>
      </trkpt>
      <trkpt lat="47.31303" lon="-0.591">
        <ele>85</ele>
        <time>2014-02-16T09:26:56+00:00</time>
      </trkpt>
      <trkpt lat="47.31308" lon="-0.59092">
        <ele>84</ele>
        <time>2014-02-16T09:26:58+00:00</time>
      </trkpt>
      <trkpt lat="47.31311" lon="-0.59089">
        <ele>84</ele>
        <time>2014-02-16T09:26:59+00:00</time>
      </trkpt>
      <trkpt lat="47.31313" lon="-0.59085">
        <ele>83</ele>
        <time>2014-02-16T09:27:00+00:00</time>
      </trkpt>
      <trkpt lat="47.31368" lon="-0.59011">
        <ele>89</ele>
        <time>2014-02-16T09:27:21+00:00</time>
      </trkpt>
      <trkpt lat="47.31371" lon="-0.59008">
        <ele>89</ele>
        <time>2014-02-16T09:27:22+00:00</time>
      </trkpt>
      <trkpt lat="47.31437" lon="-0.58922">
        <ele>89</ele>
        <time>2014-02-16T09:27:48+00:00</time>
      </trkpt>
      <trkpt lat="47.3144" lon="-0.58918">
        <ele>90</ele>
        <time>2014-02-16T09:27:49+00:00</time>
      </trkpt>
      <trkpt lat="47.31491" lon="-0.58846">
        <ele>92</ele>
        <time>2014-02-16T09:28:12+00:00</time>
      </trkpt>
      <trkpt lat="47.31492" lon="-0.58844">
        <ele>93</ele>
        <time>2014-02-16T09:28:13+00:00</time>
      </trkpt>
      <trkpt lat="47.31502" lon="-0.58827">
        <ele>93</ele>
        <time>2014-02-16T09:28:19+00:00</time>
      </trkpt>
      <trkpt lat="47.31503" lon="-0.58823">
        <ele>93</ele>
        <time>2014-02-16T09:28:20+00:00</time>
      </trkpt>
      <trkpt lat="47.3152" lon="-0.58799">
        <ele>95</ele>
        <time>2014-02-16T09:28:30+00:00</time>
      </trkpt>
      <trkpt lat="47.31522" lon="-0.58796">
        <ele>95</ele>
        <time>2014-02-16T09:28:31+00:00</time>
      </trkpt>
      <trkpt lat="47.3155" lon="-0.5876">
        <ele>97</ele>
        <time>2014-02-16T09:28:49+00:00</time>
      </trkpt>
      <trkpt lat="47.31552" lon="-0.58757">
        <ele>97</ele>
        <time>2014-02-16T09:28:50+00:00</time>
      </trkpt>
      <trkpt lat="47.31554" lon="-0.58755">
        <ele>97</ele>
        <time>2014-02-16T09:28:52+00:00</time>
      </trkpt>
      <trkpt lat="47.31556" lon="-0.58753">
        <ele>97</ele>
        <time>2014-02-16T09:28:53+00:00</time>
      </trkpt>
      <trkpt lat="47.3157" lon="-0.58733">
        <ele>99</ele>
        <time>2014-02-16T09:29:04+00:00</time>
      </trkpt>
      <trkpt lat="47.31572" lon="-0.58732">
        <ele>100</ele>
        <time>2014-02-16T09:29:05+00:00</time>
      </trkpt>
      <trkpt lat="47.31574" lon="-0.58729">
        <ele>99</ele>
        <time>2014-02-16T09:29:07+00:00</time>
      </trkpt>
      <trkpt lat="47.31576" lon="-0.58727">
        <ele>100</ele>
        <time>2014-02-16T09:29:08+00:00</time>
      </trkpt>
      <trkpt lat="47.31581" lon="-0.5872">
        <ele>100</ele>
        <time>2014-02-16T09:29:12+00:00</time>
      </trkpt>
      <trkpt lat="47.31583" lon="-0.58718">
        <ele>100</ele>
        <time>2014-02-16T09:29:13+00:00</time>
      </trkpt>
      <trkpt lat="47.31591" lon="-0.58709">
        <ele>100</ele>
        <time>2014-02-16T09:29:18+00:00</time>
      </trkpt>
      <trkpt lat="47.31593" lon="-0.58708">
        <ele>100</ele>
        <time>2014-02-16T09:29:19+00:00</time>
      </trkpt>
      <trkpt lat="47.316" lon="-0.587">
        <ele>100</ele>
        <time>2014-02-16T09:29:24+00:00</time>
      </trkpt>
      <trkpt lat="47.31602" lon="-0.58699">
        <ele>100</ele>
        <time>2014-02-16T09:29:25+00:00</time>
      </trkpt>
      <trkpt lat="47.31603" lon="-0.58697">
        <ele>101</ele>
        <time>2014-02-16T09:29:26+00:00</time>
      </trkpt>
      <trkpt lat="47.31604" lon="-0.58695">
        <ele>101</ele>
        <time>2014-02-16T09:29:27+00:00</time>
      </trkpt>
      <trkpt lat="47.31607" lon="-0.58692">
        <ele>101</ele>
        <time>2014-02-16T09:29:29+00:00</time>
      </trkpt>
      <trkpt lat="47.31608" lon="-0.5869">
        <ele>102</ele>
        <time>2014-02-16T09:29:30+00:00</time>
      </trkpt>
      <trkpt lat="47.31608" lon="-0.58687">
        <ele>101</ele>
        <time>2014-02-16T09:29:31+00:00</time>
      </trkpt>
      <trkpt lat="47.31608" lon="-0.58685">
        <ele>101</ele>
        <time>2014-02-16T09:29:32+00:00</time>
      </trkpt>
      <trkpt lat="47.31608" lon="-0.58683">
        <ele>101</ele>
        <time>2014-02-16T09:29:33+00:00</time>
      </trkpt>
      <trkpt lat="47.31603" lon="-0.58661">
        <ele>102</ele>
        <time>2014-02-16T09:29:41+00:00</time>
      </trkpt>
      <trkpt lat="47.31602" lon="-0.58659">
        <ele>104</ele>
        <time>2014-02-16T09:29:42+00:00</time>
      </trkpt>
      <trkpt lat="47.31603" lon="-0.58655">
        <ele>104</ele>
        <time>2014-02-16T09:29:43+00:00</time>
      </trkpt>
      <trkpt lat="47.31604" lon="-0.58652">
        <ele>103</ele>
        <time>2014-02-16T09:29:44+00:00</time>
      </trkpt>
      <trkpt lat="47.31605" lon="-0.58649">
        <ele>103</ele>
        <time>2014-02-16T09:29:45+00:00</time>
      </trkpt>
      <trkpt lat="47.31607" lon="-0.58646">
        <ele>101</ele>
        <time>2014-02-16T09:29:46+00:00</time>
      </trkpt>
      <trkpt lat="47.3161" lon="-0.58644">
        <ele>101</ele>
        <time>2014-02-16T09:29:47+00:00</time>
      </trkpt>
      <trkpt lat="47.31612" lon="-0.58643">
        <ele>102</ele>
        <time>2014-02-16T09:29:48+00:00</time>
      </trkpt>
      <trkpt lat="47.31614" lon="-0.58642">
        <ele>102</ele>
        <time>2014-02-16T09:29:49+00:00</time>
      </trkpt>
      <trkpt lat="47.31617" lon="-0.58641">
        <ele>102</ele>
        <time>2014-02-16T09:29:50+00:00</time>
      </trkpt>
      <trkpt lat="47.3162" lon="-0.5864">
        <ele>103</ele>
        <time>2014-02-16T09:29:51+00:00</time>
      </trkpt>
      <trkpt lat="47.31621" lon="-0.5864">
        <ele>103</ele>
        <time>2014-02-16T09:29:52+00:00</time>
      </trkpt>
      <trkpt lat="47.31623" lon="-0.5864">
        <ele>103</ele>
        <time>2014-02-16T09:29:53+00:00</time>
      </trkpt>
      <trkpt lat="47.31633" lon="-0.58639">
        <ele>104</ele>
        <time>2014-02-16T09:29:57+00:00</time>
      </trkpt>
      <trkpt lat="47.31636" lon="-0.58639">
        <ele>104</ele>
        <time>2014-02-16T09:29:58+00:00</time>
      </trkpt>
      <trkpt lat="47.31637" lon="-0.5864">
        <ele>103</ele>
        <time>2014-02-16T09:29:59+00:00</time>
      </trkpt>
      <trkpt lat="47.3164" lon="-0.58641">
        <ele>103</ele>
        <time>2014-02-16T09:30:00+00:00</time>
      </trkpt>
      <trkpt lat="47.31652" lon="-0.58643">
        <ele>103</ele>
        <time>2014-02-16T09:30:05+00:00</time>
      </trkpt>
      <trkpt lat="47.31654" lon="-0.58643">
        <ele>102</ele>
        <time>2014-02-16T09:30:06+00:00</time>
      </trkpt>
      <trkpt lat="47.31656" lon="-0.58643">
        <ele>102</ele>
        <time>2014-02-16T09:30:07+00:00</time>
      </trkpt>
      <trkpt lat="47.31664" lon="-0.58643">
        <ele>104</ele>
        <time>2014-02-16T09:30:10+00:00</time>
      </trkpt>
      <trkpt lat="47.31666" lon="-0.58642">
        <ele>104</ele>
        <time>2014-02-16T09:30:11+00:00</time>
      </trkpt>
      <trkpt lat="47.31686" lon="-0.5864">
        <ele>107</ele>
        <time>2014-02-16T09:30:20+00:00</time>
      </trkpt>
      <trkpt lat="47.31688" lon="-0.58639">
        <ele>107</ele>
        <time>2014-02-16T09:30:21+00:00</time>
      </trkpt>
      <trkpt lat="47.31712" lon="-0.58632">
        <ele>108</ele>
        <time>2014-02-16T09:30:31+00:00</time>
      </trkpt>
      <trkpt lat="47.31715" lon="-0.5863">
        <ele>109</ele>
        <time>2014-02-16T09:30:32+00:00</time>
      </trkpt>
      <trkpt lat="47.31717" lon="-0.5863">
        <ele>109</ele>
        <time>2014-02-16T09:30:33+00:00</time>
      </trkpt>
      <trkpt lat="47.31719" lon="-0.58629">
        <ele>110</ele>
        <time>2014-02-16T09:30:34+00:00</time>
      </trkpt>
      <trkpt lat="47.31725" lon="-0.58628">
        <ele>110</ele>
        <time>2014-02-16T09:30:36+00:00</time>
      </trkpt>
      <trkpt lat="47.31728" lon="-0.58627">
        <ele>109</ele>
        <time>2014-02-16T09:30:37+00:00</time>
      </trkpt>
      <trkpt lat="47.31744" lon="-0.58621">
        <ele>106</ele>
        <time>2014-02-16T09:30:43+00:00</time>
      </trkpt>
      <trkpt lat="47.31747" lon="-0.5862">
        <ele>107</ele>
        <time>2014-02-16T09:30:44+00:00</time>
      </trkpt>
      <trkpt lat="47.31749" lon="-0.5862">
        <ele>105</ele>
        <time>2014-02-16T09:30:45+00:00</time>
      </trkpt>
      <trkpt lat="47.31752" lon="-0.58618">
        <ele>105</ele>
        <time>2014-02-16T09:30:46+00:00</time>
      </trkpt>
      <trkpt lat="47.31764" lon="-0.58613">
        <ele>106</ele>
        <time>2014-02-16T09:30:50+00:00</time>
      </trkpt>
      <trkpt lat="47.31768" lon="-0.58612">
        <ele>107</ele>
        <time>2014-02-16T09:30:51+00:00</time>
      </trkpt>
      <trkpt lat="47.31771" lon="-0.58611">
        <ele>108</ele>
        <time>2014-02-16T09:30:52+00:00</time>
      </trkpt>
      <trkpt lat="47.3178" lon="-0.58607">
        <ele>110</ele>
        <time>2014-02-16T09:30:55+00:00</time>
      </trkpt>
      <trkpt lat="47.31783" lon="-0.58606">
        <ele>111</ele>
        <time>2014-02-16T09:30:56+00:00</time>
      </trkpt>
      <trkpt lat="47.31794" lon="-0.58604">
        <ele>111</ele>
        <time>2014-02-16T09:30:59+00:00</time>
      </trkpt>
      <trkpt lat="47.31798" lon="-0.58604">
        <ele>111</ele>
        <time>2014-02-16T09:31:00+00:00</time>
      </trkpt>
      <trkpt lat="47.31805" lon="-0.58602">
        <ele>110</ele>
        <time>2014-02-16T09:31:02+00:00</time>
      </trkpt>
      <trkpt lat="47.31809" lon="-0.58602">
        <ele>109</ele>
        <time>2014-02-16T09:31:03+00:00</time>
      </trkpt>
      <trkpt lat="47.31812" lon="-0.58602">
        <ele>109</ele>
        <time>2014-02-16T09:31:04+00:00</time>
      </trkpt>
      <trkpt lat="47.31815" lon="-0.58601">
        <ele>108</ele>
        <time>2014-02-16T09:31:05+00:00</time>
      </trkpt>
      <trkpt lat="47.31824" lon="-0.58597">
        <ele>111</ele>
        <time>2014-02-16T09:31:08+00:00</time>
      </trkpt>
      <trkpt lat="47.31828" lon="-0.58596">
        <ele>110</ele>
        <time>2014-02-16T09:31:09+00:00</time>
      </trkpt>
      <trkpt lat="47.31831" lon="-0.58596">
        <ele>110</ele>
        <time>2014-02-16T09:31:10+00:00</time>
      </trkpt>
      <trkpt lat="47.31995" lon="-0.58538">
        <ele>107</ele>
        <time>2014-02-16T09:31:43+00:00</time>
      </trkpt>
      <trkpt lat="47.32002" lon="-0.58535">
        <ele>107</ele>
        <time>2014-02-16T09:31:44+00:00</time>
      </trkpt>
      <trkpt lat="47.32084" lon="-0.58508">
        <ele>98</ele>
        <time>2014-02-16T09:31:56+00:00</time>
      </trkpt>
      <trkpt lat="47.32091" lon="-0.58505">
        <ele>99</ele>
        <time>2014-02-16T09:31:57+00:00</time>
      </trkpt>
      <trkpt lat="47.32383" lon="-0.58405">
        <ele>96</ele>
        <time>2014-02-16T09:32:39+00:00</time>
      </trkpt>
      <trkpt lat="47.32389" lon="-0.58404">
        <ele>93</ele>
        <time>2014-02-16T09:32:40+00:00</time>
      </trkpt>
      <trkpt lat="47.32432" lon="-0.58391">
        <ele>92</ele>
        <time>2014-02-16T09:32:48+00:00</time>
      </trkpt>
      <trkpt lat="47.32437" lon="-0.58389">
        <ele>93</ele>
        <time>2014-02-16T09:32:49+00:00</time>
      </trkpt>
      <trkpt lat="47.32542" lon="-0.58352">
        <ele>97</ele>
        <time>2014-02-16T09:33:13+00:00</time>
      </trkpt>
      <trkpt lat="47.32547" lon="-0.58351">
        <ele>98</ele>
        <time>2014-02-16T09:33:14+00:00</time>
      </trkpt>
      <trkpt lat="47.32565" lon="-0.58347">
        <ele>98</ele>
        <time>2014-02-16T09:33:19+00:00</time>
      </trkpt>
      <trkpt lat="47.3257" lon="-0.58345">
        <ele>98</ele>
        <time>2014-02-16T09:33:20+00:00</time>
      </trkpt>
      <trkpt lat="47.32757" lon="-0.58281">
        <ele>92</ele>
        <time>2014-02-16T09:34:05+00:00</time>
      </trkpt>
      <trkpt lat="47.32761" lon="-0.5828">
        <ele>95</ele>
        <time>2014-02-16T09:34:06+00:00</time>
      </trkpt>
      <trkpt lat="47.32801" lon="-0.58267">
        <ele>93</ele>
        <time>2014-02-16T09:34:15+00:00</time>
      </trkpt>
      <trkpt lat="47.32806" lon="-0.58265">
        <ele>93</ele>
        <time>2014-02-16T09:34:16+00:00</time>
      </trkpt>
      <trkpt lat="47.32841" lon="-0.58251">
        <ele>91</ele>
        <time>2014-02-16T09:34:24+00:00</time>
      </trkpt>
      <trkpt lat="47.32844" lon="-0.58249">
        <ele>90</ele>
        <time>2014-02-16T09:34:25+00:00</time>
      </trkpt>
      <trkpt lat="47.32845" lon="-0.58247">
        <ele>90</ele>
        <time>2014-02-16T09:34:26+00:00</time>
      </trkpt>
      <trkpt lat="47.32846" lon="-0.58244">
        <ele>90</ele>
        <time>2014-02-16T09:34:27+00:00</time>
      </trkpt>
      <trkpt lat="47.32847" lon="-0.58242">
        <ele>89</ele>
        <time>2014-02-16T09:34:28+00:00</time>
      </trkpt>
      <trkpt lat="47.32847" lon="-0.58241">
        <ele>90</ele>
        <time>2014-02-16T09:34:29+00:00</time>
      </trkpt>
      <trkpt lat="47.32848" lon="-0.58237">
        <ele>90</ele>
        <time>2014-02-16T09:34:31+00:00</time>
      </trkpt>
      <trkpt lat="47.32848" lon="-0.58235">
        <ele>91</ele>
        <time>2014-02-16T09:34:32+00:00</time>
      </trkpt>
      <trkpt lat="47.32841" lon="-0.58204">
        <ele>95</ele>
        <time>2014-02-16T09:34:40+00:00</time>
      </trkpt>
      <trkpt lat="47.3284" lon="-0.58198">
        <ele>96</ele>
        <time>2014-02-16T09:34:41+00:00</time>
      </trkpt>
      <trkpt lat="47.32812" lon="-0.58016">
        <ele>92</ele>
        <time>2014-02-16T09:35:11+00:00</time>
      </trkpt>
      <trkpt lat="47.32812" lon="-0.5801">
        <ele>90</ele>
        <time>2014-02-16T09:35:12+00:00</time>
      </trkpt>
      <trkpt lat="47.32812" lon="-0.57995">
        <ele>87</ele>
        <time>2014-02-16T09:35:14+00:00</time>
      </trkpt>
      <trkpt lat="47.32812" lon="-0.57988">
        <ele>86</ele>
        <time>2014-02-16T09:35:15+00:00</time>
      </trkpt>
      <trkpt lat="47.32828" lon="-0.57852">
        <ele>83</ele>
        <time>2014-02-16T09:35:33+00:00</time>
      </trkpt>
      <trkpt lat="47.3283" lon="-0.57845">
        <ele>83</ele>
        <time>2014-02-16T09:35:34+00:00</time>
      </trkpt>
      <trkpt lat="47.32837" lon="-0.57826">
        <ele>84</ele>
        <time>2014-02-16T09:35:37+00:00</time>
      </trkpt>
      <trkpt lat="47.3284" lon="-0.5782">
        <ele>82</ele>
        <time>2014-02-16T09:35:38+00:00</time>
      </trkpt>
      <trkpt lat="47.3287" lon="-0.57756">
        <ele>86</ele>
        <time>2014-02-16T09:35:49+00:00</time>
      </trkpt>
      <trkpt lat="47.32873" lon="-0.57749">
        <ele>86</ele>
        <time>2014-02-16T09:35:50+00:00</time>
      </trkpt>
      <trkpt lat="47.32879" lon="-0.57732">
        <ele>85</ele>
        <time>2014-02-16T09:35:53+00:00</time>
      </trkpt>
      <trkpt lat="47.3288" lon="-0.57724">
        <ele>83</ele>
        <time>2014-02-16T09:35:54+00:00</time>
      </trkpt>
      <trkpt lat="47.32881" lon="-0.57717">
        <ele>83</ele>
        <time>2014-02-16T09:35:55+00:00</time>
      </trkpt>
      <trkpt lat="47.3288" lon="-0.57712">
        <ele>84</ele>
        <time>2014-02-16T09:35:56+00:00</time>
      </trkpt>
      <trkpt lat="47.32878" lon="-0.57707">
        <ele>85</ele>
        <time>2014-02-16T09:35:57+00:00</time>
      </trkpt>
      <trkpt lat="47.32876" lon="-0.57702">
        <ele>86</ele>
        <time>2014-02-16T09:35:58+00:00</time>
      </trkpt>
      <trkpt lat="47.32874" lon="-0.57699">
        <ele>84</ele>
        <time>2014-02-16T09:35:59+00:00</time>
      </trkpt>
      <trkpt lat="47.32869" lon="-0.57692">
        <ele>78</ele>
        <time>2014-02-16T09:36:01+00:00</time>
      </trkpt>
      <trkpt lat="47.32868" lon="-0.5769">
        <ele>76</ele>
        <time>2014-02-16T09:36:02+00:00</time>
      </trkpt>
      <trkpt lat="47.32836" lon="-0.57659">
        <ele>87</ele>
        <time>2014-02-16T09:36:14+00:00</time>
      </trkpt>
      <trkpt lat="47.32833" lon="-0.57655">
        <ele>86</ele>
        <time>2014-02-16T09:36:15+00:00</time>
      </trkpt>
      <trkpt lat="47.32828" lon="-0.57649">
        <ele>85</ele>
        <time>2014-02-16T09:36:17+00:00</time>
      </trkpt>
      <trkpt lat="47.32825" lon="-0.57645">
        <ele>84</ele>
        <time>2014-02-16T09:36:18+00:00</time>
      </trkpt>
      <trkpt lat="47.32822" lon="-0.57642">
        <ele>84</ele>
        <time>2014-02-16T09:36:19+00:00</time>
      </trkpt>
      <trkpt lat="47.3282" lon="-0.57637">
        <ele>84</ele>
        <time>2014-02-16T09:36:20+00:00</time>
      </trkpt>
      <trkpt lat="47.32818" lon="-0.57628">
        <ele>83</ele>
        <time>2014-02-16T09:36:22+00:00</time>
      </trkpt>
      <trkpt lat="47.32818" lon="-0.57623">
        <ele>82</ele>
        <time>2014-02-16T09:36:23+00:00</time>
      </trkpt>
      <trkpt lat="47.32805" lon="-0.57536">
        <ele>85</ele>
        <time>2014-02-16T09:36:38+00:00</time>
      </trkpt>
      <trkpt lat="47.32804" lon="-0.5753">
        <ele>85</ele>
        <time>2014-02-16T09:36:39+00:00</time>
      </trkpt>
      <trkpt lat="47.32786" lon="-0.57435">
        <ele>85</ele>
        <time>2014-02-16T09:36:58+00:00</time>
      </trkpt>
      <trkpt lat="47.32786" lon="-0.57431">
        <ele>86</ele>
        <time>2014-02-16T09:36:59+00:00</time>
      </trkpt>
      <trkpt lat="47.32783" lon="-0.57373">
        <ele>91</ele>
        <time>2014-02-16T09:37:18+00:00</time>
      </trkpt>
      <trkpt lat="47.32782" lon="-0.57371">
        <ele>92</ele>
        <time>2014-02-16T09:37:19+00:00</time>
      </trkpt>
      <trkpt lat="47.3278" lon="-0.57367">
        <ele>94</ele>
        <time>2014-02-16T09:37:21+00:00</time>
      </trkpt>
      <trkpt lat="47.3278" lon="-0.57364">
        <ele>94</ele>
        <time>2014-02-16T09:37:22+00:00</time>
      </trkpt>
      <trkpt lat="47.32776" lon="-0.57359">
        <ele>90</ele>
        <time>2014-02-16T09:37:24+00:00</time>
      </trkpt>
      <trkpt lat="47.32774" lon="-0.57357">
        <ele>91</ele>
        <time>2014-02-16T09:37:25+00:00</time>
      </trkpt>
      <trkpt lat="47.32768" lon="-0.57351">
        <ele>87</ele>
        <time>2014-02-16T09:37:28+00:00</time>
      </trkpt>
      <trkpt lat="47.32766" lon="-0.57349">
        <ele>88</ele>
        <time>2014-02-16T09:37:29+00:00</time>
      </trkpt>
      <trkpt lat="47.32748" lon="-0.57339">
        <ele>90</ele>
        <time>2014-02-16T09:37:37+00:00</time>
      </trkpt>
      <trkpt lat="47.32746" lon="-0.57337">
        <ele>90</ele>
        <time>2014-02-16T09:37:38+00:00</time>
      </trkpt>
      <trkpt lat="47.32711" lon="-0.57323">
        <ele>88</ele>
        <time>2014-02-16T09:37:50+00:00</time>
      </trkpt>
      <trkpt lat="47.32708" lon="-0.57322">
        <ele>88</ele>
        <time>2014-02-16T09:37:51+00:00</time>
      </trkpt>
      <trkpt lat="47.32706" lon="-0.57321">
        <ele>88</ele>
        <time>2014-02-16T09:37:52+00:00</time>
      </trkpt>
      <trkpt lat="47.32703" lon="-0.57319">
        <ele>88</ele>
        <time>2014-02-16T09:37:53+00:00</time>
      </trkpt>
      <trkpt lat="47.327" lon="-0.57318">
        <ele>89</ele>
        <time>2014-02-16T09:37:54+00:00</time>
      </trkpt>
      <trkpt lat="47.32696" lon="-0.57315">
        <ele>87</ele>
        <time>2014-02-16T09:37:56+00:00</time>
      </trkpt>
      <trkpt lat="47.32694" lon="-0.57313">
        <ele>88</ele>
        <time>2014-02-16T09:37:57+00:00</time>
      </trkpt>
      <trkpt lat="47.32692" lon="-0.57311">
        <ele>91</ele>
        <time>2014-02-16T09:37:58+00:00</time>
      </trkpt>
      <trkpt lat="47.32691" lon="-0.57308">
        <ele>94</ele>
        <time>2014-02-16T09:37:59+00:00</time>
      </trkpt>
      <trkpt lat="47.32682" lon="-0.57295">
        <ele>96</ele>
        <time>2014-02-16T09:38:04+00:00</time>
      </trkpt>
      <trkpt lat="47.32681" lon="-0.57291">
        <ele>99</ele>
        <time>2014-02-16T09:38:05+00:00</time>
      </trkpt>
      <trkpt lat="47.32679" lon="-0.57287">
        <ele>100</ele>
        <time>2014-02-16T09:38:06+00:00</time>
      </trkpt>
      <trkpt lat="47.32676" lon="-0.57281">
        <ele>100</ele>
        <time>2014-02-16T09:38:08+00:00</time>
      </trkpt>
      <trkpt lat="47.32676" lon="-0.57278">
        <ele>99</ele>
        <time>2014-02-16T09:38:09+00:00</time>
      </trkpt>
      <trkpt lat="47.32674" lon="-0.57275">
        <ele>99</ele>
        <time>2014-02-16T09:38:10+00:00</time>
      </trkpt>
      <trkpt lat="47.32672" lon="-0.57272">
        <ele>97</ele>
        <time>2014-02-16T09:38:11+00:00</time>
      </trkpt>
      <trkpt lat="47.3267" lon="-0.57267">
        <ele>97</ele>
        <time>2014-02-16T09:38:12+00:00</time>
      </trkpt>
      <trkpt lat="47.32668" lon="-0.57258">
        <ele>99</ele>
        <time>2014-02-16T09:38:14+00:00</time>
      </trkpt>
      <trkpt lat="47.32666" lon="-0.57254">
        <ele>100</ele>
        <time>2014-02-16T09:38:15+00:00</time>
      </trkpt>
      <trkpt lat="47.32662" lon="-0.57247">
        <ele>98</ele>
        <time>2014-02-16T09:38:17+00:00</time>
      </trkpt>
      <trkpt lat="47.32661" lon="-0.57244">
        <ele>98</ele>
        <time>2014-02-16T09:38:18+00:00</time>
      </trkpt>
      <trkpt lat="47.32655" lon="-0.57229">
        <ele>99</ele>
        <time>2014-02-16T09:38:22+00:00</time>
      </trkpt>
      <trkpt lat="47.32654" lon="-0.57227">
        <ele>99</ele>
        <time>2014-02-16T09:38:23+00:00</time>
      </trkpt>
      <trkpt lat="47.32642" lon="-0.57199">
        <ele>104</ele>
        <time>2014-02-16T09:38:31+00:00</time>
      </trkpt>
      <trkpt lat="47.3264" lon="-0.57196">
        <ele>105</ele>
        <time>2014-02-16T09:38:32+00:00</time>
      </trkpt>
      <trkpt lat="47.32638" lon="-0.57191">
        <ele>107</ele>
        <time>2014-02-16T09:38:33+00:00</time>
      </trkpt>
      <trkpt lat="47.32633" lon="-0.57175">
        <ele>104</ele>
        <time>2014-02-16T09:38:36+00:00</time>
      </trkpt>
      <trkpt lat="47.32631" lon="-0.5717">
        <ele>103</ele>
        <time>2014-02-16T09:38:37+00:00</time>
      </trkpt>
      <trkpt lat="47.3263" lon="-0.57165">
        <ele>105</ele>
        <time>2014-02-16T09:38:38+00:00</time>
      </trkpt>
      <trkpt lat="47.32628" lon="-0.57156">
        <ele>107</ele>
        <time>2014-02-16T09:38:40+00:00</time>
      </trkpt>
      <trkpt lat="47.32627" lon="-0.57152">
        <ele>108</ele>
        <time>2014-02-16T09:38:41+00:00</time>
      </trkpt>
      <trkpt lat="47.32626" lon="-0.57147">
        <ele>108</ele>
        <time>2014-02-16T09:38:42+00:00</time>
      </trkpt>
      <trkpt lat="47.32626" lon="-0.57141">
        <ele>108</ele>
        <time>2014-02-16T09:38:43+00:00</time>
      </trkpt>
      <trkpt lat="47.32625" lon="-0.57136">
        <ele>107</ele>
        <time>2014-02-16T09:38:44+00:00</time>
      </trkpt>
      <trkpt lat="47.32625" lon="-0.57131">
        <ele>107</ele>
        <time>2014-02-16T09:38:45+00:00</time>
      </trkpt>
      <trkpt lat="47.32622" lon="-0.57115">
        <ele>105</ele>
        <time>2014-02-16T09:38:48+00:00</time>
      </trkpt>
      <trkpt lat="47.32621" lon="-0.57109">
        <ele>105</ele>
        <time>2014-02-16T09:38:49+00:00</time>
      </trkpt>
      <trkpt lat="47.32612" lon="-0.57073">
        <ele>102</ele>
        <time>2014-02-16T09:38:55+00:00</time>
      </trkpt>
      <trkpt lat="47.3261" lon="-0.57068">
        <ele>99</ele>
        <time>2014-02-16T09:38:56+00:00</time>
      </trkpt>
      <trkpt lat="47.32606" lon="-0.57057">
        <ele>99</ele>
        <time>2014-02-16T09:38:58+00:00</time>
      </trkpt>
      <trkpt lat="47.32604" lon="-0.57052">
        <ele>97</ele>
        <time>2014-02-16T09:38:59+00:00</time>
      </trkpt>
      <trkpt lat="47.32602" lon="-0.57048">
        <ele>96</ele>
        <time>2014-02-16T09:39:00+00:00</time>
      </trkpt>
      <trkpt lat="47.326" lon="-0.57045">
        <ele>97</ele>
        <time>2014-02-16T09:39:01+00:00</time>
      </trkpt>
      <trkpt lat="47.32597" lon="-0.57044">
        <ele>95</ele>
        <time>2014-02-16T09:39:02+00:00</time>
      </trkpt>
      <trkpt lat="47.32596" lon="-0.57044">
        <ele>95</ele>
        <time>2014-02-16T09:39:03+00:00</time>
      </trkpt>
      <trkpt lat="47.32595" lon="-0.57044">
        <ele>93</ele>
        <time>2014-02-16T09:39:04+00:00</time>
      </trkpt>
      <trkpt lat="47.32593" lon="-0.57045">
        <ele>93</ele>
        <time>2014-02-16T09:39:05+00:00</time>
      </trkpt>
      <trkpt lat="47.32591" lon="-0.57046">
        <ele>93</ele>
        <time>2014-02-16T09:39:06+00:00</time>
      </trkpt>
      <trkpt lat="47.32588" lon="-0.57047">
        <ele>92</ele>
        <time>2014-02-16T09:39:07+00:00</time>
      </trkpt>
      <trkpt lat="47.32587" lon="-0.57048">
        <ele>92</ele>
        <time>2014-02-16T09:39:08+00:00</time>
      </trkpt>
      <trkpt lat="47.32584" lon="-0.57048">
        <ele>93</ele>
        <time>2014-02-16T09:39:09+00:00</time>
      </trkpt>
      <trkpt lat="47.32582" lon="-0.57047">
        <ele>93</ele>
        <time>2014-02-16T09:39:10+00:00</time>
      </trkpt>
      <trkpt lat="47.3258" lon="-0.57046">
        <ele>91</ele>
        <time>2014-02-16T09:39:11+00:00</time>
      </trkpt>
      <trkpt lat="47.32579" lon="-0.57045">
        <ele>92</ele>
        <time>2014-02-16T09:39:12+00:00</time>
      </trkpt>
      <trkpt lat="47.32576" lon="-0.57045">
        <ele>93</ele>
        <time>2014-02-16T09:39:13+00:00</time>
      </trkpt>
      <trkpt lat="47.32573" lon="-0.57044">
        <ele>95</ele>
        <time>2014-02-16T09:39:14+00:00</time>
      </trkpt>
      <trkpt lat="47.32571" lon="-0.57045">
        <ele>94</ele>
        <time>2014-02-16T09:39:15+00:00</time>
      </trkpt>
      <trkpt lat="47.32567" lon="-0.57047">
        <ele>94</ele>
        <time>2014-02-16T09:39:16+00:00</time>
      </trkpt>
      <trkpt lat="47.32564" lon="-0.57049">
        <ele>93</ele>
        <time>2014-02-16T09:39:17+00:00</time>
      </trkpt>
      <trkpt lat="47.32561" lon="-0.5705">
        <ele>93</ele>
        <time>2014-02-16T09:39:18+00:00</time>
      </trkpt>
      <trkpt lat="47.32547" lon="-0.57058">
        <ele>98</ele>
        <time>2014-02-16T09:39:24+00:00</time>
      </trkpt>
      <trkpt lat="47.32544" lon="-0.57059">
        <ele>100</ele>
        <time>2014-02-16T09:39:25+00:00</time>
      </trkpt>
      <trkpt lat="47.32542" lon="-0.5706">
        <ele>99</ele>
        <time>2014-02-16T09:39:26+00:00</time>
      </trkpt>
      <trkpt lat="47.32516" lon="-0.57072">
        <ele>99</ele>
        <time>2014-02-16T09:39:35+00:00</time>
      </trkpt>
      <trkpt lat="47.32514" lon="-0.57073">
        <ele>102</ele>
        <time>2014-02-16T09:39:36+00:00</time>
      </trkpt>
      <trkpt lat="47.32511" lon="-0.57075">
        <ele>102</ele>
        <time>2014-02-16T09:39:37+00:00</time>
      </trkpt>
      <trkpt lat="47.32508" lon="-0.57076">
        <ele>104</ele>
        <time>2014-02-16T09:39:38+00:00</time>
      </trkpt>
      <trkpt lat="47.32505" lon="-0.57078">
        <ele>103</ele>
        <time>2014-02-16T09:39:39+00:00</time>
      </trkpt>
      <trkpt lat="47.32501" lon="-0.57079">
        <ele>103</ele>
        <time>2014-02-16T09:39:40+00:00</time>
      </trkpt>
      <trkpt lat="47.32492" lon="-0.57084">
        <ele>103</ele>
        <time>2014-02-16T09:39:43+00:00</time>
      </trkpt>
      <trkpt lat="47.32491" lon="-0.57085">
        <ele>104</ele>
        <time>2014-02-16T09:39:44+00:00</time>
      </trkpt>
      <trkpt lat="47.32483" lon="-0.57092">
        <ele>105</ele>
        <time>2014-02-16T09:39:48+00:00</time>
      </trkpt>
      <trkpt lat="47.3248" lon="-0.57093">
        <ele>106</ele>
        <time>2014-02-16T09:39:49+00:00</time>
      </trkpt>
      <trkpt lat="47.32476" lon="-0.57097">
        <ele>111</ele>
        <time>2014-02-16T09:39:50+00:00</time>
      </trkpt>
      <trkpt lat="47.32473" lon="-0.57098">
        <ele>110</ele>
        <time>2014-02-16T09:39:51+00:00</time>
      </trkpt>
      <trkpt lat="47.32469" lon="-0.571">
        <ele>108</ele>
        <time>2014-02-16T09:39:52+00:00</time>
      </trkpt>
      <trkpt lat="47.32466" lon="-0.57101">
        <ele>109</ele>
        <time>2014-02-16T09:39:53+00:00</time>
      </trkpt>
      <trkpt lat="47.32462" lon="-0.57105">
        <ele>109</ele>
        <time>2014-02-16T09:39:54+00:00</time>
      </trkpt>
      <trkpt lat="47.32459" lon="-0.57107">
        <ele>110</ele>
        <time>2014-02-16T09:39:55+00:00</time>
      </trkpt>
      <trkpt lat="47.32456" lon="-0.57108">
        <ele>112</ele>
        <time>2014-02-16T09:39:56+00:00</time>
      </trkpt>
      <trkpt lat="47.32451" lon="-0.57109">
        <ele>119</ele>
        <time>2014-02-16T09:39:58+00:00</time>
      </trkpt>
      <trkpt lat="47.32447" lon="-0.5711">
        <ele>122</ele>
        <time>2014-02-16T09:39:59+00:00</time>
      </trkpt>
      <trkpt lat="47.32436" lon="-0.5711">
        <ele>127</ele>
        <time>2014-02-16T09:40:02+00:00</time>
      </trkpt>
      <trkpt lat="47.32434" lon="-0.57109">
        <ele>128</ele>
        <time>2014-02-16T09:40:03+00:00</time>
      </trkpt>
      <trkpt lat="47.3242" lon="-0.57106">
        <ele>126</ele>
        <time>2014-02-16T09:40:07+00:00</time>
      </trkpt>
      <trkpt lat="47.32414" lon="-0.57104">
        <ele>124</ele>
        <time>2014-02-16T09:40:08+00:00</time>
      </trkpt>
      <trkpt lat="47.32405" lon="-0.571">
        <ele>125</ele>
        <time>2014-02-16T09:40:10+00:00</time>
      </trkpt>
      <trkpt lat="47.32402" lon="-0.57099">
        <ele>124</ele>
        <time>2014-02-16T09:40:11+00:00</time>
      </trkpt>
      <trkpt lat="47.32398" lon="-0.57096">
        <ele>125</ele>
        <time>2014-02-16T09:40:12+00:00</time>
      </trkpt>
      <trkpt lat="47.32379" lon="-0.57084">
        <ele>115</ele>
        <time>2014-02-16T09:40:16+00:00</time>
      </trkpt>
      <trkpt lat="47.32374" lon="-0.5708">
        <ele>113</ele>
        <time>2014-02-16T09:40:17+00:00</time>
      </trkpt>
      <trkpt lat="47.3237" lon="-0.57076">
        <ele>112</ele>
        <time>2014-02-16T09:40:18+00:00</time>
      </trkpt>
      <trkpt lat="47.32365" lon="-0.57074">
        <ele>113</ele>
        <time>2014-02-16T09:40:19+00:00</time>
      </trkpt>
      <trkpt lat="47.32363" lon="-0.57071">
        <ele>112</ele>
        <time>2014-02-16T09:40:20+00:00</time>
      </trkpt>
      <trkpt lat="47.32358" lon="-0.57068">
        <ele>108</ele>
        <time>2014-02-16T09:40:21+00:00</time>
      </trkpt>
      <trkpt lat="47.3235" lon="-0.57062">
        <ele>105</ele>
        <time>2014-02-16T09:40:23+00:00</time>
      </trkpt>
      <trkpt lat="47.32346" lon="-0.5706">
        <ele>106</ele>
        <time>2014-02-16T09:40:24+00:00</time>
      </trkpt>
      <trkpt lat="47.32341" lon="-0.57057">
        <ele>104</ele>
        <time>2014-02-16T09:40:25+00:00</time>
      </trkpt>
      <trkpt lat="47.32311" lon="-0.57035">
        <ele>101</ele>
        <time>2014-02-16T09:40:35+00:00</time>
      </trkpt>
      <trkpt lat="47.32308" lon="-0.57032">
        <ele>102</ele>
        <time>2014-02-16T09:40:36+00:00</time>
      </trkpt>
      <trkpt lat="47.32301" lon="-0.57022">
        <ele>103</ele>
        <time>2014-02-16T09:40:39+00:00</time>
      </trkpt>
      <trkpt lat="47.32299" lon="-0.5702">
        <ele>104</ele>
        <time>2014-02-16T09:40:40+00:00</time>
      </trkpt>
      <trkpt lat="47.32292" lon="-0.57013">
        <ele>98</ele>
        <time>2014-02-16T09:40:43+00:00</time>
      </trkpt>
      <trkpt lat="47.32289" lon="-0.57011">
        <ele>98</ele>
        <time>2014-02-16T09:40:44+00:00</time>
      </trkpt>
      <trkpt lat="47.32286" lon="-0.57008">
        <ele>98</ele>
        <time>2014-02-16T09:40:45+00:00</time>
      </trkpt>
      <trkpt lat="47.32284" lon="-0.57006">
        <ele>97</ele>
        <time>2014-02-16T09:40:46+00:00</time>
      </trkpt>
      <trkpt lat="47.3228" lon="-0.57001">
        <ele>98</ele>
        <time>2014-02-16T09:40:48+00:00</time>
      </trkpt>
      <trkpt lat="47.32277" lon="-0.56999">
        <ele>100</ele>
        <time>2014-02-16T09:40:49+00:00</time>
      </trkpt>
      <trkpt lat="47.32276" lon="-0.56996">
        <ele>97</ele>
        <time>2014-02-16T09:40:50+00:00</time>
      </trkpt>
      <trkpt lat="47.32274" lon="-0.56994">
        <ele>95</ele>
        <time>2014-02-16T09:40:51+00:00</time>
      </trkpt>
      <trkpt lat="47.32269" lon="-0.56988">
        <ele>97</ele>
        <time>2014-02-16T09:40:53+00:00</time>
      </trkpt>
      <trkpt lat="47.32268" lon="-0.56986">
        <ele>98</ele>
        <time>2014-02-16T09:40:54+00:00</time>
      </trkpt>
      <trkpt lat="47.32265" lon="-0.56984">
        <ele>101</ele>
        <time>2014-02-16T09:40:55+00:00</time>
      </trkpt>
      <trkpt lat="47.32263" lon="-0.56982">
        <ele>101</ele>
        <time>2014-02-16T09:40:56+00:00</time>
      </trkpt>
      <trkpt lat="47.32261" lon="-0.5698">
        <ele>102</ele>
        <time>2014-02-16T09:40:57+00:00</time>
      </trkpt>
      <trkpt lat="47.32259" lon="-0.56979">
        <ele>102</ele>
        <time>2014-02-16T09:40:58+00:00</time>
      </trkpt>
      <trkpt lat="47.32256" lon="-0.56977">
        <ele>98</ele>
        <time>2014-02-16T09:40:59+00:00</time>
      </trkpt>
      <trkpt lat="47.32253" lon="-0.56976">
        <ele>98</ele>
        <time>2014-02-16T09:41:00+00:00</time>
      </trkpt>
      <trkpt lat="47.32249" lon="-0.56972">
        <ele>95</ele>
        <time>2014-02-16T09:41:02+00:00</time>
      </trkpt>
      <trkpt lat="47.32245" lon="-0.56971">
        <ele>94</ele>
        <time>2014-02-16T09:41:03+00:00</time>
      </trkpt>
      <trkpt lat="47.32238" lon="-0.56968">
        <ele>95</ele>
        <time>2014-02-16T09:41:05+00:00</time>
      </trkpt>
      <trkpt lat="47.32234" lon="-0.56964">
        <ele>94</ele>
        <time>2014-02-16T09:41:06+00:00</time>
      </trkpt>
      <trkpt lat="47.32224" lon="-0.56957">
        <ele>100</ele>
        <time>2014-02-16T09:41:09+00:00</time>
      </trkpt>
      <trkpt lat="47.3222" lon="-0.56956">
        <ele>99</ele>
        <time>2014-02-16T09:41:10+00:00</time>
      </trkpt>
      <trkpt lat="47.32216" lon="-0.56953">
        <ele>100</ele>
        <time>2014-02-16T09:41:11+00:00</time>
      </trkpt>
      <trkpt lat="47.32213" lon="-0.5695">
        <ele>100</ele>
        <time>2014-02-16T09:41:12+00:00</time>
      </trkpt>
      <trkpt lat="47.3221" lon="-0.56947">
        <ele>101</ele>
        <time>2014-02-16T09:41:13+00:00</time>
      </trkpt>
      <trkpt lat="47.32204" lon="-0.5694">
        <ele>99</ele>
        <time>2014-02-16T09:41:15+00:00</time>
      </trkpt>
      <trkpt lat="47.32199" lon="-0.56937">
        <ele>100</ele>
        <time>2014-02-16T09:41:16+00:00</time>
      </trkpt>
      <trkpt lat="47.32196" lon="-0.56934">
        <ele>98</ele>
        <time>2014-02-16T09:41:17+00:00</time>
      </trkpt>
      <trkpt lat="47.32194" lon="-0.56931">
        <ele>98</ele>
        <time>2014-02-16T09:41:18+00:00</time>
      </trkpt>
      <trkpt lat="47.32191" lon="-0.56929">
        <ele>99</ele>
        <time>2014-02-16T09:41:19+00:00</time>
      </trkpt>
      <trkpt lat="47.32186" lon="-0.56924">
        <ele>93</ele>
        <time>2014-02-16T09:41:22+00:00</time>
      </trkpt>
      <trkpt lat="47.32184" lon="-0.56922">
        <ele>92</ele>
        <time>2014-02-16T09:41:23+00:00</time>
      </trkpt>
      <trkpt lat="47.32183" lon="-0.5692">
        <ele>95</ele>
        <time>2014-02-16T09:41:24+00:00</time>
      </trkpt>
      <trkpt lat="47.3218" lon="-0.56916">
        <ele>96</ele>
        <time>2014-02-16T09:41:27+00:00</time>
      </trkpt>
      <trkpt lat="47.32179" lon="-0.56914">
        <ele>98</ele>
        <time>2014-02-16T09:41:28+00:00</time>
      </trkpt>
      <trkpt lat="47.32178" lon="-0.56912">
        <ele>98</ele>
        <time>2014-02-16T09:41:29+00:00</time>
      </trkpt>
      <trkpt lat="47.32177" lon="-0.56911">
        <ele>100</ele>
        <time>2014-02-16T09:41:30+00:00</time>
      </trkpt>
      <trkpt lat="47.32176" lon="-0.56909">
        <ele>101</ele>
        <time>2014-02-16T09:41:31+00:00</time>
      </trkpt>
      <trkpt lat="47.32174" lon="-0.56908">
        <ele>105</ele>
        <time>2014-02-16T09:41:32+00:00</time>
      </trkpt>
      <trkpt lat="47.32173" lon="-0.56908">
        <ele>109</ele>
        <time>2014-02-16T09:41:33+00:00</time>
      </trkpt>
      <trkpt lat="47.32172" lon="-0.56907">
        <ele>111</ele>
        <time>2014-02-16T09:41:34+00:00</time>
      </trkpt>
      <trkpt lat="47.32169" lon="-0.56907">
        <ele>111</ele>
        <time>2014-02-16T09:41:35+00:00</time>
      </trkpt>
      <trkpt lat="47.32168" lon="-0.56905">
        <ele>112</ele>
        <time>2014-02-16T09:41:36+00:00</time>
      </trkpt>
      <trkpt lat="47.32166" lon="-0.56903">
        <ele>107</ele>
        <time>2014-02-16T09:41:37+00:00</time>
      </trkpt>
      <trkpt lat="47.32164" lon="-0.56901">
        <ele>108</ele>
        <time>2014-02-16T09:41:38+00:00</time>
      </trkpt>
      <trkpt lat="47.32163" lon="-0.569">
        <ele>107</ele>
        <time>2014-02-16T09:41:39+00:00</time>
      </trkpt>
      <trkpt lat="47.32161" lon="-0.56899">
        <ele>109</ele>
        <time>2014-02-16T09:41:40+00:00</time>
      </trkpt>
      <trkpt lat="47.32159" lon="-0.56897">
        <ele>111</ele>
        <time>2014-02-16T09:41:41+00:00</time>
      </trkpt>
      <trkpt lat="47.32157" lon="-0.56895">
        <ele>111</ele>
        <time>2014-02-16T09:41:42+00:00</time>
      </trkpt>
      <trkpt lat="47.32156" lon="-0.56893">
        <ele>111</ele>
        <time>2014-02-16T09:41:43+00:00</time>
      </trkpt>
      <trkpt lat="47.32153" lon="-0.56892">
        <ele>111</ele>
        <time>2014-02-16T09:41:44+00:00</time>
      </trkpt>
      <trkpt lat="47.32151" lon="-0.5689">
        <ele>112</ele>
        <time>2014-02-16T09:41:45+00:00</time>
      </trkpt>
      <trkpt lat="47.32148" lon="-0.56889">
        <ele>113</ele>
        <time>2014-02-16T09:41:46+00:00</time>
      </trkpt>
      <trkpt lat="47.32147" lon="-0.56887">
        <ele>116</ele>
        <time>2014-02-16T09:41:47+00:00</time>
      </trkpt>
      <trkpt lat="47.3214" lon="-0.56884">
        <ele>114</ele>
        <time>2014-02-16T09:41:50+00:00</time>
      </trkpt>
      <trkpt lat="47.32139" lon="-0.56884">
        <ele>115</ele>
        <time>2014-02-16T09:41:51+00:00</time>
      </trkpt>
      <trkpt lat="47.32139" lon="-0.56883">
        <ele>115</ele>
        <time>2014-02-16T09:41:52+00:00</time>
      </trkpt>
      <trkpt lat="47.32137" lon="-0.56882">
        <ele>115</ele>
        <time>2014-02-16T09:41:53+00:00</time>
      </trkpt>
      <trkpt lat="47.32135" lon="-0.5688">
        <ele>114</ele>
        <time>2014-02-16T09:41:54+00:00</time>
      </trkpt>
      <trkpt lat="47.32133" lon="-0.56879">
        <ele>115</ele>
        <time>2014-02-16T09:41:55+00:00</time>
      </trkpt>
      <trkpt lat="47.32132" lon="-0.56877">
        <ele>116</ele>
        <time>2014-02-16T09:41:56+00:00</time>
      </trkpt>
      <trkpt lat="47.32131" lon="-0.56876">
        <ele>119</ele>
        <time>2014-02-16T09:41:57+00:00</time>
      </trkpt>
      <trkpt lat="47.32129" lon="-0.56875">
        <ele>120</ele>
        <time>2014-02-16T09:41:58+00:00</time>
      </trkpt>
      <trkpt lat="47.32127" lon="-0.56874">
        <ele>120</ele>
        <time>2014-02-16T09:41:59+00:00</time>
      </trkpt>
      <trkpt lat="47.32124" lon="-0.56871">
        <ele>119</ele>
        <time>2014-02-16T09:42:00+00:00</time>
      </trkpt>
      <trkpt lat="47.32123" lon="-0.56869">
        <ele>121</ele>
        <time>2014-02-16T09:42:01+00:00</time>
      </trkpt>
      <trkpt lat="47.3212" lon="-0.56868">
        <ele>119</ele>
        <time>2014-02-16T09:42:02+00:00</time>
      </trkpt>
      <trkpt lat="47.32118" lon="-0.56865">
        <ele>117</ele>
        <time>2014-02-16T09:42:03+00:00</time>
      </trkpt>
      <trkpt lat="47.32116" lon="-0.56863">
        <ele>116</ele>
        <time>2014-02-16T09:42:04+00:00</time>
      </trkpt>
      <trkpt lat="47.32114" lon="-0.56861">
        <ele>114</ele>
        <time>2014-02-16T09:42:05+00:00</time>
      </trkpt>
      <trkpt lat="47.32112" lon="-0.5686">
        <ele>115</ele>
        <time>2014-02-16T09:42:06+00:00</time>
      </trkpt>
      <trkpt lat="47.32111" lon="-0.56858">
        <ele>112</ele>
        <time>2014-02-16T09:42:07+00:00</time>
      </trkpt>
      <trkpt lat="47.32109" lon="-0.56856">
        <ele>109</ele>
        <time>2014-02-16T09:42:08+00:00</time>
      </trkpt>
      <trkpt lat="47.32108" lon="-0.56853">
        <ele>113</ele>
        <time>2014-02-16T09:42:10+00:00</time>
      </trkpt>
      <trkpt lat="47.32107" lon="-0.56852">
        <ele>111</ele>
        <time>2014-02-16T09:42:11+00:00</time>
      </trkpt>
      <trkpt lat="47.32105" lon="-0.5685">
        <ele>112</ele>
        <time>2014-02-16T09:42:12+00:00</time>
      </trkpt>
      <trkpt lat="47.32102" lon="-0.56848">
        <ele>113</ele>
        <time>2014-02-16T09:42:13+00:00</time>
      </trkpt>
      <trkpt lat="47.321" lon="-0.56846">
        <ele>112</ele>
        <time>2014-02-16T09:42:14+00:00</time>
      </trkpt>
      <trkpt lat="47.32099" lon="-0.56844">
        <ele>107</ele>
        <time>2014-02-16T09:42:15+00:00</time>
      </trkpt>
      <trkpt lat="47.32096" lon="-0.56841">
        <ele>106</ele>
        <time>2014-02-16T09:42:16+00:00</time>
      </trkpt>
      <trkpt lat="47.32092" lon="-0.56838">
        <ele>106</ele>
        <time>2014-02-16T09:42:18+00:00</time>
      </trkpt>
      <trkpt lat="47.32092" lon="-0.56838">
        <ele>110</ele>
        <time>2014-02-16T09:42:19+00:00</time>
      </trkpt>
      <trkpt lat="47.3209" lon="-0.56836">
        <ele>105</ele>
        <time>2014-02-16T09:42:21+00:00</time>
      </trkpt>
      <trkpt lat="47.32089" lon="-0.56836">
        <ele>107</ele>
        <time>2014-02-16T09:42:22+00:00</time>
      </trkpt>
      <trkpt lat="47.32087" lon="-0.56835">
        <ele>109</ele>
        <time>2014-02-16T09:42:23+00:00</time>
      </trkpt>
      <trkpt lat="47.32085" lon="-0.56833">
        <ele>109</ele>
        <time>2014-02-16T09:42:25+00:00</time>
      </trkpt>
      <trkpt lat="47.32084" lon="-0.56831">
        <ele>108</ele>
        <time>2014-02-16T09:42:26+00:00</time>
      </trkpt>
      <trkpt lat="47.32083" lon="-0.56829">
        <ele>111</ele>
        <time>2014-02-16T09:42:27+00:00</time>
      </trkpt>
      <trkpt lat="47.32082" lon="-0.56828">
        <ele>113</ele>
        <time>2014-02-16T09:42:28+00:00</time>
      </trkpt>
      <trkpt lat="47.32081" lon="-0.56827">
        <ele>112</ele>
        <time>2014-02-16T09:42:29+00:00</time>
      </trkpt>
      <trkpt lat="47.32078" lon="-0.56825">
        <ele>114</ele>
        <time>2014-02-16T09:42:30+00:00</time>
      </trkpt>
      <trkpt lat="47.32077" lon="-0.56823">
        <ele>109</ele>
        <time>2014-02-16T09:42:31+00:00</time>
      </trkpt>
      <trkpt lat="47.32076" lon="-0.56822">
        <ele>112</ele>
        <time>2014-02-16T09:42:32+00:00</time>
      </trkpt>
      <trkpt lat="47.32074" lon="-0.5682">
        <ele>111</ele>
        <time>2014-02-16T09:42:33+00:00</time>
      </trkpt>
      <trkpt lat="47.32072" lon="-0.56818">
        <ele>114</ele>
        <time>2014-02-16T09:42:34+00:00</time>
      </trkpt>
      <trkpt lat="47.32069" lon="-0.56815">
        <ele>116</ele>
        <time>2014-02-16T09:42:35+00:00</time>
      </trkpt>
      <trkpt lat="47.32068" lon="-0.56813">
        <ele>115</ele>
        <time>2014-02-16T09:42:36+00:00</time>
      </trkpt>
      <trkpt lat="47.32066" lon="-0.56812">
        <ele>116</ele>
        <time>2014-02-16T09:42:37+00:00</time>
      </trkpt>
      <trkpt lat="47.32062" lon="-0.5681">
        <ele>113</ele>
        <time>2014-02-16T09:42:39+00:00</time>
      </trkpt>
      <trkpt lat="47.32061" lon="-0.56809">
        <ele>114</ele>
        <time>2014-02-16T09:42:40+00:00</time>
      </trkpt>
      <trkpt lat="47.3206" lon="-0.56807">
        <ele>109</ele>
        <time>2014-02-16T09:42:41+00:00</time>
      </trkpt>
      <trkpt lat="47.32057" lon="-0.56804">
        <ele>111</ele>
        <time>2014-02-16T09:42:43+00:00</time>
      </trkpt>
      <trkpt lat="47.32056" lon="-0.56802">
        <ele>111</ele>
        <time>2014-02-16T09:42:44+00:00</time>
      </trkpt>
      <trkpt lat="47.32055" lon="-0.56801">
        <ele>115</ele>
        <time>2014-02-16T09:42:45+00:00</time>
      </trkpt>
      <trkpt lat="47.32053" lon="-0.568">
        <ele>110</ele>
        <time>2014-02-16T09:42:46+00:00</time>
      </trkpt>
      <trkpt lat="47.32051" lon="-0.56797">
        <ele>113</ele>
        <time>2014-02-16T09:42:48+00:00</time>
      </trkpt>
      <trkpt lat="47.32049" lon="-0.56796">
        <ele>115</ele>
        <time>2014-02-16T09:42:49+00:00</time>
      </trkpt>
      <trkpt lat="47.32047" lon="-0.56794">
        <ele>114</ele>
        <time>2014-02-16T09:42:50+00:00</time>
      </trkpt>
      <trkpt lat="47.32044" lon="-0.56791">
        <ele>111</ele>
        <time>2014-02-16T09:42:51+00:00</time>
      </trkpt>
      <trkpt lat="47.32044" lon="-0.56789">
        <ele>108</ele>
        <time>2014-02-16T09:42:52+00:00</time>
      </trkpt>
      <trkpt lat="47.32042" lon="-0.56788">
        <ele>108</ele>
        <time>2014-02-16T09:42:53+00:00</time>
      </trkpt>
      <trkpt lat="47.3204" lon="-0.56788">
        <ele>108</ele>
        <time>2014-02-16T09:42:54+00:00</time>
      </trkpt>
      <trkpt lat="47.32039" lon="-0.56787">
        <ele>107</ele>
        <time>2014-02-16T09:42:55+00:00</time>
      </trkpt>
      <trkpt lat="47.32038" lon="-0.56786">
        <ele>105</ele>
        <time>2014-02-16T09:42:56+00:00</time>
      </trkpt>
      <trkpt lat="47.32037" lon="-0.56784">
        <ele>103</ele>
        <time>2014-02-16T09:42:57+00:00</time>
      </trkpt>
      <trkpt lat="47.32036" lon="-0.56783">
        <ele>105</ele>
        <time>2014-02-16T09:42:58+00:00</time>
      </trkpt>
      <trkpt lat="47.32034" lon="-0.56783">
        <ele>106</ele>
        <time>2014-02-16T09:42:59+00:00</time>
      </trkpt>
      <trkpt lat="47.32032" lon="-0.56781">
        <ele>108</ele>
        <time>2014-02-16T09:43:00+00:00</time>
      </trkpt>
      <trkpt lat="47.32031" lon="-0.5678">
        <ele>107</ele>
        <time>2014-02-16T09:43:01+00:00</time>
      </trkpt>
      <trkpt lat="47.32028" lon="-0.56779">
        <ele>109</ele>
        <time>2014-02-16T09:43:02+00:00</time>
      </trkpt>
      <trkpt lat="47.32013" lon="-0.56769">
        <ele>110</ele>
        <time>2014-02-16T09:43:11+00:00</time>
      </trkpt>
      <trkpt lat="47.32012" lon="-0.56768">
        <ele>113</ele>
        <time>2014-02-16T09:43:12+00:00</time>
      </trkpt>
      <trkpt lat="47.3201" lon="-0.56766">
        <ele>118</ele>
        <time>2014-02-16T09:43:13+00:00</time>
      </trkpt>
      <trkpt lat="47.32007" lon="-0.56765">
        <ele>119</ele>
        <time>2014-02-16T09:43:14+00:00</time>
      </trkpt>
      <trkpt lat="47.32005" lon="-0.56764">
        <ele>123</ele>
        <time>2014-02-16T09:43:15+00:00</time>
      </trkpt>
      <trkpt lat="47.32003" lon="-0.56763">
        <ele>121</ele>
        <time>2014-02-16T09:43:16+00:00</time>
      </trkpt>
      <trkpt lat="47.32002" lon="-0.56763">
        <ele>119</ele>
        <time>2014-02-16T09:43:17+00:00</time>
      </trkpt>
      <trkpt lat="47.32001" lon="-0.56763">
        <ele>120</ele>
        <time>2014-02-16T09:43:18+00:00</time>
      </trkpt>
      <trkpt lat="47.32" lon="-0.56762">
        <ele>119</ele>
        <time>2014-02-16T09:43:19+00:00</time>
      </trkpt>
      <trkpt lat="47.31998" lon="-0.56762">
        <ele>119</ele>
        <time>2014-02-16T09:43:20+00:00</time>
      </trkpt>
      <trkpt lat="47.31996" lon="-0.56761">
        <ele>118</ele>
        <time>2014-02-16T09:43:21+00:00</time>
      </trkpt>
      <trkpt lat="47.31993" lon="-0.5676">
        <ele>119</ele>
        <time>2014-02-16T09:43:23+00:00</time>
      </trkpt>
      <trkpt lat="47.31992" lon="-0.5676">
        <ele>123</ele>
        <time>2014-02-16T09:43:24+00:00</time>
      </trkpt>
      <trkpt lat="47.31991" lon="-0.56759">
        <ele>124</ele>
        <time>2014-02-16T09:43:25+00:00</time>
      </trkpt>
      <trkpt lat="47.31989" lon="-0.56759">
        <ele>124</ele>
        <time>2014-02-16T09:43:26+00:00</time>
      </trkpt>
      <trkpt lat="47.31988" lon="-0.56759">
        <ele>119</ele>
        <time>2014-02-16T09:43:27+00:00</time>
      </trkpt>
      <trkpt lat="47.31987" lon="-0.56759">
        <ele>122</ele>
        <time>2014-02-16T09:43:28+00:00</time>
      </trkpt>
      <trkpt lat="47.31985" lon="-0.56758">
        <ele>122</ele>
        <time>2014-02-16T09:43:29+00:00</time>
      </trkpt>
      <trkpt lat="47.31981" lon="-0.56758">
        <ele>121</ele>
        <time>2014-02-16T09:43:31+00:00</time>
      </trkpt>
      <trkpt lat="47.3198" lon="-0.56758">
        <ele>124</ele>
        <time>2014-02-16T09:43:32+00:00</time>
      </trkpt>
      <trkpt lat="47.31979" lon="-0.56757">
        <ele>121</ele>
        <time>2014-02-16T09:43:33+00:00</time>
      </trkpt>
      <trkpt lat="47.31972" lon="-0.56756">
        <ele>126</ele>
        <time>2014-02-16T09:43:36+00:00</time>
      </trkpt>
      <trkpt lat="47.31972" lon="-0.56755">
        <ele>125</ele>
        <time>2014-02-16T09:43:37+00:00</time>
      </trkpt>
      <trkpt lat="47.31969" lon="-0.56756">
        <ele>122</ele>
        <time>2014-02-16T09:43:38+00:00</time>
      </trkpt>
      <trkpt lat="47.31959" lon="-0.56756">
        <ele>116</ele>
        <time>2014-02-16T09:43:43+00:00</time>
      </trkpt>
      <trkpt lat="47.31956" lon="-0.56756">
        <ele>120</ele>
        <time>2014-02-16T09:43:44+00:00</time>
      </trkpt>
      <trkpt lat="47.31954" lon="-0.56756">
        <ele>121</ele>
        <time>2014-02-16T09:43:45+00:00</time>
      </trkpt>
      <trkpt lat="47.31952" lon="-0.56756">
        <ele>123</ele>
        <time>2014-02-16T09:43:46+00:00</time>
      </trkpt>
      <trkpt lat="47.3195" lon="-0.56756">
        <ele>124</ele>
        <time>2014-02-16T09:43:47+00:00</time>
      </trkpt>
      <trkpt lat="47.31948" lon="-0.56755">
        <ele>122</ele>
        <time>2014-02-16T09:43:48+00:00</time>
      </trkpt>
      <trkpt lat="47.31948" lon="-0.56755">
        <ele>123</ele>
        <time>2014-02-16T09:43:49+00:00</time>
      </trkpt>
      <trkpt lat="47.31947" lon="-0.56755">
        <ele>118</ele>
        <time>2014-02-16T09:43:50+00:00</time>
      </trkpt>
      <trkpt lat="47.31866" lon="-0.56718">
        <ele>120</ele>
        <time>2014-02-16T09:44:57+00:00</time>
      </trkpt>
      <trkpt lat="47.31864" lon="-0.56717">
        <ele>116</ele>
        <time>2014-02-16T09:44:58+00:00</time>
      </trkpt>
      <trkpt lat="47.31862" lon="-0.56716">
        <ele>116</ele>
        <time>2014-02-16T09:44:59+00:00</time>
      </trkpt>
      <trkpt lat="47.3186" lon="-0.56716">
        <ele>118</ele>
        <time>2014-02-16T09:45:00+00:00</time>
      </trkpt>
      <trkpt lat="47.31858" lon="-0.56716">
        <ele>120</ele>
        <time>2014-02-16T09:45:01+00:00</time>
      </trkpt>
      <trkpt lat="47.31856" lon="-0.56716">
        <ele>124</ele>
        <time>2014-02-16T09:45:02+00:00</time>
      </trkpt>
      <trkpt lat="47.31855" lon="-0.56716">
        <ele>122</ele>
        <time>2014-02-16T09:45:03+00:00</time>
      </trkpt>
      <trkpt lat="47.31854" lon="-0.56716">
        <ele>124</ele>
        <time>2014-02-16T09:45:04+00:00</time>
      </trkpt>
      <trkpt lat="47.31829" lon="-0.56721">
        <ele>117</ele>
        <time>2014-02-16T09:45:16+00:00</time>
      </trkpt>
      <trkpt lat="47.31827" lon="-0.56722">
        <ele>118</ele>
        <time>2014-02-16T09:45:17+00:00</time>
      </trkpt>
      <trkpt lat="47.31816" lon="-0.56723">
        <ele>118</ele>
        <time>2014-02-16T09:45:21+00:00</time>
      </trkpt>
      <trkpt lat="47.31813" lon="-0.56723">
        <ele>116</ele>
        <time>2014-02-16T09:45:22+00:00</time>
      </trkpt>
      <trkpt lat="47.31811" lon="-0.56722">
        <ele>115</ele>
        <time>2014-02-16T09:45:23+00:00</time>
      </trkpt>
      <trkpt lat="47.31808" lon="-0.56722">
        <ele>114</ele>
        <time>2014-02-16T09:45:24+00:00</time>
      </trkpt>
      <trkpt lat="47.31806" lon="-0.56722">
        <ele>115</ele>
        <time>2014-02-16T09:45:25+00:00</time>
      </trkpt>
      <trkpt lat="47.31804" lon="-0.56721">
        <ele>117</ele>
        <time>2014-02-16T09:45:26+00:00</time>
      </trkpt>
      <trkpt lat="47.31801" lon="-0.5672">
        <ele>118</ele>
        <time>2014-02-16T09:45:27+00:00</time>
      </trkpt>
      <trkpt lat="47.31798" lon="-0.5672">
        <ele>118</ele>
        <time>2014-02-16T09:45:28+00:00</time>
      </trkpt>
      <trkpt lat="47.31796" lon="-0.5672">
        <ele>117</ele>
        <time>2014-02-16T09:45:29+00:00</time>
      </trkpt>
      <trkpt lat="47.31793" lon="-0.56721">
        <ele>116</ele>
        <time>2014-02-16T09:45:30+00:00</time>
      </trkpt>
      <trkpt lat="47.31789" lon="-0.56721">
        <ele>116</ele>
        <time>2014-02-16T09:45:31+00:00</time>
      </trkpt>
      <trkpt lat="47.31787" lon="-0.5672">
        <ele>117</ele>
        <time>2014-02-16T09:45:32+00:00</time>
      </trkpt>
      <trkpt lat="47.31783" lon="-0.56719">
        <ele>117</ele>
        <time>2014-02-16T09:45:33+00:00</time>
      </trkpt>
      <trkpt lat="47.3178" lon="-0.56719">
        <ele>116</ele>
        <time>2014-02-16T09:45:34+00:00</time>
      </trkpt>
      <trkpt lat="47.31777" lon="-0.56718">
        <ele>117</ele>
        <time>2014-02-16T09:45:35+00:00</time>
      </trkpt>
      <trkpt lat="47.31773" lon="-0.56719">
        <ele>117</ele>
        <time>2014-02-16T09:45:36+00:00</time>
      </trkpt>
      <trkpt lat="47.3177" lon="-0.56719">
        <ele>118</ele>
        <time>2014-02-16T09:45:37+00:00</time>
      </trkpt>
      <trkpt lat="47.31766" lon="-0.5672">
        <ele>117</ele>
        <time>2014-02-16T09:45:38+00:00</time>
      </trkpt>
      <trkpt lat="47.31764" lon="-0.56721">
        <ele>119</ele>
        <time>2014-02-16T09:45:39+00:00</time>
      </trkpt>
      <trkpt lat="47.3176" lon="-0.56722">
        <ele>118</ele>
        <time>2014-02-16T09:45:40+00:00</time>
      </trkpt>
      <trkpt lat="47.31739" lon="-0.56725">
        <ele>120</ele>
        <time>2014-02-16T09:45:46+00:00</time>
      </trkpt>
      <trkpt lat="47.31735" lon="-0.56728">
        <ele>119</ele>
        <time>2014-02-16T09:45:47+00:00</time>
      </trkpt>
      <trkpt lat="47.31729" lon="-0.56731">
        <ele>119</ele>
        <time>2014-02-16T09:45:49+00:00</time>
      </trkpt>
      <trkpt lat="47.31725" lon="-0.56732">
        <ele>118</ele>
        <time>2014-02-16T09:45:50+00:00</time>
      </trkpt>
      <trkpt lat="47.3172" lon="-0.56733">
        <ele>116</ele>
        <time>2014-02-16T09:45:51+00:00</time>
      </trkpt>
      <trkpt lat="47.31716" lon="-0.56735">
        <ele>115</ele>
        <time>2014-02-16T09:45:52+00:00</time>
      </trkpt>
      <trkpt lat="47.31712" lon="-0.56737">
        <ele>114</ele>
        <time>2014-02-16T09:45:53+00:00</time>
      </trkpt>
      <trkpt lat="47.31708" lon="-0.56739">
        <ele>114</ele>
        <time>2014-02-16T09:45:54+00:00</time>
      </trkpt>
      <trkpt lat="47.31705" lon="-0.5674">
        <ele>115</ele>
        <time>2014-02-16T09:45:55+00:00</time>
      </trkpt>
      <trkpt lat="47.317" lon="-0.56744">
        <ele>111</ele>
        <time>2014-02-16T09:45:56+00:00</time>
      </trkpt>
      <trkpt lat="47.31692" lon="-0.56751">
        <ele>109</ele>
        <time>2014-02-16T09:45:58+00:00</time>
      </trkpt>
      <trkpt lat="47.31687" lon="-0.56753">
        <ele>109</ele>
        <time>2014-02-16T09:45:59+00:00</time>
      </trkpt>
      <trkpt lat="47.31684" lon="-0.56756">
        <ele>110</ele>
        <time>2014-02-16T09:46:00+00:00</time>
      </trkpt>
      <trkpt lat="47.3168" lon="-0.56758">
        <ele>106</ele>
        <time>2014-02-16T09:46:01+00:00</time>
      </trkpt>
      <trkpt lat="47.31671" lon="-0.56764">
        <ele>106</ele>
        <time>2014-02-16T09:46:05+00:00</time>
      </trkpt>
      <trkpt lat="47.31668" lon="-0.56766">
        <ele>107</ele>
        <time>2014-02-16T09:46:06+00:00</time>
      </trkpt>
      <trkpt lat="47.31666" lon="-0.56768">
        <ele>109</ele>
        <time>2014-02-16T09:46:07+00:00</time>
      </trkpt>
      <trkpt lat="47.3166" lon="-0.56774">
        <ele>109</ele>
        <time>2014-02-16T09:46:09+00:00</time>
      </trkpt>
      <trkpt lat="47.31656" lon="-0.56778">
        <ele>108</ele>
        <time>2014-02-16T09:46:10+00:00</time>
      </trkpt>
      <trkpt lat="47.31652" lon="-0.56781">
        <ele>108</ele>
        <time>2014-02-16T09:46:11+00:00</time>
      </trkpt>
      <trkpt lat="47.31649" lon="-0.56783">
        <ele>109</ele>
        <time>2014-02-16T09:46:12+00:00</time>
      </trkpt>
      <trkpt lat="47.31642" lon="-0.56788">
        <ele>111</ele>
        <time>2014-02-16T09:46:14+00:00</time>
      </trkpt>
      <trkpt lat="47.31638" lon="-0.56791">
        <ele>110</ele>
        <time>2014-02-16T09:46:15+00:00</time>
      </trkpt>
      <trkpt lat="47.31628" lon="-0.56801">
        <ele>114</ele>
        <time>2014-02-16T09:46:18+00:00</time>
      </trkpt>
      <trkpt lat="47.31624" lon="-0.56804">
        <ele>115</ele>
        <time>2014-02-16T09:46:19+00:00</time>
      </trkpt>
      <trkpt lat="47.3162" lon="-0.56808">
        <ele>112</ele>
        <time>2014-02-16T09:46:20+00:00</time>
      </trkpt>
      <trkpt lat="47.31616" lon="-0.56812">
        <ele>114</ele>
        <time>2014-02-16T09:46:21+00:00</time>
      </trkpt>
      <trkpt lat="47.31612" lon="-0.56817">
        <ele>112</ele>
        <time>2014-02-16T09:46:22+00:00</time>
      </trkpt>
      <trkpt lat="47.31581" lon="-0.56857">
        <ele>105</ele>
        <time>2014-02-16T09:46:32+00:00</time>
      </trkpt>
      <trkpt lat="47.31579" lon="-0.5686">
        <ele>102</ele>
        <time>2014-02-16T09:46:33+00:00</time>
      </trkpt>
      <trkpt lat="47.31577" lon="-0.56862">
        <ele>102</ele>
        <time>2014-02-16T09:46:34+00:00</time>
      </trkpt>
      <trkpt lat="47.31575" lon="-0.56866">
        <ele>103</ele>
        <time>2014-02-16T09:46:36+00:00</time>
      </trkpt>
      <trkpt lat="47.31575" lon="-0.56867">
        <ele>104</ele>
        <time>2014-02-16T09:46:37+00:00</time>
      </trkpt>
      <trkpt lat="47.31574" lon="-0.56868">
        <ele>106</ele>
        <time>2014-02-16T09:46:38+00:00</time>
      </trkpt>
      <trkpt lat="47.31574" lon="-0.56869">
        <ele>107</ele>
        <time>2014-02-16T09:46:39+00:00</time>
      </trkpt>
      <trkpt lat="47.31574" lon="-0.5687">
        <ele>106</ele>
        <time>2014-02-16T09:46:40+00:00</time>
      </trkpt>
      <trkpt lat="47.31555" lon="-0.56889">
        <ele>106</ele>
        <time>2014-02-16T09:47:28+00:00</time>
      </trkpt>
      <trkpt lat="47.31552" lon="-0.56891">
        <ele>106</ele>
        <time>2014-02-16T09:47:29+00:00</time>
      </trkpt>
      <trkpt lat="47.31521" lon="-0.56916">
        <ele>105</ele>
        <time>2014-02-16T09:47:52+00:00</time>
      </trkpt>
      <trkpt lat="47.3152" lon="-0.56916">
        <ele>107</ele>
        <time>2014-02-16T09:47:53+00:00</time>
      </trkpt>
      <trkpt lat="47.31519" lon="-0.56916">
        <ele>110</ele>
        <time>2014-02-16T09:47:54+00:00</time>
      </trkpt>
      <trkpt lat="47.31518" lon="-0.56917">
        <ele>108</ele>
        <time>2014-02-16T09:47:56+00:00</time>
      </trkpt>
      <trkpt lat="47.31516" lon="-0.56918">
        <ele>110</ele>
        <time>2014-02-16T09:47:57+00:00</time>
      </trkpt>
      <trkpt lat="47.31516" lon="-0.56919">
        <ele>110</ele>
        <time>2014-02-16T09:47:58+00:00</time>
      </trkpt>
      <trkpt lat="47.31494" lon="-0.56935">
        <ele>114</ele>
        <time>2014-02-16T09:48:17+00:00</time>
      </trkpt>
      <trkpt lat="47.31492" lon="-0.56936">
        <ele>117</ele>
        <time>2014-02-16T09:48:18+00:00</time>
      </trkpt>
      <trkpt lat="47.31486" lon="-0.5694">
        <ele>116</ele>
        <time>2014-02-16T09:48:21+00:00</time>
      </trkpt>
      <trkpt lat="47.31483" lon="-0.56941">
        <ele>113</ele>
        <time>2014-02-16T09:48:22+00:00</time>
      </trkpt>
      <trkpt lat="47.3148" lon="-0.56944">
        <ele>112</ele>
        <time>2014-02-16T09:48:23+00:00</time>
      </trkpt>
      <trkpt lat="47.31476" lon="-0.56946">
        <ele>110</ele>
        <time>2014-02-16T09:48:24+00:00</time>
      </trkpt>
      <trkpt lat="47.31472" lon="-0.56948">
        <ele>111</ele>
        <time>2014-02-16T09:48:26+00:00</time>
      </trkpt>
      <trkpt lat="47.31469" lon="-0.56949">
        <ele>114</ele>
        <time>2014-02-16T09:48:27+00:00</time>
      </trkpt>
      <trkpt lat="47.31467" lon="-0.56951">
        <ele>114</ele>
        <time>2014-02-16T09:48:28+00:00</time>
      </trkpt>
      <trkpt lat="47.31465" lon="-0.56952">
        <ele>115</ele>
        <time>2014-02-16T09:48:29+00:00</time>
      </trkpt>
      <trkpt lat="47.31463" lon="-0.56954">
        <ele>116</ele>
        <time>2014-02-16T09:48:30+00:00</time>
      </trkpt>
      <trkpt lat="47.3146" lon="-0.56955">
        <ele>113</ele>
        <time>2014-02-16T09:48:31+00:00</time>
      </trkpt>
      <trkpt lat="47.31456" lon="-0.56957">
        <ele>112</ele>
        <time>2014-02-16T09:48:32+00:00</time>
      </trkpt>
      <trkpt lat="47.31452" lon="-0.56961">
        <ele>111</ele>
        <time>2014-02-16T09:48:33+00:00</time>
      </trkpt>
      <trkpt lat="47.31449" lon="-0.56963">
        <ele>109</ele>
        <time>2014-02-16T09:48:34+00:00</time>
      </trkpt>
      <trkpt lat="47.3144" lon="-0.5697">
        <ele>115</ele>
        <time>2014-02-16T09:48:37+00:00</time>
      </trkpt>
      <trkpt lat="47.31437" lon="-0.56972">
        <ele>115</ele>
        <time>2014-02-16T09:48:38+00:00</time>
      </trkpt>
      <trkpt lat="47.31436" lon="-0.56972">
        <ele>115</ele>
        <time>2014-02-16T09:48:39+00:00</time>
      </trkpt>
      <trkpt lat="47.31432" lon="-0.56974">
        <ele>113</ele>
        <time>2014-02-16T09:48:41+00:00</time>
      </trkpt>
      <trkpt lat="47.3143" lon="-0.56975">
        <ele>112</ele>
        <time>2014-02-16T09:48:42+00:00</time>
      </trkpt>
      <trkpt lat="47.31386" lon="-0.57018">
        <ele>110</ele>
        <time>2014-02-16T09:49:59+00:00</time>
      </trkpt>
      <trkpt lat="47.31384" lon="-0.57017">
        <ele>113</ele>
        <time>2014-02-16T09:50:00+00:00</time>
      </trkpt>
      <trkpt lat="47.3138" lon="-0.57015">
        <ele>107</ele>
        <time>2014-02-16T09:50:03+00:00</time>
      </trkpt>
      <trkpt lat="47.31378" lon="-0.57014">
        <ele>108</ele>
        <time>2014-02-16T09:50:04+00:00</time>
      </trkpt>
      <trkpt lat="47.31376" lon="-0.57014">
        <ele>108</ele>
        <time>2014-02-16T09:50:05+00:00</time>
      </trkpt>
      <trkpt lat="47.31375" lon="-0.57014">
        <ele>109</ele>
        <time>2014-02-16T09:50:06+00:00</time>
      </trkpt>
      <trkpt lat="47.31373" lon="-0.57015">
        <ele>108</ele>
        <time>2014-02-16T09:50:07+00:00</time>
      </trkpt>
      <trkpt lat="47.31372" lon="-0.57015">
        <ele>109</ele>
        <time>2014-02-16T09:50:08+00:00</time>
      </trkpt>
      <trkpt lat="47.31368" lon="-0.57017">
        <ele>110</ele>
        <time>2014-02-16T09:50:11+00:00</time>
      </trkpt>
      <trkpt lat="47.31367" lon="-0.57018">
        <ele>111</ele>
        <time>2014-02-16T09:50:12+00:00</time>
      </trkpt>
      <trkpt lat="47.31364" lon="-0.5702">
        <ele>107</ele>
        <time>2014-02-16T09:50:13+00:00</time>
      </trkpt>
      <trkpt lat="47.31363" lon="-0.57021">
        <ele>105</ele>
        <time>2014-02-16T09:50:14+00:00</time>
      </trkpt>
      <trkpt lat="47.31359" lon="-0.57022">
        <ele>105</ele>
        <time>2014-02-16T09:50:15+00:00</time>
      </trkpt>
      <trkpt lat="47.31357" lon="-0.57023">
        <ele>107</ele>
        <time>2014-02-16T09:50:16+00:00</time>
      </trkpt>
      <trkpt lat="47.31356" lon="-0.57024">
        <ele>108</ele>
        <time>2014-02-16T09:50:17+00:00</time>
      </trkpt>
      <trkpt lat="47.31353" lon="-0.57023">
        <ele>107</ele>
        <time>2014-02-16T09:50:18+00:00</time>
      </trkpt>
      <trkpt lat="47.31352" lon="-0.57023">
        <ele>109</ele>
        <time>2014-02-16T09:50:19+00:00</time>
      </trkpt>
      <trkpt lat="47.31349" lon="-0.57023">
        <ele>113</ele>
        <time>2014-02-16T09:50:20+00:00</time>
      </trkpt>
      <trkpt lat="47.31348" lon="-0.57023">
        <ele>115</ele>
        <time>2014-02-16T09:50:21+00:00</time>
      </trkpt>
      <trkpt lat="47.31348" lon="-0.57023">
        <ele>114</ele>
        <time>2014-02-16T09:50:22+00:00</time>
      </trkpt>
      <trkpt lat="47.31347" lon="-0.57022">
        <ele>115</ele>
        <time>2014-02-16T09:50:23+00:00</time>
      </trkpt>
      <trkpt lat="47.31345" lon="-0.57022">
        <ele>114</ele>
        <time>2014-02-16T09:50:24+00:00</time>
      </trkpt>
      <trkpt lat="47.31343" lon="-0.57021">
        <ele>113</ele>
        <time>2014-02-16T09:50:25+00:00</time>
      </trkpt>
      <trkpt lat="47.31339" lon="-0.5702">
        <ele>112</ele>
        <time>2014-02-16T09:50:27+00:00</time>
      </trkpt>
      <trkpt lat="47.31338" lon="-0.57019">
        <ele>108</ele>
        <time>2014-02-16T09:50:28+00:00</time>
      </trkpt>
      <trkpt lat="47.31336" lon="-0.57018">
        <ele>109</ele>
        <time>2014-02-16T09:50:29+00:00</time>
      </trkpt>
      <trkpt lat="47.31334" lon="-0.57018">
        <ele>107</ele>
        <time>2014-02-16T09:50:30+00:00</time>
      </trkpt>
      <trkpt lat="47.31332" lon="-0.57018">
        <ele>109</ele>
        <time>2014-02-16T09:50:31+00:00</time>
      </trkpt>
      <trkpt lat="47.31332" lon="-0.57018">
        <ele>111</ele>
        <time>2014-02-16T09:50:32+00:00</time>
      </trkpt>
      <trkpt lat="47.31331" lon="-0.57018">
        <ele>111</ele>
        <time>2014-02-16T09:50:33+00:00</time>
      </trkpt>
      <trkpt lat="47.31329" lon="-0.57019">
        <ele>112</ele>
        <time>2014-02-16T09:50:34+00:00</time>
      </trkpt>
      <trkpt lat="47.31327" lon="-0.57019">
        <ele>111</ele>
        <time>2014-02-16T09:50:35+00:00</time>
      </trkpt>
      <trkpt lat="47.31325" lon="-0.57018">
        <ele>111</ele>
        <time>2014-02-16T09:50:36+00:00</time>
      </trkpt>
      <trkpt lat="47.31324" lon="-0.57018">
        <ele>111</ele>
        <time>2014-02-16T09:50:37+00:00</time>
      </trkpt>
      <trkpt lat="47.31322" lon="-0.57017">
        <ele>111</ele>
        <time>2014-02-16T09:50:38+00:00</time>
      </trkpt>
      <trkpt lat="47.3132" lon="-0.57017">
        <ele>110</ele>
        <time>2014-02-16T09:50:39+00:00</time>
      </trkpt>
      <trkpt lat="47.31318" lon="-0.57018">
        <ele>109</ele>
        <time>2014-02-16T09:50:40+00:00</time>
      </trkpt>
      <trkpt lat="47.31315" lon="-0.5702">
        <ele>107</ele>
        <time>2014-02-16T09:50:42+00:00</time>
      </trkpt>
      <trkpt lat="47.31314" lon="-0.5702">
        <ele>106</ele>
        <time>2014-02-16T09:50:43+00:00</time>
      </trkpt>
      <trkpt lat="47.31312" lon="-0.5702">
        <ele>106</ele>
        <time>2014-02-16T09:50:44+00:00</time>
      </trkpt>
      <trkpt lat="47.3131" lon="-0.57021">
        <ele>107</ele>
        <time>2014-02-16T09:50:45+00:00</time>
      </trkpt>
      <trkpt lat="47.31308" lon="-0.57021">
        <ele>107</ele>
        <time>2014-02-16T09:50:46+00:00</time>
      </trkpt>
      <trkpt lat="47.31308" lon="-0.57021">
        <ele>108</ele>
        <time>2014-02-16T09:50:47+00:00</time>
      </trkpt>
      <trkpt lat="47.31303" lon="-0.57023">
        <ele>107</ele>
        <time>2014-02-16T09:50:50+00:00</time>
      </trkpt>
      <trkpt lat="47.31302" lon="-0.57023">
        <ele>106</ele>
        <time>2014-02-16T09:50:51+00:00</time>
      </trkpt>
      <trkpt lat="47.31296" lon="-0.57027">
        <ele>106</ele>
        <time>2014-02-16T09:50:56+00:00</time>
      </trkpt>
      <trkpt lat="47.31293" lon="-0.57027">
        <ele>106</ele>
        <time>2014-02-16T09:50:57+00:00</time>
      </trkpt>
      <trkpt lat="47.31272" lon="-0.57027">
        <ele>110</ele>
        <time>2014-02-16T09:51:10+00:00</time>
      </trkpt>
      <trkpt lat="47.3127" lon="-0.57028">
        <ele>110</ele>
        <time>2014-02-16T09:51:11+00:00</time>
      </trkpt>
      <trkpt lat="47.31268" lon="-0.57028">
        <ele>110</ele>
        <time>2014-02-16T09:51:12+00:00</time>
      </trkpt>
      <trkpt lat="47.31261" lon="-0.5703">
        <ele>110</ele>
        <time>2014-02-16T09:51:15+00:00</time>
      </trkpt>
      <trkpt lat="47.3126" lon="-0.57031">
        <ele>111</ele>
        <time>2014-02-16T09:51:16+00:00</time>
      </trkpt>
      <trkpt lat="47.31258" lon="-0.57032">
        <ele>111</ele>
        <time>2014-02-16T09:51:17+00:00</time>
      </trkpt>
      <trkpt lat="47.31252" lon="-0.57032">
        <ele>110</ele>
        <time>2014-02-16T09:51:20+00:00</time>
      </trkpt>
      <trkpt lat="47.3125" lon="-0.57032">
        <ele>109</ele>
        <time>2014-02-16T09:51:21+00:00</time>
      </trkpt>
      <trkpt lat="47.31248" lon="-0.57032">
        <ele>109</ele>
        <time>2014-02-16T09:51:22+00:00</time>
      </trkpt>
      <trkpt lat="47.31245" lon="-0.57032">
        <ele>108</ele>
        <time>2014-02-16T09:51:23+00:00</time>
      </trkpt>
      <trkpt lat="47.31244" lon="-0.57032">
        <ele>108</ele>
        <time>2014-02-16T09:51:24+00:00</time>
      </trkpt>
      <trkpt lat="47.31243" lon="-0.57032">
        <ele>108</ele>
        <time>2014-02-16T09:51:25+00:00</time>
      </trkpt>
      <trkpt lat="47.31241" lon="-0.57032">
        <ele>108</ele>
        <time>2014-02-16T09:51:26+00:00</time>
      </trkpt>
      <trkpt lat="47.3124" lon="-0.57032">
        <ele>109</ele>
        <time>2014-02-16T09:51:27+00:00</time>
      </trkpt>
      <trkpt lat="47.31238" lon="-0.57031">
        <ele>108</ele>
        <time>2014-02-16T09:51:28+00:00</time>
      </trkpt>
      <trkpt lat="47.31236" lon="-0.57031">
        <ele>107</ele>
        <time>2014-02-16T09:51:29+00:00</time>
      </trkpt>
      <trkpt lat="47.31236" lon="-0.57032">
        <ele>105</ele>
        <time>2014-02-16T09:51:30+00:00</time>
      </trkpt>
      <trkpt lat="47.31235" lon="-0.57033">
        <ele>108</ele>
        <time>2014-02-16T09:51:31+00:00</time>
      </trkpt>
      <trkpt lat="47.31234" lon="-0.57034">
        <ele>104</ele>
        <time>2014-02-16T09:51:32+00:00</time>
      </trkpt>
      <trkpt lat="47.31232" lon="-0.57036">
        <ele>102</ele>
        <time>2014-02-16T09:51:33+00:00</time>
      </trkpt>
      <trkpt lat="47.31231" lon="-0.57036">
        <ele>103</ele>
        <time>2014-02-16T09:51:34+00:00</time>
      </trkpt>
      <trkpt lat="47.31229" lon="-0.57036">
        <ele>103</ele>
        <time>2014-02-16T09:51:35+00:00</time>
      </trkpt>
      <trkpt lat="47.31204" lon="-0.57044">
        <ele>106</ele>
        <time>2014-02-16T09:58:24+00:00</time>
      </trkpt>
      <trkpt lat="47.31204" lon="-0.57044">
        <ele>106</ele>
        <time>2014-02-16T09:58:25+00:00</time>
      </trkpt>
      <trkpt lat="47.31196" lon="-0.57046">
        <ele>108</ele>
        <time>2014-02-16T09:58:31+00:00</time>
      </trkpt>
      <trkpt lat="47.31194" lon="-0.57047">
        <ele>108</ele>
        <time>2014-02-16T09:58:32+00:00</time>
      </trkpt>
      <trkpt lat="47.31192" lon="-0.57047">
        <ele>108</ele>
        <time>2014-02-16T09:58:33+00:00</time>
      </trkpt>
      <trkpt lat="47.31181" lon="-0.57051">
        <ele>108</ele>
        <time>2014-02-16T09:58:38+00:00</time>
      </trkpt>
      <trkpt lat="47.3118" lon="-0.57052">
        <ele>108</ele>
        <time>2014-02-16T09:58:39+00:00</time>
      </trkpt>
      <trkpt lat="47.31178" lon="-0.57052">
        <ele>108</ele>
        <time>2014-02-16T09:58:40+00:00</time>
      </trkpt>
      <trkpt lat="47.31165" lon="-0.57056">
        <ele>106</ele>
        <time>2014-02-16T09:58:46+00:00</time>
      </trkpt>
      <trkpt lat="47.31164" lon="-0.57056">
        <ele>107</ele>
        <time>2014-02-16T09:58:47+00:00</time>
      </trkpt>
      <trkpt lat="47.31162" lon="-0.57056">
        <ele>107</ele>
        <time>2014-02-16T09:58:48+00:00</time>
      </trkpt>
      <trkpt lat="47.3116" lon="-0.57057">
        <ele>107</ele>
        <time>2014-02-16T09:58:49+00:00</time>
      </trkpt>
      <trkpt lat="47.31158" lon="-0.57058">
        <ele>107</ele>
        <time>2014-02-16T09:58:50+00:00</time>
      </trkpt>
      <trkpt lat="47.31156" lon="-0.5706">
        <ele>107</ele>
        <time>2014-02-16T09:58:51+00:00</time>
      </trkpt>
      <trkpt lat="47.31138" lon="-0.57067">
        <ele>104</ele>
        <time>2014-02-16T09:58:59+00:00</time>
      </trkpt>
      <trkpt lat="47.31136" lon="-0.57068">
        <ele>104</ele>
        <time>2014-02-16T09:59:00+00:00</time>
      </trkpt>
      <trkpt lat="47.31133" lon="-0.57068">
        <ele>104</ele>
        <time>2014-02-16T09:59:01+00:00</time>
      </trkpt>
      <trkpt lat="47.31131" lon="-0.57069">
        <ele>104</ele>
        <time>2014-02-16T09:59:02+00:00</time>
      </trkpt>
      <trkpt lat="47.31128" lon="-0.5707">
        <ele>104</ele>
        <time>2014-02-16T09:59:03+00:00</time>
      </trkpt>
      <trkpt lat="47.31123" lon="-0.57073">
        <ele>103</ele>
        <time>2014-02-16T09:59:05+00:00</time>
      </trkpt>
      <trkpt lat="47.3112" lon="-0.57074">
        <ele>103</ele>
        <time>2014-02-16T09:59:06+00:00</time>
      </trkpt>
      <trkpt lat="47.31114" lon="-0.57076">
        <ele>103</ele>
        <time>2014-02-16T09:59:08+00:00</time>
      </trkpt>
      <trkpt lat="47.3111" lon="-0.57078">
        <ele>102</ele>
        <time>2014-02-16T09:59:09+00:00</time>
      </trkpt>
      <trkpt lat="47.31103" lon="-0.57081">
        <ele>103</ele>
        <time>2014-02-16T09:59:11+00:00</time>
      </trkpt>
      <trkpt lat="47.311" lon="-0.57083">
        <ele>103</ele>
        <time>2014-02-16T09:59:12+00:00</time>
      </trkpt>
      <trkpt lat="47.31039" lon="-0.57112">
        <ele>100</ele>
        <time>2014-02-16T09:59:26+00:00</time>
      </trkpt>
      <trkpt lat="47.31034" lon="-0.57113">
        <ele>99</ele>
        <time>2014-02-16T09:59:27+00:00</time>
      </trkpt>
      <trkpt lat="47.31029" lon="-0.57115">
        <ele>99</ele>
        <time>2014-02-16T09:59:28+00:00</time>
      </trkpt>
      <trkpt lat="47.31024" lon="-0.57117">
        <ele>98</ele>
        <time>2014-02-16T09:59:29+00:00</time>
      </trkpt>
      <trkpt lat="47.31012" lon="-0.57123">
        <ele>97</ele>
        <time>2014-02-16T09:59:31+00:00</time>
      </trkpt>
      <trkpt lat="47.31007" lon="-0.57126">
        <ele>95</ele>
        <time>2014-02-16T09:59:32+00:00</time>
      </trkpt>
      <trkpt lat="47.31004" lon="-0.57132">
        <ele>94</ele>
        <time>2014-02-16T09:59:33+00:00</time>
      </trkpt>
      <trkpt lat="47.31001" lon="-0.5714">
        <ele>92</ele>
        <time>2014-02-16T09:59:34+00:00</time>
      </trkpt>
      <trkpt lat="47.31" lon="-0.57147">
        <ele>91</ele>
        <time>2014-02-16T09:59:35+00:00</time>
      </trkpt>
      <trkpt lat="47.31" lon="-0.57155">
        <ele>91</ele>
        <time>2014-02-16T09:59:36+00:00</time>
      </trkpt>
      <trkpt lat="47.31001" lon="-0.57163">
        <ele>90</ele>
        <time>2014-02-16T09:59:37+00:00</time>
      </trkpt>
      <trkpt lat="47.31007" lon="-0.57192">
        <ele>91</ele>
        <time>2014-02-16T09:59:41+00:00</time>
      </trkpt>
      <trkpt lat="47.31009" lon="-0.57199">
        <ele>91</ele>
        <time>2014-02-16T09:59:42+00:00</time>
      </trkpt>
      <trkpt lat="47.31035" lon="-0.57317">
        <ele>90</ele>
        <time>2014-02-16T09:59:57+00:00</time>
      </trkpt>
      <trkpt lat="47.31036" lon="-0.57326">
        <ele>91</ele>
        <time>2014-02-16T09:59:58+00:00</time>
      </trkpt>
      <trkpt lat="47.31083" lon="-0.57561">
        <ele>92</ele>
        <time>2014-02-16T10:00:28+00:00</time>
      </trkpt>
      <trkpt lat="47.31086" lon="-0.57567">
        <ele>92</ele>
        <time>2014-02-16T10:00:29+00:00</time>
      </trkpt>
      <trkpt lat="47.31091" lon="-0.57571">
        <ele>92</ele>
        <time>2014-02-16T10:00:30+00:00</time>
      </trkpt>
      <trkpt lat="47.31095" lon="-0.57572">
        <ele>93</ele>
        <time>2014-02-16T10:00:31+00:00</time>
      </trkpt>
      <trkpt lat="47.311" lon="-0.57572">
        <ele>94</ele>
        <time>2014-02-16T10:00:32+00:00</time>
      </trkpt>
      <trkpt lat="47.31107" lon="-0.5757">
        <ele>95</ele>
        <time>2014-02-16T10:00:34+00:00</time>
      </trkpt>
      <trkpt lat="47.3111" lon="-0.57568">
        <ele>96</ele>
        <time>2014-02-16T10:00:35+00:00</time>
      </trkpt>
      <trkpt lat="47.312" lon="-0.57549">
        <ele>102</ele>
        <time>2014-02-16T10:01:04+00:00</time>
      </trkpt>
      <trkpt lat="47.31204" lon="-0.57548">
        <ele>102</ele>
        <time>2014-02-16T10:01:05+00:00</time>
      </trkpt>
      <trkpt lat="47.31323" lon="-0.57504">
        <ele>104</ele>
        <time>2014-02-16T10:01:37+00:00</time>
      </trkpt>
      <trkpt lat="47.31326" lon="-0.57506">
        <ele>103</ele>
        <time>2014-02-16T10:01:38+00:00</time>
      </trkpt>
      <trkpt lat="47.3133" lon="-0.57508">
        <ele>103</ele>
        <time>2014-02-16T10:01:39+00:00</time>
      </trkpt>
      <trkpt lat="47.31333" lon="-0.57512">
        <ele>102</ele>
        <time>2014-02-16T10:01:40+00:00</time>
      </trkpt>
      <trkpt lat="47.31336" lon="-0.57517">
        <ele>102</ele>
        <time>2014-02-16T10:01:41+00:00</time>
      </trkpt>
      <trkpt lat="47.31339" lon="-0.57522">
        <ele>102</ele>
        <time>2014-02-16T10:01:42+00:00</time>
      </trkpt>
      <trkpt lat="47.3134" lon="-0.57528">
        <ele>102</ele>
        <time>2014-02-16T10:01:43+00:00</time>
      </trkpt>
      <trkpt lat="47.31342" lon="-0.57547">
        <ele>101</ele>
        <time>2014-02-16T10:01:46+00:00</time>
      </trkpt>
      <trkpt lat="47.31343" lon="-0.57553">
        <ele>102</ele>
        <time>2014-02-16T10:01:47+00:00</time>
      </trkpt>
      <trkpt lat="47.31343" lon="-0.57565">
        <ele>103</ele>
        <time>2014-02-16T10:01:49+00:00</time>
      </trkpt>
      <trkpt lat="47.31343" lon="-0.57572">
        <ele>103</ele>
        <time>2014-02-16T10:01:50+00:00</time>
      </trkpt>
      <trkpt lat="47.31341" lon="-0.57592">
        <ele>101</ele>
        <time>2014-02-16T10:01:53+00:00</time>
      </trkpt>
      <trkpt lat="47.31341" lon="-0.57598">
        <ele>101</ele>
        <time>2014-02-16T10:01:54+00:00</time>
      </trkpt>
      <trkpt lat="47.31331" lon="-0.57676">
        <ele>101</ele>
        <time>2014-02-16T10:02:06+00:00</time>
      </trkpt>
      <trkpt lat="47.3133" lon="-0.57682">
        <ele>101</ele>
        <time>2014-02-16T10:02:07+00:00</time>
      </trkpt>
      <trkpt lat="47.31317" lon="-0.57775">
        <ele>101</ele>
        <time>2014-02-16T10:02:22+00:00</time>
      </trkpt>
      <trkpt lat="47.31316" lon="-0.57781">
        <ele>101</ele>
        <time>2014-02-16T10:02:23+00:00</time>
      </trkpt>
      <trkpt lat="47.31316" lon="-0.57824">
        <ele>102</ele>
        <time>2014-02-16T10:02:30+00:00</time>
      </trkpt>
      <trkpt lat="47.31316" lon="-0.5783">
        <ele>103</ele>
        <time>2014-02-16T10:02:31+00:00</time>
      </trkpt>
      <trkpt lat="47.31318" lon="-0.57872">
        <ele>103</ele>
        <time>2014-02-16T10:02:38+00:00</time>
      </trkpt>
      <trkpt lat="47.31319" lon="-0.57876">
        <ele>103</ele>
        <time>2014-02-16T10:02:39+00:00</time>
      </trkpt>
      <trkpt lat="47.31323" lon="-0.57903">
        <ele>103</ele>
        <time>2014-02-16T10:02:44+00:00</time>
      </trkpt>
      <trkpt lat="47.31324" lon="-0.57908">
        <ele>103</ele>
        <time>2014-02-16T10:02:45+00:00</time>
      </trkpt>
      <trkpt lat="47.31335" lon="-0.5795">
        <ele>104</ele>
        <time>2014-02-16T10:02:52+00:00</time>
      </trkpt>
      <trkpt lat="47.31337" lon="-0.57956">
        <ele>103</ele>
        <time>2014-02-16T10:02:53+00:00</time>
      </trkpt>
      <trkpt lat="47.31485" lon="-0.58452">
        <ele>102</ele>
        <time>2014-02-16T10:04:10+00:00</time>
      </trkpt>
      <trkpt lat="47.31487" lon="-0.58458">
        <ele>103</ele>
        <time>2014-02-16T10:04:11+00:00</time>
      </trkpt>
      <trkpt lat="47.315" lon="-0.58488">
        <ele>101</ele>
        <time>2014-02-16T10:04:16+00:00</time>
      </trkpt>
      <trkpt lat="47.31502" lon="-0.58492">
        <ele>102</ele>
        <time>2014-02-16T10:04:17+00:00</time>
      </trkpt>
      <trkpt lat="47.31505" lon="-0.58492">
        <ele>101</ele>
        <time>2014-02-16T10:04:18+00:00</time>
      </trkpt>
      <trkpt lat="47.31508" lon="-0.58492">
        <ele>101</ele>
        <time>2014-02-16T10:04:19+00:00</time>
      </trkpt>
      <trkpt lat="47.3151" lon="-0.58489">
        <ele>102</ele>
        <time>2014-02-16T10:04:20+00:00</time>
      </trkpt>
      <trkpt lat="47.3158" lon="-0.58387">
        <ele>106</ele>
        <time>2014-02-16T10:04:44+00:00</time>
      </trkpt>
      <trkpt lat="47.31582" lon="-0.58381">
        <ele>105</ele>
        <time>2014-02-16T10:04:45+00:00</time>
      </trkpt>
      <trkpt lat="47.31584" lon="-0.58374">
        <ele>104</ele>
        <time>2014-02-16T10:04:46+00:00</time>
      </trkpt>
      <trkpt lat="47.31588" lon="-0.58354">
        <ele>104</ele>
        <time>2014-02-16T10:04:49+00:00</time>
      </trkpt>
      <trkpt lat="47.31588" lon="-0.58347">
        <ele>105</ele>
        <time>2014-02-16T10:04:50+00:00</time>
      </trkpt>
      <trkpt lat="47.31588" lon="-0.58332">
        <ele>104</ele>
        <time>2014-02-16T10:04:52+00:00</time>
      </trkpt>
      <trkpt lat="47.31587" lon="-0.58324">
        <ele>104</ele>
        <time>2014-02-16T10:04:53+00:00</time>
      </trkpt>
      <trkpt lat="47.31584" lon="-0.58304">
        <ele>105</ele>
        <time>2014-02-16T10:04:56+00:00</time>
      </trkpt>
      <trkpt lat="47.31582" lon="-0.58298">
        <ele>105</ele>
        <time>2014-02-16T10:04:57+00:00</time>
      </trkpt>
      <trkpt lat="47.31575" lon="-0.5826">
        <ele>104</ele>
        <time>2014-02-16T10:05:03+00:00</time>
      </trkpt>
      <trkpt lat="47.31575" lon="-0.58253">
        <ele>104</ele>
        <time>2014-02-16T10:05:04+00:00</time>
      </trkpt>
      <trkpt lat="47.31576" lon="-0.58247">
        <ele>105</ele>
        <time>2014-02-16T10:05:05+00:00</time>
      </trkpt>
      <trkpt lat="47.31577" lon="-0.58242">
        <ele>105</ele>
        <time>2014-02-16T10:05:06+00:00</time>
      </trkpt>
      <trkpt lat="47.3158" lon="-0.58236">
        <ele>104</ele>
        <time>2014-02-16T10:05:07+00:00</time>
      </trkpt>
      <trkpt lat="47.31582" lon="-0.58232">
        <ele>105</ele>
        <time>2014-02-16T10:05:08+00:00</time>
      </trkpt>
      <trkpt lat="47.31596" lon="-0.58215">
        <ele>105</ele>
        <time>2014-02-16T10:05:12+00:00</time>
      </trkpt>
      <trkpt lat="47.31599" lon="-0.58212">
        <ele>105</ele>
        <time>2014-02-16T10:05:13+00:00</time>
      </trkpt>
      <trkpt lat="47.31738" lon="-0.58062">
        <ele>105</ele>
        <time>2014-02-16T10:05:48+00:00</time>
      </trkpt>
      <trkpt lat="47.31742" lon="-0.5806">
        <ele>105</ele>
        <time>2014-02-16T10:05:49+00:00</time>
      </trkpt>
      <trkpt lat="47.31746" lon="-0.58059">
        <ele>106</ele>
        <time>2014-02-16T10:05:50+00:00</time>
      </trkpt>
      <trkpt lat="47.31748" lon="-0.58061">
        <ele>105</ele>
        <time>2014-02-16T10:05:51+00:00</time>
      </trkpt>
      <trkpt lat="47.31749" lon="-0.58064">
        <ele>104</ele>
        <time>2014-02-16T10:05:52+00:00</time>
      </trkpt>
      <trkpt lat="47.31748" lon="-0.58068">
        <ele>105</ele>
        <time>2014-02-16T10:05:53+00:00</time>
      </trkpt>
      <trkpt lat="47.31742" lon="-0.58151">
        <ele>104</ele>
        <time>2014-02-16T10:06:06+00:00</time>
      </trkpt>
      <trkpt lat="47.31742" lon="-0.58158">
        <ele>104</ele>
        <time>2014-02-16T10:06:07+00:00</time>
      </trkpt>
      <trkpt lat="47.31741" lon="-0.58166">
        <ele>104</ele>
        <time>2014-02-16T10:06:08+00:00</time>
      </trkpt>
      <trkpt lat="47.31738" lon="-0.58213">
        <ele>102</ele>
        <time>2014-02-16T10:06:14+00:00</time>
      </trkpt>
      <trkpt lat="47.31738" lon="-0.5822">
        <ele>102</ele>
        <time>2014-02-16T10:06:15+00:00</time>
      </trkpt>
      <trkpt lat="47.31733" lon="-0.58283">
        <ele>104</ele>
        <time>2014-02-16T10:06:24+00:00</time>
      </trkpt>
      <trkpt lat="47.31732" lon="-0.58289">
        <ele>105</ele>
        <time>2014-02-16T10:06:25+00:00</time>
      </trkpt>
      <trkpt lat="47.31714" lon="-0.58402">
        <ele>111</ele>
        <time>2014-02-16T10:06:43+00:00</time>
      </trkpt>
      <trkpt lat="47.31714" lon="-0.58409">
        <ele>112</ele>
        <time>2014-02-16T10:06:44+00:00</time>
      </trkpt>
      <trkpt lat="47.31714" lon="-0.58414">
        <ele>113</ele>
        <time>2014-02-16T10:06:45+00:00</time>
      </trkpt>
      <trkpt lat="47.31716" lon="-0.58426">
        <ele>114</ele>
        <time>2014-02-16T10:06:47+00:00</time>
      </trkpt>
      <trkpt lat="47.31716" lon="-0.58432">
        <ele>114</ele>
        <time>2014-02-16T10:06:48+00:00</time>
      </trkpt>
      <trkpt lat="47.31719" lon="-0.58443">
        <ele>116</ele>
        <time>2014-02-16T10:06:50+00:00</time>
      </trkpt>
      <trkpt lat="47.3172" lon="-0.58446">
        <ele>117</ele>
        <time>2014-02-16T10:06:51+00:00</time>
      </trkpt>
      <trkpt lat="47.31725" lon="-0.58464">
        <ele>121</ele>
        <time>2014-02-16T10:06:54+00:00</time>
      </trkpt>
      <trkpt lat="47.31728" lon="-0.58471">
        <ele>121</ele>
        <time>2014-02-16T10:06:55+00:00</time>
      </trkpt>
      <trkpt lat="47.31737" lon="-0.58492">
        <ele>117</ele>
        <time>2014-02-16T10:06:58+00:00</time>
      </trkpt>
      <trkpt lat="47.3174" lon="-0.58497">
        <ele>118</ele>
        <time>2014-02-16T10:06:59+00:00</time>
      </trkpt>
      <trkpt lat="47.31776" lon="-0.58565">
        <ele>116</ele>
        <time>2014-02-16T10:07:13+00:00</time>
      </trkpt>
      <trkpt lat="47.31778" lon="-0.5857">
        <ele>116</ele>
        <time>2014-02-16T10:07:14+00:00</time>
      </trkpt>
      <trkpt lat="47.3178" lon="-0.58578">
        <ele>114</ele>
        <time>2014-02-16T10:07:16+00:00</time>
      </trkpt>
      <trkpt lat="47.31782" lon="-0.5858">
        <ele>113</ele>
        <time>2014-02-16T10:07:17+00:00</time>
      </trkpt>
      <trkpt lat="47.31786" lon="-0.58588">
        <ele>112</ele>
        <time>2014-02-16T10:07:19+00:00</time>
      </trkpt>
      <trkpt lat="47.31789" lon="-0.58593">
        <ele>110</ele>
        <time>2014-02-16T10:07:20+00:00</time>
      </trkpt>
      <trkpt lat="47.31792" lon="-0.58596">
        <ele>110</ele>
        <time>2014-02-16T10:07:21+00:00</time>
      </trkpt>
      <trkpt lat="47.31796" lon="-0.58599">
        <ele>109</ele>
        <time>2014-02-16T10:07:22+00:00</time>
      </trkpt>
      <trkpt lat="47.31799" lon="-0.58602">
        <ele>107</ele>
        <time>2014-02-16T10:07:23+00:00</time>
      </trkpt>
      <trkpt lat="47.31803" lon="-0.58603">
        <ele>107</ele>
        <time>2014-02-16T10:07:24+00:00</time>
      </trkpt>
      <trkpt lat="47.31806" lon="-0.58603">
        <ele>106</ele>
        <time>2014-02-16T10:07:25+00:00</time>
      </trkpt>
      <trkpt lat="47.31818" lon="-0.586">
        <ele>108</ele>
        <time>2014-02-16T10:07:28+00:00</time>
      </trkpt>
      <trkpt lat="47.31822" lon="-0.58598">
        <ele>110</ele>
        <time>2014-02-16T10:07:29+00:00</time>
      </trkpt>
      <trkpt lat="47.31899" lon="-0.58572">
        <ele>114</ele>
        <time>2014-02-16T10:07:43+00:00</time>
      </trkpt>
      <trkpt lat="47.31905" lon="-0.58569">
        <ele>113</ele>
        <time>2014-02-16T10:07:44+00:00</time>
      </trkpt>
      <trkpt lat="47.31945" lon="-0.58554">
        <ele>112</ele>
        <time>2014-02-16T10:07:49+00:00</time>
      </trkpt>
      <trkpt lat="47.31954" lon="-0.58551">
        <ele>114</ele>
        <time>2014-02-16T10:07:50+00:00</time>
      </trkpt>
      <trkpt lat="47.31982" lon="-0.58542">
        <ele>111</ele>
        <time>2014-02-16T10:07:53+00:00</time>
      </trkpt>
      <trkpt lat="47.31992" lon="-0.58539">
        <ele>109</ele>
        <time>2014-02-16T10:07:54+00:00</time>
      </trkpt>
      <trkpt lat="47.32291" lon="-0.58436">
        <ele>92</ele>
        <time>2014-02-16T10:08:28+00:00</time>
      </trkpt>
      <trkpt lat="47.32299" lon="-0.58432">
        <ele>92</ele>
        <time>2014-02-16T10:08:29+00:00</time>
      </trkpt>
      <trkpt lat="47.32415" lon="-0.58394">
        <ele>91</ele>
        <time>2014-02-16T10:08:46+00:00</time>
      </trkpt>
      <trkpt lat="47.32422" lon="-0.58392">
        <ele>93</ele>
        <time>2014-02-16T10:08:47+00:00</time>
      </trkpt>
      <trkpt lat="47.32478" lon="-0.58374">
        <ele>99</ele>
        <time>2014-02-16T10:08:56+00:00</time>
      </trkpt>
      <trkpt lat="47.32484" lon="-0.58372">
        <ele>99</ele>
        <time>2014-02-16T10:08:57+00:00</time>
      </trkpt>
      <trkpt lat="47.32876" lon="-0.58232">
        <ele>85</ele>
        <time>2014-02-16T10:10:09+00:00</time>
      </trkpt>
      <trkpt lat="47.3288" lon="-0.58229">
        <ele>85</ele>
        <time>2014-02-16T10:10:10+00:00</time>
      </trkpt>
      <trkpt lat="47.32884" lon="-0.58227">
        <ele>85</ele>
        <time>2014-02-16T10:10:11+00:00</time>
      </trkpt>
      <trkpt lat="47.32888" lon="-0.58227">
        <ele>86</ele>
        <time>2014-02-16T10:10:12+00:00</time>
      </trkpt>
      <trkpt lat="47.32891" lon="-0.58229">
        <ele>87</ele>
        <time>2014-02-16T10:10:13+00:00</time>
      </trkpt>
      <trkpt lat="47.32892" lon="-0.58232">
        <ele>88</ele>
        <time>2014-02-16T10:10:14+00:00</time>
      </trkpt>
      <trkpt lat="47.32895" lon="-0.58236">
        <ele>88</ele>
        <time>2014-02-16T10:10:15+00:00</time>
      </trkpt>
      <trkpt lat="47.32895" lon="-0.58239">
        <ele>88</ele>
        <time>2014-02-16T10:10:16+00:00</time>
      </trkpt>
      <trkpt lat="47.32895" lon="-0.58243">
        <ele>89</ele>
        <time>2014-02-16T10:10:17+00:00</time>
      </trkpt>
      <trkpt lat="47.32896" lon="-0.58248">
        <ele>89</ele>
        <time>2014-02-16T10:10:18+00:00</time>
      </trkpt>
      <trkpt lat="47.32896" lon="-0.58277">
        <ele>87</ele>
        <time>2014-02-16T10:10:24+00:00</time>
      </trkpt>
      <trkpt lat="47.32897" lon="-0.58283">
        <ele>87</ele>
        <time>2014-02-16T10:10:25+00:00</time>
      </trkpt>
      <trkpt lat="47.32899" lon="-0.58293">
        <ele>88</ele>
        <time>2014-02-16T10:10:27+00:00</time>
      </trkpt>
      <trkpt lat="47.329" lon="-0.58298">
        <ele>87</ele>
        <time>2014-02-16T10:10:28+00:00</time>
      </trkpt>
      <trkpt lat="47.32902" lon="-0.58302">
        <ele>87</ele>
        <time>2014-02-16T10:10:29+00:00</time>
      </trkpt>
      <trkpt lat="47.32964" lon="-0.58422">
        <ele>86</ele>
        <time>2014-02-16T10:10:51+00:00</time>
      </trkpt>
      <trkpt lat="47.32967" lon="-0.58428">
        <ele>86</ele>
        <time>2014-02-16T10:10:52+00:00</time>
      </trkpt>
      <trkpt lat="47.33023" lon="-0.58541">
        <ele>85</ele>
        <time>2014-02-16T10:11:07+00:00</time>
      </trkpt>
      <trkpt lat="47.33026" lon="-0.58549">
        <ele>85</ele>
        <time>2014-02-16T10:11:08+00:00</time>
      </trkpt>
      <trkpt lat="47.33036" lon="-0.58585">
        <ele>83</ele>
        <time>2014-02-16T10:11:12+00:00</time>
      </trkpt>
      <trkpt lat="47.33039" lon="-0.58595">
        <ele>82</ele>
        <time>2014-02-16T10:11:13+00:00</time>
      </trkpt>
      <trkpt lat="47.33049" lon="-0.58643">
        <ele>81</ele>
        <time>2014-02-16T10:11:18+00:00</time>
      </trkpt>
      <trkpt lat="47.33051" lon="-0.58653">
        <ele>82</ele>
        <time>2014-02-16T10:11:19+00:00</time>
      </trkpt>
      <trkpt lat="47.33055" lon="-0.58685">
        <ele>81</ele>
        <time>2014-02-16T10:11:22+00:00</time>
      </trkpt>
      <trkpt lat="47.33056" lon="-0.58695">
        <ele>81</ele>
        <time>2014-02-16T10:11:23+00:00</time>
      </trkpt>
      <trkpt lat="47.33063" lon="-0.58759">
        <ele>81</ele>
        <time>2014-02-16T10:11:31+00:00</time>
      </trkpt>
      <trkpt lat="47.33064" lon="-0.58766">
        <ele>81</ele>
        <time>2014-02-16T10:11:32+00:00</time>
      </trkpt>
      <trkpt lat="47.33067" lon="-0.58785">
        <ele>83</ele>
        <time>2014-02-16T10:11:35+00:00</time>
      </trkpt>
      <trkpt lat="47.33067" lon="-0.5879">
        <ele>82</ele>
        <time>2014-02-16T10:11:36+00:00</time>
      </trkpt>
      <trkpt lat="47.33068" lon="-0.58803">
        <ele>82</ele>
        <time>2014-02-16T10:11:38+00:00</time>
      </trkpt>
      <trkpt lat="47.33068" lon="-0.58808">
        <ele>83</ele>
        <time>2014-02-16T10:11:39+00:00</time>
      </trkpt>
      <trkpt lat="47.33067" lon="-0.58818">
        <ele>83</ele>
        <time>2014-02-16T10:11:41+00:00</time>
      </trkpt>
      <trkpt lat="47.33066" lon="-0.58822">
        <ele>83</ele>
        <time>2014-02-16T10:11:42+00:00</time>
      </trkpt>
      <trkpt lat="47.33064" lon="-0.58831">
        <ele>85</ele>
        <time>2014-02-16T10:11:44+00:00</time>
      </trkpt>
      <trkpt lat="47.33063" lon="-0.58836">
        <ele>84</ele>
        <time>2014-02-16T10:11:45+00:00</time>
      </trkpt>
      <trkpt lat="47.33059" lon="-0.58867">
        <ele>80</ele>
        <time>2014-02-16T10:11:51+00:00</time>
      </trkpt>
      <trkpt lat="47.33059" lon="-0.58871">
        <ele>81</ele>
        <time>2014-02-16T10:11:52+00:00</time>
      </trkpt>
      <trkpt lat="47.33049" lon="-0.58979">
        <ele>85</ele>
        <time>2014-02-16T10:12:11+00:00</time>
      </trkpt>
      <trkpt lat="47.3305" lon="-0.58985">
        <ele>85</ele>
        <time>2014-02-16T10:12:12+00:00</time>
      </trkpt>
      <trkpt lat="47.33055" lon="-0.59014">
        <ele>88</ele>
        <time>2014-02-16T10:12:17+00:00</time>
      </trkpt>
      <trkpt lat="47.33056" lon="-0.5902">
        <ele>89</ele>
        <time>2014-02-16T10:12:18+00:00</time>
      </trkpt>
      <trkpt lat="47.33077" lon="-0.5912">
        <ele>82</ele>
        <time>2014-02-16T10:12:36+00:00</time>
      </trkpt>
      <trkpt lat="47.33077" lon="-0.59122">
        <ele>81</ele>
        <time>2014-02-16T10:12:37+00:00</time>
      </trkpt>
      <trkpt lat="47.33078" lon="-0.59131">
        <ele>81</ele>
        <time>2014-02-16T10:12:51+00:00</time>
      </trkpt>
      <trkpt lat="47.33078" lon="-0.59132">
        <ele>83</ele>
        <time>2014-02-16T10:12:52+00:00</time>
      </trkpt>
      <trkpt lat="47.33084" lon="-0.5915">
        <ele>82</ele>
        <time>2014-02-16T10:12:56+00:00</time>
      </trkpt>
      <trkpt lat="47.33084" lon="-0.59156">
        <ele>81</ele>
        <time>2014-02-16T10:12:57+00:00</time>
      </trkpt>
      <trkpt lat="47.33109" lon="-0.59283">
        <ele>80</ele>
        <time>2014-02-16T10:13:15+00:00</time>
      </trkpt>
      <trkpt lat="47.33112" lon="-0.59292">
        <ele>80</ele>
        <time>2014-02-16T10:13:16+00:00</time>
      </trkpt>
      <trkpt lat="47.3315" lon="-0.59462">
        <ele>76</ele>
        <time>2014-02-16T10:13:38+00:00</time>
      </trkpt>
      <trkpt lat="47.33151" lon="-0.59468">
        <ele>77</ele>
        <time>2014-02-16T10:13:39+00:00</time>
      </trkpt>
      <trkpt lat="47.33189" lon="-0.59645">
        <ele>81</ele>
        <time>2014-02-16T10:14:10+00:00</time>
      </trkpt>
      <trkpt lat="47.3319" lon="-0.5965">
        <ele>82</ele>
        <time>2014-02-16T10:14:11+00:00</time>
      </trkpt>
      <trkpt lat="47.33193" lon="-0.59652">
        <ele>83</ele>
        <time>2014-02-16T10:14:12+00:00</time>
      </trkpt>
      <trkpt lat="47.33196" lon="-0.59653">
        <ele>83</ele>
        <time>2014-02-16T10:14:13+00:00</time>
      </trkpt>
      <trkpt lat="47.33199" lon="-0.59652">
        <ele>83</ele>
        <time>2014-02-16T10:14:14+00:00</time>
      </trkpt>
      <trkpt lat="47.33207" lon="-0.59649">
        <ele>84</ele>
        <time>2014-02-16T10:14:16+00:00</time>
      </trkpt>
      <trkpt lat="47.33211" lon="-0.59647">
        <ele>84</ele>
        <time>2014-02-16T10:14:17+00:00</time>
      </trkpt>
      <trkpt lat="47.33562" lon="-0.59458">
        <ele>81</ele>
        <time>2014-02-16T10:15:48+00:00</time>
      </trkpt>
      <trkpt lat="47.33565" lon="-0.59457">
        <ele>81</ele>
        <time>2014-02-16T10:15:49+00:00</time>
      </trkpt>
      <trkpt lat="47.33569" lon="-0.59459">
        <ele>80</ele>
        <time>2014-02-16T10:15:50+00:00</time>
      </trkpt>
      <trkpt lat="47.33572" lon="-0.59463">
        <ele>79</ele>
        <time>2014-02-16T10:15:51+00:00</time>
      </trkpt>
      <trkpt lat="47.33573" lon="-0.59468">
        <ele>78</ele>
        <time>2014-02-16T10:15:52+00:00</time>
      </trkpt>
      <trkpt lat="47.33613" lon="-0.59653">
        <ele>75</ele>
        <time>2014-02-16T10:16:22+00:00</time>
      </trkpt>
      <trkpt lat="47.33615" lon="-0.5966">
        <ele>76</ele>
        <time>2014-02-16T10:16:23+00:00</time>
      </trkpt>
      <trkpt lat="47.33628" lon="-0.5972">
        <ele>77</ele>
        <time>2014-02-16T10:16:31+00:00</time>
      </trkpt>
      <trkpt lat="47.33631" lon="-0.59727">
        <ele>78</ele>
        <time>2014-02-16T10:16:32+00:00</time>
      </trkpt>
      <trkpt lat="47.33634" lon="-0.59735">
        <ele>77</ele>
        <time>2014-02-16T10:16:33+00:00</time>
      </trkpt>
      <trkpt lat="47.33637" lon="-0.59742">
        <ele>77</ele>
        <time>2014-02-16T10:16:34+00:00</time>
      </trkpt>
      <trkpt lat="47.3365" lon="-0.59767">
        <ele>77</ele>
        <time>2014-02-16T10:16:38+00:00</time>
      </trkpt>
      <trkpt lat="47.33653" lon="-0.59772">
        <ele>78</ele>
        <time>2014-02-16T10:16:39+00:00</time>
      </trkpt>
      <trkpt lat="47.33658" lon="-0.59777">
        <ele>78</ele>
        <time>2014-02-16T10:16:40+00:00</time>
      </trkpt>
      <trkpt lat="47.33662" lon="-0.59781">
        <ele>77</ele>
        <time>2014-02-16T10:16:41+00:00</time>
      </trkpt>
      <trkpt lat="47.33668" lon="-0.59784">
        <ele>78</ele>
        <time>2014-02-16T10:16:42+00:00</time>
      </trkpt>
      <trkpt lat="47.33673" lon="-0.59786">
        <ele>77</ele>
        <time>2014-02-16T10:16:43+00:00</time>
      </trkpt>
      <trkpt lat="47.33678" lon="-0.59787">
        <ele>77</ele>
        <time>2014-02-16T10:16:44+00:00</time>
      </trkpt>
      <trkpt lat="47.33684" lon="-0.59788">
        <ele>77</ele>
        <time>2014-02-16T10:16:45+00:00</time>
      </trkpt>
      <trkpt lat="47.3372" lon="-0.59791">
        <ele>77</ele>
        <time>2014-02-16T10:16:52+00:00</time>
      </trkpt>
      <trkpt lat="47.33725" lon="-0.59794">
        <ele>77</ele>
        <time>2014-02-16T10:16:53+00:00</time>
      </trkpt>
      <trkpt lat="47.3373" lon="-0.59797">
        <ele>77</ele>
        <time>2014-02-16T10:16:54+00:00</time>
      </trkpt>
      <trkpt lat="47.33734" lon="-0.59803">
        <ele>77</ele>
        <time>2014-02-16T10:16:55+00:00</time>
      </trkpt>
      <trkpt lat="47.33737" lon="-0.59809">
        <ele>77</ele>
        <time>2014-02-16T10:16:56+00:00</time>
      </trkpt>
      <trkpt lat="47.3374" lon="-0.59816">
        <ele>77</ele>
        <time>2014-02-16T10:16:57+00:00</time>
      </trkpt>
      <trkpt lat="47.33761" lon="-0.59893">
        <ele>76</ele>
        <time>2014-02-16T10:17:07+00:00</time>
      </trkpt>
      <trkpt lat="47.33762" lon="-0.59901">
        <ele>76</ele>
        <time>2014-02-16T10:17:08+00:00</time>
      </trkpt>
      <trkpt lat="47.33763" lon="-0.59911">
        <ele>75</ele>
        <time>2014-02-16T10:17:09+00:00</time>
      </trkpt>
      <trkpt lat="47.33764" lon="-0.59921">
        <ele>75</ele>
        <time>2014-02-16T10:17:10+00:00</time>
      </trkpt>
      <trkpt lat="47.33764" lon="-0.59932">
        <ele>73</ele>
        <time>2014-02-16T10:17:11+00:00</time>
      </trkpt>
      <trkpt lat="47.33761" lon="-0.59941">
        <ele>72</ele>
        <time>2014-02-16T10:17:12+00:00</time>
      </trkpt>
      <trkpt lat="47.33757" lon="-0.59949">
        <ele>72</ele>
        <time>2014-02-16T10:17:13+00:00</time>
      </trkpt>
      <trkpt lat="47.33752" lon="-0.59956">
        <ele>72</ele>
        <time>2014-02-16T10:17:14+00:00</time>
      </trkpt>
      <trkpt lat="47.33742" lon="-0.59965">
        <ele>72</ele>
        <time>2014-02-16T10:17:16+00:00</time>
      </trkpt>
      <trkpt lat="47.33737" lon="-0.59969">
        <ele>72</ele>
        <time>2014-02-16T10:17:17+00:00</time>
      </trkpt>
      <trkpt lat="47.33593" lon="-0.60059">
        <ele>68</ele>
        <time>2014-02-16T10:17:39+00:00</time>
      </trkpt>
      <trkpt lat="47.33588" lon="-0.60064">
        <ele>68</ele>
        <time>2014-02-16T10:17:40+00:00</time>
      </trkpt>
      <trkpt lat="47.33575" lon="-0.60083">
        <ele>67</ele>
        <time>2014-02-16T10:17:43+00:00</time>
      </trkpt>
      <trkpt lat="47.33572" lon="-0.60089">
        <ele>68</ele>
        <time>2014-02-16T10:17:44+00:00</time>
      </trkpt>
      <trkpt lat="47.33562" lon="-0.60112">
        <ele>67</ele>
        <time>2014-02-16T10:17:47+00:00</time>
      </trkpt>
      <trkpt lat="47.33558" lon="-0.60119">
        <ele>67</ele>
        <time>2014-02-16T10:17:48+00:00</time>
      </trkpt>
      <trkpt lat="47.335" lon="-0.60258">
        <ele>65</ele>
        <time>2014-02-16T10:18:06+00:00</time>
      </trkpt>
      <trkpt lat="47.33498" lon="-0.60263">
        <ele>65</ele>
        <time>2014-02-16T10:18:07+00:00</time>
      </trkpt>
      <trkpt lat="47.3349" lon="-0.60276">
        <ele>66</ele>
        <time>2014-02-16T10:18:10+00:00</time>
      </trkpt>
      <trkpt lat="47.33487" lon="-0.60281">
        <ele>67</ele>
        <time>2014-02-16T10:18:11+00:00</time>
      </trkpt>
      <trkpt lat="47.33484" lon="-0.60284">
        <ele>66</ele>
        <time>2014-02-16T10:18:12+00:00</time>
      </trkpt>
      <trkpt lat="47.33481" lon="-0.60287">
        <ele>67</ele>
        <time>2014-02-16T10:18:13+00:00</time>
      </trkpt>
      <trkpt lat="47.33478" lon="-0.60291">
        <ele>66</ele>
        <time>2014-02-16T10:18:14+00:00</time>
      </trkpt>
      <trkpt lat="47.33476" lon="-0.60292">
        <ele>67</ele>
        <time>2014-02-16T10:18:15+00:00</time>
      </trkpt>
      <trkpt lat="47.33472" lon="-0.60295">
        <ele>67</ele>
        <time>2014-02-16T10:18:16+00:00</time>
      </trkpt>
      <trkpt lat="47.33469" lon="-0.60295">
        <ele>67</ele>
        <time>2014-02-16T10:18:17+00:00</time>
      </trkpt>
      <trkpt lat="47.3333" lon="-0.60354">
        <ele>73</ele>
        <time>2014-02-16T10:19:12+00:00</time>
      </trkpt>
      <trkpt lat="47.33328" lon="-0.60356">
        <ele>73</ele>
        <time>2014-02-16T10:19:13+00:00</time>
      </trkpt>
      <trkpt lat="47.33326" lon="-0.60358">
        <ele>73</ele>
        <time>2014-02-16T10:19:14+00:00</time>
      </trkpt>
      <trkpt lat="47.33324" lon="-0.60361">
        <ele>73</ele>
        <time>2014-02-16T10:19:15+00:00</time>
      </trkpt>
      <trkpt lat="47.33324" lon="-0.60364">
        <ele>73</ele>
        <time>2014-02-16T10:19:16+00:00</time>
      </trkpt>
      <trkpt lat="47.33324" lon="-0.60372">
        <ele>73</ele>
        <time>2014-02-16T10:19:18+00:00</time>
      </trkpt>
      <trkpt lat="47.33324" lon="-0.60375">
        <ele>73</ele>
        <time>2014-02-16T10:19:19+00:00</time>
      </trkpt>
      <trkpt lat="47.33324" lon="-0.60416">
        <ele>72</ele>
        <time>2014-02-16T10:19:29+00:00</time>
      </trkpt>
      <trkpt lat="47.33324" lon="-0.6042">
        <ele>72</ele>
        <time>2014-02-16T10:19:30+00:00</time>
      </trkpt>
      <trkpt lat="47.33322" lon="-0.6044">
        <ele>73</ele>
        <time>2014-02-16T10:19:35+00:00</time>
      </trkpt>
      <trkpt lat="47.33321" lon="-0.60444">
        <ele>73</ele>
        <time>2014-02-16T10:19:36+00:00</time>
      </trkpt>
      <trkpt lat="47.33314" lon="-0.60473">
        <ele>74</ele>
        <time>2014-02-16T10:19:43+00:00</time>
      </trkpt>
      <trkpt lat="47.33313" lon="-0.60476">
        <ele>74</ele>
        <time>2014-02-16T10:19:44+00:00</time>
      </trkpt>
      <trkpt lat="47.33283" lon="-0.6059">
        <ele>78</ele>
        <time>2014-02-16T10:20:12+00:00</time>
      </trkpt>
      <trkpt lat="47.33282" lon="-0.60595">
        <ele>78</ele>
        <time>2014-02-16T10:20:13+00:00</time>
      </trkpt>
      <trkpt lat="47.3328" lon="-0.60627">
        <ele>78</ele>
        <time>2014-02-16T10:20:20+00:00</time>
      </trkpt>
      <trkpt lat="47.33279" lon="-0.60631">
        <ele>78</ele>
        <time>2014-02-16T10:20:21+00:00</time>
      </trkpt>
      <trkpt lat="47.33276" lon="-0.60696">
        <ele>80</ele>
        <time>2014-02-16T10:20:35+00:00</time>
      </trkpt>
      <trkpt lat="47.33275" lon="-0.607">
        <ele>81</ele>
        <time>2014-02-16T10:20:36+00:00</time>
      </trkpt>
      <trkpt lat="47.33271" lon="-0.60715">
        <ele>81</ele>
        <time>2014-02-16T10:20:39+00:00</time>
      </trkpt>
      <trkpt lat="47.3327" lon="-0.60719">
        <ele>81</ele>
        <time>2014-02-16T10:20:40+00:00</time>
      </trkpt>
      <trkpt lat="47.33217" lon="-0.60885">
        <ele>86</ele>
        <time>2014-02-16T10:21:20+00:00</time>
      </trkpt>
      <trkpt lat="47.33216" lon="-0.60891">
        <ele>86</ele>
        <time>2014-02-16T10:21:21+00:00</time>
      </trkpt>
      <trkpt lat="47.33214" lon="-0.60905">
        <ele>86</ele>
        <time>2014-02-16T10:21:24+00:00</time>
      </trkpt>
      <trkpt lat="47.33214" lon="-0.6091">
        <ele>85</ele>
        <time>2014-02-16T10:21:25+00:00</time>
      </trkpt>
      <trkpt lat="47.33199" lon="-0.61075">
        <ele>87</ele>
        <time>2014-02-16T10:21:57+00:00</time>
      </trkpt>
      <trkpt lat="47.33198" lon="-0.6108">
        <ele>87</ele>
        <time>2014-02-16T10:21:58+00:00</time>
      </trkpt>
      <trkpt lat="47.3317" lon="-0.61252">
        <ele>87</ele>
        <time>2014-02-16T10:22:29+00:00</time>
      </trkpt>
      <trkpt lat="47.33171" lon="-0.61255">
        <ele>86</ele>
        <time>2014-02-16T10:22:30+00:00</time>
      </trkpt>
      <trkpt lat="47.33172" lon="-0.61256">
        <ele>87</ele>
        <time>2014-02-16T10:22:31+00:00</time>
      </trkpt>
      <trkpt lat="47.33174" lon="-0.61256">
        <ele>87</ele>
        <time>2014-02-16T10:22:32+00:00</time>
      </trkpt>
      <trkpt lat="47.33177" lon="-0.61254">
        <ele>87</ele>
        <time>2014-02-16T10:22:33+00:00</time>
      </trkpt>
      <trkpt lat="47.33204" lon="-0.61237">
        <ele>90</ele>
        <time>2014-02-16T10:22:42+00:00</time>
      </trkpt>
      <trkpt lat="47.33208" lon="-0.61236">
        <ele>90</ele>
        <time>2014-02-16T10:22:43+00:00</time>
      </trkpt>
      <trkpt lat="47.33211" lon="-0.61236">
        <ele>90</ele>
        <time>2014-02-16T10:22:44+00:00</time>
      </trkpt>
      <trkpt lat="47.33213" lon="-0.61236">
        <ele>90</ele>
        <time>2014-02-16T10:22:45+00:00</time>
      </trkpt>
      <trkpt lat="47.33216" lon="-0.61238">
        <ele>91</ele>
        <time>2014-02-16T10:22:46+00:00</time>
      </trkpt>
      <trkpt lat="47.33218" lon="-0.61242">
        <ele>90</ele>
        <time>2014-02-16T10:22:47+00:00</time>
      </trkpt>
      <trkpt lat="47.3322" lon="-0.61245">
        <ele>88</ele>
        <time>2014-02-16T10:22:49+00:00</time>
      </trkpt>
      <trkpt lat="47.3322" lon="-0.61245">
        <ele>88</ele>
        <time>2014-02-16T10:22:50+00:00</time>
      </trkpt>
      <trkpt lat="47.3322" lon="-0.61248">
        <ele>87</ele>
        <time>2014-02-16T10:22:51+00:00</time>
      </trkpt>
      <trkpt lat="47.3322" lon="-0.61249">
        <ele>87</ele>
        <time>2014-02-16T10:22:52+00:00</time>
      </trkpt>
      <trkpt lat="47.3322" lon="-0.61251">
        <ele>88</ele>
        <time>2014-02-16T10:22:53+00:00</time>
      </trkpt>
      <trkpt lat="47.3322" lon="-0.61253">
        <ele>88</ele>
        <time>2014-02-16T10:22:54+00:00</time>
      </trkpt>
      <trkpt lat="47.3322" lon="-0.61257">
        <ele>88</ele>
        <time>2014-02-16T10:22:55+00:00</time>
      </trkpt>
      <trkpt lat="47.3322" lon="-0.61265">
        <ele>89</ele>
        <time>2014-02-16T10:22:57+00:00</time>
      </trkpt>
      <trkpt lat="47.3322" lon="-0.61268">
        <ele>91</ele>
        <time>2014-02-16T10:22:58+00:00</time>
      </trkpt>
      <trkpt lat="47.33222" lon="-0.61282">
        <ele>90</ele>
        <time>2014-02-16T10:23:01+00:00</time>
      </trkpt>
      <trkpt lat="47.33224" lon="-0.61286">
        <ele>89</ele>
        <time>2014-02-16T10:23:02+00:00</time>
      </trkpt>
      <trkpt lat="47.3323" lon="-0.61335">
        <ele>87</ele>
        <time>2014-02-16T10:23:10+00:00</time>
      </trkpt>
      <trkpt lat="47.33231" lon="-0.6134">
        <ele>88</ele>
        <time>2014-02-16T10:23:11+00:00</time>
      </trkpt>
      <trkpt lat="47.33234" lon="-0.6138">
        <ele>87</ele>
        <time>2014-02-16T10:23:20+00:00</time>
      </trkpt>
      <trkpt lat="47.33234" lon="-0.61385">
        <ele>87</ele>
        <time>2014-02-16T10:23:21+00:00</time>
      </trkpt>
      <trkpt lat="47.33236" lon="-0.61412">
        <ele>86</ele>
        <time>2014-02-16T10:23:28+00:00</time>
      </trkpt>
      <trkpt lat="47.33236" lon="-0.61417">
        <ele>85</ele>
        <time>2014-02-16T10:23:29+00:00</time>
      </trkpt>
      <trkpt lat="47.33236" lon="-0.6142">
        <ele>84</ele>
        <time>2014-02-16T10:23:30+00:00</time>
      </trkpt>
      <trkpt lat="47.33236" lon="-0.61423">
        <ele>83</ele>
        <time>2014-02-16T10:23:31+00:00</time>
      </trkpt>
      <trkpt lat="47.33236" lon="-0.6144">
        <ele>83</ele>
        <time>2014-02-16T10:23:37+00:00</time>
      </trkpt>
      <trkpt lat="47.33236" lon="-0.61443">
        <ele>84</ele>
        <time>2014-02-16T10:23:38+00:00</time>
      </trkpt>
      <trkpt lat="47.33236" lon="-0.61447">
        <ele>83</ele>
        <time>2014-02-16T10:23:40+00:00</time>
      </trkpt>
      <trkpt lat="47.33236" lon="-0.6145">
        <ele>84</ele>
        <time>2014-02-16T10:23:41+00:00</time>
      </trkpt>
      <trkpt lat="47.33236" lon="-0.61452">
        <ele>84</ele>
        <time>2014-02-16T10:23:42+00:00</time>
      </trkpt>
      <trkpt lat="47.33236" lon="-0.61455">
        <ele>83</ele>
        <time>2014-02-16T10:23:43+00:00</time>
      </trkpt>
      <trkpt lat="47.33235" lon="-0.6146">
        <ele>81</ele>
        <time>2014-02-16T10:23:45+00:00</time>
      </trkpt>
      <trkpt lat="47.33235" lon="-0.61462">
        <ele>82</ele>
        <time>2014-02-16T10:23:46+00:00</time>
      </trkpt>
      <trkpt lat="47.33235" lon="-0.61465">
        <ele>83</ele>
        <time>2014-02-16T10:23:47+00:00</time>
      </trkpt>
      <trkpt lat="47.33235" lon="-0.61468">
        <ele>84</ele>
        <time>2014-02-16T10:23:48+00:00</time>
      </trkpt>
      <trkpt lat="47.33236" lon="-0.61471">
        <ele>84</ele>
        <time>2014-02-16T10:23:49+00:00</time>
      </trkpt>
      <trkpt lat="47.33235" lon="-0.61475">
        <ele>84</ele>
        <time>2014-02-16T10:23:50+00:00</time>
      </trkpt>
      <trkpt lat="47.33235" lon="-0.61487">
        <ele>83</ele>
        <time>2014-02-16T10:23:54+00:00</time>
      </trkpt>
      <trkpt lat="47.33235" lon="-0.6149">
        <ele>83</ele>
        <time>2014-02-16T10:23:55+00:00</time>
      </trkpt>
      <trkpt lat="47.33236" lon="-0.61506">
        <ele>83</ele>
        <time>2014-02-16T10:24:01+00:00</time>
      </trkpt>
      <trkpt lat="47.33236" lon="-0.61508">
        <ele>83</ele>
        <time>2014-02-16T10:24:02+00:00</time>
      </trkpt>
      <trkpt lat="47.33236" lon="-0.61508">
        <ele>82</ele>
        <time>2014-02-16T10:24:03+00:00</time>
      </trkpt>
      <trkpt lat="47.33236" lon="-0.6151">
        <ele>81</ele>
        <time>2014-02-16T10:24:04+00:00</time>
      </trkpt>
      <trkpt lat="47.33236" lon="-0.61512">
        <ele>81</ele>
        <time>2014-02-16T10:24:05+00:00</time>
      </trkpt>
      <trkpt lat="47.33236" lon="-0.61514">
        <ele>82</ele>
        <time>2014-02-16T10:24:06+00:00</time>
      </trkpt>
      <trkpt lat="47.33236" lon="-0.61515">
        <ele>82</ele>
        <time>2014-02-16T10:24:07+00:00</time>
      </trkpt>
      <trkpt lat="47.33236" lon="-0.61516">
        <ele>82</ele>
        <time>2014-02-16T10:24:08+00:00</time>
      </trkpt>
      <trkpt lat="47.33236" lon="-0.61523">
        <ele>82</ele>
        <time>2014-02-16T10:24:11+00:00</time>
      </trkpt>
      <trkpt lat="47.33236" lon="-0.61524">
        <ele>81</ele>
        <time>2014-02-16T10:24:12+00:00</time>
      </trkpt>
      <trkpt lat="47.33236" lon="-0.61529">
        <ele>82</ele>
        <time>2014-02-16T10:24:14+00:00</time>
      </trkpt>
      <trkpt lat="47.33236" lon="-0.61531">
        <ele>82</ele>
        <time>2014-02-16T10:24:15+00:00</time>
      </trkpt>
      <trkpt lat="47.33236" lon="-0.61532">
        <ele>82</ele>
        <time>2014-02-16T10:24:16+00:00</time>
      </trkpt>
      <trkpt lat="47.33236" lon="-0.61533">
        <ele>83</ele>
        <time>2014-02-16T10:24:17+00:00</time>
      </trkpt>
      <trkpt lat="47.33236" lon="-0.61534">
        <ele>82</ele>
        <time>2014-02-16T10:24:18+00:00</time>
      </trkpt>
      <trkpt lat="47.33236" lon="-0.61536">
        <ele>82</ele>
        <time>2014-02-16T10:24:19+00:00</time>
      </trkpt>
      <trkpt lat="47.33235" lon="-0.61538">
        <ele>82</ele>
        <time>2014-02-16T10:24:20+00:00</time>
      </trkpt>
      <trkpt lat="47.33235" lon="-0.6154">
        <ele>82</ele>
        <time>2014-02-16T10:24:21+00:00</time>
      </trkpt>
      <trkpt lat="47.33235" lon="-0.61541">
        <ele>81</ele>
        <time>2014-02-16T10:24:22+00:00</time>
      </trkpt>
      <trkpt lat="47.33235" lon="-0.61543">
        <ele>81</ele>
        <time>2014-02-16T10:24:23+00:00</time>
      </trkpt>
      <trkpt lat="47.33236" lon="-0.61547">
        <ele>81</ele>
        <time>2014-02-16T10:24:25+00:00</time>
      </trkpt>
      <trkpt lat="47.33236" lon="-0.61548">
        <ele>81</ele>
        <time>2014-02-16T10:24:26+00:00</time>
      </trkpt>
      <trkpt lat="47.33236" lon="-0.61551">
        <ele>82</ele>
        <time>2014-02-16T10:24:27+00:00</time>
      </trkpt>
      <trkpt lat="47.33236" lon="-0.61554">
        <ele>83</ele>
        <time>2014-02-16T10:24:28+00:00</time>
      </trkpt>
      <trkpt lat="47.33236" lon="-0.61559">
        <ele>82</ele>
        <time>2014-02-16T10:24:30+00:00</time>
      </trkpt>
      <trkpt lat="47.33236" lon="-0.61562">
        <ele>83</ele>
        <time>2014-02-16T10:24:31+00:00</time>
      </trkpt>
      <trkpt lat="47.33236" lon="-0.61564">
        <ele>82</ele>
        <time>2014-02-16T10:24:32+00:00</time>
      </trkpt>
      <trkpt lat="47.33236" lon="-0.61567">
        <ele>82</ele>
        <time>2014-02-16T10:24:33+00:00</time>
      </trkpt>
      <trkpt lat="47.33236" lon="-0.6157">
        <ele>82</ele>
        <time>2014-02-16T10:24:34+00:00</time>
      </trkpt>
      <trkpt lat="47.33236" lon="-0.61572">
        <ele>82</ele>
        <time>2014-02-16T10:24:35+00:00</time>
      </trkpt>
      <trkpt lat="47.33236" lon="-0.61575">
        <ele>82</ele>
        <time>2014-02-16T10:24:36+00:00</time>
      </trkpt>
      <trkpt lat="47.33237" lon="-0.61591">
        <ele>82</ele>
        <time>2014-02-16T10:24:41+00:00</time>
      </trkpt>
      <trkpt lat="47.33238" lon="-0.61595">
        <ele>82</ele>
        <time>2014-02-16T10:24:42+00:00</time>
      </trkpt>
      <trkpt lat="47.33238" lon="-0.61597">
        <ele>82</ele>
        <time>2014-02-16T10:24:43+00:00</time>
      </trkpt>
      <trkpt lat="47.33238" lon="-0.61601">
        <ele>82</ele>
        <time>2014-02-16T10:24:44+00:00</time>
      </trkpt>
      <trkpt lat="47.33238" lon="-0.61606">
        <ele>83</ele>
        <time>2014-02-16T10:24:46+00:00</time>
      </trkpt>
      <trkpt lat="47.33239" lon="-0.6161">
        <ele>82</ele>
        <time>2014-02-16T10:24:47+00:00</time>
      </trkpt>
      <trkpt lat="47.3324" lon="-0.6162">
        <ele>82</ele>
        <time>2014-02-16T10:24:51+00:00</time>
      </trkpt>
      <trkpt lat="47.3324" lon="-0.61624">
        <ele>81</ele>
        <time>2014-02-16T10:24:52+00:00</time>
      </trkpt>
      <trkpt lat="47.3324" lon="-0.61627">
        <ele>81</ele>
        <time>2014-02-16T10:24:53+00:00</time>
      </trkpt>
      <trkpt lat="47.33243" lon="-0.61679">
        <ele>81</ele>
        <time>2014-02-16T10:25:11+00:00</time>
      </trkpt>
      <trkpt lat="47.33244" lon="-0.61681">
        <ele>81</ele>
        <time>2014-02-16T10:25:12+00:00</time>
      </trkpt>
      <trkpt lat="47.33244" lon="-0.61685">
        <ele>81</ele>
        <time>2014-02-16T10:25:14+00:00</time>
      </trkpt>
      <trkpt lat="47.33244" lon="-0.61688">
        <ele>82</ele>
        <time>2014-02-16T10:25:15+00:00</time>
      </trkpt>
      <trkpt lat="47.33244" lon="-0.61692">
        <ele>82</ele>
        <time>2014-02-16T10:25:16+00:00</time>
      </trkpt>
      <trkpt lat="47.33244" lon="-0.61694">
        <ele>82</ele>
        <time>2014-02-16T10:25:17+00:00</time>
      </trkpt>
      <trkpt lat="47.33245" lon="-0.61697">
        <ele>82</ele>
        <time>2014-02-16T10:25:18+00:00</time>
      </trkpt>
      <trkpt lat="47.33245" lon="-0.61699">
        <ele>82</ele>
        <time>2014-02-16T10:25:19+00:00</time>
      </trkpt>
      <trkpt lat="47.33244" lon="-0.61701">
        <ele>82</ele>
        <time>2014-02-16T10:25:20+00:00</time>
      </trkpt>
      <trkpt lat="47.33244" lon="-0.61703">
        <ele>82</ele>
        <time>2014-02-16T10:25:21+00:00</time>
      </trkpt>
      <trkpt lat="47.33244" lon="-0.61708">
        <ele>83</ele>
        <time>2014-02-16T10:25:23+00:00</time>
      </trkpt>
      <trkpt lat="47.33244" lon="-0.61709">
        <ele>83</ele>
        <time>2014-02-16T10:25:24+00:00</time>
      </trkpt>
      <trkpt lat="47.33244" lon="-0.61711">
        <ele>84</ele>
        <time>2014-02-16T10:25:25+00:00</time>
      </trkpt>
      <trkpt lat="47.33244" lon="-0.61714">
        <ele>83</ele>
        <time>2014-02-16T10:25:26+00:00</time>
      </trkpt>
      <trkpt lat="47.33244" lon="-0.61716">
        <ele>84</ele>
        <time>2014-02-16T10:25:27+00:00</time>
      </trkpt>
      <trkpt lat="47.33244" lon="-0.61717">
        <ele>81</ele>
        <time>2014-02-16T10:25:28+00:00</time>
      </trkpt>
      <trkpt lat="47.33244" lon="-0.6172">
        <ele>79</ele>
        <time>2014-02-16T10:25:29+00:00</time>
      </trkpt>
      <trkpt lat="47.33244" lon="-0.61722">
        <ele>79</ele>
        <time>2014-02-16T10:25:30+00:00</time>
      </trkpt>
      <trkpt lat="47.33244" lon="-0.61724">
        <ele>79</ele>
        <time>2014-02-16T10:25:31+00:00</time>
      </trkpt>
      <trkpt lat="47.33245" lon="-0.61725">
        <ele>81</ele>
        <time>2014-02-16T10:25:32+00:00</time>
      </trkpt>
      <trkpt lat="47.33246" lon="-0.61729">
        <ele>81</ele>
        <time>2014-02-16T10:25:34+00:00</time>
      </trkpt>
      <trkpt lat="47.33247" lon="-0.61731">
        <ele>79</ele>
        <time>2014-02-16T10:25:35+00:00</time>
      </trkpt>
      <trkpt lat="47.33248" lon="-0.61732">
        <ele>80</ele>
        <time>2014-02-16T10:25:36+00:00</time>
      </trkpt>
      <trkpt lat="47.33248" lon="-0.61734">
        <ele>81</ele>
        <time>2014-02-16T10:25:37+00:00</time>
      </trkpt>
      <trkpt lat="47.33249" lon="-0.61736">
        <ele>80</ele>
        <time>2014-02-16T10:25:38+00:00</time>
      </trkpt>
      <trkpt lat="47.33249" lon="-0.61738">
        <ele>79</ele>
        <time>2014-02-16T10:25:39+00:00</time>
      </trkpt>
      <trkpt lat="47.3325" lon="-0.61741">
        <ele>77</ele>
        <time>2014-02-16T10:25:41+00:00</time>
      </trkpt>
      <trkpt lat="47.3325" lon="-0.61742">
        <ele>77</ele>
        <time>2014-02-16T10:25:42+00:00</time>
      </trkpt>
      <trkpt lat="47.33251" lon="-0.61745">
        <ele>77</ele>
        <time>2014-02-16T10:25:43+00:00</time>
      </trkpt>
      <trkpt lat="47.33265" lon="-0.61921">
        <ele>85</ele>
        <time>2014-02-16T10:28:48+00:00</time>
      </trkpt>
      <trkpt lat="47.33265" lon="-0.61924">
        <ele>83</ele>
        <time>2014-02-16T10:28:49+00:00</time>
      </trkpt>
      <trkpt lat="47.33264" lon="-0.6193">
        <ele>84</ele>
        <time>2014-02-16T10:28:52+00:00</time>
      </trkpt>
      <trkpt lat="47.33263" lon="-0.61933">
        <ele>85</ele>
        <time>2014-02-16T10:28:53+00:00</time>
      </trkpt>
      <trkpt lat="47.33263" lon="-0.61935">
        <ele>85</ele>
        <time>2014-02-16T10:28:54+00:00</time>
      </trkpt>
      <trkpt lat="47.33263" lon="-0.61937">
        <ele>85</ele>
        <time>2014-02-16T10:28:55+00:00</time>
      </trkpt>
      <trkpt lat="47.33262" lon="-0.61944">
        <ele>83</ele>
        <time>2014-02-16T10:28:58+00:00</time>
      </trkpt>
      <trkpt lat="47.33262" lon="-0.61947">
        <ele>84</ele>
        <time>2014-02-16T10:28:59+00:00</time>
      </trkpt>
      <trkpt lat="47.33262" lon="-0.61949">
        <ele>85</ele>
        <time>2014-02-16T10:29:00+00:00</time>
      </trkpt>
      <trkpt lat="47.33262" lon="-0.61952">
        <ele>86</ele>
        <time>2014-02-16T10:29:01+00:00</time>
      </trkpt>
      <trkpt lat="47.33262" lon="-0.61955">
        <ele>86</ele>
        <time>2014-02-16T10:29:02+00:00</time>
      </trkpt>
      <trkpt lat="47.33262" lon="-0.61957">
        <ele>88</ele>
        <time>2014-02-16T10:29:03+00:00</time>
      </trkpt>
      <trkpt lat="47.33263" lon="-0.61959">
        <ele>87</ele>
        <time>2014-02-16T10:29:04+00:00</time>
      </trkpt>
      <trkpt lat="47.33263" lon="-0.61962">
        <ele>84</ele>
        <time>2014-02-16T10:29:05+00:00</time>
      </trkpt>
      <trkpt lat="47.33265" lon="-0.61987">
        <ele>83</ele>
        <time>2014-02-16T10:29:14+00:00</time>
      </trkpt>
      <trkpt lat="47.33265" lon="-0.61988">
        <ele>83</ele>
        <time>2014-02-16T10:29:15+00:00</time>
      </trkpt>
      <trkpt lat="47.33265" lon="-0.6199">
        <ele>83</ele>
        <time>2014-02-16T10:29:16+00:00</time>
      </trkpt>
      <trkpt lat="47.33266" lon="-0.61992">
        <ele>82</ele>
        <time>2014-02-16T10:29:17+00:00</time>
      </trkpt>
      <trkpt lat="47.33266" lon="-0.62001">
        <ele>84</ele>
        <time>2014-02-16T10:29:21+00:00</time>
      </trkpt>
      <trkpt lat="47.33266" lon="-0.62003">
        <ele>84</ele>
        <time>2014-02-16T10:29:22+00:00</time>
      </trkpt>
      <trkpt lat="47.33267" lon="-0.62007">
        <ele>84</ele>
        <time>2014-02-16T10:29:24+00:00</time>
      </trkpt>
      <trkpt lat="47.33268" lon="-0.6201">
        <ele>85</ele>
        <time>2014-02-16T10:29:25+00:00</time>
      </trkpt>
      <trkpt lat="47.33268" lon="-0.62012">
        <ele>86</ele>
        <time>2014-02-16T10:29:26+00:00</time>
      </trkpt>
      <trkpt lat="47.33269" lon="-0.62014">
        <ele>87</ele>
        <time>2014-02-16T10:29:27+00:00</time>
      </trkpt>
      <trkpt lat="47.3327" lon="-0.62017">
        <ele>85</ele>
        <time>2014-02-16T10:29:28+00:00</time>
      </trkpt>
      <trkpt lat="47.3327" lon="-0.6202">
        <ele>84</ele>
        <time>2014-02-16T10:29:29+00:00</time>
      </trkpt>
      <trkpt lat="47.33271" lon="-0.62021">
        <ele>84</ele>
        <time>2014-02-16T10:29:30+00:00</time>
      </trkpt>
      <trkpt lat="47.33272" lon="-0.62024">
        <ele>85</ele>
        <time>2014-02-16T10:29:31+00:00</time>
      </trkpt>
      <trkpt lat="47.33273" lon="-0.62027">
        <ele>85</ele>
        <time>2014-02-16T10:29:32+00:00</time>
      </trkpt>
      <trkpt lat="47.33275" lon="-0.62036">
        <ele>86</ele>
        <time>2014-02-16T10:29:35+00:00</time>
      </trkpt>
      <trkpt lat="47.33275" lon="-0.62037">
        <ele>85</ele>
        <time>2014-02-16T10:29:36+00:00</time>
      </trkpt>
      <trkpt lat="47.33276" lon="-0.6204">
        <ele>85</ele>
        <time>2014-02-16T10:29:37+00:00</time>
      </trkpt>
      <trkpt lat="47.33276" lon="-0.62043">
        <ele>85</ele>
        <time>2014-02-16T10:29:38+00:00</time>
      </trkpt>
      <trkpt lat="47.33276" lon="-0.62045">
        <ele>84</ele>
        <time>2014-02-16T10:29:39+00:00</time>
      </trkpt>
      <trkpt lat="47.33276" lon="-0.62048">
        <ele>83</ele>
        <time>2014-02-16T10:29:40+00:00</time>
      </trkpt>
      <trkpt lat="47.33277" lon="-0.62058">
        <ele>85</ele>
        <time>2014-02-16T10:29:43+00:00</time>
      </trkpt>
      <trkpt lat="47.33277" lon="-0.6206">
        <ele>84</ele>
        <time>2014-02-16T10:29:44+00:00</time>
      </trkpt>
      <trkpt lat="47.33277" lon="-0.62064">
        <ele>83</ele>
        <time>2014-02-16T10:29:45+00:00</time>
      </trkpt>
      <trkpt lat="47.33278" lon="-0.6207">
        <ele>83</ele>
        <time>2014-02-16T10:29:47+00:00</time>
      </trkpt>
      <trkpt lat="47.33278" lon="-0.62073">
        <ele>81</ele>
        <time>2014-02-16T10:29:48+00:00</time>
      </trkpt>
      <trkpt lat="47.3328" lon="-0.62079">
        <ele>80</ele>
        <time>2014-02-16T10:29:50+00:00</time>
      </trkpt>
      <trkpt lat="47.3328" lon="-0.62082">
        <ele>80</ele>
        <time>2014-02-16T10:29:51+00:00</time>
      </trkpt>
      <trkpt lat="47.3328" lon="-0.62084">
        <ele>79</ele>
        <time>2014-02-16T10:29:52+00:00</time>
      </trkpt>
      <trkpt lat="47.3328" lon="-0.62087">
        <ele>79</ele>
        <time>2014-02-16T10:29:53+00:00</time>
      </trkpt>
      <trkpt lat="47.33281" lon="-0.62091">
        <ele>79</ele>
        <time>2014-02-16T10:29:54+00:00</time>
      </trkpt>
      <trkpt lat="47.33283" lon="-0.62101">
        <ele>78</ele>
        <time>2014-02-16T10:29:58+00:00</time>
      </trkpt>
      <trkpt lat="47.33283" lon="-0.62104">
        <ele>79</ele>
        <time>2014-02-16T10:29:59+00:00</time>
      </trkpt>
      <trkpt lat="47.33283" lon="-0.62107">
        <ele>80</ele>
        <time>2014-02-16T10:30:00+00:00</time>
      </trkpt>
      <trkpt lat="47.33283" lon="-0.62108">
        <ele>81</ele>
        <time>2014-02-16T10:30:01+00:00</time>
      </trkpt>
      <trkpt lat="47.33283" lon="-0.6211">
        <ele>81</ele>
        <time>2014-02-16T10:30:02+00:00</time>
      </trkpt>
      <trkpt lat="47.33284" lon="-0.62113">
        <ele>80</ele>
        <time>2014-02-16T10:30:03+00:00</time>
      </trkpt>
      <trkpt lat="47.33284" lon="-0.62118">
        <ele>80</ele>
        <time>2014-02-16T10:30:05+00:00</time>
      </trkpt>
      <trkpt lat="47.33284" lon="-0.6212">
        <ele>80</ele>
        <time>2014-02-16T10:30:06+00:00</time>
      </trkpt>
      <trkpt lat="47.33284" lon="-0.62128">
        <ele>81</ele>
        <time>2014-02-16T10:30:09+00:00</time>
      </trkpt>
      <trkpt lat="47.33285" lon="-0.6213">
        <ele>81</ele>
        <time>2014-02-16T10:30:10+00:00</time>
      </trkpt>
      <trkpt lat="47.33285" lon="-0.62132">
        <ele>82</ele>
        <time>2014-02-16T10:30:11+00:00</time>
      </trkpt>
      <trkpt lat="47.33285" lon="-0.62134">
        <ele>80</ele>
        <time>2014-02-16T10:30:12+00:00</time>
      </trkpt>
      <trkpt lat="47.33285" lon="-0.62136">
        <ele>80</ele>
        <time>2014-02-16T10:30:13+00:00</time>
      </trkpt>
      <trkpt lat="47.33285" lon="-0.62139">
        <ele>80</ele>
        <time>2014-02-16T10:30:14+00:00</time>
      </trkpt>
      <trkpt lat="47.33284" lon="-0.62141">
        <ele>80</ele>
        <time>2014-02-16T10:30:15+00:00</time>
      </trkpt>
      <trkpt lat="47.33284" lon="-0.62144">
        <ele>79</ele>
        <time>2014-02-16T10:30:16+00:00</time>
      </trkpt>
      <trkpt lat="47.33284" lon="-0.62146">
        <ele>78</ele>
        <time>2014-02-16T10:30:17+00:00</time>
      </trkpt>
      <trkpt lat="47.33284" lon="-0.62148">
        <ele>78</ele>
        <time>2014-02-16T10:30:18+00:00</time>
      </trkpt>
      <trkpt lat="47.33284" lon="-0.62149">
        <ele>79</ele>
        <time>2014-02-16T10:30:19+00:00</time>
      </trkpt>
      <trkpt lat="47.33284" lon="-0.62151">
        <ele>80</ele>
        <time>2014-02-16T10:30:20+00:00</time>
      </trkpt>
      <trkpt lat="47.33284" lon="-0.62153">
        <ele>82</ele>
        <time>2014-02-16T10:30:21+00:00</time>
      </trkpt>
      <trkpt lat="47.33284" lon="-0.62156">
        <ele>82</ele>
        <time>2014-02-16T10:30:22+00:00</time>
      </trkpt>
      <trkpt lat="47.33284" lon="-0.62158">
        <ele>84</ele>
        <time>2014-02-16T10:30:23+00:00</time>
      </trkpt>
      <trkpt lat="47.33284" lon="-0.62162">
        <ele>86</ele>
        <time>2014-02-16T10:30:25+00:00</time>
      </trkpt>
      <trkpt lat="47.33284" lon="-0.62164">
        <ele>87</ele>
        <time>2014-02-16T10:30:26+00:00</time>
      </trkpt>
      <trkpt lat="47.33284" lon="-0.62165">
        <ele>88</ele>
        <time>2014-02-16T10:30:27+00:00</time>
      </trkpt>
      <trkpt lat="47.33284" lon="-0.62167">
        <ele>89</ele>
        <time>2014-02-16T10:30:28+00:00</time>
      </trkpt>
      <trkpt lat="47.33284" lon="-0.62169">
        <ele>89</ele>
        <time>2014-02-16T10:30:29+00:00</time>
      </trkpt>
      <trkpt lat="47.33284" lon="-0.62171">
        <ele>87</ele>
        <time>2014-02-16T10:30:30+00:00</time>
      </trkpt>
      <trkpt lat="47.33285" lon="-0.62172">
        <ele>87</ele>
        <time>2014-02-16T10:30:31+00:00</time>
      </trkpt>
      <trkpt lat="47.33285" lon="-0.62175">
        <ele>88</ele>
        <time>2014-02-16T10:30:32+00:00</time>
      </trkpt>
      <trkpt lat="47.33285" lon="-0.62178">
        <ele>88</ele>
        <time>2014-02-16T10:30:33+00:00</time>
      </trkpt>
      <trkpt lat="47.33285" lon="-0.6218">
        <ele>88</ele>
        <time>2014-02-16T10:30:34+00:00</time>
      </trkpt>
      <trkpt lat="47.33286" lon="-0.62181">
        <ele>89</ele>
        <time>2014-02-16T10:30:35+00:00</time>
      </trkpt>
      <trkpt lat="47.33286" lon="-0.62183">
        <ele>90</ele>
        <time>2014-02-16T10:30:36+00:00</time>
      </trkpt>
      <trkpt lat="47.33288" lon="-0.62185">
        <ele>88</ele>
        <time>2014-02-16T10:30:37+00:00</time>
      </trkpt>
      <trkpt lat="47.33289" lon="-0.62186">
        <ele>89</ele>
        <time>2014-02-16T10:30:38+00:00</time>
      </trkpt>
      <trkpt lat="47.3329" lon="-0.62188">
        <ele>88</ele>
        <time>2014-02-16T10:30:39+00:00</time>
      </trkpt>
      <trkpt lat="47.33291" lon="-0.6219">
        <ele>89</ele>
        <time>2014-02-16T10:30:40+00:00</time>
      </trkpt>
      <trkpt lat="47.33292" lon="-0.62193">
        <ele>90</ele>
        <time>2014-02-16T10:30:41+00:00</time>
      </trkpt>
      <trkpt lat="47.33292" lon="-0.62197">
        <ele>90</ele>
        <time>2014-02-16T10:30:42+00:00</time>
      </trkpt>
      <trkpt lat="47.33293" lon="-0.622">
        <ele>88</ele>
        <time>2014-02-16T10:30:43+00:00</time>
      </trkpt>
      <trkpt lat="47.33294" lon="-0.62203">
        <ele>87</ele>
        <time>2014-02-16T10:30:44+00:00</time>
      </trkpt>
      <trkpt lat="47.33295" lon="-0.62204">
        <ele>87</ele>
        <time>2014-02-16T10:30:45+00:00</time>
      </trkpt>
      <trkpt lat="47.33296" lon="-0.62206">
        <ele>87</ele>
        <time>2014-02-16T10:30:46+00:00</time>
      </trkpt>
      <trkpt lat="47.33296" lon="-0.62208">
        <ele>87</ele>
        <time>2014-02-16T10:30:47+00:00</time>
      </trkpt>
      <trkpt lat="47.33297" lon="-0.6221">
        <ele>88</ele>
        <time>2014-02-16T10:30:48+00:00</time>
      </trkpt>
      <trkpt lat="47.33298" lon="-0.62212">
        <ele>87</ele>
        <time>2014-02-16T10:30:49+00:00</time>
      </trkpt>
      <trkpt lat="47.33298" lon="-0.62214">
        <ele>86</ele>
        <time>2014-02-16T10:30:50+00:00</time>
      </trkpt>
      <trkpt lat="47.33299" lon="-0.62215">
        <ele>86</ele>
        <time>2014-02-16T10:30:51+00:00</time>
      </trkpt>
      <trkpt lat="47.33299" lon="-0.62218">
        <ele>86</ele>
        <time>2014-02-16T10:30:52+00:00</time>
      </trkpt>
      <trkpt lat="47.333" lon="-0.62226">
        <ele>85</ele>
        <time>2014-02-16T10:30:55+00:00</time>
      </trkpt>
      <trkpt lat="47.33301" lon="-0.62228">
        <ele>84</ele>
        <time>2014-02-16T10:30:56+00:00</time>
      </trkpt>
      <trkpt lat="47.33301" lon="-0.6223">
        <ele>84</ele>
        <time>2014-02-16T10:30:57+00:00</time>
      </trkpt>
      <trkpt lat="47.33302" lon="-0.62232">
        <ele>84</ele>
        <time>2014-02-16T10:30:58+00:00</time>
      </trkpt>
      <trkpt lat="47.33302" lon="-0.62235">
        <ele>82</ele>
        <time>2014-02-16T10:30:59+00:00</time>
      </trkpt>
      <trkpt lat="47.33302" lon="-0.62236">
        <ele>83</ele>
        <time>2014-02-16T10:31:00+00:00</time>
      </trkpt>
      <trkpt lat="47.33303" lon="-0.62239">
        <ele>84</ele>
        <time>2014-02-16T10:31:01+00:00</time>
      </trkpt>
      <trkpt lat="47.33304" lon="-0.62244">
        <ele>87</ele>
        <time>2014-02-16T10:31:03+00:00</time>
      </trkpt>
      <trkpt lat="47.33305" lon="-0.62247">
        <ele>85</ele>
        <time>2014-02-16T10:31:04+00:00</time>
      </trkpt>
      <trkpt lat="47.33308" lon="-0.62255">
        <ele>87</ele>
        <time>2014-02-16T10:31:07+00:00</time>
      </trkpt>
      <trkpt lat="47.33308" lon="-0.62258">
        <ele>87</ele>
        <time>2014-02-16T10:31:08+00:00</time>
      </trkpt>
      <trkpt lat="47.33308" lon="-0.6226">
        <ele>86</ele>
        <time>2014-02-16T10:31:09+00:00</time>
      </trkpt>
      <trkpt lat="47.33308" lon="-0.62264">
        <ele>85</ele>
        <time>2014-02-16T10:31:10+00:00</time>
      </trkpt>
      <trkpt lat="47.33309" lon="-0.62266">
        <ele>85</ele>
        <time>2014-02-16T10:31:11+00:00</time>
      </trkpt>
      <trkpt lat="47.33309" lon="-0.62268">
        <ele>85</ele>
        <time>2014-02-16T10:31:12+00:00</time>
      </trkpt>
      <trkpt lat="47.3331" lon="-0.62269">
        <ele>85</ele>
        <time>2014-02-16T10:31:13+00:00</time>
      </trkpt>
      <trkpt lat="47.33311" lon="-0.62271">
        <ele>86</ele>
        <time>2014-02-16T10:31:14+00:00</time>
      </trkpt>
      <trkpt lat="47.33311" lon="-0.62274">
        <ele>87</ele>
        <time>2014-02-16T10:31:15+00:00</time>
      </trkpt>
      <trkpt lat="47.33312" lon="-0.62276">
        <ele>86</ele>
        <time>2014-02-16T10:31:16+00:00</time>
      </trkpt>
      <trkpt lat="47.33313" lon="-0.62277">
        <ele>85</ele>
        <time>2014-02-16T10:31:17+00:00</time>
      </trkpt>
      <trkpt lat="47.33313" lon="-0.62279">
        <ele>84</ele>
        <time>2014-02-16T10:31:18+00:00</time>
      </trkpt>
      <trkpt lat="47.33314" lon="-0.62282">
        <ele>84</ele>
        <time>2014-02-16T10:31:19+00:00</time>
      </trkpt>
      <trkpt lat="47.33315" lon="-0.62284">
        <ele>82</ele>
        <time>2014-02-16T10:31:20+00:00</time>
      </trkpt>
      <trkpt lat="47.33315" lon="-0.62284">
        <ele>84</ele>
        <time>2014-02-16T10:31:21+00:00</time>
      </trkpt>
      <trkpt lat="47.33324" lon="-0.62327">
        <ele>85</ele>
        <time>2014-02-16T10:31:46+00:00</time>
      </trkpt>
      <trkpt lat="47.33324" lon="-0.62328">
        <ele>87</ele>
        <time>2014-02-16T10:31:47+00:00</time>
      </trkpt>
      <trkpt lat="47.33325" lon="-0.62332">
        <ele>84</ele>
        <time>2014-02-16T10:31:49+00:00</time>
      </trkpt>
      <trkpt lat="47.33325" lon="-0.62333">
        <ele>85</ele>
        <time>2014-02-16T10:31:50+00:00</time>
      </trkpt>
      <trkpt lat="47.33326" lon="-0.62339">
        <ele>88</ele>
        <time>2014-02-16T10:31:53+00:00</time>
      </trkpt>
      <trkpt lat="47.33326" lon="-0.6234">
        <ele>87</ele>
        <time>2014-02-16T10:31:54+00:00</time>
      </trkpt>
      <trkpt lat="47.33327" lon="-0.62358">
        <ele>88</ele>
        <time>2014-02-16T10:32:02+00:00</time>
      </trkpt>
      <trkpt lat="47.33327" lon="-0.6236">
        <ele>89</ele>
        <time>2014-02-16T10:32:03+00:00</time>
      </trkpt>
      <trkpt lat="47.33327" lon="-0.62363">
        <ele>89</ele>
        <time>2014-02-16T10:32:04+00:00</time>
      </trkpt>
      <trkpt lat="47.33327" lon="-0.62365">
        <ele>90</ele>
        <time>2014-02-16T10:32:05+00:00</time>
      </trkpt>
      <trkpt lat="47.33327" lon="-0.62367">
        <ele>89</ele>
        <time>2014-02-16T10:32:06+00:00</time>
      </trkpt>
      <trkpt lat="47.33326" lon="-0.6237">
        <ele>88</ele>
        <time>2014-02-16T10:32:07+00:00</time>
      </trkpt>
      <trkpt lat="47.33326" lon="-0.62372">
        <ele>88</ele>
        <time>2014-02-16T10:32:08+00:00</time>
      </trkpt>
      <trkpt lat="47.33326" lon="-0.6238">
        <ele>89</ele>
        <time>2014-02-16T10:32:12+00:00</time>
      </trkpt>
      <trkpt lat="47.33327" lon="-0.62381">
        <ele>90</ele>
        <time>2014-02-16T10:32:13+00:00</time>
      </trkpt>
      <trkpt lat="47.33327" lon="-0.62383">
        <ele>88</ele>
        <time>2014-02-16T10:32:14+00:00</time>
      </trkpt>
      <trkpt lat="47.33327" lon="-0.62384">
        <ele>89</ele>
        <time>2014-02-16T10:32:15+00:00</time>
      </trkpt>
      <trkpt lat="47.33326" lon="-0.62387">
        <ele>87</ele>
        <time>2014-02-16T10:32:16+00:00</time>
      </trkpt>
      <trkpt lat="47.33326" lon="-0.62389">
        <ele>89</ele>
        <time>2014-02-16T10:32:17+00:00</time>
      </trkpt>
      <trkpt lat="47.33326" lon="-0.62391">
        <ele>90</ele>
        <time>2014-02-16T10:32:18+00:00</time>
      </trkpt>
      <trkpt lat="47.33326" lon="-0.62393">
        <ele>91</ele>
        <time>2014-02-16T10:32:19+00:00</time>
      </trkpt>
      <trkpt lat="47.33326" lon="-0.62396">
        <ele>91</ele>
        <time>2014-02-16T10:32:20+00:00</time>
      </trkpt>
      <trkpt lat="47.33326" lon="-0.62397">
        <ele>91</ele>
        <time>2014-02-16T10:32:21+00:00</time>
      </trkpt>
      <trkpt lat="47.33326" lon="-0.62399">
        <ele>92</ele>
        <time>2014-02-16T10:32:22+00:00</time>
      </trkpt>
      <trkpt lat="47.33326" lon="-0.62403">
        <ele>89</ele>
        <time>2014-02-16T10:32:23+00:00</time>
      </trkpt>
      <trkpt lat="47.33326" lon="-0.62405">
        <ele>87</ele>
        <time>2014-02-16T10:32:24+00:00</time>
      </trkpt>
      <trkpt lat="47.33327" lon="-0.62408">
        <ele>87</ele>
        <time>2014-02-16T10:32:25+00:00</time>
      </trkpt>
      <trkpt lat="47.33327" lon="-0.6241">
        <ele>87</ele>
        <time>2014-02-16T10:32:26+00:00</time>
      </trkpt>
      <trkpt lat="47.33328" lon="-0.62411">
        <ele>87</ele>
        <time>2014-02-16T10:32:27+00:00</time>
      </trkpt>
      <trkpt lat="47.33328" lon="-0.62412">
        <ele>87</ele>
        <time>2014-02-16T10:32:28+00:00</time>
      </trkpt>
      <trkpt lat="47.33329" lon="-0.62414">
        <ele>87</ele>
        <time>2014-02-16T10:32:29+00:00</time>
      </trkpt>
      <trkpt lat="47.33329" lon="-0.62416">
        <ele>86</ele>
        <time>2014-02-16T10:32:30+00:00</time>
      </trkpt>
      <trkpt lat="47.3333" lon="-0.62418">
        <ele>87</ele>
        <time>2014-02-16T10:32:31+00:00</time>
      </trkpt>
      <trkpt lat="47.33333" lon="-0.62432">
        <ele>86</ele>
        <time>2014-02-16T10:32:37+00:00</time>
      </trkpt>
      <trkpt lat="47.33333" lon="-0.62435">
        <ele>87</ele>
        <time>2014-02-16T10:32:38+00:00</time>
      </trkpt>
      <trkpt lat="47.33333" lon="-0.62437">
        <ele>88</ele>
        <time>2014-02-16T10:32:39+00:00</time>
      </trkpt>
      <trkpt lat="47.33333" lon="-0.62439">
        <ele>89</ele>
        <time>2014-02-16T10:32:40+00:00</time>
      </trkpt>
      <trkpt lat="47.33334" lon="-0.62442">
        <ele>91</ele>
        <time>2014-02-16T10:32:41+00:00</time>
      </trkpt>
      <trkpt lat="47.33334" lon="-0.62445">
        <ele>90</ele>
        <time>2014-02-16T10:32:42+00:00</time>
      </trkpt>
      <trkpt lat="47.33336" lon="-0.6245">
        <ele>91</ele>
        <time>2014-02-16T10:32:44+00:00</time>
      </trkpt>
      <trkpt lat="47.33336" lon="-0.62453">
        <ele>91</ele>
        <time>2014-02-16T10:32:45+00:00</time>
      </trkpt>
      <trkpt lat="47.33336" lon="-0.62456">
        <ele>89</ele>
        <time>2014-02-16T10:32:46+00:00</time>
      </trkpt>
      <trkpt lat="47.33337" lon="-0.6246">
        <ele>89</ele>
        <time>2014-02-16T10:32:47+00:00</time>
      </trkpt>
      <trkpt lat="47.33337" lon="-0.62463">
        <ele>88</ele>
        <time>2014-02-16T10:32:48+00:00</time>
      </trkpt>
      <trkpt lat="47.33338" lon="-0.62467">
        <ele>88</ele>
        <time>2014-02-16T10:32:49+00:00</time>
      </trkpt>
      <trkpt lat="47.33341" lon="-0.62494">
        <ele>87</ele>
        <time>2014-02-16T10:32:59+00:00</time>
      </trkpt>
      <trkpt lat="47.33342" lon="-0.62496">
        <ele>88</ele>
        <time>2014-02-16T10:33:00+00:00</time>
      </trkpt>
      <trkpt lat="47.33343" lon="-0.62499">
        <ele>88</ele>
        <time>2014-02-16T10:33:01+00:00</time>
      </trkpt>
      <trkpt lat="47.33343" lon="-0.62501">
        <ele>88</ele>
        <time>2014-02-16T10:33:02+00:00</time>
      </trkpt>
      <trkpt lat="47.33344" lon="-0.62508">
        <ele>88</ele>
        <time>2014-02-16T10:33:04+00:00</time>
      </trkpt>
      <trkpt lat="47.33344" lon="-0.6251">
        <ele>89</ele>
        <time>2014-02-16T10:33:05+00:00</time>
      </trkpt>
      <trkpt lat="47.33345" lon="-0.62513">
        <ele>89</ele>
        <time>2014-02-16T10:33:06+00:00</time>
      </trkpt>
      <trkpt lat="47.33345" lon="-0.62515">
        <ele>89</ele>
        <time>2014-02-16T10:33:07+00:00</time>
      </trkpt>
      <trkpt lat="47.33346" lon="-0.62521">
        <ele>90</ele>
        <time>2014-02-16T10:33:10+00:00</time>
      </trkpt>
      <trkpt lat="47.33346" lon="-0.62524">
        <ele>90</ele>
        <time>2014-02-16T10:33:11+00:00</time>
      </trkpt>
      <trkpt lat="47.33346" lon="-0.6253">
        <ele>88</ele>
        <time>2014-02-16T10:33:13+00:00</time>
      </trkpt>
      <trkpt lat="47.33346" lon="-0.62532">
        <ele>88</ele>
        <time>2014-02-16T10:33:14+00:00</time>
      </trkpt>
      <trkpt lat="47.33346" lon="-0.62535">
        <ele>89</ele>
        <time>2014-02-16T10:33:15+00:00</time>
      </trkpt>
      <trkpt lat="47.33346" lon="-0.62537">
        <ele>89</ele>
        <time>2014-02-16T10:33:16+00:00</time>
      </trkpt>
      <trkpt lat="47.33346" lon="-0.6254">
        <ele>90</ele>
        <time>2014-02-16T10:33:17+00:00</time>
      </trkpt>
      <trkpt lat="47.33346" lon="-0.62545">
        <ele>89</ele>
        <time>2014-02-16T10:33:19+00:00</time>
      </trkpt>
      <trkpt lat="47.33347" lon="-0.62548">
        <ele>88</ele>
        <time>2014-02-16T10:33:20+00:00</time>
      </trkpt>
      <trkpt lat="47.33347" lon="-0.62551">
        <ele>87</ele>
        <time>2014-02-16T10:33:21+00:00</time>
      </trkpt>
      <trkpt lat="47.33347" lon="-0.62554">
        <ele>87</ele>
        <time>2014-02-16T10:33:22+00:00</time>
      </trkpt>
      <trkpt lat="47.33347" lon="-0.62557">
        <ele>88</ele>
        <time>2014-02-16T10:33:23+00:00</time>
      </trkpt>
      <trkpt lat="47.33347" lon="-0.62561">
        <ele>88</ele>
        <time>2014-02-16T10:33:24+00:00</time>
      </trkpt>
      <trkpt lat="47.33347" lon="-0.62564">
        <ele>89</ele>
        <time>2014-02-16T10:33:25+00:00</time>
      </trkpt>
      <trkpt lat="47.33348" lon="-0.62568">
        <ele>88</ele>
        <time>2014-02-16T10:33:26+00:00</time>
      </trkpt>
      <trkpt lat="47.33348" lon="-0.62571">
        <ele>89</ele>
        <time>2014-02-16T10:33:27+00:00</time>
      </trkpt>
      <trkpt lat="47.33348" lon="-0.62578">
        <ele>88</ele>
        <time>2014-02-16T10:33:29+00:00</time>
      </trkpt>
      <trkpt lat="47.33347" lon="-0.6258">
        <ele>86</ele>
        <time>2014-02-16T10:33:30+00:00</time>
      </trkpt>
      <trkpt lat="47.33347" lon="-0.62583">
        <ele>86</ele>
        <time>2014-02-16T10:33:31+00:00</time>
      </trkpt>
      <trkpt lat="47.33346" lon="-0.62587">
        <ele>80</ele>
        <time>2014-02-16T10:33:32+00:00</time>
      </trkpt>
      <trkpt lat="47.33345" lon="-0.62588">
        <ele>78</ele>
        <time>2014-02-16T10:33:33+00:00</time>
      </trkpt>
      <trkpt lat="47.33345" lon="-0.62589">
        <ele>78</ele>
        <time>2014-02-16T10:33:34+00:00</time>
      </trkpt>
      <trkpt lat="47.33345" lon="-0.6259">
        <ele>79</ele>
        <time>2014-02-16T10:33:35+00:00</time>
      </trkpt>
      <trkpt lat="47.33344" lon="-0.62591">
        <ele>79</ele>
        <time>2014-02-16T10:33:36+00:00</time>
      </trkpt>
      <trkpt lat="47.33343" lon="-0.62592">
        <ele>78</ele>
        <time>2014-02-16T10:33:37+00:00</time>
      </trkpt>
      <trkpt lat="47.33342" lon="-0.62592">
        <ele>79</ele>
        <time>2014-02-16T10:33:38+00:00</time>
      </trkpt>
      <trkpt lat="47.33333" lon="-0.62595">
        <ele>82</ele>
        <time>2014-02-16T10:33:44+00:00</time>
      </trkpt>
      <trkpt lat="47.33332" lon="-0.62595">
        <ele>83</ele>
        <time>2014-02-16T10:33:45+00:00</time>
      </trkpt>
      <trkpt lat="47.33332" lon="-0.62596">
        <ele>83</ele>
        <time>2014-02-16T10:33:46+00:00</time>
      </trkpt>
      <trkpt lat="47.33331" lon="-0.62596">
        <ele>83</ele>
        <time>2014-02-16T10:33:47+00:00</time>
      </trkpt>
      <trkpt lat="47.33329" lon="-0.62597">
        <ele>82</ele>
        <time>2014-02-16T10:33:49+00:00</time>
      </trkpt>
      <trkpt lat="47.33327" lon="-0.62597">
        <ele>82</ele>
        <time>2014-02-16T10:33:50+00:00</time>
      </trkpt>
      <trkpt lat="47.33326" lon="-0.62597">
        <ele>82</ele>
        <time>2014-02-16T10:33:51+00:00</time>
      </trkpt>
      <trkpt lat="47.33324" lon="-0.62597">
        <ele>82</ele>
        <time>2014-02-16T10:33:52+00:00</time>
      </trkpt>
      <trkpt lat="47.33282" lon="-0.62604">
        <ele>85</ele>
        <time>2014-02-16T10:34:21+00:00</time>
      </trkpt>
      <trkpt lat="47.3328" lon="-0.62605">
        <ele>85</ele>
        <time>2014-02-16T10:34:22+00:00</time>
      </trkpt>
      <trkpt lat="47.33279" lon="-0.62606">
        <ele>85</ele>
        <time>2014-02-16T10:34:23+00:00</time>
      </trkpt>
      <trkpt lat="47.33277" lon="-0.62606">
        <ele>85</ele>
        <time>2014-02-16T10:34:24+00:00</time>
      </trkpt>
      <trkpt lat="47.33272" lon="-0.62607">
        <ele>86</ele>
        <time>2014-02-16T10:34:27+00:00</time>
      </trkpt>
      <trkpt lat="47.33271" lon="-0.62608">
        <ele>86</ele>
        <time>2014-02-16T10:34:28+00:00</time>
      </trkpt>
      <trkpt lat="47.33269" lon="-0.62608">
        <ele>87</ele>
        <time>2014-02-16T10:34:29+00:00</time>
      </trkpt>
      <trkpt lat="47.33255" lon="-0.62611">
        <ele>87</ele>
        <time>2014-02-16T10:34:38+00:00</time>
      </trkpt>
      <trkpt lat="47.33253" lon="-0.62612">
        <ele>87</ele>
        <time>2014-02-16T10:34:39+00:00</time>
      </trkpt>
      <trkpt lat="47.33248" lon="-0.62614">
        <ele>87</ele>
        <time>2014-02-16T10:34:42+00:00</time>
      </trkpt>
      <trkpt lat="47.33246" lon="-0.62615">
        <ele>87</ele>
        <time>2014-02-16T10:34:43+00:00</time>
      </trkpt>
      <trkpt lat="47.33244" lon="-0.62616">
        <ele>87</ele>
        <time>2014-02-16T10:34:44+00:00</time>
      </trkpt>
      <trkpt lat="47.33241" lon="-0.62618">
        <ele>88</ele>
        <time>2014-02-16T10:34:46+00:00</time>
      </trkpt>
      <trkpt lat="47.33239" lon="-0.6262">
        <ele>87</ele>
        <time>2014-02-16T10:34:47+00:00</time>
      </trkpt>
      <trkpt lat="47.33237" lon="-0.62621">
        <ele>89</ele>
        <time>2014-02-16T10:34:48+00:00</time>
      </trkpt>
      <trkpt lat="47.33236" lon="-0.62623">
        <ele>89</ele>
        <time>2014-02-16T10:34:49+00:00</time>
      </trkpt>
      <trkpt lat="47.33234" lon="-0.62624">
        <ele>89</ele>
        <time>2014-02-16T10:34:50+00:00</time>
      </trkpt>
      <trkpt lat="47.33232" lon="-0.62626">
        <ele>88</ele>
        <time>2014-02-16T10:34:51+00:00</time>
      </trkpt>
      <trkpt lat="47.33225" lon="-0.62632">
        <ele>87</ele>
        <time>2014-02-16T10:34:55+00:00</time>
      </trkpt>
      <trkpt lat="47.33223" lon="-0.62634">
        <ele>87</ele>
        <time>2014-02-16T10:34:56+00:00</time>
      </trkpt>
      <trkpt lat="47.33221" lon="-0.62635">
        <ele>87</ele>
        <time>2014-02-16T10:34:57+00:00</time>
      </trkpt>
      <trkpt lat="47.3322" lon="-0.62636">
        <ele>87</ele>
        <time>2014-02-16T10:34:58+00:00</time>
      </trkpt>
      <trkpt lat="47.33188" lon="-0.62666">
        <ele>91</ele>
        <time>2014-02-16T10:35:14+00:00</time>
      </trkpt>
      <trkpt lat="47.33186" lon="-0.62668">
        <ele>91</ele>
        <time>2014-02-16T10:35:15+00:00</time>
      </trkpt>
      <trkpt lat="47.33164" lon="-0.62683">
        <ele>91</ele>
        <time>2014-02-16T10:35:26+00:00</time>
      </trkpt>
      <trkpt lat="47.33163" lon="-0.62684">
        <ele>91</ele>
        <time>2014-02-16T10:35:27+00:00</time>
      </trkpt>
      <trkpt lat="47.33159" lon="-0.62684">
        <ele>90</ele>
        <time>2014-02-16T10:35:29+00:00</time>
      </trkpt>
      <trkpt lat="47.33157" lon="-0.62686">
        <ele>90</ele>
        <time>2014-02-16T10:35:30+00:00</time>
      </trkpt>
      <trkpt lat="47.33154" lon="-0.62687">
        <ele>90</ele>
        <time>2014-02-16T10:35:32+00:00</time>
      </trkpt>
      <trkpt lat="47.33152" lon="-0.62688">
        <ele>90</ele>
        <time>2014-02-16T10:35:33+00:00</time>
      </trkpt>
      <trkpt lat="47.3315" lon="-0.62689">
        <ele>90</ele>
        <time>2014-02-16T10:35:34+00:00</time>
      </trkpt>
      <trkpt lat="47.33148" lon="-0.6269">
        <ele>90</ele>
        <time>2014-02-16T10:35:35+00:00</time>
      </trkpt>
      <trkpt lat="47.33086" lon="-0.62726">
        <ele>93</ele>
        <time>2014-02-16T10:36:06+00:00</time>
      </trkpt>
      <trkpt lat="47.33084" lon="-0.62727">
        <ele>93</ele>
        <time>2014-02-16T10:36:07+00:00</time>
      </trkpt>
      <trkpt lat="47.33065" lon="-0.62735">
        <ele>93</ele>
        <time>2014-02-16T10:36:16+00:00</time>
      </trkpt>
      <trkpt lat="47.33063" lon="-0.62736">
        <ele>94</ele>
        <time>2014-02-16T10:36:17+00:00</time>
      </trkpt>
      <trkpt lat="47.33061" lon="-0.62737">
        <ele>94</ele>
        <time>2014-02-16T10:36:18+00:00</time>
      </trkpt>
      <trkpt lat="47.3306" lon="-0.62738">
        <ele>95</ele>
        <time>2014-02-16T10:36:19+00:00</time>
      </trkpt>
      <trkpt lat="47.33048" lon="-0.62743">
        <ele>96</ele>
        <time>2014-02-16T10:36:25+00:00</time>
      </trkpt>
      <trkpt lat="47.33046" lon="-0.62744">
        <ele>98</ele>
        <time>2014-02-16T10:36:26+00:00</time>
      </trkpt>
      <trkpt lat="47.33033" lon="-0.62752">
        <ele>98</ele>
        <time>2014-02-16T10:36:33+00:00</time>
      </trkpt>
      <trkpt lat="47.33031" lon="-0.62753">
        <ele>97</ele>
        <time>2014-02-16T10:36:34+00:00</time>
      </trkpt>
      <trkpt lat="47.33004" lon="-0.62777">
        <ele>99</ele>
        <time>2014-02-16T10:36:47+00:00</time>
      </trkpt>
      <trkpt lat="47.33003" lon="-0.6278">
        <ele>99</ele>
        <time>2014-02-16T10:36:48+00:00</time>
      </trkpt>
      <trkpt lat="47.32989" lon="-0.62794">
        <ele>98</ele>
        <time>2014-02-16T10:36:55+00:00</time>
      </trkpt>
      <trkpt lat="47.32988" lon="-0.62796">
        <ele>99</ele>
        <time>2014-02-16T10:36:56+00:00</time>
      </trkpt>
      <trkpt lat="47.32985" lon="-0.62797">
        <ele>99</ele>
        <time>2014-02-16T10:36:57+00:00</time>
      </trkpt>
      <trkpt lat="47.32983" lon="-0.628">
        <ele>99</ele>
        <time>2014-02-16T10:36:58+00:00</time>
      </trkpt>
      <trkpt lat="47.32982" lon="-0.62802">
        <ele>99</ele>
        <time>2014-02-16T10:36:59+00:00</time>
      </trkpt>
      <trkpt lat="47.3298" lon="-0.62804">
        <ele>101</ele>
        <time>2014-02-16T10:37:00+00:00</time>
      </trkpt>
      <trkpt lat="47.32979" lon="-0.62806">
        <ele>101</ele>
        <time>2014-02-16T10:37:01+00:00</time>
      </trkpt>
      <trkpt lat="47.32977" lon="-0.62808">
        <ele>100</ele>
        <time>2014-02-16T10:37:02+00:00</time>
      </trkpt>
      <trkpt lat="47.32975" lon="-0.62811">
        <ele>101</ele>
        <time>2014-02-16T10:37:03+00:00</time>
      </trkpt>
      <trkpt lat="47.32972" lon="-0.62814">
        <ele>101</ele>
        <time>2014-02-16T10:37:05+00:00</time>
      </trkpt>
      <trkpt lat="47.32971" lon="-0.62816">
        <ele>101</ele>
        <time>2014-02-16T10:37:06+00:00</time>
      </trkpt>
      <trkpt lat="47.3297" lon="-0.62818">
        <ele>100</ele>
        <time>2014-02-16T10:37:07+00:00</time>
      </trkpt>
      <trkpt lat="47.32969" lon="-0.6282">
        <ele>100</ele>
        <time>2014-02-16T10:37:08+00:00</time>
      </trkpt>
      <trkpt lat="47.32968" lon="-0.62822">
        <ele>99</ele>
        <time>2014-02-16T10:37:09+00:00</time>
      </trkpt>
      <trkpt lat="47.32968" lon="-0.62825">
        <ele>98</ele>
        <time>2014-02-16T10:37:10+00:00</time>
      </trkpt>
      <trkpt lat="47.32969" lon="-0.62828">
        <ele>99</ele>
        <time>2014-02-16T10:37:11+00:00</time>
      </trkpt>
      <trkpt lat="47.3297" lon="-0.6283">
        <ele>98</ele>
        <time>2014-02-16T10:37:12+00:00</time>
      </trkpt>
      <trkpt lat="47.32971" lon="-0.62832">
        <ele>98</ele>
        <time>2014-02-16T10:37:13+00:00</time>
      </trkpt>
      <trkpt lat="47.32974" lon="-0.62836">
        <ele>98</ele>
        <time>2014-02-16T10:37:15+00:00</time>
      </trkpt>
      <trkpt lat="47.32976" lon="-0.62837">
        <ele>98</ele>
        <time>2014-02-16T10:37:16+00:00</time>
      </trkpt>
      <trkpt lat="47.3298" lon="-0.62841">
        <ele>98</ele>
        <time>2014-02-16T10:37:18+00:00</time>
      </trkpt>
      <trkpt lat="47.32982" lon="-0.62843">
        <ele>98</ele>
        <time>2014-02-16T10:37:19+00:00</time>
      </trkpt>
      <trkpt lat="47.32997" lon="-0.62858">
        <ele>98</ele>
        <time>2014-02-16T10:37:26+00:00</time>
      </trkpt>
      <trkpt lat="47.33" lon="-0.6286">
        <ele>98</ele>
        <time>2014-02-16T10:37:27+00:00</time>
      </trkpt>
      <trkpt lat="47.33004" lon="-0.62866">
        <ele>98</ele>
        <time>2014-02-16T10:37:29+00:00</time>
      </trkpt>
      <trkpt lat="47.33004" lon="-0.62869">
        <ele>98</ele>
        <time>2014-02-16T10:37:30+00:00</time>
      </trkpt>
      <trkpt lat="47.33004" lon="-0.62873">
        <ele>98</ele>
        <time>2014-02-16T10:37:31+00:00</time>
      </trkpt>
      <trkpt lat="47.33004" lon="-0.62876">
        <ele>98</ele>
        <time>2014-02-16T10:37:32+00:00</time>
      </trkpt>
      <trkpt lat="47.33004" lon="-0.6288">
        <ele>97</ele>
        <time>2014-02-16T10:37:33+00:00</time>
      </trkpt>
      <trkpt lat="47.33002" lon="-0.62884">
        <ele>97</ele>
        <time>2014-02-16T10:37:34+00:00</time>
      </trkpt>
      <trkpt lat="47.33" lon="-0.62886">
        <ele>98</ele>
        <time>2014-02-16T10:37:35+00:00</time>
      </trkpt>
      <trkpt lat="47.32995" lon="-0.62892">
        <ele>96</ele>
        <time>2014-02-16T10:37:37+00:00</time>
      </trkpt>
      <trkpt lat="47.32992" lon="-0.62894">
        <ele>94</ele>
        <time>2014-02-16T10:37:38+00:00</time>
      </trkpt>
      <trkpt lat="47.32931" lon="-0.62946">
        <ele>95</ele>
        <time>2014-02-16T10:38:00+00:00</time>
      </trkpt>
      <trkpt lat="47.32928" lon="-0.62949">
        <ele>95</ele>
        <time>2014-02-16T10:38:01+00:00</time>
      </trkpt>
      <trkpt lat="47.32906" lon="-0.62975">
        <ele>99</ele>
        <time>2014-02-16T10:38:09+00:00</time>
      </trkpt>
      <trkpt lat="47.32902" lon="-0.62979">
        <ele>98</ele>
        <time>2014-02-16T10:38:10+00:00</time>
      </trkpt>
      <trkpt lat="47.32879" lon="-0.62998">
        <ele>99</ele>
        <time>2014-02-16T10:38:18+00:00</time>
      </trkpt>
      <trkpt lat="47.32876" lon="-0.63">
        <ele>100</ele>
        <time>2014-02-16T10:38:19+00:00</time>
      </trkpt>
      <trkpt lat="47.32829" lon="-0.63021">
        <ele>99</ele>
        <time>2014-02-16T10:38:33+00:00</time>
      </trkpt>
      <trkpt lat="47.32828" lon="-0.63022">
        <ele>101</ele>
        <time>2014-02-16T10:38:34+00:00</time>
      </trkpt>
      <trkpt lat="47.32825" lon="-0.63023">
        <ele>102</ele>
        <time>2014-02-16T10:38:35+00:00</time>
      </trkpt>
      <trkpt lat="47.32823" lon="-0.63024">
        <ele>103</ele>
        <time>2014-02-16T10:38:36+00:00</time>
      </trkpt>
      <trkpt lat="47.32821" lon="-0.63026">
        <ele>101</ele>
        <time>2014-02-16T10:38:37+00:00</time>
      </trkpt>
      <trkpt lat="47.3282" lon="-0.63027">
        <ele>102</ele>
        <time>2014-02-16T10:38:38+00:00</time>
      </trkpt>
      <trkpt lat="47.3282" lon="-0.63028">
        <ele>102</ele>
        <time>2014-02-16T10:38:39+00:00</time>
      </trkpt>
      <trkpt lat="47.3282" lon="-0.63028">
        <ele>101</ele>
        <time>2014-02-16T10:38:40+00:00</time>
      </trkpt>
      <trkpt lat="47.32819" lon="-0.6303">
        <ele>101</ele>
        <time>2014-02-16T10:38:42+00:00</time>
      </trkpt>
      <trkpt lat="47.32819" lon="-0.63032">
        <ele>100</ele>
        <time>2014-02-16T10:38:43+00:00</time>
      </trkpt>
      <trkpt lat="47.32819" lon="-0.63034">
        <ele>100</ele>
        <time>2014-02-16T10:38:44+00:00</time>
      </trkpt>
      <trkpt lat="47.3282" lon="-0.6304">
        <ele>102</ele>
        <time>2014-02-16T10:38:46+00:00</time>
      </trkpt>
      <trkpt lat="47.32819" lon="-0.63044">
        <ele>102</ele>
        <time>2014-02-16T10:38:47+00:00</time>
      </trkpt>
      <trkpt lat="47.3282" lon="-0.63048">
        <ele>102</ele>
        <time>2014-02-16T10:38:48+00:00</time>
      </trkpt>
      <trkpt lat="47.3282" lon="-0.63053">
        <ele>101</ele>
        <time>2014-02-16T10:38:49+00:00</time>
      </trkpt>
      <trkpt lat="47.3282" lon="-0.63058">
        <ele>102</ele>
        <time>2014-02-16T10:38:50+00:00</time>
      </trkpt>
      <trkpt lat="47.32822" lon="-0.63062">
        <ele>100</ele>
        <time>2014-02-16T10:38:51+00:00</time>
      </trkpt>
      <trkpt lat="47.32835" lon="-0.63094">
        <ele>97</ele>
        <time>2014-02-16T10:38:58+00:00</time>
      </trkpt>
      <trkpt lat="47.32836" lon="-0.63098">
        <ele>98</ele>
        <time>2014-02-16T10:38:59+00:00</time>
      </trkpt>
      <trkpt lat="47.32839" lon="-0.63105">
        <ele>98</ele>
        <time>2014-02-16T10:39:01+00:00</time>
      </trkpt>
      <trkpt lat="47.3284" lon="-0.63108">
        <ele>100</ele>
        <time>2014-02-16T10:39:02+00:00</time>
      </trkpt>
      <trkpt lat="47.32839" lon="-0.63112">
        <ele>99</ele>
        <time>2014-02-16T10:39:03+00:00</time>
      </trkpt>
      <trkpt lat="47.32838" lon="-0.63115">
        <ele>101</ele>
        <time>2014-02-16T10:39:04+00:00</time>
      </trkpt>
      <trkpt lat="47.32835" lon="-0.63124">
        <ele>101</ele>
        <time>2014-02-16T10:39:06+00:00</time>
      </trkpt>
      <trkpt lat="47.32832" lon="-0.63128">
        <ele>100</ele>
        <time>2014-02-16T10:39:07+00:00</time>
      </trkpt>
      <trkpt lat="47.32812" lon="-0.63164">
        <ele>99</ele>
        <time>2014-02-16T10:39:15+00:00</time>
      </trkpt>
      <trkpt lat="47.32809" lon="-0.6317">
        <ele>100</ele>
        <time>2014-02-16T10:39:16+00:00</time>
      </trkpt>
      <trkpt lat="47.32807" lon="-0.63175">
        <ele>100</ele>
        <time>2014-02-16T10:39:17+00:00</time>
      </trkpt>
      <trkpt lat="47.32804" lon="-0.6318">
        <ele>101</ele>
        <time>2014-02-16T10:39:18+00:00</time>
      </trkpt>
      <trkpt lat="47.32767" lon="-0.63254">
        <ele>93</ele>
        <time>2014-02-16T10:39:32+00:00</time>
      </trkpt>
      <trkpt lat="47.32764" lon="-0.63258">
        <ele>93</ele>
        <time>2014-02-16T10:39:33+00:00</time>
      </trkpt>
      <trkpt lat="47.32759" lon="-0.63265">
        <ele>93</ele>
        <time>2014-02-16T10:39:35+00:00</time>
      </trkpt>
      <trkpt lat="47.32757" lon="-0.63268">
        <ele>94</ele>
        <time>2014-02-16T10:39:36+00:00</time>
      </trkpt>
      <trkpt lat="47.32748" lon="-0.63289">
        <ele>92</ele>
        <time>2014-02-16T10:39:40+00:00</time>
      </trkpt>
      <trkpt lat="47.32745" lon="-0.63294">
        <ele>91</ele>
        <time>2014-02-16T10:39:41+00:00</time>
      </trkpt>
      <trkpt lat="47.32743" lon="-0.633">
        <ele>92</ele>
        <time>2014-02-16T10:39:42+00:00</time>
      </trkpt>
      <trkpt lat="47.32742" lon="-0.63308">
        <ele>91</ele>
        <time>2014-02-16T10:39:43+00:00</time>
      </trkpt>
      <trkpt lat="47.32741" lon="-0.63315">
        <ele>91</ele>
        <time>2014-02-16T10:39:44+00:00</time>
      </trkpt>
      <trkpt lat="47.32741" lon="-0.63321">
        <ele>91</ele>
        <time>2014-02-16T10:39:45+00:00</time>
      </trkpt>
      <trkpt lat="47.32741" lon="-0.63328">
        <ele>91</ele>
        <time>2014-02-16T10:39:46+00:00</time>
      </trkpt>
      <trkpt lat="47.32742" lon="-0.63335">
        <ele>91</ele>
        <time>2014-02-16T10:39:47+00:00</time>
      </trkpt>
      <trkpt lat="47.32743" lon="-0.63342">
        <ele>91</ele>
        <time>2014-02-16T10:39:48+00:00</time>
      </trkpt>
      <trkpt lat="47.32745" lon="-0.63348">
        <ele>90</ele>
        <time>2014-02-16T10:39:49+00:00</time>
      </trkpt>
      <trkpt lat="47.32746" lon="-0.63356">
        <ele>90</ele>
        <time>2014-02-16T10:39:50+00:00</time>
      </trkpt>
      <trkpt lat="47.32746" lon="-0.63364">
        <ele>89</ele>
        <time>2014-02-16T10:39:51+00:00</time>
      </trkpt>
      <trkpt lat="47.32752" lon="-0.63444">
        <ele>86</ele>
        <time>2014-02-16T10:40:00+00:00</time>
      </trkpt>
      <trkpt lat="47.32754" lon="-0.63452">
        <ele>86</ele>
        <time>2014-02-16T10:40:01+00:00</time>
      </trkpt>
      <trkpt lat="47.32764" lon="-0.63497">
        <ele>87</ele>
        <time>2014-02-16T10:40:09+00:00</time>
      </trkpt>
      <trkpt lat="47.32764" lon="-0.63501">
        <ele>86</ele>
        <time>2014-02-16T10:40:10+00:00</time>
      </trkpt>
      <trkpt lat="47.32777" lon="-0.63548">
        <ele>85</ele>
        <time>2014-02-16T10:40:21+00:00</time>
      </trkpt>
      <trkpt lat="47.32778" lon="-0.63551">
        <ele>85</ele>
        <time>2014-02-16T10:40:22+00:00</time>
      </trkpt>
      <trkpt lat="47.3278" lon="-0.63562">
        <ele>86</ele>
        <time>2014-02-16T10:40:26+00:00</time>
      </trkpt>
      <trkpt lat="47.3278" lon="-0.63564">
        <ele>86</ele>
        <time>2014-02-16T10:40:27+00:00</time>
      </trkpt>
      <trkpt lat="47.32781" lon="-0.63566">
        <ele>89</ele>
        <time>2014-02-16T10:40:28+00:00</time>
      </trkpt>
      <trkpt lat="47.32782" lon="-0.63568">
        <ele>88</ele>
        <time>2014-02-16T10:40:29+00:00</time>
      </trkpt>
      <trkpt lat="47.32782" lon="-0.63571">
        <ele>88</ele>
        <time>2014-02-16T10:40:30+00:00</time>
      </trkpt>
      <trkpt lat="47.32784" lon="-0.63574">
        <ele>88</ele>
        <time>2014-02-16T10:40:31+00:00</time>
      </trkpt>
      <trkpt lat="47.32786" lon="-0.63579">
        <ele>88</ele>
        <time>2014-02-16T10:40:32+00:00</time>
      </trkpt>
      <trkpt lat="47.32788" lon="-0.63582">
        <ele>90</ele>
        <time>2014-02-16T10:40:33+00:00</time>
      </trkpt>
      <trkpt lat="47.32788" lon="-0.63586">
        <ele>90</ele>
        <time>2014-02-16T10:40:34+00:00</time>
      </trkpt>
      <trkpt lat="47.32789" lon="-0.6359">
        <ele>89</ele>
        <time>2014-02-16T10:40:35+00:00</time>
      </trkpt>
      <trkpt lat="47.3279" lon="-0.63594">
        <ele>89</ele>
        <time>2014-02-16T10:40:36+00:00</time>
      </trkpt>
      <trkpt lat="47.32789" lon="-0.63598">
        <ele>89</ele>
        <time>2014-02-16T10:40:37+00:00</time>
      </trkpt>
      <trkpt lat="47.32788" lon="-0.63607">
        <ele>89</ele>
        <time>2014-02-16T10:40:39+00:00</time>
      </trkpt>
      <trkpt lat="47.32787" lon="-0.63613">
        <ele>90</ele>
        <time>2014-02-16T10:40:40+00:00</time>
      </trkpt>
      <trkpt lat="47.32783" lon="-0.63619">
        <ele>90</ele>
        <time>2014-02-16T10:40:41+00:00</time>
      </trkpt>
      <trkpt lat="47.32777" lon="-0.63628">
        <ele>85</ele>
        <time>2014-02-16T10:40:43+00:00</time>
      </trkpt>
      <trkpt lat="47.32773" lon="-0.63634">
        <ele>84</ele>
        <time>2014-02-16T10:40:44+00:00</time>
      </trkpt>
      <trkpt lat="47.32764" lon="-0.63644">
        <ele>82</ele>
        <time>2014-02-16T10:40:47+00:00</time>
      </trkpt>
      <trkpt lat="47.3276" lon="-0.63647">
        <ele>81</ele>
        <time>2014-02-16T10:40:48+00:00</time>
      </trkpt>
      <trkpt lat="47.32741" lon="-0.63662">
        <ele>81</ele>
        <time>2014-02-16T10:40:54+00:00</time>
      </trkpt>
      <trkpt lat="47.3274" lon="-0.63665">
        <ele>81</ele>
        <time>2014-02-16T10:40:55+00:00</time>
      </trkpt>
      <trkpt lat="47.32737" lon="-0.63667">
        <ele>83</ele>
        <time>2014-02-16T10:40:56+00:00</time>
      </trkpt>
      <trkpt lat="47.32733" lon="-0.63669">
        <ele>83</ele>
        <time>2014-02-16T10:40:57+00:00</time>
      </trkpt>
      <trkpt lat="47.32724" lon="-0.63677">
        <ele>87</ele>
        <time>2014-02-16T10:41:01+00:00</time>
      </trkpt>
      <trkpt lat="47.32721" lon="-0.63677">
        <ele>86</ele>
        <time>2014-02-16T10:41:02+00:00</time>
      </trkpt>
      <trkpt lat="47.32705" lon="-0.63682">
        <ele>84</ele>
        <time>2014-02-16T10:41:07+00:00</time>
      </trkpt>
      <trkpt lat="47.32701" lon="-0.63684">
        <ele>84</ele>
        <time>2014-02-16T10:41:08+00:00</time>
      </trkpt>
      <trkpt lat="47.32629" lon="-0.63726">
        <ele>83</ele>
        <time>2014-02-16T10:41:30+00:00</time>
      </trkpt>
      <trkpt lat="47.32627" lon="-0.63728">
        <ele>83</ele>
        <time>2014-02-16T10:41:31+00:00</time>
      </trkpt>
      <trkpt lat="47.32624" lon="-0.6373">
        <ele>82</ele>
        <time>2014-02-16T10:41:32+00:00</time>
      </trkpt>
      <trkpt lat="47.32621" lon="-0.63731">
        <ele>83</ele>
        <time>2014-02-16T10:41:33+00:00</time>
      </trkpt>
      <trkpt lat="47.32617" lon="-0.63733">
        <ele>84</ele>
        <time>2014-02-16T10:41:35+00:00</time>
      </trkpt>
      <trkpt lat="47.32614" lon="-0.63734">
        <ele>85</ele>
        <time>2014-02-16T10:41:36+00:00</time>
      </trkpt>
      <trkpt lat="47.32611" lon="-0.63736">
        <ele>85</ele>
        <time>2014-02-16T10:41:37+00:00</time>
      </trkpt>
      <trkpt lat="47.32608" lon="-0.63738">
        <ele>85</ele>
        <time>2014-02-16T10:41:38+00:00</time>
      </trkpt>
      <trkpt lat="47.32604" lon="-0.63741">
        <ele>85</ele>
        <time>2014-02-16T10:41:39+00:00</time>
      </trkpt>
      <trkpt lat="47.32532" lon="-0.63792">
        <ele>80</ele>
        <time>2014-02-16T10:41:55+00:00</time>
      </trkpt>
      <trkpt lat="47.32527" lon="-0.63796">
        <ele>81</ele>
        <time>2014-02-16T10:41:56+00:00</time>
      </trkpt>
      <trkpt lat="47.32524" lon="-0.63801">
        <ele>81</ele>
        <time>2014-02-16T10:41:57+00:00</time>
      </trkpt>
      <trkpt lat="47.32521" lon="-0.63805">
        <ele>80</ele>
        <time>2014-02-16T10:41:58+00:00</time>
      </trkpt>
      <trkpt lat="47.32519" lon="-0.63811">
        <ele>80</ele>
        <time>2014-02-16T10:41:59+00:00</time>
      </trkpt>
      <trkpt lat="47.32517" lon="-0.63816">
        <ele>80</ele>
        <time>2014-02-16T10:42:00+00:00</time>
      </trkpt>
      <trkpt lat="47.32516" lon="-0.63822">
        <ele>79</ele>
        <time>2014-02-16T10:42:01+00:00</time>
      </trkpt>
      <trkpt lat="47.32515" lon="-0.63828">
        <ele>78</ele>
        <time>2014-02-16T10:42:02+00:00</time>
      </trkpt>
      <trkpt lat="47.32512" lon="-0.63833">
        <ele>78</ele>
        <time>2014-02-16T10:42:03+00:00</time>
      </trkpt>
      <trkpt lat="47.32505" lon="-0.63845">
        <ele>81</ele>
        <time>2014-02-16T10:42:06+00:00</time>
      </trkpt>
      <trkpt lat="47.32502" lon="-0.63849">
        <ele>81</ele>
        <time>2014-02-16T10:42:07+00:00</time>
      </trkpt>
      <trkpt lat="47.32491" lon="-0.63865">
        <ele>80</ele>
        <time>2014-02-16T10:42:11+00:00</time>
      </trkpt>
      <trkpt lat="47.32488" lon="-0.63869">
        <ele>80</ele>
        <time>2014-02-16T10:42:12+00:00</time>
      </trkpt>
      <trkpt lat="47.32486" lon="-0.63874">
        <ele>79</ele>
        <time>2014-02-16T10:42:13+00:00</time>
      </trkpt>
      <trkpt lat="47.32485" lon="-0.63879">
        <ele>80</ele>
        <time>2014-02-16T10:42:14+00:00</time>
      </trkpt>
      <trkpt lat="47.32484" lon="-0.63884">
        <ele>79</ele>
        <time>2014-02-16T10:42:15+00:00</time>
      </trkpt>
      <trkpt lat="47.32485" lon="-0.6389">
        <ele>80</ele>
        <time>2014-02-16T10:42:16+00:00</time>
      </trkpt>
      <trkpt lat="47.32486" lon="-0.63893">
        <ele>81</ele>
        <time>2014-02-16T10:42:17+00:00</time>
      </trkpt>
      <trkpt lat="47.32487" lon="-0.63898">
        <ele>82</ele>
        <time>2014-02-16T10:42:18+00:00</time>
      </trkpt>
      <trkpt lat="47.32496" lon="-0.63939">
        <ele>81</ele>
        <time>2014-02-16T10:42:27+00:00</time>
      </trkpt>
      <trkpt lat="47.32496" lon="-0.63943">
        <ele>81</ele>
        <time>2014-02-16T10:42:28+00:00</time>
      </trkpt>
      <trkpt lat="47.32497" lon="-0.63947">
        <ele>81</ele>
        <time>2014-02-16T10:42:29+00:00</time>
      </trkpt>
      <trkpt lat="47.32497" lon="-0.63955">
        <ele>82</ele>
        <time>2014-02-16T10:42:31+00:00</time>
      </trkpt>
      <trkpt lat="47.32496" lon="-0.63958">
        <ele>82</ele>
        <time>2014-02-16T10:42:32+00:00</time>
      </trkpt>
      <trkpt lat="47.32496" lon="-0.63967">
        <ele>82</ele>
        <time>2014-02-16T10:42:34+00:00</time>
      </trkpt>
      <trkpt lat="47.32495" lon="-0.63971">
        <ele>83</ele>
        <time>2014-02-16T10:42:35+00:00</time>
      </trkpt>
      <trkpt lat="47.32493" lon="-0.63974">
        <ele>85</ele>
        <time>2014-02-16T10:42:36+00:00</time>
      </trkpt>
      <trkpt lat="47.32485" lon="-0.6399">
        <ele>83</ele>
        <time>2014-02-16T10:42:40+00:00</time>
      </trkpt>
      <trkpt lat="47.32483" lon="-0.63995">
        <ele>83</ele>
        <time>2014-02-16T10:42:41+00:00</time>
      </trkpt>
      <trkpt lat="47.32477" lon="-0.64002">
        <ele>83</ele>
        <time>2014-02-16T10:42:43+00:00</time>
      </trkpt>
      <trkpt lat="47.32474" lon="-0.64006">
        <ele>84</ele>
        <time>2014-02-16T10:42:44+00:00</time>
      </trkpt>
      <trkpt lat="47.32459" lon="-0.64023">
        <ele>84</ele>
        <time>2014-02-16T10:42:48+00:00</time>
      </trkpt>
      <trkpt lat="47.32453" lon="-0.64027">
        <ele>83</ele>
        <time>2014-02-16T10:42:49+00:00</time>
      </trkpt>
      <trkpt lat="47.32448" lon="-0.64031">
        <ele>83</ele>
        <time>2014-02-16T10:42:50+00:00</time>
      </trkpt>
      <trkpt lat="47.32443" lon="-0.64035">
        <ele>82</ele>
        <time>2014-02-16T10:42:51+00:00</time>
      </trkpt>
      <trkpt lat="47.32436" lon="-0.64038">
        <ele>82</ele>
        <time>2014-02-16T10:42:52+00:00</time>
      </trkpt>
      <trkpt lat="47.3243" lon="-0.64042">
        <ele>81</ele>
        <time>2014-02-16T10:42:53+00:00</time>
      </trkpt>
      <trkpt lat="47.3234" lon="-0.64093">
        <ele>73</ele>
        <time>2014-02-16T10:43:07+00:00</time>
      </trkpt>
      <trkpt lat="47.32335" lon="-0.641">
        <ele>72</ele>
        <time>2014-02-16T10:43:08+00:00</time>
      </trkpt>
      <trkpt lat="47.32332" lon="-0.64107">
        <ele>73</ele>
        <time>2014-02-16T10:43:09+00:00</time>
      </trkpt>
      <trkpt lat="47.32329" lon="-0.64115">
        <ele>72</ele>
        <time>2014-02-16T10:43:10+00:00</time>
      </trkpt>
      <trkpt lat="47.32326" lon="-0.64123">
        <ele>71</ele>
        <time>2014-02-16T10:43:11+00:00</time>
      </trkpt>
      <trkpt lat="47.32325" lon="-0.64132">
        <ele>71</ele>
        <time>2014-02-16T10:43:12+00:00</time>
      </trkpt>
      <trkpt lat="47.32325" lon="-0.64148">
        <ele>73</ele>
        <time>2014-02-16T10:43:14+00:00</time>
      </trkpt>
      <trkpt lat="47.32326" lon="-0.64155">
        <ele>74</ele>
        <time>2014-02-16T10:43:15+00:00</time>
      </trkpt>
      <trkpt lat="47.32326" lon="-0.64165">
        <ele>73</ele>
        <time>2014-02-16T10:43:17+00:00</time>
      </trkpt>
      <trkpt lat="47.32325" lon="-0.6417">
        <ele>73</ele>
        <time>2014-02-16T10:43:18+00:00</time>
      </trkpt>
      <trkpt lat="47.32324" lon="-0.64203">
        <ele>69</ele>
        <time>2014-02-16T10:43:25+00:00</time>
      </trkpt>
      <trkpt lat="47.32323" lon="-0.64207">
        <ele>70</ele>
        <time>2014-02-16T10:43:26+00:00</time>
      </trkpt>
      <trkpt lat="47.32317" lon="-0.64244">
        <ele>68</ele>
        <time>2014-02-16T10:43:34+00:00</time>
      </trkpt>
      <trkpt lat="47.32316" lon="-0.64247">
        <ele>69</ele>
        <time>2014-02-16T10:43:35+00:00</time>
      </trkpt>
      <trkpt lat="47.32313" lon="-0.64316">
        <ele>65</ele>
        <time>2014-02-16T10:43:55+00:00</time>
      </trkpt>
      <trkpt lat="47.32313" lon="-0.64316">
        <ele>65</ele>
        <time>2014-02-16T10:43:56+00:00</time>
      </trkpt>
      <trkpt lat="47.32311" lon="-0.64324">
        <ele>60</ele>
        <time>2014-02-16T10:44:12+00:00</time>
      </trkpt>
      <trkpt lat="47.32311" lon="-0.64327">
        <ele>64</ele>
        <time>2014-02-16T10:44:13+00:00</time>
      </trkpt>
      <trkpt lat="47.32307" lon="-0.64345">
        <ele>64</ele>
        <time>2014-02-16T10:44:19+00:00</time>
      </trkpt>
      <trkpt lat="47.32306" lon="-0.64348">
        <ele>65</ele>
        <time>2014-02-16T10:44:20+00:00</time>
      </trkpt>
      <trkpt lat="47.32298" lon="-0.64375">
        <ele>66</ele>
        <time>2014-02-16T10:44:28+00:00</time>
      </trkpt>
      <trkpt lat="47.32296" lon="-0.64378">
        <ele>66</ele>
        <time>2014-02-16T10:44:29+00:00</time>
      </trkpt>
      <trkpt lat="47.32277" lon="-0.64421">
        <ele>64</ele>
        <time>2014-02-16T10:44:40+00:00</time>
      </trkpt>
      <trkpt lat="47.32276" lon="-0.64424">
        <ele>64</ele>
        <time>2014-02-16T10:44:41+00:00</time>
      </trkpt>
      <trkpt lat="47.32264" lon="-0.64438">
        <ele>62</ele>
        <time>2014-02-16T10:44:45+00:00</time>
      </trkpt>
      <trkpt lat="47.3226" lon="-0.64442">
        <ele>62</ele>
        <time>2014-02-16T10:44:46+00:00</time>
      </trkpt>
      <trkpt lat="47.3222" lon="-0.64485">
        <ele>59</ele>
        <time>2014-02-16T10:44:59+00:00</time>
      </trkpt>
      <trkpt lat="47.32218" lon="-0.6449">
        <ele>59</ele>
        <time>2014-02-16T10:45:00+00:00</time>
      </trkpt>
      <trkpt lat="47.32193" lon="-0.64521">
        <ele>56</ele>
        <time>2014-02-16T10:45:09+00:00</time>
      </trkpt>
      <trkpt lat="47.32191" lon="-0.64523">
        <ele>56</ele>
        <time>2014-02-16T10:45:10+00:00</time>
      </trkpt>
      <trkpt lat="47.3218" lon="-0.64534">
        <ele>58</ele>
        <time>2014-02-16T10:45:15+00:00</time>
      </trkpt>
      <trkpt lat="47.32177" lon="-0.64539">
        <ele>58</ele>
        <time>2014-02-16T10:45:16+00:00</time>
      </trkpt>
      <trkpt lat="47.32152" lon="-0.64565">
        <ele>57</ele>
        <time>2014-02-16T10:45:23+00:00</time>
      </trkpt>
      <trkpt lat="47.3215" lon="-0.6457">
        <ele>57</ele>
        <time>2014-02-16T10:45:24+00:00</time>
      </trkpt>
      <trkpt lat="47.32144" lon="-0.64584">
        <ele>60</ele>
        <time>2014-02-16T10:45:27+00:00</time>
      </trkpt>
      <trkpt lat="47.32143" lon="-0.64589">
        <ele>60</ele>
        <time>2014-02-16T10:45:28+00:00</time>
      </trkpt>
      <trkpt lat="47.32139" lon="-0.64606">
        <ele>59</ele>
        <time>2014-02-16T10:45:31+00:00</time>
      </trkpt>
      <trkpt lat="47.32138" lon="-0.64612">
        <ele>58</ele>
        <time>2014-02-16T10:45:32+00:00</time>
      </trkpt>
      <trkpt lat="47.32139" lon="-0.64619">
        <ele>58</ele>
        <time>2014-02-16T10:45:33+00:00</time>
      </trkpt>
      <trkpt lat="47.3214" lon="-0.64638">
        <ele>57</ele>
        <time>2014-02-16T10:45:36+00:00</time>
      </trkpt>
      <trkpt lat="47.32141" lon="-0.64644">
        <ele>57</ele>
        <time>2014-02-16T10:45:37+00:00</time>
      </trkpt>
      <trkpt lat="47.32145" lon="-0.64659">
        <ele>57</ele>
        <time>2014-02-16T10:45:40+00:00</time>
      </trkpt>
      <trkpt lat="47.32146" lon="-0.64662">
        <ele>56</ele>
        <time>2014-02-16T10:45:41+00:00</time>
      </trkpt>
      <trkpt lat="47.32146" lon="-0.64666">
        <ele>56</ele>
        <time>2014-02-16T10:45:42+00:00</time>
      </trkpt>
      <trkpt lat="47.32145" lon="-0.64669">
        <ele>58</ele>
        <time>2014-02-16T10:45:43+00:00</time>
      </trkpt>
      <trkpt lat="47.32142" lon="-0.6468">
        <ele>60</ele>
        <time>2014-02-16T10:45:45+00:00</time>
      </trkpt>
      <trkpt lat="47.3214" lon="-0.64687">
        <ele>60</ele>
        <time>2014-02-16T10:45:46+00:00</time>
      </trkpt>
      <trkpt lat="47.32132" lon="-0.64712">
        <ele>56</ele>
        <time>2014-02-16T10:45:49+00:00</time>
      </trkpt>
      <trkpt lat="47.32129" lon="-0.64721">
        <ele>55</ele>
        <time>2014-02-16T10:45:50+00:00</time>
      </trkpt>
      <trkpt lat="47.32124" lon="-0.64728">
        <ele>54</ele>
        <time>2014-02-16T10:45:51+00:00</time>
      </trkpt>
      <trkpt lat="47.32111" lon="-0.64743">
        <ele>53</ele>
        <time>2014-02-16T10:45:53+00:00</time>
      </trkpt>
      <trkpt lat="47.32104" lon="-0.6475">
        <ele>52</ele>
        <time>2014-02-16T10:45:54+00:00</time>
      </trkpt>
      <trkpt lat="47.32081" lon="-0.64769">
        <ele>49</ele>
        <time>2014-02-16T10:45:57+00:00</time>
      </trkpt>
      <trkpt lat="47.32073" lon="-0.64774">
        <ele>49</ele>
        <time>2014-02-16T10:45:58+00:00</time>
      </trkpt>
      <trkpt lat="47.32065" lon="-0.64779">
        <ele>48</ele>
        <time>2014-02-16T10:45:59+00:00</time>
      </trkpt>
      <trkpt lat="47.32059" lon="-0.64782">
        <ele>47</ele>
        <time>2014-02-16T10:46:00+00:00</time>
      </trkpt>
      <trkpt lat="47.32053" lon="-0.64787">
        <ele>47</ele>
        <time>2014-02-16T10:46:01+00:00</time>
      </trkpt>
      <trkpt lat="47.3205" lon="-0.64793">
        <ele>47</ele>
        <time>2014-02-16T10:46:02+00:00</time>
      </trkpt>
      <trkpt lat="47.32048" lon="-0.648">
        <ele>46</ele>
        <time>2014-02-16T10:46:03+00:00</time>
      </trkpt>
      <trkpt lat="47.32048" lon="-0.64807">
        <ele>46</ele>
        <time>2014-02-16T10:46:04+00:00</time>
      </trkpt>
      <trkpt lat="47.32052" lon="-0.64837">
        <ele>43</ele>
        <time>2014-02-16T10:46:08+00:00</time>
      </trkpt>
      <trkpt lat="47.32052" lon="-0.64844">
        <ele>43</ele>
        <time>2014-02-16T10:46:09+00:00</time>
      </trkpt>
      <trkpt lat="47.32055" lon="-0.6486">
        <ele>42</ele>
        <time>2014-02-16T10:46:11+00:00</time>
      </trkpt>
      <trkpt lat="47.32054" lon="-0.64868">
        <ele>42</ele>
        <time>2014-02-16T10:46:12+00:00</time>
      </trkpt>
      <trkpt lat="47.32049" lon="-0.64916">
        <ele>41</ele>
        <time>2014-02-16T10:46:18+00:00</time>
      </trkpt>
      <trkpt lat="47.32049" lon="-0.64925">
        <ele>41</ele>
        <time>2014-02-16T10:46:19+00:00</time>
      </trkpt>
      <trkpt lat="47.3205" lon="-0.64936">
        <ele>40</ele>
        <time>2014-02-16T10:46:20+00:00</time>
      </trkpt>
      <trkpt lat="47.32052" lon="-0.64946">
        <ele>39</ele>
        <time>2014-02-16T10:46:21+00:00</time>
      </trkpt>
      <trkpt lat="47.32063" lon="-0.64988">
        <ele>36</ele>
        <time>2014-02-16T10:46:25+00:00</time>
      </trkpt>
      <trkpt lat="47.32067" lon="-0.65">
        <ele>35</ele>
        <time>2014-02-16T10:46:26+00:00</time>
      </trkpt>
      <trkpt lat="47.32074" lon="-0.65024">
        <ele>34</ele>
        <time>2014-02-16T10:46:28+00:00</time>
      </trkpt>
      <trkpt lat="47.32076" lon="-0.65036">
        <ele>34</ele>
        <time>2014-02-16T10:46:29+00:00</time>
      </trkpt>
      <trkpt lat="47.32078" lon="-0.65047">
        <ele>33</ele>
        <time>2014-02-16T10:46:30+00:00</time>
      </trkpt>
      <trkpt lat="47.32078" lon="-0.65059">
        <ele>33</ele>
        <time>2014-02-16T10:46:31+00:00</time>
      </trkpt>
      <trkpt lat="47.32078" lon="-0.65071">
        <ele>33</ele>
        <time>2014-02-16T10:46:32+00:00</time>
      </trkpt>
      <trkpt lat="47.32077" lon="-0.65084">
        <ele>33</ele>
        <time>2014-02-16T10:46:33+00:00</time>
      </trkpt>
      <trkpt lat="47.32074" lon="-0.65096">
        <ele>33</ele>
        <time>2014-02-16T10:46:34+00:00</time>
      </trkpt>
      <trkpt lat="47.32052" lon="-0.65169">
        <ele>27</ele>
        <time>2014-02-16T10:46:40+00:00</time>
      </trkpt>
      <trkpt lat="47.3205" lon="-0.6518">
        <ele>26</ele>
        <time>2014-02-16T10:46:41+00:00</time>
      </trkpt>
      <trkpt lat="47.32049" lon="-0.65188">
        <ele>25</ele>
        <time>2014-02-16T10:46:42+00:00</time>
      </trkpt>
      <trkpt lat="47.32051" lon="-0.65196">
        <ele>24</ele>
        <time>2014-02-16T10:46:43+00:00</time>
      </trkpt>
      <trkpt lat="47.32052" lon="-0.65202">
        <ele>23</ele>
        <time>2014-02-16T10:46:44+00:00</time>
      </trkpt>
      <trkpt lat="47.32055" lon="-0.65204">
        <ele>23</ele>
        <time>2014-02-16T10:46:45+00:00</time>
      </trkpt>
      <trkpt lat="47.32087" lon="-0.65243">
        <ele>28</ele>
        <time>2014-02-16T10:46:57+00:00</time>
      </trkpt>
      <trkpt lat="47.3209" lon="-0.65247">
        <ele>27</ele>
        <time>2014-02-16T10:46:58+00:00</time>
      </trkpt>
      <trkpt lat="47.32377" lon="-0.65644">
        <ele>26</ele>
        <time>2014-02-16T10:48:26+00:00</time>
      </trkpt>
      <trkpt lat="47.3238" lon="-0.6565">
        <ele>26</ele>
        <time>2014-02-16T10:48:27+00:00</time>
      </trkpt>
      <trkpt lat="47.324" lon="-0.65693">
        <ele>28</ele>
        <time>2014-02-16T10:48:35+00:00</time>
      </trkpt>
      <trkpt lat="47.32402" lon="-0.65699">
        <ele>30</ele>
        <time>2014-02-16T10:48:36+00:00</time>
      </trkpt>
      <trkpt lat="47.32412" lon="-0.65729">
        <ele>30</ele>
        <time>2014-02-16T10:48:41+00:00</time>
      </trkpt>
      <trkpt lat="47.32415" lon="-0.65736">
        <ele>29</ele>
        <time>2014-02-16T10:48:42+00:00</time>
      </trkpt>
      <trkpt lat="47.32431" lon="-0.658">
        <ele>26</ele>
        <time>2014-02-16T10:48:51+00:00</time>
      </trkpt>
      <trkpt lat="47.32432" lon="-0.65806">
        <ele>25</ele>
        <time>2014-02-16T10:48:52+00:00</time>
      </trkpt>
      <trkpt lat="47.32439" lon="-0.65846">
        <ele>24</ele>
        <time>2014-02-16T10:48:58+00:00</time>
      </trkpt>
      <trkpt lat="47.32439" lon="-0.65852">
        <ele>23</ele>
        <time>2014-02-16T10:48:59+00:00</time>
      </trkpt>
      <trkpt lat="47.32443" lon="-0.65906">
        <ele>27</ele>
        <time>2014-02-16T10:49:08+00:00</time>
      </trkpt>
      <trkpt lat="47.32443" lon="-0.65912">
        <ele>27</ele>
        <time>2014-02-16T10:49:09+00:00</time>
      </trkpt>
      <trkpt lat="47.3245" lon="-0.66248">
        <ele>23</ele>
        <time>2014-02-16T10:50:00+00:00</time>
      </trkpt>
      <trkpt lat="47.32452" lon="-0.66254">
        <ele>23</ele>
        <time>2014-02-16T10:50:01+00:00</time>
      </trkpt>
      <trkpt lat="47.32458" lon="-0.66273">
        <ele>22</ele>
        <time>2014-02-16T10:50:04+00:00</time>
      </trkpt>
      <trkpt lat="47.3246" lon="-0.6628">
        <ele>21</ele>
        <time>2014-02-16T10:50:05+00:00</time>
      </trkpt>
      <trkpt lat="47.325" lon="-0.66374">
        <ele>22</ele>
        <time>2014-02-16T10:50:21+00:00</time>
      </trkpt>
      <trkpt lat="47.32501" lon="-0.66379">
        <ele>21</ele>
        <time>2014-02-16T10:50:22+00:00</time>
      </trkpt>
      <trkpt lat="47.32503" lon="-0.66384">
        <ele>20</ele>
        <time>2014-02-16T10:50:23+00:00</time>
      </trkpt>
      <trkpt lat="47.32505" lon="-0.66387">
        <ele>21</ele>
        <time>2014-02-16T10:50:24+00:00</time>
      </trkpt>
      <trkpt lat="47.32508" lon="-0.66388">
        <ele>21</ele>
        <time>2014-02-16T10:50:25+00:00</time>
      </trkpt>
      <trkpt lat="47.3251" lon="-0.66389">
        <ele>22</ele>
        <time>2014-02-16T10:50:28+00:00</time>
      </trkpt>
      <trkpt lat="47.32512" lon="-0.6639">
        <ele>23</ele>
        <time>2014-02-16T10:50:29+00:00</time>
      </trkpt>
      <trkpt lat="47.32513" lon="-0.66391">
        <ele>24</ele>
        <time>2014-02-16T10:50:30+00:00</time>
      </trkpt>
      <trkpt lat="47.32515" lon="-0.66393">
        <ele>25</ele>
        <time>2014-02-16T10:50:32+00:00</time>
      </trkpt>
      <trkpt lat="47.32516" lon="-0.66394">
        <ele>25</ele>
        <time>2014-02-16T10:50:33+00:00</time>
      </trkpt>
      <trkpt lat="47.32516" lon="-0.66397">
        <ele>24</ele>
        <time>2014-02-16T10:50:34+00:00</time>
      </trkpt>
      <trkpt lat="47.32518" lon="-0.66404">
        <ele>23</ele>
        <time>2014-02-16T10:50:36+00:00</time>
      </trkpt>
      <trkpt lat="47.32521" lon="-0.66407">
        <ele>23</ele>
        <time>2014-02-16T10:50:37+00:00</time>
      </trkpt>
      <trkpt lat="47.32523" lon="-0.66408">
        <ele>23</ele>
        <time>2014-02-16T10:50:38+00:00</time>
      </trkpt>
      <trkpt lat="47.32525" lon="-0.66408">
        <ele>22</ele>
        <time>2014-02-16T10:50:39+00:00</time>
      </trkpt>
      <trkpt lat="47.32528" lon="-0.66407">
        <ele>22</ele>
        <time>2014-02-16T10:50:40+00:00</time>
      </trkpt>
      <trkpt lat="47.3253" lon="-0.66406">
        <ele>22</ele>
        <time>2014-02-16T10:50:41+00:00</time>
      </trkpt>
      <trkpt lat="47.32532" lon="-0.66405">
        <ele>22</ele>
        <time>2014-02-16T10:50:42+00:00</time>
      </trkpt>
      <trkpt lat="47.32538" lon="-0.66403">
        <ele>21</ele>
        <time>2014-02-16T10:50:44+00:00</time>
      </trkpt>
      <trkpt lat="47.3254" lon="-0.66401">
        <ele>21</ele>
        <time>2014-02-16T10:50:45+00:00</time>
      </trkpt>
      <trkpt lat="47.32553" lon="-0.66392">
        <ele>21</ele>
        <time>2014-02-16T10:50:49+00:00</time>
      </trkpt>
      <trkpt lat="47.32556" lon="-0.6639">
        <ele>21</ele>
        <time>2014-02-16T10:50:50+00:00</time>
      </trkpt>
      <trkpt lat="47.32595" lon="-0.66362">
        <ele>23</ele>
        <time>2014-02-16T10:51:02+00:00</time>
      </trkpt>
      <trkpt lat="47.32597" lon="-0.66359">
        <ele>23</ele>
        <time>2014-02-16T10:51:03+00:00</time>
      </trkpt>
      <trkpt lat="47.3263" lon="-0.66328">
        <ele>23</ele>
        <time>2014-02-16T10:51:14+00:00</time>
      </trkpt>
      <trkpt lat="47.32633" lon="-0.66325">
        <ele>23</ele>
        <time>2014-02-16T10:51:15+00:00</time>
      </trkpt>
      <trkpt lat="47.32647" lon="-0.66318">
        <ele>22</ele>
        <time>2014-02-16T10:51:19+00:00</time>
      </trkpt>
      <trkpt lat="47.32651" lon="-0.66317">
        <ele>23</ele>
        <time>2014-02-16T10:51:20+00:00</time>
      </trkpt>
      <trkpt lat="47.32673" lon="-0.66306">
        <ele>24</ele>
        <time>2014-02-16T10:51:26+00:00</time>
      </trkpt>
      <trkpt lat="47.32676" lon="-0.66303">
        <ele>23</ele>
        <time>2014-02-16T10:51:27+00:00</time>
      </trkpt>
      <trkpt lat="47.32691" lon="-0.6629">
        <ele>23</ele>
        <time>2014-02-16T10:51:31+00:00</time>
      </trkpt>
      <trkpt lat="47.32694" lon="-0.66287">
        <ele>23</ele>
        <time>2014-02-16T10:51:32+00:00</time>
      </trkpt>
      <trkpt lat="47.32726" lon="-0.66255">
        <ele>24</ele>
        <time>2014-02-16T10:51:42+00:00</time>
      </trkpt>
      <trkpt lat="47.32729" lon="-0.66254">
        <ele>24</ele>
        <time>2014-02-16T10:51:43+00:00</time>
      </trkpt>
      <trkpt lat="47.32732" lon="-0.66254">
        <ele>25</ele>
        <time>2014-02-16T10:51:44+00:00</time>
      </trkpt>
      <trkpt lat="47.32734" lon="-0.66257">
        <ele>24</ele>
        <time>2014-02-16T10:51:45+00:00</time>
      </trkpt>
      <trkpt lat="47.32737" lon="-0.6626">
        <ele>25</ele>
        <time>2014-02-16T10:51:46+00:00</time>
      </trkpt>
      <trkpt lat="47.32738" lon="-0.66265">
        <ele>24</ele>
        <time>2014-02-16T10:51:47+00:00</time>
      </trkpt>
      <trkpt lat="47.32757" lon="-0.6634">
        <ele>26</ele>
        <time>2014-02-16T10:52:00+00:00</time>
      </trkpt>
      <trkpt lat="47.3276" lon="-0.66347">
        <ele>28</ele>
        <time>2014-02-16T10:52:01+00:00</time>
      </trkpt>
      <trkpt lat="47.32763" lon="-0.66353">
        <ele>27</ele>
        <time>2014-02-16T10:52:02+00:00</time>
      </trkpt>
      <trkpt lat="47.32766" lon="-0.66357">
        <ele>27</ele>
        <time>2014-02-16T10:52:03+00:00</time>
      </trkpt>
      <trkpt lat="47.3277" lon="-0.66361">
        <ele>27</ele>
        <time>2014-02-16T10:52:04+00:00</time>
      </trkpt>
      <trkpt lat="47.32774" lon="-0.66364">
        <ele>27</ele>
        <time>2014-02-16T10:52:05+00:00</time>
      </trkpt>
      <trkpt lat="47.32807" lon="-0.66381">
        <ele>28</ele>
        <time>2014-02-16T10:52:12+00:00</time>
      </trkpt>
      <trkpt lat="47.32812" lon="-0.66385">
        <ele>27</ele>
        <time>2014-02-16T10:52:13+00:00</time>
      </trkpt>
      <trkpt lat="47.32817" lon="-0.66389">
        <ele>27</ele>
        <time>2014-02-16T10:52:14+00:00</time>
      </trkpt>
      <trkpt lat="47.32821" lon="-0.66395">
        <ele>27</ele>
        <time>2014-02-16T10:52:15+00:00</time>
      </trkpt>
      <trkpt lat="47.32825" lon="-0.664">
        <ele>26</ele>
        <time>2014-02-16T10:52:16+00:00</time>
      </trkpt>
      <trkpt lat="47.32828" lon="-0.66406">
        <ele>26</ele>
        <time>2014-02-16T10:52:17+00:00</time>
      </trkpt>
      <trkpt lat="47.32831" lon="-0.66412">
        <ele>26</ele>
        <time>2014-02-16T10:52:18+00:00</time>
      </trkpt>
      <trkpt lat="47.32834" lon="-0.6642">
        <ele>26</ele>
        <time>2014-02-16T10:52:19+00:00</time>
      </trkpt>
      <trkpt lat="47.32836" lon="-0.66426">
        <ele>26</ele>
        <time>2014-02-16T10:52:20+00:00</time>
      </trkpt>
      <trkpt lat="47.32856" lon="-0.66492">
        <ele>29</ele>
        <time>2014-02-16T10:52:32+00:00</time>
      </trkpt>
      <trkpt lat="47.32857" lon="-0.66498">
        <ele>29</ele>
        <time>2014-02-16T10:52:33+00:00</time>
      </trkpt>
      <trkpt lat="47.32868" lon="-0.66548">
        <ele>30</ele>
        <time>2014-02-16T10:52:43+00:00</time>
      </trkpt>
      <trkpt lat="47.32868" lon="-0.66549">
        <ele>29</ele>
        <time>2014-02-16T10:52:44+00:00</time>
      </trkpt>
      <trkpt lat="47.32868" lon="-0.66551">
        <ele>29</ele>
        <time>2014-02-16T10:52:45+00:00</time>
      </trkpt>
      <trkpt lat="47.32868" lon="-0.66553">
        <ele>29</ele>
        <time>2014-02-16T10:52:46+00:00</time>
      </trkpt>
      <trkpt lat="47.32868" lon="-0.66555">
        <ele>28</ele>
        <time>2014-02-16T10:52:47+00:00</time>
      </trkpt>
      <trkpt lat="47.32867" lon="-0.66556">
        <ele>26</ele>
        <time>2014-02-16T10:52:48+00:00</time>
      </trkpt>
      <trkpt lat="47.32867" lon="-0.66557">
        <ele>26</ele>
        <time>2014-02-16T10:52:49+00:00</time>
      </trkpt>
      <trkpt lat="47.32866" lon="-0.66559">
        <ele>25</ele>
        <time>2014-02-16T10:52:50+00:00</time>
      </trkpt>
      <trkpt lat="47.32865" lon="-0.66562">
        <ele>24</ele>
        <time>2014-02-16T10:52:51+00:00</time>
      </trkpt>
      <trkpt lat="47.32865" lon="-0.66565">
        <ele>23</ele>
        <time>2014-02-16T10:52:52+00:00</time>
      </trkpt>
      <trkpt lat="47.32863" lon="-0.66572">
        <ele>24</ele>
        <time>2014-02-16T10:52:54+00:00</time>
      </trkpt>
      <trkpt lat="47.32861" lon="-0.66575">
        <ele>24</ele>
        <time>2014-02-16T10:52:55+00:00</time>
      </trkpt>
      <trkpt lat="47.3286" lon="-0.66579">
        <ele>24</ele>
        <time>2014-02-16T10:52:56+00:00</time>
      </trkpt>
      <trkpt lat="47.32859" lon="-0.66582">
        <ele>23</ele>
        <time>2014-02-16T10:52:57+00:00</time>
      </trkpt>
      <trkpt lat="47.32857" lon="-0.66586">
        <ele>23</ele>
        <time>2014-02-16T10:52:58+00:00</time>
      </trkpt>
      <trkpt lat="47.32854" lon="-0.66594">
        <ele>27</ele>
        <time>2014-02-16T10:53:01+00:00</time>
      </trkpt>
      <trkpt lat="47.32853" lon="-0.66595">
        <ele>26</ele>
        <time>2014-02-16T10:53:02+00:00</time>
      </trkpt>
      <trkpt lat="47.32853" lon="-0.66596">
        <ele>26</ele>
        <time>2014-02-16T10:53:03+00:00</time>
      </trkpt>
      <trkpt lat="47.32853" lon="-0.66596">
        <ele>27</ele>
        <time>2014-02-16T10:53:04+00:00</time>
      </trkpt>
      <trkpt lat="47.32852" lon="-0.66596">
        <ele>28</ele>
        <time>2014-02-16T10:53:05+00:00</time>
      </trkpt>
      <trkpt lat="47.32853" lon="-0.66597">
        <ele>29</ele>
        <time>2014-02-16T10:53:06+00:00</time>
      </trkpt>
      <trkpt lat="47.32864" lon="-0.66575">
        <ele>29</ele>
        <time>2014-02-16T11:02:54+00:00</time>
      </trkpt>
      <trkpt lat="47.32865" lon="-0.66574">
        <ele>28</ele>
        <time>2014-02-16T11:02:55+00:00</time>
      </trkpt>
      <trkpt lat="47.32866" lon="-0.66572">
        <ele>27</ele>
        <time>2014-02-16T11:02:56+00:00</time>
      </trkpt>
      <trkpt lat="47.32867" lon="-0.66572">
        <ele>26</ele>
        <time>2014-02-16T11:02:57+00:00</time>
      </trkpt>
      <trkpt lat="47.32867" lon="-0.66571">
        <ele>25</ele>
        <time>2014-02-16T11:02:58+00:00</time>
      </trkpt>
      <trkpt lat="47.32868" lon="-0.6657">
        <ele>25</ele>
        <time>2014-02-16T11:02:59+00:00</time>
      </trkpt>
      <trkpt lat="47.32868" lon="-0.66569">
        <ele>26</ele>
        <time>2014-02-16T11:03:00+00:00</time>
      </trkpt>
      <trkpt lat="47.32869" lon="-0.66568">
        <ele>25</ele>
        <time>2014-02-16T11:03:01+00:00</time>
      </trkpt>
      <trkpt lat="47.3287" lon="-0.66567">
        <ele>25</ele>
        <time>2014-02-16T11:03:02+00:00</time>
      </trkpt>
      <trkpt lat="47.32871" lon="-0.66566">
        <ele>25</ele>
        <time>2014-02-16T11:03:03+00:00</time>
      </trkpt>
      <trkpt lat="47.32872" lon="-0.66565">
        <ele>24</ele>
        <time>2014-02-16T11:03:04+00:00</time>
      </trkpt>
      <trkpt lat="47.32876" lon="-0.66561">
        <ele>27</ele>
        <time>2014-02-16T11:03:08+00:00</time>
      </trkpt>
      <trkpt lat="47.32876" lon="-0.6656">
        <ele>26</ele>
        <time>2014-02-16T11:03:09+00:00</time>
      </trkpt>
      <trkpt lat="47.32877" lon="-0.66559">
        <ele>26</ele>
        <time>2014-02-16T11:03:10+00:00</time>
      </trkpt>
      <trkpt lat="47.32879" lon="-0.66558">
        <ele>27</ele>
        <time>2014-02-16T11:03:11+00:00</time>
      </trkpt>
      <trkpt lat="47.3288" lon="-0.66558">
        <ele>27</ele>
        <time>2014-02-16T11:03:12+00:00</time>
      </trkpt>
      <trkpt lat="47.3288" lon="-0.66557">
        <ele>27</ele>
        <time>2014-02-16T11:03:13+00:00</time>
      </trkpt>
      <trkpt lat="47.32881" lon="-0.66557">
        <ele>26</ele>
        <time>2014-02-16T11:03:14+00:00</time>
      </trkpt>
      <trkpt lat="47.3288" lon="-0.66569">
        <ele>29</ele>
        <time>2014-02-16T11:13:30+00:00</time>
      </trkpt>
    </trkseg>
  </trk>
</gpx>